<?xml version="1.0" encoding="UTF-8" standalone="no" ?>
<gpx xmlns="http://www.topografix.com/GPX/1/1" xmlns:xsi="http://www.w3.org/2001/XMLSchema-instance" xsi:schemaLocation="http://www.topografix.com/GPX/1/1 http://www.topografix.com/GPX/1/1/gpx.xsd" version="1.1" creator="VisuGPX - https://www.visugpx.com">
  <metadata>
    <name>BSM Montsec</name>
    <desc><![CDATA[Sortie du matin vers le Fuji Yama meusien, en longeant la Riviera de la Madine]]></desc>
  </metadata>
  <trk>
    <name><![CDATA[BSM Montsec_1]]></name>
    <trkseg>
      <trkpt lat="49.12225" lon="6.15201">
        <ele>136.64465332031</ele>
        <time>2012-07-25T05:51:02Z</time>
      </trkpt>
      <trkpt lat="49.12225" lon="6.15201">
        <ele>136.64465332031</ele>
        <time>2012-07-25T05:51:03Z</time>
      </trkpt>
      <trkpt lat="49.12226" lon="6.15201">
        <ele>128.9541015625</ele>
        <time>2012-07-25T05:51:04Z</time>
      </trkpt>
      <trkpt lat="49.12224" lon="6.152">
        <ele>151.06420898438</ele>
        <time>2012-07-25T06:07:33Z</time>
      </trkpt>
      <trkpt lat="49.12224" lon="6.152">
        <ele>151.544921875</ele>
        <time>2012-07-25T06:07:34Z</time>
      </trkpt>
      <trkpt lat="49.12224" lon="6.15199">
        <ele>151.544921875</ele>
        <time>2012-07-25T06:07:35Z</time>
      </trkpt>
      <trkpt lat="49.12224" lon="6.15197">
        <ele>150.58361816406</ele>
        <time>2012-07-25T06:08:28Z</time>
      </trkpt>
      <trkpt lat="49.12223" lon="6.15197">
        <ele>150.58361816406</ele>
        <time>2012-07-25T06:08:29Z</time>
      </trkpt>
      <trkpt lat="49.12221" lon="6.15194">
        <ele>151.06420898438</ele>
        <time>2012-07-25T06:09:14Z</time>
      </trkpt>
      <trkpt lat="49.12218" lon="6.15192">
        <ele>150.58361816406</ele>
        <time>2012-07-25T06:09:16Z</time>
      </trkpt>
      <trkpt lat="49.12208" lon="6.15186">
        <ele>151.06420898438</ele>
        <time>2012-07-25T06:09:23Z</time>
      </trkpt>
      <trkpt lat="49.12201" lon="6.15186">
        <ele>151.06420898438</ele>
        <time>2012-07-25T06:09:27Z</time>
      </trkpt>
      <trkpt lat="49.12194" lon="6.15174">
        <ele>151.544921875</ele>
        <time>2012-07-25T06:09:31Z</time>
      </trkpt>
      <trkpt lat="49.12183" lon="6.15135">
        <ele>151.06420898438</ele>
        <time>2012-07-25T06:09:38Z</time>
      </trkpt>
      <trkpt lat="49.12166" lon="6.15082">
        <ele>151.06420898438</ele>
        <time>2012-07-25T06:09:46Z</time>
      </trkpt>
      <trkpt lat="49.12152" lon="6.15042">
        <ele>151.06420898438</ele>
        <time>2012-07-25T06:09:52Z</time>
      </trkpt>
      <trkpt lat="49.12135" lon="6.14988">
        <ele>151.06420898438</ele>
        <time>2012-07-25T06:09:59Z</time>
      </trkpt>
      <trkpt lat="49.12119" lon="6.14941">
        <ele>152.02575683594</ele>
        <time>2012-07-25T06:10:05Z</time>
      </trkpt>
      <trkpt lat="49.12103" lon="6.14886">
        <ele>152.02575683594</ele>
        <time>2012-07-25T06:10:12Z</time>
      </trkpt>
      <trkpt lat="49.12085" lon="6.14828">
        <ele>152.98693847656</ele>
        <time>2012-07-25T06:10:19Z</time>
      </trkpt>
      <trkpt lat="49.12068" lon="6.14772">
        <ele>152.50634765625</ele>
        <time>2012-07-25T06:10:26Z</time>
      </trkpt>
      <trkpt lat="49.12046" lon="6.14704">
        <ele>152.50634765625</ele>
        <time>2012-07-25T06:10:34Z</time>
      </trkpt>
      <trkpt lat="49.12022" lon="6.14627">
        <ele>152.50634765625</ele>
        <time>2012-07-25T06:10:43Z</time>
      </trkpt>
      <trkpt lat="49.11999" lon="6.14554">
        <ele>153.94836425781</ele>
        <time>2012-07-25T06:10:51Z</time>
      </trkpt>
      <trkpt lat="49.11977" lon="6.145">
        <ele>154.90954589844</ele>
        <time>2012-07-25T06:10:57Z</time>
      </trkpt>
      <trkpt lat="49.11953" lon="6.1445">
        <ele>154.90954589844</ele>
        <time>2012-07-25T06:11:03Z</time>
      </trkpt>
      <trkpt lat="49.11927" lon="6.14404">
        <ele>155.87097167969</ele>
        <time>2012-07-25T06:11:09Z</time>
      </trkpt>
      <trkpt lat="49.11885" lon="6.14349">
        <ele>155.39025878906</ele>
        <time>2012-07-25T06:11:17Z</time>
      </trkpt>
      <trkpt lat="49.11874" lon="6.14336">
        <ele>153.94836425781</ele>
        <time>2012-07-25T06:11:19Z</time>
      </trkpt>
      <trkpt lat="49.11827" lon="6.14287">
        <ele>153.94836425781</ele>
        <time>2012-07-25T06:11:27Z</time>
      </trkpt>
      <trkpt lat="49.11785" lon="6.14246">
        <ele>153.94836425781</ele>
        <time>2012-07-25T06:11:34Z</time>
      </trkpt>
      <trkpt lat="49.11739" lon="6.14204">
        <ele>154.90954589844</ele>
        <time>2012-07-25T06:11:41Z</time>
      </trkpt>
      <trkpt lat="49.11682" lon="6.14152">
        <ele>155.87097167969</ele>
        <time>2012-07-25T06:11:50Z</time>
      </trkpt>
      <trkpt lat="49.11645" lon="6.14119">
        <ele>156.3515625</ele>
        <time>2012-07-25T06:11:56Z</time>
      </trkpt>
      <trkpt lat="49.11619" lon="6.14101">
        <ele>154.42895507812</ele>
        <time>2012-07-25T06:12:00Z</time>
      </trkpt>
      <trkpt lat="49.11559" lon="6.14066">
        <ele>154.90954589844</ele>
        <time>2012-07-25T06:12:09Z</time>
      </trkpt>
      <trkpt lat="49.11504" lon="6.14035">
        <ele>154.42895507812</ele>
        <time>2012-07-25T06:12:17Z</time>
      </trkpt>
      <trkpt lat="49.11479" lon="6.14017">
        <ele>154.90954589844</ele>
        <time>2012-07-25T06:12:21Z</time>
      </trkpt>
      <trkpt lat="49.11444" lon="6.13966">
        <ele>154.90954589844</ele>
        <time>2012-07-25T06:12:28Z</time>
      </trkpt>
      <trkpt lat="49.11417" lon="6.13918">
        <ele>153.94836425781</ele>
        <time>2012-07-25T06:12:34Z</time>
      </trkpt>
      <trkpt lat="49.11397" lon="6.13862">
        <ele>154.42895507812</ele>
        <time>2012-07-25T06:12:41Z</time>
      </trkpt>
      <trkpt lat="49.11385" lon="6.13827">
        <ele>153.94836425781</ele>
        <time>2012-07-25T06:12:47Z</time>
      </trkpt>
      <trkpt lat="49.11376" lon="6.13801">
        <ele>153.94836425781</ele>
        <time>2012-07-25T06:12:53Z</time>
      </trkpt>
      <trkpt lat="49.11373" lon="6.13791">
        <ele>153.94836425781</ele>
        <time>2012-07-25T06:12:58Z</time>
      </trkpt>
      <trkpt lat="49.1137" lon="6.13786">
        <ele>153.94836425781</ele>
        <time>2012-07-25T06:13:03Z</time>
      </trkpt>
      <trkpt lat="49.11363" lon="6.13766">
        <ele>154.90954589844</ele>
        <time>2012-07-25T06:13:09Z</time>
      </trkpt>
      <trkpt lat="49.11351" lon="6.13736">
        <ele>155.39025878906</ele>
        <time>2012-07-25T06:13:14Z</time>
      </trkpt>
      <trkpt lat="49.11331" lon="6.13676">
        <ele>154.90954589844</ele>
        <time>2012-07-25T06:13:22Z</time>
      </trkpt>
      <trkpt lat="49.11307" lon="6.13612">
        <ele>155.39025878906</ele>
        <time>2012-07-25T06:13:30Z</time>
      </trkpt>
      <trkpt lat="49.11283" lon="6.13546">
        <ele>155.87097167969</ele>
        <time>2012-07-25T06:13:39Z</time>
      </trkpt>
      <trkpt lat="49.11264" lon="6.13493">
        <ele>155.39025878906</ele>
        <time>2012-07-25T06:13:47Z</time>
      </trkpt>
      <trkpt lat="49.11255" lon="6.13465">
        <ele>154.90954589844</ele>
        <time>2012-07-25T06:13:53Z</time>
      </trkpt>
      <trkpt lat="49.11245" lon="6.13434">
        <ele>155.87097167969</ele>
        <time>2012-07-25T06:13:58Z</time>
      </trkpt>
      <trkpt lat="49.11225" lon="6.13374">
        <ele>156.83215332031</ele>
        <time>2012-07-25T06:14:06Z</time>
      </trkpt>
      <trkpt lat="49.11209" lon="6.13324">
        <ele>157.31286621094</ele>
        <time>2012-07-25T06:14:12Z</time>
      </trkpt>
      <trkpt lat="49.11186" lon="6.13256">
        <ele>155.87097167969</ele>
        <time>2012-07-25T06:14:20Z</time>
      </trkpt>
      <trkpt lat="49.11163" lon="6.13184">
        <ele>156.3515625</ele>
        <time>2012-07-25T06:14:28Z</time>
      </trkpt>
      <trkpt lat="49.11132" lon="6.13107">
        <ele>156.3515625</ele>
        <time>2012-07-25T06:14:37Z</time>
      </trkpt>
      <trkpt lat="49.11105" lon="6.13031">
        <ele>157.31286621094</ele>
        <time>2012-07-25T06:14:46Z</time>
      </trkpt>
      <trkpt lat="49.11077" lon="6.12951">
        <ele>156.83215332031</ele>
        <time>2012-07-25T06:14:55Z</time>
      </trkpt>
      <trkpt lat="49.11053" lon="6.12877">
        <ele>157.31286621094</ele>
        <time>2012-07-25T06:15:03Z</time>
      </trkpt>
      <trkpt lat="49.11032" lon="6.12816">
        <ele>158.27416992188</ele>
        <time>2012-07-25T06:15:10Z</time>
      </trkpt>
      <trkpt lat="49.11011" lon="6.12752">
        <ele>157.79357910156</ele>
        <time>2012-07-25T06:15:17Z</time>
      </trkpt>
      <trkpt lat="49.10984" lon="6.12672">
        <ele>157.79357910156</ele>
        <time>2012-07-25T06:15:26Z</time>
      </trkpt>
      <trkpt lat="49.10958" lon="6.12589">
        <ele>157.79357910156</ele>
        <time>2012-07-25T06:15:35Z</time>
      </trkpt>
      <trkpt lat="49.1094" lon="6.12521">
        <ele>157.79357910156</ele>
        <time>2012-07-25T06:15:42Z</time>
      </trkpt>
      <trkpt lat="49.10921" lon="6.12443">
        <ele>158.27416992188</ele>
        <time>2012-07-25T06:15:50Z</time>
      </trkpt>
      <trkpt lat="49.10902" lon="6.12356">
        <ele>157.31286621094</ele>
        <time>2012-07-25T06:15:59Z</time>
      </trkpt>
      <trkpt lat="49.10884" lon="6.12278">
        <ele>157.79357910156</ele>
        <time>2012-07-25T06:16:07Z</time>
      </trkpt>
      <trkpt lat="49.10868" lon="6.1221">
        <ele>158.27416992188</ele>
        <time>2012-07-25T06:16:14Z</time>
      </trkpt>
      <trkpt lat="49.10849" lon="6.12117">
        <ele>159.23547363281</ele>
        <time>2012-07-25T06:16:23Z</time>
      </trkpt>
      <trkpt lat="49.10831" lon="6.12025">
        <ele>157.79357910156</ele>
        <time>2012-07-25T06:16:32Z</time>
      </trkpt>
      <trkpt lat="49.1081" lon="6.11926">
        <ele>157.79357910156</ele>
        <time>2012-07-25T06:16:42Z</time>
      </trkpt>
      <trkpt lat="49.10792" lon="6.11836">
        <ele>158.27416992188</ele>
        <time>2012-07-25T06:16:51Z</time>
      </trkpt>
      <trkpt lat="49.10773" lon="6.11746">
        <ele>157.79357910156</ele>
        <time>2012-07-25T06:17:00Z</time>
      </trkpt>
      <trkpt lat="49.10755" lon="6.11653">
        <ele>157.31286621094</ele>
        <time>2012-07-25T06:17:09Z</time>
      </trkpt>
      <trkpt lat="49.10743" lon="6.11597">
        <ele>156.83215332031</ele>
        <time>2012-07-25T06:17:15Z</time>
      </trkpt>
      <trkpt lat="49.10731" lon="6.11543">
        <ele>157.31286621094</ele>
        <time>2012-07-25T06:17:22Z</time>
      </trkpt>
      <trkpt lat="49.10718" lon="6.11479">
        <ele>157.79357910156</ele>
        <time>2012-07-25T06:17:29Z</time>
      </trkpt>
      <trkpt lat="49.10702" lon="6.11402">
        <ele>156.83215332031</ele>
        <time>2012-07-25T06:17:38Z</time>
      </trkpt>
      <trkpt lat="49.10688" lon="6.11338">
        <ele>156.83215332031</ele>
        <time>2012-07-25T06:17:46Z</time>
      </trkpt>
      <trkpt lat="49.10676" lon="6.11274">
        <ele>157.79357910156</ele>
        <time>2012-07-25T06:17:54Z</time>
      </trkpt>
      <trkpt lat="49.1066" lon="6.11199">
        <ele>158.75476074219</ele>
        <time>2012-07-25T06:18:03Z</time>
      </trkpt>
      <trkpt lat="49.1065" lon="6.11151">
        <ele>158.27416992188</ele>
        <time>2012-07-25T06:18:10Z</time>
      </trkpt>
      <trkpt lat="49.10642" lon="6.11101">
        <ele>157.31286621094</ele>
        <time>2012-07-25T06:18:18Z</time>
      </trkpt>
      <trkpt lat="49.1064" lon="6.11084">
        <ele>157.79357910156</ele>
        <time>2012-07-25T06:18:23Z</time>
      </trkpt>
      <trkpt lat="49.10639" lon="6.11083">
        <ele>157.79357910156</ele>
        <time>2012-07-25T06:18:24Z</time>
      </trkpt>
      <trkpt lat="49.10638" lon="6.11082">
        <ele>158.75476074219</ele>
        <time>2012-07-25T06:19:02Z</time>
      </trkpt>
      <trkpt lat="49.10638" lon="6.1108">
        <ele>159.23547363281</ele>
        <time>2012-07-25T06:19:03Z</time>
      </trkpt>
      <trkpt lat="49.10636" lon="6.11062">
        <ele>159.23547363281</ele>
        <time>2012-07-25T06:19:07Z</time>
      </trkpt>
      <trkpt lat="49.10633" lon="6.11052">
        <ele>159.71618652344</ele>
        <time>2012-07-25T06:19:09Z</time>
      </trkpt>
      <trkpt lat="49.10615" lon="6.11042">
        <ele>159.71618652344</ele>
        <time>2012-07-25T06:19:13Z</time>
      </trkpt>
      <trkpt lat="49.10609" lon="6.11043">
        <ele>159.71618652344</ele>
        <time>2012-07-25T06:19:14Z</time>
      </trkpt>
      <trkpt lat="49.10552" lon="6.11052">
        <ele>159.71618652344</ele>
        <time>2012-07-25T06:19:23Z</time>
      </trkpt>
      <trkpt lat="49.10506" lon="6.11062">
        <ele>158.75476074219</ele>
        <time>2012-07-25T06:19:30Z</time>
      </trkpt>
      <trkpt lat="49.10461" lon="6.11072">
        <ele>158.27416992188</ele>
        <time>2012-07-25T06:19:37Z</time>
      </trkpt>
      <trkpt lat="49.10409" lon="6.1108">
        <ele>158.75476074219</ele>
        <time>2012-07-25T06:19:45Z</time>
      </trkpt>
      <trkpt lat="49.10372" lon="6.11074">
        <ele>160.67749023438</ele>
        <time>2012-07-25T06:19:51Z</time>
      </trkpt>
      <trkpt lat="49.10366" lon="6.11071">
        <ele>160.67749023438</ele>
        <time>2012-07-25T06:19:52Z</time>
      </trkpt>
      <trkpt lat="49.10345" lon="6.11049">
        <ele>160.19689941406</ele>
        <time>2012-07-25T06:19:56Z</time>
      </trkpt>
      <trkpt lat="49.1034" lon="6.11031">
        <ele>160.19689941406</ele>
        <time>2012-07-25T06:19:58Z</time>
      </trkpt>
      <trkpt lat="49.10336" lon="6.11014">
        <ele>160.67749023438</ele>
        <time>2012-07-25T06:20:00Z</time>
      </trkpt>
      <trkpt lat="49.1033" lon="6.10998">
        <ele>160.19689941406</ele>
        <time>2012-07-25T06:20:02Z</time>
      </trkpt>
      <trkpt lat="49.10326" lon="6.1096">
        <ele>160.19689941406</ele>
        <time>2012-07-25T06:20:07Z</time>
      </trkpt>
      <trkpt lat="49.10329" lon="6.10954">
        <ele>160.19689941406</ele>
        <time>2012-07-25T06:20:08Z</time>
      </trkpt>
      <trkpt lat="49.10334" lon="6.10921">
        <ele>160.19689941406</ele>
        <time>2012-07-25T06:20:13Z</time>
      </trkpt>
      <trkpt lat="49.10324" lon="6.10905">
        <ele>160.19689941406</ele>
        <time>2012-07-25T06:20:16Z</time>
      </trkpt>
      <trkpt lat="49.10305" lon="6.10906">
        <ele>160.19689941406</ele>
        <time>2012-07-25T06:20:19Z</time>
      </trkpt>
      <trkpt lat="49.1026" lon="6.10914">
        <ele>160.67749023438</ele>
        <time>2012-07-25T06:20:26Z</time>
      </trkpt>
      <trkpt lat="49.10228" lon="6.10902">
        <ele>160.67749023438</ele>
        <time>2012-07-25T06:20:31Z</time>
      </trkpt>
      <trkpt lat="49.10216" lon="6.10892">
        <ele>160.67749023438</ele>
        <time>2012-07-25T06:20:33Z</time>
      </trkpt>
      <trkpt lat="49.10162" lon="6.10839">
        <ele>161.158203125</ele>
        <time>2012-07-25T06:20:42Z</time>
      </trkpt>
      <trkpt lat="49.10129" lon="6.10808">
        <ele>160.67749023438</ele>
        <time>2012-07-25T06:20:48Z</time>
      </trkpt>
      <trkpt lat="49.10109" lon="6.10789">
        <ele>159.71618652344</ele>
        <time>2012-07-25T06:20:53Z</time>
      </trkpt>
      <trkpt lat="49.10096" lon="6.10773">
        <ele>159.23547363281</ele>
        <time>2012-07-25T06:20:58Z</time>
      </trkpt>
      <trkpt lat="49.1007" lon="6.10748">
        <ele>159.23547363281</ele>
        <time>2012-07-25T06:21:05Z</time>
      </trkpt>
      <trkpt lat="49.10044" lon="6.10723">
        <ele>159.71618652344</ele>
        <time>2012-07-25T06:21:11Z</time>
      </trkpt>
      <trkpt lat="49.10008" lon="6.1069">
        <ele>160.19689941406</ele>
        <time>2012-07-25T06:21:17Z</time>
      </trkpt>
      <trkpt lat="49.0995" lon="6.10632">
        <ele>160.19689941406</ele>
        <time>2012-07-25T06:21:26Z</time>
      </trkpt>
      <trkpt lat="49.09905" lon="6.10579">
        <ele>160.19689941406</ele>
        <time>2012-07-25T06:21:33Z</time>
      </trkpt>
      <trkpt lat="49.09861" lon="6.1051">
        <ele>160.19689941406</ele>
        <time>2012-07-25T06:21:41Z</time>
      </trkpt>
      <trkpt lat="49.09829" lon="6.10445">
        <ele>159.71618652344</ele>
        <time>2012-07-25T06:21:48Z</time>
      </trkpt>
      <trkpt lat="49.09804" lon="6.10381">
        <ele>160.19689941406</ele>
        <time>2012-07-25T06:21:55Z</time>
      </trkpt>
      <trkpt lat="49.09784" lon="6.10312">
        <ele>159.71618652344</ele>
        <time>2012-07-25T06:22:02Z</time>
      </trkpt>
      <trkpt lat="49.09761" lon="6.10234">
        <ele>160.67749023438</ele>
        <time>2012-07-25T06:22:10Z</time>
      </trkpt>
      <trkpt lat="49.09735" lon="6.10143">
        <ele>160.67749023438</ele>
        <time>2012-07-25T06:22:19Z</time>
      </trkpt>
      <trkpt lat="49.09708" lon="6.10062">
        <ele>161.63891601562</ele>
        <time>2012-07-25T06:22:27Z</time>
      </trkpt>
      <trkpt lat="49.09678" lon="6.09999">
        <ele>160.67749023438</ele>
        <time>2012-07-25T06:22:34Z</time>
      </trkpt>
      <trkpt lat="49.09639" lon="6.0993">
        <ele>161.158203125</ele>
        <time>2012-07-25T06:22:42Z</time>
      </trkpt>
      <trkpt lat="49.09598" lon="6.09862">
        <ele>161.63891601562</ele>
        <time>2012-07-25T06:22:50Z</time>
      </trkpt>
      <trkpt lat="49.09552" lon="6.09788">
        <ele>162.11950683594</ele>
        <time>2012-07-25T06:22:59Z</time>
      </trkpt>
      <trkpt lat="49.09518" lon="6.0973">
        <ele>161.63891601562</ele>
        <time>2012-07-25T06:23:06Z</time>
      </trkpt>
      <trkpt lat="49.09473" lon="6.09654">
        <ele>161.158203125</ele>
        <time>2012-07-25T06:23:15Z</time>
      </trkpt>
      <trkpt lat="49.09425" lon="6.09583">
        <ele>161.158203125</ele>
        <time>2012-07-25T06:23:24Z</time>
      </trkpt>
      <trkpt lat="49.09385" lon="6.09538">
        <ele>161.158203125</ele>
        <time>2012-07-25T06:23:31Z</time>
      </trkpt>
      <trkpt lat="49.09341" lon="6.09502">
        <ele>161.158203125</ele>
        <time>2012-07-25T06:23:38Z</time>
      </trkpt>
      <trkpt lat="49.09294" lon="6.09471">
        <ele>161.63891601562</ele>
        <time>2012-07-25T06:23:45Z</time>
      </trkpt>
      <trkpt lat="49.09248" lon="6.09443">
        <ele>162.60009765625</ele>
        <time>2012-07-25T06:23:52Z</time>
      </trkpt>
      <trkpt lat="49.09194" lon="6.0941">
        <ele>161.158203125</ele>
        <time>2012-07-25T06:24:00Z</time>
      </trkpt>
      <trkpt lat="49.09133" lon="6.09367">
        <ele>163.08081054688</ele>
        <time>2012-07-25T06:24:09Z</time>
      </trkpt>
      <trkpt lat="49.09112" lon="6.09353">
        <ele>161.63891601562</ele>
        <time>2012-07-25T06:24:12Z</time>
      </trkpt>
      <trkpt lat="49.09099" lon="6.09343">
        <ele>163.08081054688</ele>
        <time>2012-07-25T06:24:14Z</time>
      </trkpt>
      <trkpt lat="49.09042" lon="6.09294">
        <ele>162.60009765625</ele>
        <time>2012-07-25T06:24:23Z</time>
      </trkpt>
      <trkpt lat="49.09017" lon="6.09272">
        <ele>161.63891601562</ele>
        <time>2012-07-25T06:24:27Z</time>
      </trkpt>
      <trkpt lat="49.08964" lon="6.09229">
        <ele>162.11950683594</ele>
        <time>2012-07-25T06:24:35Z</time>
      </trkpt>
      <trkpt lat="49.08908" lon="6.09185">
        <ele>162.11950683594</ele>
        <time>2012-07-25T06:24:43Z</time>
      </trkpt>
      <trkpt lat="49.08851" lon="6.09143">
        <ele>162.60009765625</ele>
        <time>2012-07-25T06:24:51Z</time>
      </trkpt>
      <trkpt lat="49.08793" lon="6.09099">
        <ele>162.11950683594</ele>
        <time>2012-07-25T06:24:59Z</time>
      </trkpt>
      <trkpt lat="49.0873" lon="6.09048">
        <ele>162.60009765625</ele>
        <time>2012-07-25T06:25:08Z</time>
      </trkpt>
      <trkpt lat="49.08681" lon="6.09005">
        <ele>164.52270507812</ele>
        <time>2012-07-25T06:25:15Z</time>
      </trkpt>
      <trkpt lat="49.08621" lon="6.08949">
        <ele>163.08081054688</ele>
        <time>2012-07-25T06:25:24Z</time>
      </trkpt>
      <trkpt lat="49.0858" lon="6.08911">
        <ele>163.5615234375</ele>
        <time>2012-07-25T06:25:30Z</time>
      </trkpt>
      <trkpt lat="49.08512" lon="6.08847">
        <ele>162.60009765625</ele>
        <time>2012-07-25T06:25:40Z</time>
      </trkpt>
      <trkpt lat="49.08446" lon="6.08785">
        <ele>163.5615234375</ele>
        <time>2012-07-25T06:25:50Z</time>
      </trkpt>
      <trkpt lat="49.08373" lon="6.08718">
        <ele>163.5615234375</ele>
        <time>2012-07-25T06:26:01Z</time>
      </trkpt>
      <trkpt lat="49.0832" lon="6.08668">
        <ele>164.04211425781</ele>
        <time>2012-07-25T06:26:09Z</time>
      </trkpt>
      <trkpt lat="49.08274" lon="6.08625">
        <ele>164.52270507812</ele>
        <time>2012-07-25T06:26:16Z</time>
      </trkpt>
      <trkpt lat="49.0823" lon="6.08583">
        <ele>164.04211425781</ele>
        <time>2012-07-25T06:26:23Z</time>
      </trkpt>
      <trkpt lat="49.0818" lon="6.08535">
        <ele>165.00341796875</ele>
        <time>2012-07-25T06:26:31Z</time>
      </trkpt>
      <trkpt lat="49.0813" lon="6.0849">
        <ele>164.04211425781</ele>
        <time>2012-07-25T06:26:39Z</time>
      </trkpt>
      <trkpt lat="49.08093" lon="6.08456">
        <ele>164.04211425781</ele>
        <time>2012-07-25T06:26:45Z</time>
      </trkpt>
      <trkpt lat="49.08047" lon="6.0841">
        <ele>164.52270507812</ele>
        <time>2012-07-25T06:26:52Z</time>
      </trkpt>
      <trkpt lat="49.07994" lon="6.08359">
        <ele>164.04211425781</ele>
        <time>2012-07-25T06:27:00Z</time>
      </trkpt>
      <trkpt lat="49.0795" lon="6.08314">
        <ele>163.5615234375</ele>
        <time>2012-07-25T06:27:07Z</time>
      </trkpt>
      <trkpt lat="49.07907" lon="6.08269">
        <ele>163.08081054688</ele>
        <time>2012-07-25T06:27:14Z</time>
      </trkpt>
      <trkpt lat="49.07866" lon="6.08221">
        <ele>163.08081054688</ele>
        <time>2012-07-25T06:27:21Z</time>
      </trkpt>
      <trkpt lat="49.07837" lon="6.08184">
        <ele>163.5615234375</ele>
        <time>2012-07-25T06:27:26Z</time>
      </trkpt>
      <trkpt lat="49.07803" lon="6.08135">
        <ele>163.08081054688</ele>
        <time>2012-07-25T06:27:32Z</time>
      </trkpt>
      <trkpt lat="49.0776" lon="6.0807">
        <ele>163.5615234375</ele>
        <time>2012-07-25T06:27:40Z</time>
      </trkpt>
      <trkpt lat="49.07725" lon="6.08006">
        <ele>163.5615234375</ele>
        <time>2012-07-25T06:27:47Z</time>
      </trkpt>
      <trkpt lat="49.07721" lon="6.07996">
        <ele>163.08081054688</ele>
        <time>2012-07-25T06:27:48Z</time>
      </trkpt>
      <trkpt lat="49.07689" lon="6.07899">
        <ele>164.04211425781</ele>
        <time>2012-07-25T06:27:57Z</time>
      </trkpt>
      <trkpt lat="49.07665" lon="6.07828">
        <ele>164.52270507812</ele>
        <time>2012-07-25T06:28:04Z</time>
      </trkpt>
      <trkpt lat="49.0764" lon="6.07769">
        <ele>164.04211425781</ele>
        <time>2012-07-25T06:28:10Z</time>
      </trkpt>
      <trkpt lat="49.07618" lon="6.07722">
        <ele>165.00341796875</ele>
        <time>2012-07-25T06:28:15Z</time>
      </trkpt>
      <trkpt lat="49.07613" lon="6.07714">
        <ele>165.48413085938</ele>
        <time>2012-07-25T06:28:16Z</time>
      </trkpt>
      <trkpt lat="49.07577" lon="6.07641">
        <ele>165.96472167969</ele>
        <time>2012-07-25T06:28:25Z</time>
      </trkpt>
      <trkpt lat="49.07552" lon="6.07591">
        <ele>166.92602539062</ele>
        <time>2012-07-25T06:28:32Z</time>
      </trkpt>
      <trkpt lat="49.07545" lon="6.07577">
        <ele>165.96472167969</ele>
        <time>2012-07-25T06:28:34Z</time>
      </trkpt>
      <trkpt lat="49.07539" lon="6.07551">
        <ele>167.88732910156</ele>
        <time>2012-07-25T06:28:37Z</time>
      </trkpt>
      <trkpt lat="49.07521" lon="6.07526">
        <ele>166.92602539062</ele>
        <time>2012-07-25T06:28:41Z</time>
      </trkpt>
      <trkpt lat="49.07518" lon="6.07521">
        <ele>165.96472167969</ele>
        <time>2012-07-25T06:28:42Z</time>
      </trkpt>
      <trkpt lat="49.07495" lon="6.0749">
        <ele>166.92602539062</ele>
        <time>2012-07-25T06:28:48Z</time>
      </trkpt>
      <trkpt lat="49.07475" lon="6.07465">
        <ele>167.88732910156</ele>
        <time>2012-07-25T06:28:52Z</time>
      </trkpt>
      <trkpt lat="49.07438" lon="6.07428">
        <ele>166.92602539062</ele>
        <time>2012-07-25T06:28:58Z</time>
      </trkpt>
      <trkpt lat="49.07395" lon="6.07404">
        <ele>165.48413085938</ele>
        <time>2012-07-25T06:29:04Z</time>
      </trkpt>
      <trkpt lat="49.07357" lon="6.07397">
        <ele>165.48413085938</ele>
        <time>2012-07-25T06:29:09Z</time>
      </trkpt>
      <trkpt lat="49.07298" lon="6.07392">
        <ele>166.4453125</ele>
        <time>2012-07-25T06:29:17Z</time>
      </trkpt>
      <trkpt lat="49.07227" lon="6.07385">
        <ele>166.92602539062</ele>
        <time>2012-07-25T06:29:27Z</time>
      </trkpt>
      <trkpt lat="49.07184" lon="6.07373">
        <ele>166.4453125</ele>
        <time>2012-07-25T06:29:33Z</time>
      </trkpt>
      <trkpt lat="49.07136" lon="6.07347">
        <ele>166.4453125</ele>
        <time>2012-07-25T06:29:40Z</time>
      </trkpt>
      <trkpt lat="49.07088" lon="6.07319">
        <ele>166.4453125</ele>
        <time>2012-07-25T06:29:47Z</time>
      </trkpt>
      <trkpt lat="49.07042" lon="6.07293">
        <ele>164.52270507812</ele>
        <time>2012-07-25T06:29:54Z</time>
      </trkpt>
      <trkpt lat="49.06982" lon="6.07251">
        <ele>165.00341796875</ele>
        <time>2012-07-25T06:30:03Z</time>
      </trkpt>
      <trkpt lat="49.0693" lon="6.07212">
        <ele>166.4453125</ele>
        <time>2012-07-25T06:30:11Z</time>
      </trkpt>
      <trkpt lat="49.06853" lon="6.07156">
        <ele>166.4453125</ele>
        <time>2012-07-25T06:30:23Z</time>
      </trkpt>
      <trkpt lat="49.06796" lon="6.07113">
        <ele>166.4453125</ele>
        <time>2012-07-25T06:30:32Z</time>
      </trkpt>
      <trkpt lat="49.0673" lon="6.07062">
        <ele>166.4453125</ele>
        <time>2012-07-25T06:30:42Z</time>
      </trkpt>
      <trkpt lat="49.06677" lon="6.07018">
        <ele>165.00341796875</ele>
        <time>2012-07-25T06:30:50Z</time>
      </trkpt>
      <trkpt lat="49.06617" lon="6.06967">
        <ele>166.92602539062</ele>
        <time>2012-07-25T06:30:59Z</time>
      </trkpt>
      <trkpt lat="49.0655" lon="6.06912">
        <ele>167.40673828125</ele>
        <time>2012-07-25T06:31:09Z</time>
      </trkpt>
      <trkpt lat="49.06498" lon="6.06869">
        <ele>166.92602539062</ele>
        <time>2012-07-25T06:31:17Z</time>
      </trkpt>
      <trkpt lat="49.06431" lon="6.06814">
        <ele>166.92602539062</ele>
        <time>2012-07-25T06:31:27Z</time>
      </trkpt>
      <trkpt lat="49.06364" lon="6.0676">
        <ele>166.4453125</ele>
        <time>2012-07-25T06:31:37Z</time>
      </trkpt>
      <trkpt lat="49.06291" lon="6.06698">
        <ele>166.4453125</ele>
        <time>2012-07-25T06:31:48Z</time>
      </trkpt>
      <trkpt lat="49.06236" lon="6.06653">
        <ele>168.84875488281</ele>
        <time>2012-07-25T06:31:56Z</time>
      </trkpt>
      <trkpt lat="49.06229" lon="6.06648">
        <ele>167.88732910156</ele>
        <time>2012-07-25T06:31:57Z</time>
      </trkpt>
      <trkpt lat="49.06183" lon="6.06605">
        <ele>165.48413085938</ele>
        <time>2012-07-25T06:32:04Z</time>
      </trkpt>
      <trkpt lat="49.06131" lon="6.06555">
        <ele>165.96472167969</ele>
        <time>2012-07-25T06:32:12Z</time>
      </trkpt>
      <trkpt lat="49.061" lon="6.06523">
        <ele>166.92602539062</ele>
        <time>2012-07-25T06:32:17Z</time>
      </trkpt>
      <trkpt lat="49.06087" lon="6.06511">
        <ele>165.48413085938</ele>
        <time>2012-07-25T06:32:19Z</time>
      </trkpt>
      <trkpt lat="49.06075" lon="6.06499">
        <ele>166.92602539062</ele>
        <time>2012-07-25T06:32:21Z</time>
      </trkpt>
      <trkpt lat="49.06039" lon="6.06465">
        <ele>165.96472167969</ele>
        <time>2012-07-25T06:32:27Z</time>
      </trkpt>
      <trkpt lat="49.06002" lon="6.06431">
        <ele>167.40673828125</ele>
        <time>2012-07-25T06:32:33Z</time>
      </trkpt>
      <trkpt lat="49.05959" lon="6.06392">
        <ele>167.88732910156</ele>
        <time>2012-07-25T06:32:40Z</time>
      </trkpt>
      <trkpt lat="49.0592" lon="6.06357">
        <ele>168.36804199219</ele>
        <time>2012-07-25T06:32:47Z</time>
      </trkpt>
      <trkpt lat="49.05871" lon="6.06312">
        <ele>168.84875488281</ele>
        <time>2012-07-25T06:32:55Z</time>
      </trkpt>
      <trkpt lat="49.05836" lon="6.06275">
        <ele>169.32946777344</ele>
        <time>2012-07-25T06:33:01Z</time>
      </trkpt>
      <trkpt lat="49.05799" lon="6.06244">
        <ele>168.36804199219</ele>
        <time>2012-07-25T06:33:07Z</time>
      </trkpt>
      <trkpt lat="49.0576" lon="6.06219">
        <ele>168.36804199219</ele>
        <time>2012-07-25T06:33:13Z</time>
      </trkpt>
      <trkpt lat="49.05734" lon="6.06184">
        <ele>166.92602539062</ele>
        <time>2012-07-25T06:33:18Z</time>
      </trkpt>
      <trkpt lat="49.05722" lon="6.06176">
        <ele>166.4453125</ele>
        <time>2012-07-25T06:33:20Z</time>
      </trkpt>
      <trkpt lat="49.05711" lon="6.06182">
        <ele>167.40673828125</ele>
        <time>2012-07-25T06:33:22Z</time>
      </trkpt>
      <trkpt lat="49.05693" lon="6.0619">
        <ele>167.88732910156</ele>
        <time>2012-07-25T06:33:25Z</time>
      </trkpt>
      <trkpt lat="49.05687" lon="6.06189">
        <ele>167.88732910156</ele>
        <time>2012-07-25T06:33:26Z</time>
      </trkpt>
      <trkpt lat="49.05626" lon="6.06169">
        <ele>168.84875488281</ele>
        <time>2012-07-25T06:33:35Z</time>
      </trkpt>
      <trkpt lat="49.0558" lon="6.06158">
        <ele>168.84875488281</ele>
        <time>2012-07-25T06:33:41Z</time>
      </trkpt>
      <trkpt lat="49.05542" lon="6.06146">
        <ele>169.32946777344</ele>
        <time>2012-07-25T06:33:46Z</time>
      </trkpt>
      <trkpt lat="49.05527" lon="6.06141">
        <ele>166.4453125</ele>
        <time>2012-07-25T06:33:48Z</time>
      </trkpt>
      <trkpt lat="49.05498" lon="6.06127">
        <ele>167.88732910156</ele>
        <time>2012-07-25T06:33:52Z</time>
      </trkpt>
      <trkpt lat="49.05441" lon="6.06096">
        <ele>167.88732910156</ele>
        <time>2012-07-25T06:34:00Z</time>
      </trkpt>
      <trkpt lat="49.0537" lon="6.06063">
        <ele>167.88732910156</ele>
        <time>2012-07-25T06:34:10Z</time>
      </trkpt>
      <trkpt lat="49.05305" lon="6.0604">
        <ele>167.88732910156</ele>
        <time>2012-07-25T06:34:19Z</time>
      </trkpt>
      <trkpt lat="49.05254" lon="6.06025">
        <ele>167.40673828125</ele>
        <time>2012-07-25T06:34:26Z</time>
      </trkpt>
      <trkpt lat="49.05201" lon="6.06012">
        <ele>167.40673828125</ele>
        <time>2012-07-25T06:34:33Z</time>
      </trkpt>
      <trkpt lat="49.05143" lon="6.05991">
        <ele>165.96472167969</ele>
        <time>2012-07-25T06:34:41Z</time>
      </trkpt>
      <trkpt lat="49.05113" lon="6.05982">
        <ele>169.32946777344</ele>
        <time>2012-07-25T06:34:45Z</time>
      </trkpt>
      <trkpt lat="49.05048" lon="6.05964">
        <ele>166.92602539062</ele>
        <time>2012-07-25T06:34:54Z</time>
      </trkpt>
      <trkpt lat="49.04958" lon="6.0594">
        <ele>166.92602539062</ele>
        <time>2012-07-25T06:35:06Z</time>
      </trkpt>
      <trkpt lat="49.049" lon="6.05923">
        <ele>166.92602539062</ele>
        <time>2012-07-25T06:35:14Z</time>
      </trkpt>
      <trkpt lat="49.0482" lon="6.059">
        <ele>167.88732910156</ele>
        <time>2012-07-25T06:35:25Z</time>
      </trkpt>
      <trkpt lat="49.04755" lon="6.0588">
        <ele>167.40673828125</ele>
        <time>2012-07-25T06:35:34Z</time>
      </trkpt>
      <trkpt lat="49.04682" lon="6.05857">
        <ele>166.92602539062</ele>
        <time>2012-07-25T06:35:44Z</time>
      </trkpt>
      <trkpt lat="49.04602" lon="6.05832">
        <ele>167.40673828125</ele>
        <time>2012-07-25T06:35:55Z</time>
      </trkpt>
      <trkpt lat="49.04535" lon="6.05811">
        <ele>166.92602539062</ele>
        <time>2012-07-25T06:36:04Z</time>
      </trkpt>
      <trkpt lat="49.0447" lon="6.05787">
        <ele>167.40673828125</ele>
        <time>2012-07-25T06:36:13Z</time>
      </trkpt>
      <trkpt lat="49.04429" lon="6.05766">
        <ele>168.36804199219</ele>
        <time>2012-07-25T06:36:19Z</time>
      </trkpt>
      <trkpt lat="49.04388" lon="6.05743">
        <ele>167.88732910156</ele>
        <time>2012-07-25T06:36:25Z</time>
      </trkpt>
      <trkpt lat="49.04333" lon="6.05712">
        <ele>170.29064941406</ele>
        <time>2012-07-25T06:36:33Z</time>
      </trkpt>
      <trkpt lat="49.04319" lon="6.05703">
        <ele>168.36804199219</ele>
        <time>2012-07-25T06:36:35Z</time>
      </trkpt>
      <trkpt lat="49.04252" lon="6.05662">
        <ele>168.36804199219</ele>
        <time>2012-07-25T06:36:45Z</time>
      </trkpt>
      <trkpt lat="49.04185" lon="6.0562">
        <ele>168.84875488281</ele>
        <time>2012-07-25T06:36:55Z</time>
      </trkpt>
      <trkpt lat="49.04139" lon="6.05592">
        <ele>168.84875488281</ele>
        <time>2012-07-25T06:37:02Z</time>
      </trkpt>
      <trkpt lat="49.04081" lon="6.05556">
        <ele>169.81005859375</ele>
        <time>2012-07-25T06:37:11Z</time>
      </trkpt>
      <trkpt lat="49.04031" lon="6.05523">
        <ele>169.81005859375</ele>
        <time>2012-07-25T06:37:19Z</time>
      </trkpt>
      <trkpt lat="49.03987" lon="6.05496">
        <ele>169.32946777344</ele>
        <time>2012-07-25T06:37:26Z</time>
      </trkpt>
      <trkpt lat="49.03928" lon="6.05459">
        <ele>169.32946777344</ele>
        <time>2012-07-25T06:37:35Z</time>
      </trkpt>
      <trkpt lat="49.03909" lon="6.05447">
        <ele>171.25207519531</ele>
        <time>2012-07-25T06:37:38Z</time>
      </trkpt>
      <trkpt lat="49.03858" lon="6.05414">
        <ele>171.73266601562</ele>
        <time>2012-07-25T06:37:46Z</time>
      </trkpt>
      <trkpt lat="49.03798" lon="6.05373">
        <ele>172.21325683594</ele>
        <time>2012-07-25T06:37:55Z</time>
      </trkpt>
      <trkpt lat="49.03738" lon="6.0533">
        <ele>171.25207519531</ele>
        <time>2012-07-25T06:38:04Z</time>
      </trkpt>
      <trkpt lat="49.03675" lon="6.05291">
        <ele>171.73266601562</ele>
        <time>2012-07-25T06:38:13Z</time>
      </trkpt>
      <trkpt lat="49.03627" lon="6.05266">
        <ele>172.69396972656</ele>
        <time>2012-07-25T06:38:20Z</time>
      </trkpt>
      <trkpt lat="49.03613" lon="6.05259">
        <ele>169.32946777344</ele>
        <time>2012-07-25T06:38:22Z</time>
      </trkpt>
      <trkpt lat="49.03605" lon="6.05255">
        <ele>169.81005859375</ele>
        <time>2012-07-25T06:38:23Z</time>
      </trkpt>
      <trkpt lat="49.03547" lon="6.05231">
        <ele>169.81005859375</ele>
        <time>2012-07-25T06:38:31Z</time>
      </trkpt>
      <trkpt lat="49.0347" lon="6.05202">
        <ele>169.32946777344</ele>
        <time>2012-07-25T06:38:41Z</time>
      </trkpt>
      <trkpt lat="49.03393" lon="6.05172">
        <ele>169.32946777344</ele>
        <time>2012-07-25T06:38:51Z</time>
      </trkpt>
      <trkpt lat="49.03317" lon="6.05143">
        <ele>168.84875488281</ele>
        <time>2012-07-25T06:39:01Z</time>
      </trkpt>
      <trkpt lat="49.03272" lon="6.05126">
        <ele>170.29064941406</ele>
        <time>2012-07-25T06:39:07Z</time>
      </trkpt>
      <trkpt lat="49.03205" lon="6.05107">
        <ele>168.36804199219</ele>
        <time>2012-07-25T06:39:16Z</time>
      </trkpt>
      <trkpt lat="49.03143" lon="6.05102">
        <ele>167.88732910156</ele>
        <time>2012-07-25T06:39:24Z</time>
      </trkpt>
      <trkpt lat="49.0309" lon="6.051">
        <ele>170.29064941406</ele>
        <time>2012-07-25T06:39:31Z</time>
      </trkpt>
      <trkpt lat="49.03046" lon="6.05104">
        <ele>168.36804199219</ele>
        <time>2012-07-25T06:39:37Z</time>
      </trkpt>
      <trkpt lat="49.02994" lon="6.05114">
        <ele>168.84875488281</ele>
        <time>2012-07-25T06:39:44Z</time>
      </trkpt>
      <trkpt lat="49.02936" lon="6.05126">
        <ele>168.84875488281</ele>
        <time>2012-07-25T06:39:52Z</time>
      </trkpt>
      <trkpt lat="49.02877" lon="6.0513">
        <ele>170.29064941406</ele>
        <time>2012-07-25T06:40:00Z</time>
      </trkpt>
      <trkpt lat="49.02827" lon="6.0512">
        <ele>168.84875488281</ele>
        <time>2012-07-25T06:40:07Z</time>
      </trkpt>
      <trkpt lat="49.02769" lon="6.05107">
        <ele>169.81005859375</ele>
        <time>2012-07-25T06:40:15Z</time>
      </trkpt>
      <trkpt lat="49.02704" lon="6.05091">
        <ele>169.32946777344</ele>
        <time>2012-07-25T06:40:24Z</time>
      </trkpt>
      <trkpt lat="49.02643" lon="6.05082">
        <ele>169.32946777344</ele>
        <time>2012-07-25T06:40:32Z</time>
      </trkpt>
      <trkpt lat="49.02592" lon="6.05076">
        <ele>169.81005859375</ele>
        <time>2012-07-25T06:40:39Z</time>
      </trkpt>
      <trkpt lat="49.02562" lon="6.05072">
        <ele>170.77136230469</ele>
        <time>2012-07-25T06:40:43Z</time>
      </trkpt>
      <trkpt lat="49.02503" lon="6.05063">
        <ele>171.25207519531</ele>
        <time>2012-07-25T06:40:51Z</time>
      </trkpt>
      <trkpt lat="49.02452" lon="6.05046">
        <ele>170.77136230469</ele>
        <time>2012-07-25T06:40:58Z</time>
      </trkpt>
      <trkpt lat="49.02397" lon="6.05033">
        <ele>169.32946777344</ele>
        <time>2012-07-25T06:41:06Z</time>
      </trkpt>
      <trkpt lat="49.02379" lon="6.05026">
        <ele>169.32946777344</ele>
        <time>2012-07-25T06:41:10Z</time>
      </trkpt>
      <trkpt lat="49.02365" lon="6.05025">
        <ele>168.84875488281</ele>
        <time>2012-07-25T06:41:13Z</time>
      </trkpt>
      <trkpt lat="49.02335" lon="6.05018">
        <ele>169.32946777344</ele>
        <time>2012-07-25T06:41:18Z</time>
      </trkpt>
      <trkpt lat="49.02277" lon="6.04997">
        <ele>170.29064941406</ele>
        <time>2012-07-25T06:41:27Z</time>
      </trkpt>
      <trkpt lat="49.02225" lon="6.04977">
        <ele>170.77136230469</ele>
        <time>2012-07-25T06:41:35Z</time>
      </trkpt>
      <trkpt lat="49.02174" lon="6.04949">
        <ele>171.73266601562</ele>
        <time>2012-07-25T06:41:43Z</time>
      </trkpt>
      <trkpt lat="49.02122" lon="6.04913">
        <ele>174.61657714844</ele>
        <time>2012-07-25T06:41:51Z</time>
      </trkpt>
      <trkpt lat="49.02075" lon="6.0488">
        <ele>170.77136230469</ele>
        <time>2012-07-25T06:41:58Z</time>
      </trkpt>
      <trkpt lat="49.02068" lon="6.04875">
        <ele>170.77136230469</ele>
        <time>2012-07-25T06:41:59Z</time>
      </trkpt>
      <trkpt lat="49.02005" lon="6.04829">
        <ele>170.77136230469</ele>
        <time>2012-07-25T06:42:08Z</time>
      </trkpt>
      <trkpt lat="49.01949" lon="6.04786">
        <ele>171.25207519531</ele>
        <time>2012-07-25T06:42:16Z</time>
      </trkpt>
      <trkpt lat="49.01889" lon="6.04737">
        <ele>171.73266601562</ele>
        <time>2012-07-25T06:42:25Z</time>
      </trkpt>
      <trkpt lat="49.01844" lon="6.047">
        <ele>171.73266601562</ele>
        <time>2012-07-25T06:42:32Z</time>
      </trkpt>
      <trkpt lat="49.01787" lon="6.04654">
        <ele>172.69396972656</ele>
        <time>2012-07-25T06:42:41Z</time>
      </trkpt>
      <trkpt lat="49.01722" lon="6.04607">
        <ele>173.6552734375</ele>
        <time>2012-07-25T06:42:51Z</time>
      </trkpt>
      <trkpt lat="49.01666" lon="6.04574">
        <ele>175.09729003906</ele>
        <time>2012-07-25T06:43:00Z</time>
      </trkpt>
      <trkpt lat="49.0163" lon="6.04553">
        <ele>175.57788085938</ele>
        <time>2012-07-25T06:43:06Z</time>
      </trkpt>
      <trkpt lat="49.01581" lon="6.04518">
        <ele>179.42321777344</ele>
        <time>2012-07-25T06:43:15Z</time>
      </trkpt>
      <trkpt lat="49.01545" lon="6.04483">
        <ele>179.90380859375</ele>
        <time>2012-07-25T06:43:22Z</time>
      </trkpt>
      <trkpt lat="49.01521" lon="6.04456">
        <ele>181.82641601562</ele>
        <time>2012-07-25T06:43:27Z</time>
      </trkpt>
      <trkpt lat="49.0149" lon="6.04414">
        <ele>182.78784179688</ele>
        <time>2012-07-25T06:43:34Z</time>
      </trkpt>
      <trkpt lat="49.01461" lon="6.04366">
        <ele>183.26843261719</ele>
        <time>2012-07-25T06:43:41Z</time>
      </trkpt>
      <trkpt lat="49.01424" lon="6.043">
        <ele>183.7490234375</ele>
        <time>2012-07-25T06:43:50Z</time>
      </trkpt>
      <trkpt lat="49.01392" lon="6.04242">
        <ele>182.30712890625</ele>
        <time>2012-07-25T06:43:57Z</time>
      </trkpt>
      <trkpt lat="49.01349" lon="6.04165">
        <ele>178.94262695312</ele>
        <time>2012-07-25T06:44:05Z</time>
      </trkpt>
      <trkpt lat="49.0131" lon="6.04107">
        <ele>177.02001953125</ele>
        <time>2012-07-25T06:44:11Z</time>
      </trkpt>
      <trkpt lat="49.01281" lon="6.04073">
        <ele>175.09729003906</ele>
        <time>2012-07-25T06:44:15Z</time>
      </trkpt>
      <trkpt lat="49.01258" lon="6.04048">
        <ele>173.6552734375</ele>
        <time>2012-07-25T06:44:18Z</time>
      </trkpt>
      <trkpt lat="49.01208" lon="6.03986">
        <ele>172.69396972656</ele>
        <time>2012-07-25T06:44:25Z</time>
      </trkpt>
      <trkpt lat="49.0116" lon="6.03926">
        <ele>172.21325683594</ele>
        <time>2012-07-25T06:44:32Z</time>
      </trkpt>
      <trkpt lat="49.01129" lon="6.03885">
        <ele>170.77136230469</ele>
        <time>2012-07-25T06:44:37Z</time>
      </trkpt>
      <trkpt lat="49.01117" lon="6.03868">
        <ele>170.29064941406</ele>
        <time>2012-07-25T06:44:39Z</time>
      </trkpt>
      <trkpt lat="49.011" lon="6.03843">
        <ele>171.73266601562</ele>
        <time>2012-07-25T06:44:42Z</time>
      </trkpt>
      <trkpt lat="49.01077" lon="6.03799">
        <ele>172.21325683594</ele>
        <time>2012-07-25T06:44:47Z</time>
      </trkpt>
      <trkpt lat="49.01058" lon="6.03739">
        <ele>171.73266601562</ele>
        <time>2012-07-25T06:44:53Z</time>
      </trkpt>
      <trkpt lat="49.01036" lon="6.03655">
        <ele>171.25207519531</ele>
        <time>2012-07-25T06:45:01Z</time>
      </trkpt>
      <trkpt lat="49.01035" lon="6.03645">
        <ele>171.25207519531</ele>
        <time>2012-07-25T06:45:02Z</time>
      </trkpt>
      <trkpt lat="49.01035" lon="6.03586">
        <ele>170.29064941406</ele>
        <time>2012-07-25T06:45:08Z</time>
      </trkpt>
      <trkpt lat="49.01034" lon="6.03547">
        <ele>171.25207519531</ele>
        <time>2012-07-25T06:45:13Z</time>
      </trkpt>
      <trkpt lat="49.01033" lon="6.03518">
        <ele>171.25207519531</ele>
        <time>2012-07-25T06:45:18Z</time>
      </trkpt>
      <trkpt lat="49.01044" lon="6.03466">
        <ele>171.25207519531</ele>
        <time>2012-07-25T06:45:25Z</time>
      </trkpt>
      <trkpt lat="49.01053" lon="6.03419">
        <ele>171.73266601562</ele>
        <time>2012-07-25T06:45:30Z</time>
      </trkpt>
      <trkpt lat="49.01065" lon="6.03343">
        <ele>173.17468261719</ele>
        <time>2012-07-25T06:45:38Z</time>
      </trkpt>
      <trkpt lat="49.01072" lon="6.03293">
        <ele>175.09729003906</ele>
        <time>2012-07-25T06:45:44Z</time>
      </trkpt>
      <trkpt lat="49.0108" lon="6.03246">
        <ele>176.05859375</ele>
        <time>2012-07-25T06:45:50Z</time>
      </trkpt>
      <trkpt lat="49.01089" lon="6.03206">
        <ele>178.4619140625</ele>
        <time>2012-07-25T06:45:56Z</time>
      </trkpt>
      <trkpt lat="49.01094" lon="6.0318">
        <ele>179.42321777344</ele>
        <time>2012-07-25T06:46:00Z</time>
      </trkpt>
      <trkpt lat="49.01101" lon="6.0314">
        <ele>181.82641601562</ele>
        <time>2012-07-25T06:46:06Z</time>
      </trkpt>
      <trkpt lat="49.01102" lon="6.03134">
        <ele>181.82641601562</ele>
        <time>2012-07-25T06:46:07Z</time>
      </trkpt>
      <trkpt lat="49.01107" lon="6.03095">
        <ele>184.22985839844</ele>
        <time>2012-07-25T06:46:13Z</time>
      </trkpt>
      <trkpt lat="49.0111" lon="6.03067">
        <ele>185.19116210938</ele>
        <time>2012-07-25T06:46:17Z</time>
      </trkpt>
      <trkpt lat="49.01118" lon="6.03033">
        <ele>186.15246582031</ele>
        <time>2012-07-25T06:46:22Z</time>
      </trkpt>
      <trkpt lat="49.01137" lon="6.02993">
        <ele>187.11376953125</ele>
        <time>2012-07-25T06:46:28Z</time>
      </trkpt>
      <trkpt lat="49.01158" lon="6.02943">
        <ele>188.07507324219</ele>
        <time>2012-07-25T06:46:35Z</time>
      </trkpt>
      <trkpt lat="49.01163" lon="6.02931">
        <ele>189.03637695312</ele>
        <time>2012-07-25T06:46:37Z</time>
      </trkpt>
      <trkpt lat="49.01179" lon="6.02889">
        <ele>190.958984375</ele>
        <time>2012-07-25T06:46:44Z</time>
      </trkpt>
      <trkpt lat="49.01187" lon="6.02861">
        <ele>191.43957519531</ele>
        <time>2012-07-25T06:46:48Z</time>
      </trkpt>
      <trkpt lat="49.01208" lon="6.02806">
        <ele>192.88171386719</ele>
        <time>2012-07-25T06:46:56Z</time>
      </trkpt>
      <trkpt lat="49.01222" lon="6.02759">
        <ele>193.3623046875</ele>
        <time>2012-07-25T06:47:03Z</time>
      </trkpt>
      <trkpt lat="49.01241" lon="6.02701">
        <ele>193.3623046875</ele>
        <time>2012-07-25T06:47:11Z</time>
      </trkpt>
      <trkpt lat="49.01262" lon="6.02636">
        <ele>193.84301757812</ele>
        <time>2012-07-25T06:47:19Z</time>
      </trkpt>
      <trkpt lat="49.01282" lon="6.02565">
        <ele>191.43957519531</ele>
        <time>2012-07-25T06:47:26Z</time>
      </trkpt>
      <trkpt lat="49.01299" lon="6.02511">
        <ele>190.47839355469</ele>
        <time>2012-07-25T06:47:31Z</time>
      </trkpt>
      <trkpt lat="49.01334" lon="6.02453">
        <ele>187.59436035156</ele>
        <time>2012-07-25T06:47:37Z</time>
      </trkpt>
      <trkpt lat="49.0134" lon="6.02443">
        <ele>187.59436035156</ele>
        <time>2012-07-25T06:47:38Z</time>
      </trkpt>
      <trkpt lat="49.0136" lon="6.02395">
        <ele>186.63317871094</ele>
        <time>2012-07-25T06:47:42Z</time>
      </trkpt>
      <trkpt lat="49.01369" lon="6.0237">
        <ele>188.55578613281</ele>
        <time>2012-07-25T06:47:44Z</time>
      </trkpt>
      <trkpt lat="49.01377" lon="6.02343">
        <ele>184.71057128906</ele>
        <time>2012-07-25T06:47:46Z</time>
      </trkpt>
      <trkpt lat="49.01382" lon="6.0233">
        <ele>185.19116210938</ele>
        <time>2012-07-25T06:47:47Z</time>
      </trkpt>
      <trkpt lat="49.01412" lon="6.02241">
        <ele>182.30712890625</ele>
        <time>2012-07-25T06:47:54Z</time>
      </trkpt>
      <trkpt lat="49.01438" lon="6.02168">
        <ele>181.34582519531</ele>
        <time>2012-07-25T06:48:00Z</time>
      </trkpt>
      <trkpt lat="49.01447" lon="6.02147">
        <ele>181.82641601562</ele>
        <time>2012-07-25T06:48:02Z</time>
      </trkpt>
      <trkpt lat="49.01482" lon="6.02088">
        <ele>180.865234375</ele>
        <time>2012-07-25T06:48:08Z</time>
      </trkpt>
      <trkpt lat="49.01529" lon="6.02013">
        <ele>181.34582519531</ele>
        <time>2012-07-25T06:48:16Z</time>
      </trkpt>
      <trkpt lat="49.01553" lon="6.01944">
        <ele>181.82641601562</ele>
        <time>2012-07-25T06:48:22Z</time>
      </trkpt>
      <trkpt lat="49.01564" lon="6.01882">
        <ele>181.82641601562</ele>
        <time>2012-07-25T06:48:27Z</time>
      </trkpt>
      <trkpt lat="49.01577" lon="6.01805">
        <ele>181.82641601562</ele>
        <time>2012-07-25T06:48:33Z</time>
      </trkpt>
      <trkpt lat="49.01581" lon="6.01793">
        <ele>181.34582519531</ele>
        <time>2012-07-25T06:48:34Z</time>
      </trkpt>
      <trkpt lat="49.01602" lon="6.0175">
        <ele>181.82641601562</ele>
        <time>2012-07-25T06:48:38Z</time>
      </trkpt>
      <trkpt lat="49.01621" lon="6.01724">
        <ele>181.82641601562</ele>
        <time>2012-07-25T06:48:41Z</time>
      </trkpt>
      <trkpt lat="49.01652" lon="6.01661">
        <ele>181.34582519531</ele>
        <time>2012-07-25T06:48:47Z</time>
      </trkpt>
      <trkpt lat="49.01694" lon="6.01557">
        <ele>181.34582519531</ele>
        <time>2012-07-25T06:48:56Z</time>
      </trkpt>
      <trkpt lat="49.01707" lon="6.01525">
        <ele>182.78784179688</ele>
        <time>2012-07-25T06:48:59Z</time>
      </trkpt>
      <trkpt lat="49.01722" lon="6.01464">
        <ele>183.7490234375</ele>
        <time>2012-07-25T06:49:04Z</time>
      </trkpt>
      <trkpt lat="49.01733" lon="6.01387">
        <ele>183.7490234375</ele>
        <time>2012-07-25T06:49:10Z</time>
      </trkpt>
      <trkpt lat="49.01748" lon="6.01262">
        <ele>184.71057128906</ele>
        <time>2012-07-25T06:49:20Z</time>
      </trkpt>
      <trkpt lat="49.01756" lon="6.01158">
        <ele>184.71057128906</ele>
        <time>2012-07-25T06:49:28Z</time>
      </trkpt>
      <trkpt lat="49.01749" lon="6.01069">
        <ele>184.71057128906</ele>
        <time>2012-07-25T06:49:35Z</time>
      </trkpt>
      <trkpt lat="49.0174" lon="6.0093">
        <ele>184.71057128906</ele>
        <time>2012-07-25T06:49:46Z</time>
      </trkpt>
      <trkpt lat="49.01726" lon="6.00837">
        <ele>184.22985839844</ele>
        <time>2012-07-25T06:49:53Z</time>
      </trkpt>
      <trkpt lat="49.01703" lon="6.00734">
        <ele>183.26843261719</ele>
        <time>2012-07-25T06:50:01Z</time>
      </trkpt>
      <trkpt lat="49.01677" lon="6.0063">
        <ele>183.26843261719</ele>
        <time>2012-07-25T06:50:09Z</time>
      </trkpt>
      <trkpt lat="49.01662" lon="6.00552">
        <ele>183.7490234375</ele>
        <time>2012-07-25T06:50:15Z</time>
      </trkpt>
      <trkpt lat="49.01654" lon="6.00478">
        <ele>184.71057128906</ele>
        <time>2012-07-25T06:50:21Z</time>
      </trkpt>
      <trkpt lat="49.0164" lon="6.00389">
        <ele>187.11376953125</ele>
        <time>2012-07-25T06:50:29Z</time>
      </trkpt>
      <trkpt lat="49.0163" lon="6.00326">
        <ele>188.07507324219</ele>
        <time>2012-07-25T06:50:35Z</time>
      </trkpt>
      <trkpt lat="49.01615" lon="6.0024">
        <ele>188.07507324219</ele>
        <time>2012-07-25T06:50:43Z</time>
      </trkpt>
      <trkpt lat="49.01601" lon="6.00165">
        <ele>185.67175292969</ele>
        <time>2012-07-25T06:50:49Z</time>
      </trkpt>
      <trkpt lat="49.01579" lon="6.00072">
        <ele>184.22985839844</ele>
        <time>2012-07-25T06:50:56Z</time>
      </trkpt>
      <trkpt lat="49.01556" lon="5.99982">
        <ele>183.7490234375</ele>
        <time>2012-07-25T06:51:03Z</time>
      </trkpt>
      <trkpt lat="49.0155" lon="5.99957">
        <ele>181.34582519531</ele>
        <time>2012-07-25T06:51:05Z</time>
      </trkpt>
      <trkpt lat="49.0153" lon="5.99862">
        <ele>180.38452148438</ele>
        <time>2012-07-25T06:51:13Z</time>
      </trkpt>
      <trkpt lat="49.01525" lon="5.99839">
        <ele>181.34582519531</ele>
        <time>2012-07-25T06:51:15Z</time>
      </trkpt>
      <trkpt lat="49.01502" lon="5.99738">
        <ele>182.30712890625</ele>
        <time>2012-07-25T06:51:24Z</time>
      </trkpt>
      <trkpt lat="49.01475" lon="5.99636">
        <ele>183.26843261719</ele>
        <time>2012-07-25T06:51:34Z</time>
      </trkpt>
      <trkpt lat="49.0146" lon="5.99563">
        <ele>183.7490234375</ele>
        <time>2012-07-25T06:51:41Z</time>
      </trkpt>
      <trkpt lat="49.01439" lon="5.99454">
        <ele>182.78784179688</ele>
        <time>2012-07-25T06:51:51Z</time>
      </trkpt>
      <trkpt lat="49.01422" lon="5.99364">
        <ele>183.26843261719</ele>
        <time>2012-07-25T06:51:59Z</time>
      </trkpt>
      <trkpt lat="49.01405" lon="5.99271">
        <ele>183.7490234375</ele>
        <time>2012-07-25T06:52:07Z</time>
      </trkpt>
      <trkpt lat="49.01394" lon="5.99197">
        <ele>182.30712890625</ele>
        <time>2012-07-25T06:52:14Z</time>
      </trkpt>
      <trkpt lat="49.01392" lon="5.99179">
        <ele>182.30712890625</ele>
        <time>2012-07-25T06:52:16Z</time>
      </trkpt>
      <trkpt lat="49.01395" lon="5.99114">
        <ele>181.82641601562</ele>
        <time>2012-07-25T06:52:23Z</time>
      </trkpt>
      <trkpt lat="49.01406" lon="5.99069">
        <ele>181.82641601562</ele>
        <time>2012-07-25T06:52:28Z</time>
      </trkpt>
      <trkpt lat="49.01425" lon="5.99045">
        <ele>182.78784179688</ele>
        <time>2012-07-25T06:52:32Z</time>
      </trkpt>
      <trkpt lat="49.01437" lon="5.99038">
        <ele>183.7490234375</ele>
        <time>2012-07-25T06:52:34Z</time>
      </trkpt>
      <trkpt lat="49.01453" lon="5.9903">
        <ele>184.71057128906</ele>
        <time>2012-07-25T06:52:37Z</time>
      </trkpt>
      <trkpt lat="49.01468" lon="5.99016">
        <ele>186.15246582031</ele>
        <time>2012-07-25T06:52:40Z</time>
      </trkpt>
      <trkpt lat="49.01476" lon="5.99001">
        <ele>185.19116210938</ele>
        <time>2012-07-25T06:52:42Z</time>
      </trkpt>
      <trkpt lat="49.0151" lon="5.98934">
        <ele>186.15246582031</ele>
        <time>2012-07-25T06:52:50Z</time>
      </trkpt>
      <trkpt lat="49.01524" lon="5.98886">
        <ele>186.63317871094</ele>
        <time>2012-07-25T06:52:55Z</time>
      </trkpt>
      <trkpt lat="49.01543" lon="5.98812">
        <ele>186.63317871094</ele>
        <time>2012-07-25T06:53:02Z</time>
      </trkpt>
      <trkpt lat="49.01553" lon="5.98748">
        <ele>185.67175292969</ele>
        <time>2012-07-25T06:53:08Z</time>
      </trkpt>
      <trkpt lat="49.01561" lon="5.98663">
        <ele>185.19116210938</ele>
        <time>2012-07-25T06:53:16Z</time>
      </trkpt>
      <trkpt lat="49.0157" lon="5.98575">
        <ele>184.71057128906</ele>
        <time>2012-07-25T06:53:24Z</time>
      </trkpt>
      <trkpt lat="49.01577" lon="5.98508">
        <ele>185.19116210938</ele>
        <time>2012-07-25T06:53:30Z</time>
      </trkpt>
      <trkpt lat="49.01585" lon="5.98449">
        <ele>184.71057128906</ele>
        <time>2012-07-25T06:53:36Z</time>
      </trkpt>
      <trkpt lat="49.01594" lon="5.98372">
        <ele>185.19116210938</ele>
        <time>2012-07-25T06:53:43Z</time>
      </trkpt>
      <trkpt lat="49.01599" lon="5.98278">
        <ele>185.19116210938</ele>
        <time>2012-07-25T06:53:51Z</time>
      </trkpt>
      <trkpt lat="49.01604" lon="5.98184">
        <ele>185.19116210938</ele>
        <time>2012-07-25T06:53:59Z</time>
      </trkpt>
      <trkpt lat="49.01614" lon="5.98065">
        <ele>185.19116210938</ele>
        <time>2012-07-25T06:54:09Z</time>
      </trkpt>
      <trkpt lat="49.01612" lon="5.97982">
        <ele>185.19116210938</ele>
        <time>2012-07-25T06:54:16Z</time>
      </trkpt>
      <trkpt lat="49.01606" lon="5.97891">
        <ele>185.19116210938</ele>
        <time>2012-07-25T06:54:24Z</time>
      </trkpt>
      <trkpt lat="49.01591" lon="5.97802">
        <ele>186.15246582031</ele>
        <time>2012-07-25T06:54:32Z</time>
      </trkpt>
      <trkpt lat="49.01571" lon="5.97697">
        <ele>187.59436035156</ele>
        <time>2012-07-25T06:54:42Z</time>
      </trkpt>
      <trkpt lat="49.01559" lon="5.97613">
        <ele>187.11376953125</ele>
        <time>2012-07-25T06:54:49Z</time>
      </trkpt>
      <trkpt lat="49.01548" lon="5.97499">
        <ele>186.63317871094</ele>
        <time>2012-07-25T06:54:58Z</time>
      </trkpt>
      <trkpt lat="49.01536" lon="5.97414">
        <ele>186.63317871094</ele>
        <time>2012-07-25T06:55:05Z</time>
      </trkpt>
      <trkpt lat="49.01511" lon="5.97284">
        <ele>185.67175292969</ele>
        <time>2012-07-25T06:55:16Z</time>
      </trkpt>
      <trkpt lat="49.01495" lon="5.97204">
        <ele>185.67175292969</ele>
        <time>2012-07-25T06:55:23Z</time>
      </trkpt>
      <trkpt lat="49.01492" lon="5.97136">
        <ele>186.63317871094</ele>
        <time>2012-07-25T06:55:29Z</time>
      </trkpt>
      <trkpt lat="49.01495" lon="5.97065">
        <ele>187.11376953125</ele>
        <time>2012-07-25T06:55:35Z</time>
      </trkpt>
      <trkpt lat="49.01504" lon="5.96991">
        <ele>187.11376953125</ele>
        <time>2012-07-25T06:55:42Z</time>
      </trkpt>
      <trkpt lat="49.01522" lon="5.96944">
        <ele>186.63317871094</ele>
        <time>2012-07-25T06:55:47Z</time>
      </trkpt>
      <trkpt lat="49.01552" lon="5.96911">
        <ele>187.11376953125</ele>
        <time>2012-07-25T06:55:52Z</time>
      </trkpt>
      <trkpt lat="49.01563" lon="5.96897">
        <ele>187.11376953125</ele>
        <time>2012-07-25T06:55:54Z</time>
      </trkpt>
      <trkpt lat="49.01578" lon="5.96858">
        <ele>186.63317871094</ele>
        <time>2012-07-25T06:55:58Z</time>
      </trkpt>
      <trkpt lat="49.01593" lon="5.96765">
        <ele>185.67175292969</ele>
        <time>2012-07-25T06:56:06Z</time>
      </trkpt>
      <trkpt lat="49.01591" lon="5.96669">
        <ele>186.63317871094</ele>
        <time>2012-07-25T06:56:14Z</time>
      </trkpt>
      <trkpt lat="49.01582" lon="5.96597">
        <ele>186.15246582031</ele>
        <time>2012-07-25T06:56:20Z</time>
      </trkpt>
      <trkpt lat="49.01565" lon="5.9653">
        <ele>186.15246582031</ele>
        <time>2012-07-25T06:56:26Z</time>
      </trkpt>
      <trkpt lat="49.01528" lon="5.96425">
        <ele>186.63317871094</ele>
        <time>2012-07-25T06:56:36Z</time>
      </trkpt>
      <trkpt lat="49.01492" lon="5.96337">
        <ele>188.07507324219</ele>
        <time>2012-07-25T06:56:45Z</time>
      </trkpt>
      <trkpt lat="49.01482" lon="5.96319">
        <ele>189.03637695312</ele>
        <time>2012-07-25T06:56:47Z</time>
      </trkpt>
      <trkpt lat="49.01449" lon="5.96274">
        <ele>190.47839355469</ele>
        <time>2012-07-25T06:56:53Z</time>
      </trkpt>
      <trkpt lat="49.01394" lon="5.96231">
        <ele>189.51696777344</ele>
        <time>2012-07-25T06:57:01Z</time>
      </trkpt>
      <trkpt lat="49.01331" lon="5.96186">
        <ele>189.03637695312</ele>
        <time>2012-07-25T06:57:10Z</time>
      </trkpt>
      <trkpt lat="49.01298" lon="5.96162">
        <ele>188.55578613281</ele>
        <time>2012-07-25T06:57:15Z</time>
      </trkpt>
      <trkpt lat="49.01248" lon="5.96134">
        <ele>188.07507324219</ele>
        <time>2012-07-25T06:57:22Z</time>
      </trkpt>
      <trkpt lat="49.01224" lon="5.96125">
        <ele>189.51696777344</ele>
        <time>2012-07-25T06:57:25Z</time>
      </trkpt>
      <trkpt lat="49.01171" lon="5.96101">
        <ele>188.07507324219</ele>
        <time>2012-07-25T06:57:32Z</time>
      </trkpt>
      <trkpt lat="49.01163" lon="5.96097">
        <ele>187.11376953125</ele>
        <time>2012-07-25T06:57:33Z</time>
      </trkpt>
      <trkpt lat="49.01131" lon="5.96054">
        <ele>187.11376953125</ele>
        <time>2012-07-25T06:57:39Z</time>
      </trkpt>
      <trkpt lat="49.01089" lon="5.95993">
        <ele>188.55578613281</ele>
        <time>2012-07-25T06:57:47Z</time>
      </trkpt>
      <trkpt lat="49.01038" lon="5.95941">
        <ele>187.59436035156</ele>
        <time>2012-07-25T06:57:55Z</time>
      </trkpt>
      <trkpt lat="49.00972" lon="5.95878">
        <ele>187.59436035156</ele>
        <time>2012-07-25T06:58:05Z</time>
      </trkpt>
      <trkpt lat="49.00937" lon="5.95832">
        <ele>186.15246582031</ele>
        <time>2012-07-25T06:58:11Z</time>
      </trkpt>
      <trkpt lat="49.00909" lon="5.95775">
        <ele>188.55578613281</ele>
        <time>2012-07-25T06:58:17Z</time>
      </trkpt>
      <trkpt lat="49.00875" lon="5.95682">
        <ele>187.59436035156</ele>
        <time>2012-07-25T06:58:26Z</time>
      </trkpt>
      <trkpt lat="49.00846" lon="5.956">
        <ele>190.47839355469</ele>
        <time>2012-07-25T06:58:34Z</time>
      </trkpt>
      <trkpt lat="49.00814" lon="5.95511">
        <ele>191.43957519531</ele>
        <time>2012-07-25T06:58:43Z</time>
      </trkpt>
      <trkpt lat="49.00785" lon="5.95429">
        <ele>194.32373046875</ele>
        <time>2012-07-25T06:58:52Z</time>
      </trkpt>
      <trkpt lat="49.00757" lon="5.95351">
        <ele>196.24633789062</ele>
        <time>2012-07-25T06:59:01Z</time>
      </trkpt>
      <trkpt lat="49.00727" lon="5.95269">
        <ele>196.24633789062</ele>
        <time>2012-07-25T06:59:10Z</time>
      </trkpt>
      <trkpt lat="49.00712" lon="5.9523">
        <ele>198.1689453125</ele>
        <time>2012-07-25T06:59:14Z</time>
      </trkpt>
      <trkpt lat="49.00681" lon="5.95149">
        <ele>198.64953613281</ele>
        <time>2012-07-25T06:59:23Z</time>
      </trkpt>
      <trkpt lat="49.00651" lon="5.95076">
        <ele>198.64953613281</ele>
        <time>2012-07-25T06:59:31Z</time>
      </trkpt>
      <trkpt lat="49.00617" lon="5.9499">
        <ele>197.20751953125</ele>
        <time>2012-07-25T06:59:40Z</time>
      </trkpt>
      <trkpt lat="49.00591" lon="5.94912">
        <ele>196.72692871094</ele>
        <time>2012-07-25T06:59:48Z</time>
      </trkpt>
      <trkpt lat="49.00558" lon="5.94814">
        <ele>197.20751953125</ele>
        <time>2012-07-25T06:59:58Z</time>
      </trkpt>
      <trkpt lat="49.00541" lon="5.9474">
        <ele>196.24633789062</ele>
        <time>2012-07-25T07:00:05Z</time>
      </trkpt>
      <trkpt lat="49.0054" lon="5.94729">
        <ele>196.24633789062</ele>
        <time>2012-07-25T07:00:06Z</time>
      </trkpt>
      <trkpt lat="49.00542" lon="5.94671">
        <ele>196.24633789062</ele>
        <time>2012-07-25T07:00:11Z</time>
      </trkpt>
      <trkpt lat="49.00555" lon="5.94568">
        <ele>194.32373046875</ele>
        <time>2012-07-25T07:00:20Z</time>
      </trkpt>
      <trkpt lat="49.00568" lon="5.94472">
        <ele>193.3623046875</ele>
        <time>2012-07-25T07:00:28Z</time>
      </trkpt>
      <trkpt lat="49.00578" lon="5.94376">
        <ele>191.43957519531</ele>
        <time>2012-07-25T07:00:36Z</time>
      </trkpt>
      <trkpt lat="49.00583" lon="5.94324">
        <ele>190.958984375</ele>
        <time>2012-07-25T07:00:40Z</time>
      </trkpt>
      <trkpt lat="49.00588" lon="5.94264">
        <ele>189.99768066406</ele>
        <time>2012-07-25T07:00:45Z</time>
      </trkpt>
      <trkpt lat="49.00589" lon="5.94193">
        <ele>189.99768066406</ele>
        <time>2012-07-25T07:00:51Z</time>
      </trkpt>
      <trkpt lat="49.00589" lon="5.94182">
        <ele>189.99768066406</ele>
        <time>2012-07-25T07:00:52Z</time>
      </trkpt>
      <trkpt lat="49.00585" lon="5.94127">
        <ele>189.51696777344</ele>
        <time>2012-07-25T07:00:57Z</time>
      </trkpt>
      <trkpt lat="49.00581" lon="5.94093">
        <ele>190.47839355469</ele>
        <time>2012-07-25T07:01:02Z</time>
      </trkpt>
      <trkpt lat="49.00573" lon="5.9407">
        <ele>189.99768066406</ele>
        <time>2012-07-25T07:01:05Z</time>
      </trkpt>
      <trkpt lat="49.0056" lon="5.94016">
        <ele>189.51696777344</ele>
        <time>2012-07-25T07:01:12Z</time>
      </trkpt>
      <trkpt lat="49.00552" lon="5.93987">
        <ele>189.51696777344</ele>
        <time>2012-07-25T07:01:18Z</time>
      </trkpt>
      <trkpt lat="49.00547" lon="5.9397">
        <ele>189.51696777344</ele>
        <time>2012-07-25T07:01:23Z</time>
      </trkpt>
      <trkpt lat="49.00542" lon="5.93949">
        <ele>189.51696777344</ele>
        <time>2012-07-25T07:01:30Z</time>
      </trkpt>
      <trkpt lat="49.00537" lon="5.93932">
        <ele>189.51696777344</ele>
        <time>2012-07-25T07:01:38Z</time>
      </trkpt>
      <trkpt lat="49.00537" lon="5.93933">
        <ele>189.51696777344</ele>
        <time>2012-07-25T07:01:39Z</time>
      </trkpt>
      <trkpt lat="49.00536" lon="5.93935">
        <ele>190.47839355469</ele>
        <time>2012-07-25T07:02:13Z</time>
      </trkpt>
      <trkpt lat="49.00534" lon="5.93929">
        <ele>190.47839355469</ele>
        <time>2012-07-25T07:02:15Z</time>
      </trkpt>
      <trkpt lat="49.00526" lon="5.93915">
        <ele>189.99768066406</ele>
        <time>2012-07-25T07:02:22Z</time>
      </trkpt>
      <trkpt lat="49.00525" lon="5.93912">
        <ele>189.51696777344</ele>
        <time>2012-07-25T07:02:24Z</time>
      </trkpt>
      <trkpt lat="49.0052" lon="5.93903">
        <ele>189.99768066406</ele>
        <time>2012-07-25T07:02:28Z</time>
      </trkpt>
      <trkpt lat="49.00513" lon="5.93885">
        <ele>190.47839355469</ele>
        <time>2012-07-25T07:02:34Z</time>
      </trkpt>
      <trkpt lat="49.00497" lon="5.9385">
        <ele>190.958984375</ele>
        <time>2012-07-25T07:02:44Z</time>
      </trkpt>
      <trkpt lat="49.00484" lon="5.93817">
        <ele>190.958984375</ele>
        <time>2012-07-25T07:02:52Z</time>
      </trkpt>
      <trkpt lat="49.00468" lon="5.93783">
        <ele>190.958984375</ele>
        <time>2012-07-25T07:03:00Z</time>
      </trkpt>
      <trkpt lat="49.00457" lon="5.93759">
        <ele>190.958984375</ele>
        <time>2012-07-25T07:03:07Z</time>
      </trkpt>
      <trkpt lat="49.00443" lon="5.93729">
        <ele>191.43957519531</ele>
        <time>2012-07-25T07:03:15Z</time>
      </trkpt>
      <trkpt lat="49.00429" lon="5.93697">
        <ele>191.92028808594</ele>
        <time>2012-07-25T07:03:21Z</time>
      </trkpt>
      <trkpt lat="49.00407" lon="5.93649">
        <ele>192.88171386719</ele>
        <time>2012-07-25T07:03:29Z</time>
      </trkpt>
      <trkpt lat="49.00378" lon="5.93585">
        <ele>193.84301757812</ele>
        <time>2012-07-25T07:03:39Z</time>
      </trkpt>
      <trkpt lat="49.00354" lon="5.9353">
        <ele>194.32373046875</ele>
        <time>2012-07-25T07:03:46Z</time>
      </trkpt>
      <trkpt lat="49.00326" lon="5.93468">
        <ele>193.84301757812</ele>
        <time>2012-07-25T07:03:54Z</time>
      </trkpt>
      <trkpt lat="49.00299" lon="5.9341">
        <ele>195.765625</ele>
        <time>2012-07-25T07:04:02Z</time>
      </trkpt>
      <trkpt lat="49.00275" lon="5.93349">
        <ele>195.765625</ele>
        <time>2012-07-25T07:04:10Z</time>
      </trkpt>
      <trkpt lat="49.00259" lon="5.93284">
        <ele>196.24633789062</ele>
        <time>2012-07-25T07:04:17Z</time>
      </trkpt>
      <trkpt lat="49.00237" lon="5.93203">
        <ele>195.765625</ele>
        <time>2012-07-25T07:04:25Z</time>
      </trkpt>
      <trkpt lat="49.00211" lon="5.93137">
        <ele>194.80432128906</ele>
        <time>2012-07-25T07:04:32Z</time>
      </trkpt>
      <trkpt lat="49.00168" lon="5.93045">
        <ele>194.80432128906</ele>
        <time>2012-07-25T07:04:42Z</time>
      </trkpt>
      <trkpt lat="49.00121" lon="5.92957">
        <ele>193.84301757812</ele>
        <time>2012-07-25T07:04:52Z</time>
      </trkpt>
      <trkpt lat="49.00084" lon="5.92891">
        <ele>194.32373046875</ele>
        <time>2012-07-25T07:05:00Z</time>
      </trkpt>
      <trkpt lat="49.00042" lon="5.92828">
        <ele>194.80432128906</ele>
        <time>2012-07-25T07:05:08Z</time>
      </trkpt>
      <trkpt lat="49" lon="5.92786">
        <ele>195.28491210938</ele>
        <time>2012-07-25T07:05:15Z</time>
      </trkpt>
      <trkpt lat="48.99949" lon="5.92749">
        <ele>194.80432128906</ele>
        <time>2012-07-25T07:05:23Z</time>
      </trkpt>
      <trkpt lat="48.99893" lon="5.92711">
        <ele>196.24633789062</ele>
        <time>2012-07-25T07:05:32Z</time>
      </trkpt>
      <trkpt lat="48.99883" lon="5.92703">
        <ele>197.20751953125</ele>
        <time>2012-07-25T07:05:34Z</time>
      </trkpt>
      <trkpt lat="48.99833" lon="5.92663">
        <ele>198.1689453125</ele>
        <time>2012-07-25T07:05:43Z</time>
      </trkpt>
      <trkpt lat="48.99784" lon="5.92616">
        <ele>198.64953613281</ele>
        <time>2012-07-25T07:05:52Z</time>
      </trkpt>
      <trkpt lat="48.99749" lon="5.92572">
        <ele>200.09167480469</ele>
        <time>2012-07-25T07:05:59Z</time>
      </trkpt>
      <trkpt lat="48.99715" lon="5.92537">
        <ele>199.13012695312</ele>
        <time>2012-07-25T07:06:05Z</time>
      </trkpt>
      <trkpt lat="48.99703" lon="5.92523">
        <ele>198.64953613281</ele>
        <time>2012-07-25T07:06:07Z</time>
      </trkpt>
      <trkpt lat="48.99682" lon="5.92477">
        <ele>199.13012695312</ele>
        <time>2012-07-25T07:06:12Z</time>
      </trkpt>
      <trkpt lat="48.9968" lon="5.92467">
        <ele>199.13012695312</ele>
        <time>2012-07-25T07:06:13Z</time>
      </trkpt>
      <trkpt lat="48.9967" lon="5.92391">
        <ele>201.05285644531</ele>
        <time>2012-07-25T07:06:21Z</time>
      </trkpt>
      <trkpt lat="48.99664" lon="5.92318">
        <ele>201.05285644531</ele>
        <time>2012-07-25T07:06:29Z</time>
      </trkpt>
      <trkpt lat="48.99647" lon="5.92247">
        <ele>200.572265625</ele>
        <time>2012-07-25T07:06:37Z</time>
      </trkpt>
      <trkpt lat="48.9962" lon="5.92163">
        <ele>199.13012695312</ele>
        <time>2012-07-25T07:06:46Z</time>
      </trkpt>
      <trkpt lat="48.99594" lon="5.92087">
        <ele>197.20751953125</ele>
        <time>2012-07-25T07:06:53Z</time>
      </trkpt>
      <trkpt lat="48.99578" lon="5.92039">
        <ele>195.28491210938</ele>
        <time>2012-07-25T07:06:57Z</time>
      </trkpt>
      <trkpt lat="48.99554" lon="5.91962">
        <ele>195.765625</ele>
        <time>2012-07-25T07:07:04Z</time>
      </trkpt>
      <trkpt lat="48.99521" lon="5.91856">
        <ele>198.64953613281</ele>
        <time>2012-07-25T07:07:15Z</time>
      </trkpt>
      <trkpt lat="48.99497" lon="5.91775">
        <ele>198.64953613281</ele>
        <time>2012-07-25T07:07:24Z</time>
      </trkpt>
      <trkpt lat="48.99473" lon="5.91697">
        <ele>200.572265625</ele>
        <time>2012-07-25T07:07:33Z</time>
      </trkpt>
      <trkpt lat="48.99448" lon="5.91619">
        <ele>200.572265625</ele>
        <time>2012-07-25T07:07:42Z</time>
      </trkpt>
      <trkpt lat="48.99412" lon="5.91515">
        <ele>200.09167480469</ele>
        <time>2012-07-25T07:07:54Z</time>
      </trkpt>
      <trkpt lat="48.99382" lon="5.91446">
        <ele>200.572265625</ele>
        <time>2012-07-25T07:08:02Z</time>
      </trkpt>
      <trkpt lat="48.99343" lon="5.91364">
        <ele>200.09167480469</ele>
        <time>2012-07-25T07:08:12Z</time>
      </trkpt>
      <trkpt lat="48.99305" lon="5.91295">
        <ele>199.61083984375</ele>
        <time>2012-07-25T07:08:20Z</time>
      </trkpt>
      <trkpt lat="48.99263" lon="5.91225">
        <ele>198.64953613281</ele>
        <time>2012-07-25T07:08:28Z</time>
      </trkpt>
      <trkpt lat="48.99213" lon="5.91157">
        <ele>200.09167480469</ele>
        <time>2012-07-25T07:08:37Z</time>
      </trkpt>
      <trkpt lat="48.99191" lon="5.91127">
        <ele>201.05285644531</ele>
        <time>2012-07-25T07:08:41Z</time>
      </trkpt>
      <trkpt lat="48.99142" lon="5.91063">
        <ele>203.45617675781</ele>
        <time>2012-07-25T07:08:50Z</time>
      </trkpt>
      <trkpt lat="48.99085" lon="5.90989">
        <ele>202.49487304688</ele>
        <time>2012-07-25T07:09:01Z</time>
      </trkpt>
      <trkpt lat="48.99038" lon="5.90939">
        <ele>203.93688964844</ele>
        <time>2012-07-25T07:09:09Z</time>
      </trkpt>
      <trkpt lat="48.98982" lon="5.90894">
        <ele>203.93688964844</ele>
        <time>2012-07-25T07:09:18Z</time>
      </trkpt>
      <trkpt lat="48.98933" lon="5.90866">
        <ele>202.49487304688</ele>
        <time>2012-07-25T07:09:25Z</time>
      </trkpt>
      <trkpt lat="48.98883" lon="5.90836">
        <ele>202.01428222656</ele>
        <time>2012-07-25T07:09:32Z</time>
      </trkpt>
      <trkpt lat="48.98852" lon="5.90788">
        <ele>201.53356933594</ele>
        <time>2012-07-25T07:09:38Z</time>
      </trkpt>
      <trkpt lat="48.98813" lon="5.90697">
        <ele>200.572265625</ele>
        <time>2012-07-25T07:09:48Z</time>
      </trkpt>
      <trkpt lat="48.98802" lon="5.90678">
        <ele>199.61083984375</ele>
        <time>2012-07-25T07:09:50Z</time>
      </trkpt>
      <trkpt lat="48.98783" lon="5.90648">
        <ele>198.1689453125</ele>
        <time>2012-07-25T07:09:53Z</time>
      </trkpt>
      <trkpt lat="48.98758" lon="5.90578">
        <ele>196.72692871094</ele>
        <time>2012-07-25T07:09:59Z</time>
      </trkpt>
      <trkpt lat="48.9874" lon="5.90502">
        <ele>197.20751953125</ele>
        <time>2012-07-25T07:10:06Z</time>
      </trkpt>
      <trkpt lat="48.98738" lon="5.90492">
        <ele>196.72692871094</ele>
        <time>2012-07-25T07:10:07Z</time>
      </trkpt>
      <trkpt lat="48.98718" lon="5.90472">
        <ele>197.20751953125</ele>
        <time>2012-07-25T07:10:11Z</time>
      </trkpt>
      <trkpt lat="48.98713" lon="5.90474">
        <ele>197.20751953125</ele>
        <time>2012-07-25T07:10:12Z</time>
      </trkpt>
      <trkpt lat="48.98671" lon="5.90502">
        <ele>197.20751953125</ele>
        <time>2012-07-25T07:10:20Z</time>
      </trkpt>
      <trkpt lat="48.9865" lon="5.90516">
        <ele>198.1689453125</ele>
        <time>2012-07-25T07:10:24Z</time>
      </trkpt>
      <trkpt lat="48.98638" lon="5.90516">
        <ele>200.09167480469</ele>
        <time>2012-07-25T07:10:26Z</time>
      </trkpt>
      <trkpt lat="48.98628" lon="5.90509">
        <ele>201.53356933594</ele>
        <time>2012-07-25T07:10:28Z</time>
      </trkpt>
      <trkpt lat="48.98595" lon="5.90468">
        <ele>202.49487304688</ele>
        <time>2012-07-25T07:10:36Z</time>
      </trkpt>
      <trkpt lat="48.98577" lon="5.90433">
        <ele>204.41748046875</ele>
        <time>2012-07-25T07:10:42Z</time>
      </trkpt>
      <trkpt lat="48.9856" lon="5.90385">
        <ele>205.85949707031</ele>
        <time>2012-07-25T07:10:50Z</time>
      </trkpt>
      <trkpt lat="48.98556" lon="5.90375">
        <ele>206.34008789062</ele>
        <time>2012-07-25T07:10:52Z</time>
      </trkpt>
      <trkpt lat="48.98531" lon="5.90356">
        <ele>208.74340820312</ele>
        <time>2012-07-25T07:10:58Z</time>
      </trkpt>
      <trkpt lat="48.9852" lon="5.90356">
        <ele>208.74340820312</ele>
        <time>2012-07-25T07:11:00Z</time>
      </trkpt>
      <trkpt lat="48.9849" lon="5.90359">
        <ele>209.70483398438</ele>
        <time>2012-07-25T07:11:06Z</time>
      </trkpt>
      <trkpt lat="48.98476" lon="5.90354">
        <ele>211.14672851562</ele>
        <time>2012-07-25T07:11:09Z</time>
      </trkpt>
      <trkpt lat="48.98463" lon="5.90333">
        <ele>211.62744140625</ele>
        <time>2012-07-25T07:11:13Z</time>
      </trkpt>
      <trkpt lat="48.98461" lon="5.90327">
        <ele>212.10803222656</ele>
        <time>2012-07-25T07:11:14Z</time>
      </trkpt>
      <trkpt lat="48.98435" lon="5.90273">
        <ele>212.58862304688</ele>
        <time>2012-07-25T07:11:22Z</time>
      </trkpt>
      <trkpt lat="48.98399" lon="5.90211">
        <ele>211.14672851562</ele>
        <time>2012-07-25T07:11:31Z</time>
      </trkpt>
      <trkpt lat="48.9836" lon="5.90169">
        <ele>211.62744140625</ele>
        <time>2012-07-25T07:11:38Z</time>
      </trkpt>
      <trkpt lat="48.98309" lon="5.90136">
        <ele>210.666015625</ele>
        <time>2012-07-25T07:11:46Z</time>
      </trkpt>
      <trkpt lat="48.98249" lon="5.90106">
        <ele>210.18542480469</ele>
        <time>2012-07-25T07:11:55Z</time>
      </trkpt>
      <trkpt lat="48.98191" lon="5.90076">
        <ele>209.70483398438</ele>
        <time>2012-07-25T07:12:03Z</time>
      </trkpt>
      <trkpt lat="48.98132" lon="5.90046">
        <ele>209.22412109375</ele>
        <time>2012-07-25T07:12:11Z</time>
      </trkpt>
      <trkpt lat="48.9808" lon="5.90014">
        <ele>210.666015625</ele>
        <time>2012-07-25T07:12:19Z</time>
      </trkpt>
      <trkpt lat="48.98035" lon="5.89983">
        <ele>211.62744140625</ele>
        <time>2012-07-25T07:12:26Z</time>
      </trkpt>
      <trkpt lat="48.97991" lon="5.8994">
        <ele>210.666015625</ele>
        <time>2012-07-25T07:12:33Z</time>
      </trkpt>
      <trkpt lat="48.97961" lon="5.89904">
        <ele>211.62744140625</ele>
        <time>2012-07-25T07:12:38Z</time>
      </trkpt>
      <trkpt lat="48.97918" lon="5.89842">
        <ele>210.666015625</ele>
        <time>2012-07-25T07:12:46Z</time>
      </trkpt>
      <trkpt lat="48.97891" lon="5.89791">
        <ele>210.666015625</ele>
        <time>2012-07-25T07:12:52Z</time>
      </trkpt>
      <trkpt lat="48.9786" lon="5.89716">
        <ele>210.666015625</ele>
        <time>2012-07-25T07:13:00Z</time>
      </trkpt>
      <trkpt lat="48.97842" lon="5.89654">
        <ele>211.14672851562</ele>
        <time>2012-07-25T07:13:06Z</time>
      </trkpt>
      <trkpt lat="48.97824" lon="5.89563">
        <ele>210.666015625</ele>
        <time>2012-07-25T07:13:14Z</time>
      </trkpt>
      <trkpt lat="48.97816" lon="5.89501">
        <ele>210.666015625</ele>
        <time>2012-07-25T07:13:20Z</time>
      </trkpt>
      <trkpt lat="48.97814" lon="5.89467">
        <ele>210.18542480469</ele>
        <time>2012-07-25T07:13:23Z</time>
      </trkpt>
      <trkpt lat="48.97812" lon="5.89407">
        <ele>209.22412109375</ele>
        <time>2012-07-25T07:13:28Z</time>
      </trkpt>
      <trkpt lat="48.97814" lon="5.89351">
        <ele>207.30139160156</ele>
        <time>2012-07-25T07:13:32Z</time>
      </trkpt>
      <trkpt lat="48.97814" lon="5.89336">
        <ele>206.82067871094</ele>
        <time>2012-07-25T07:13:33Z</time>
      </trkpt>
      <trkpt lat="48.97826" lon="5.89232">
        <ele>204.41748046875</ele>
        <time>2012-07-25T07:13:40Z</time>
      </trkpt>
      <trkpt lat="48.97827" lon="5.89217">
        <ele>204.41748046875</ele>
        <time>2012-07-25T07:13:41Z</time>
      </trkpt>
      <trkpt lat="48.97832" lon="5.89133">
        <ele>202.01428222656</ele>
        <time>2012-07-25T07:13:46Z</time>
      </trkpt>
      <trkpt lat="48.97834" lon="5.89067">
        <ele>200.09167480469</ele>
        <time>2012-07-25T07:13:50Z</time>
      </trkpt>
      <trkpt lat="48.97851" lon="5.89012">
        <ele>199.61083984375</ele>
        <time>2012-07-25T07:13:54Z</time>
      </trkpt>
      <trkpt lat="48.97847" lon="5.88977">
        <ele>200.09167480469</ele>
        <time>2012-07-25T07:13:57Z</time>
      </trkpt>
      <trkpt lat="48.97837" lon="5.88958">
        <ele>201.05285644531</ele>
        <time>2012-07-25T07:13:59Z</time>
      </trkpt>
      <trkpt lat="48.97804" lon="5.88902">
        <ele>202.97546386719</ele>
        <time>2012-07-25T07:14:06Z</time>
      </trkpt>
      <trkpt lat="48.97789" lon="5.88855">
        <ele>202.49487304688</ele>
        <time>2012-07-25T07:14:11Z</time>
      </trkpt>
      <trkpt lat="48.97771" lon="5.88766">
        <ele>202.97546386719</ele>
        <time>2012-07-25T07:14:19Z</time>
      </trkpt>
      <trkpt lat="48.97769" lon="5.88756">
        <ele>202.97546386719</ele>
        <time>2012-07-25T07:14:20Z</time>
      </trkpt>
      <trkpt lat="48.97749" lon="5.88708">
        <ele>203.45617675781</ele>
        <time>2012-07-25T07:14:25Z</time>
      </trkpt>
      <trkpt lat="48.97724" lon="5.88681">
        <ele>203.45617675781</ele>
        <time>2012-07-25T07:14:29Z</time>
      </trkpt>
      <trkpt lat="48.97694" lon="5.88664">
        <ele>202.97546386719</ele>
        <time>2012-07-25T07:14:33Z</time>
      </trkpt>
      <trkpt lat="48.97662" lon="5.88665">
        <ele>202.49487304688</ele>
        <time>2012-07-25T07:14:37Z</time>
      </trkpt>
      <trkpt lat="48.9763" lon="5.88687">
        <ele>202.97546386719</ele>
        <time>2012-07-25T07:14:41Z</time>
      </trkpt>
      <trkpt lat="48.97624" lon="5.88696">
        <ele>202.01428222656</ele>
        <time>2012-07-25T07:14:42Z</time>
      </trkpt>
      <trkpt lat="48.97582" lon="5.88746">
        <ele>200.09167480469</ele>
        <time>2012-07-25T07:14:48Z</time>
      </trkpt>
      <trkpt lat="48.9755" lon="5.88786">
        <ele>200.572265625</ele>
        <time>2012-07-25T07:14:53Z</time>
      </trkpt>
      <trkpt lat="48.97517" lon="5.88831">
        <ele>200.572265625</ele>
        <time>2012-07-25T07:14:59Z</time>
      </trkpt>
      <trkpt lat="48.97483" lon="5.88867">
        <ele>202.01428222656</ele>
        <time>2012-07-25T07:15:05Z</time>
      </trkpt>
      <trkpt lat="48.97445" lon="5.8889">
        <ele>202.49487304688</ele>
        <time>2012-07-25T07:15:11Z</time>
      </trkpt>
      <trkpt lat="48.97404" lon="5.88904">
        <ele>203.45617675781</ele>
        <time>2012-07-25T07:15:17Z</time>
      </trkpt>
      <trkpt lat="48.97364" lon="5.88907">
        <ele>203.93688964844</ele>
        <time>2012-07-25T07:15:23Z</time>
      </trkpt>
      <trkpt lat="48.97318" lon="5.88924">
        <ele>205.37878417969</ele>
        <time>2012-07-25T07:15:30Z</time>
      </trkpt>
      <trkpt lat="48.97292" lon="5.88935">
        <ele>205.37878417969</ele>
        <time>2012-07-25T07:15:34Z</time>
      </trkpt>
      <trkpt lat="48.97267" lon="5.88931">
        <ele>205.37878417969</ele>
        <time>2012-07-25T07:15:38Z</time>
      </trkpt>
      <trkpt lat="48.97252" lon="5.88911">
        <ele>205.85949707031</ele>
        <time>2012-07-25T07:15:41Z</time>
      </trkpt>
      <trkpt lat="48.97247" lon="5.88902">
        <ele>205.37878417969</ele>
        <time>2012-07-25T07:15:42Z</time>
      </trkpt>
      <trkpt lat="48.97208" lon="5.88803">
        <ele>205.85949707031</ele>
        <time>2012-07-25T07:15:52Z</time>
      </trkpt>
      <trkpt lat="48.97165" lon="5.88697">
        <ele>205.37878417969</ele>
        <time>2012-07-25T07:16:03Z</time>
      </trkpt>
      <trkpt lat="48.97136" lon="5.88627">
        <ele>207.30139160156</ele>
        <time>2012-07-25T07:16:11Z</time>
      </trkpt>
      <trkpt lat="48.97104" lon="5.8855">
        <ele>206.82067871094</ele>
        <time>2012-07-25T07:16:20Z</time>
      </trkpt>
      <trkpt lat="48.97081" lon="5.88509">
        <ele>205.85949707031</ele>
        <time>2012-07-25T07:16:24Z</time>
      </trkpt>
      <trkpt lat="48.97063" lon="5.88462">
        <ele>203.45617675781</ele>
        <time>2012-07-25T07:16:28Z</time>
      </trkpt>
      <trkpt lat="48.97062" lon="5.88449">
        <ele>202.97546386719</ele>
        <time>2012-07-25T07:16:29Z</time>
      </trkpt>
      <trkpt lat="48.97056" lon="5.88384">
        <ele>203.45617675781</ele>
        <time>2012-07-25T07:16:34Z</time>
      </trkpt>
      <trkpt lat="48.97058" lon="5.88363">
        <ele>204.41748046875</ele>
        <time>2012-07-25T07:16:36Z</time>
      </trkpt>
      <trkpt lat="48.97049" lon="5.88312">
        <ele>206.34008789062</ele>
        <time>2012-07-25T07:16:41Z</time>
      </trkpt>
      <trkpt lat="48.97041" lon="5.88297">
        <ele>205.85949707031</ele>
        <time>2012-07-25T07:16:43Z</time>
      </trkpt>
      <trkpt lat="48.97007" lon="5.88272">
        <ele>207.30139160156</ele>
        <time>2012-07-25T07:16:49Z</time>
      </trkpt>
      <trkpt lat="48.96988" lon="5.88273">
        <ele>207.30139160156</ele>
        <time>2012-07-25T07:16:52Z</time>
      </trkpt>
      <trkpt lat="48.96915" lon="5.8829">
        <ele>209.70483398438</ele>
        <time>2012-07-25T07:17:04Z</time>
      </trkpt>
      <trkpt lat="48.96869" lon="5.88294">
        <ele>210.666015625</ele>
        <time>2012-07-25T07:17:12Z</time>
      </trkpt>
      <trkpt lat="48.96838" lon="5.88278">
        <ele>211.14672851562</ele>
        <time>2012-07-25T07:17:17Z</time>
      </trkpt>
      <trkpt lat="48.96808" lon="5.88242">
        <ele>211.14672851562</ele>
        <time>2012-07-25T07:17:23Z</time>
      </trkpt>
      <trkpt lat="48.9679" lon="5.88206">
        <ele>212.58862304688</ele>
        <time>2012-07-25T07:17:28Z</time>
      </trkpt>
      <trkpt lat="48.96778" lon="5.8816">
        <ele>214.51123046875</ele>
        <time>2012-07-25T07:17:35Z</time>
      </trkpt>
      <trkpt lat="48.96772" lon="5.88119">
        <ele>216.91467285156</ele>
        <time>2012-07-25T07:17:42Z</time>
      </trkpt>
      <trkpt lat="48.96775" lon="5.88076">
        <ele>218.35656738281</ele>
        <time>2012-07-25T07:17:49Z</time>
      </trkpt>
      <trkpt lat="48.96777" lon="5.88069">
        <ele>218.83728027344</ele>
        <time>2012-07-25T07:17:50Z</time>
      </trkpt>
      <trkpt lat="48.9678" lon="5.88058">
        <ele>219.79858398438</ele>
        <time>2012-07-25T07:17:52Z</time>
      </trkpt>
      <trkpt lat="48.96793" lon="5.88016">
        <ele>220.75988769531</ele>
        <time>2012-07-25T07:18:00Z</time>
      </trkpt>
      <trkpt lat="48.96805" lon="5.87976">
        <ele>222.68249511719</ele>
        <time>2012-07-25T07:18:08Z</time>
      </trkpt>
      <trkpt lat="48.96814" lon="5.87942">
        <ele>225.0859375</ele>
        <time>2012-07-25T07:18:15Z</time>
      </trkpt>
      <trkpt lat="48.96822" lon="5.87912">
        <ele>226.52783203125</ele>
        <time>2012-07-25T07:18:22Z</time>
      </trkpt>
      <trkpt lat="48.96831" lon="5.87885">
        <ele>228.93115234375</ele>
        <time>2012-07-25T07:18:28Z</time>
      </trkpt>
      <trkpt lat="48.96833" lon="5.87881">
        <ele>228.93115234375</ele>
        <time>2012-07-25T07:18:29Z</time>
      </trkpt>
      <trkpt lat="48.9684" lon="5.87857">
        <ele>230.373046875</ele>
        <time>2012-07-25T07:18:35Z</time>
      </trkpt>
      <trkpt lat="48.96853" lon="5.87831">
        <ele>231.81494140625</ele>
        <time>2012-07-25T07:18:42Z</time>
      </trkpt>
      <trkpt lat="48.96871" lon="5.87804">
        <ele>233.73767089844</ele>
        <time>2012-07-25T07:18:50Z</time>
      </trkpt>
      <trkpt lat="48.96891" lon="5.87786">
        <ele>234.69909667969</ele>
        <time>2012-07-25T07:18:57Z</time>
      </trkpt>
      <trkpt lat="48.96917" lon="5.87757">
        <ele>236.62170410156</ele>
        <time>2012-07-25T07:19:07Z</time>
      </trkpt>
      <trkpt lat="48.96936" lon="5.87725">
        <ele>237.58288574219</ele>
        <time>2012-07-25T07:19:15Z</time>
      </trkpt>
      <trkpt lat="48.96949" lon="5.87689">
        <ele>239.50549316406</ele>
        <time>2012-07-25T07:19:23Z</time>
      </trkpt>
      <trkpt lat="48.96959" lon="5.8765">
        <ele>240.94763183594</ele>
        <time>2012-07-25T07:19:31Z</time>
      </trkpt>
      <trkpt lat="48.96966" lon="5.87597">
        <ele>241.90893554688</ele>
        <time>2012-07-25T07:19:41Z</time>
      </trkpt>
      <trkpt lat="48.96972" lon="5.8755">
        <ele>244.31225585938</ele>
        <time>2012-07-25T07:19:50Z</time>
      </trkpt>
      <trkpt lat="48.96972" lon="5.87512">
        <ele>245.75415039062</ele>
        <time>2012-07-25T07:19:57Z</time>
      </trkpt>
      <trkpt lat="48.96964" lon="5.87469">
        <ele>247.19604492188</ele>
        <time>2012-07-25T07:20:05Z</time>
      </trkpt>
      <trkpt lat="48.9695" lon="5.87421">
        <ele>249.59948730469</ele>
        <time>2012-07-25T07:20:14Z</time>
      </trkpt>
      <trkpt lat="48.96949" lon="5.87416">
        <ele>249.59948730469</ele>
        <time>2012-07-25T07:20:15Z</time>
      </trkpt>
      <trkpt lat="48.96937" lon="5.87378">
        <ele>250.56079101562</ele>
        <time>2012-07-25T07:20:23Z</time>
      </trkpt>
      <trkpt lat="48.96924" lon="5.87327">
        <ele>252.4833984375</ele>
        <time>2012-07-25T07:20:33Z</time>
      </trkpt>
      <trkpt lat="48.96914" lon="5.87279">
        <ele>254.40600585938</ele>
        <time>2012-07-25T07:20:42Z</time>
      </trkpt>
      <trkpt lat="48.96907" lon="5.87229">
        <ele>256.32873535156</ele>
        <time>2012-07-25T07:20:51Z</time>
      </trkpt>
      <trkpt lat="48.96902" lon="5.87174">
        <ele>257.77075195312</ele>
        <time>2012-07-25T07:21:01Z</time>
      </trkpt>
      <trkpt lat="48.96896" lon="5.8712">
        <ele>259.693359375</ele>
        <time>2012-07-25T07:21:11Z</time>
      </trkpt>
      <trkpt lat="48.96889" lon="5.87062">
        <ele>262.5771484375</ele>
        <time>2012-07-25T07:21:21Z</time>
      </trkpt>
      <trkpt lat="48.96886" lon="5.8702">
        <ele>264.01928710938</ele>
        <time>2012-07-25T07:21:28Z</time>
      </trkpt>
      <trkpt lat="48.96886" lon="5.87008">
        <ele>264.01928710938</ele>
        <time>2012-07-25T07:21:30Z</time>
      </trkpt>
      <trkpt lat="48.9688" lon="5.86946">
        <ele>264.98059082031</ele>
        <time>2012-07-25T07:21:40Z</time>
      </trkpt>
      <trkpt lat="48.96877" lon="5.86889">
        <ele>266.90319824219</ele>
        <time>2012-07-25T07:21:49Z</time>
      </trkpt>
      <trkpt lat="48.96872" lon="5.86817">
        <ele>269.30651855469</ele>
        <time>2012-07-25T07:22:00Z</time>
      </trkpt>
      <trkpt lat="48.96867" lon="5.86755">
        <ele>269.787109375</ele>
        <time>2012-07-25T07:22:10Z</time>
      </trkpt>
      <trkpt lat="48.9686" lon="5.86736">
        <ele>269.30651855469</ele>
        <time>2012-07-25T07:22:14Z</time>
      </trkpt>
      <trkpt lat="48.96853" lon="5.86738">
        <ele>268.82580566406</ele>
        <time>2012-07-25T07:22:18Z</time>
      </trkpt>
      <trkpt lat="48.96861" lon="5.8674">
        <ele>269.30651855469</ele>
        <time>2012-07-25T07:22:21Z</time>
      </trkpt>
      <trkpt lat="48.96864" lon="5.86725">
        <ele>269.787109375</ele>
        <time>2012-07-25T07:22:24Z</time>
      </trkpt>
      <trkpt lat="48.96858" lon="5.86644">
        <ele>270.74841308594</ele>
        <time>2012-07-25T07:22:36Z</time>
      </trkpt>
      <trkpt lat="48.96854" lon="5.86592">
        <ele>270.74841308594</ele>
        <time>2012-07-25T07:22:43Z</time>
      </trkpt>
      <trkpt lat="48.9685" lon="5.86534">
        <ele>270.26770019531</ele>
        <time>2012-07-25T07:22:50Z</time>
      </trkpt>
      <trkpt lat="48.96845" lon="5.86472">
        <ele>270.26770019531</ele>
        <time>2012-07-25T07:22:57Z</time>
      </trkpt>
      <trkpt lat="48.96838" lon="5.86383">
        <ele>269.787109375</ele>
        <time>2012-07-25T07:23:07Z</time>
      </trkpt>
      <trkpt lat="48.96827" lon="5.86306">
        <ele>269.787109375</ele>
        <time>2012-07-25T07:23:15Z</time>
      </trkpt>
      <trkpt lat="48.96811" lon="5.86249">
        <ele>268.82580566406</ele>
        <time>2012-07-25T07:23:21Z</time>
      </trkpt>
      <trkpt lat="48.96784" lon="5.86192">
        <ele>268.34509277344</ele>
        <time>2012-07-25T07:23:27Z</time>
      </trkpt>
      <trkpt lat="48.96749" lon="5.8614">
        <ele>268.34509277344</ele>
        <time>2012-07-25T07:23:33Z</time>
      </trkpt>
      <trkpt lat="48.96708" lon="5.86103">
        <ele>267.38391113281</ele>
        <time>2012-07-25T07:23:39Z</time>
      </trkpt>
      <trkpt lat="48.96647" lon="5.8607">
        <ele>265.94189453125</ele>
        <time>2012-07-25T07:23:47Z</time>
      </trkpt>
      <trkpt lat="48.96572" lon="5.86032">
        <ele>265.94189453125</ele>
        <time>2012-07-25T07:23:57Z</time>
      </trkpt>
      <trkpt lat="48.96505" lon="5.85997">
        <ele>265.46130371094</ele>
        <time>2012-07-25T07:24:06Z</time>
      </trkpt>
      <trkpt lat="48.96447" lon="5.85969">
        <ele>264.49987792969</ele>
        <time>2012-07-25T07:24:14Z</time>
      </trkpt>
      <trkpt lat="48.96384" lon="5.85935">
        <ele>264.98059082031</ele>
        <time>2012-07-25T07:24:23Z</time>
      </trkpt>
      <trkpt lat="48.96284" lon="5.85884">
        <ele>264.49987792969</ele>
        <time>2012-07-25T07:24:37Z</time>
      </trkpt>
      <trkpt lat="48.96218" lon="5.85851">
        <ele>263.05786132812</ele>
        <time>2012-07-25T07:24:46Z</time>
      </trkpt>
      <trkpt lat="48.96164" lon="5.85823">
        <ele>261.61596679688</ele>
        <time>2012-07-25T07:24:53Z</time>
      </trkpt>
      <trkpt lat="48.96138" lon="5.85809">
        <ele>256.80932617188</ele>
        <time>2012-07-25T07:24:56Z</time>
      </trkpt>
      <trkpt lat="48.96129" lon="5.85805">
        <ele>256.80932617188</ele>
        <time>2012-07-25T07:24:57Z</time>
      </trkpt>
      <trkpt lat="48.96109" lon="5.85795">
        <ele>253.44470214844</ele>
        <time>2012-07-25T07:24:59Z</time>
      </trkpt>
      <trkpt lat="48.96099" lon="5.8579">
        <ele>252.96398925781</ele>
        <time>2012-07-25T07:25:00Z</time>
      </trkpt>
      <trkpt lat="48.96054" lon="5.85774">
        <ele>249.59948730469</ele>
        <time>2012-07-25T07:25:04Z</time>
      </trkpt>
      <trkpt lat="48.96003" lon="5.85773">
        <ele>247.19604492188</ele>
        <time>2012-07-25T07:25:08Z</time>
      </trkpt>
      <trkpt lat="48.95949" lon="5.85791">
        <ele>245.75415039062</ele>
        <time>2012-07-25T07:25:12Z</time>
      </trkpt>
      <trkpt lat="48.95909" lon="5.8581">
        <ele>242.87023925781</ele>
        <time>2012-07-25T07:25:15Z</time>
      </trkpt>
      <trkpt lat="48.95858" lon="5.85834">
        <ele>239.98620605469</ele>
        <time>2012-07-25T07:25:19Z</time>
      </trkpt>
      <trkpt lat="48.95834" lon="5.85845">
        <ele>236.14099121094</ele>
        <time>2012-07-25T07:25:21Z</time>
      </trkpt>
      <trkpt lat="48.95822" lon="5.8585">
        <ele>236.62170410156</ele>
        <time>2012-07-25T07:25:22Z</time>
      </trkpt>
      <trkpt lat="48.95743" lon="5.8589">
        <ele>235.66027832031</ele>
        <time>2012-07-25T07:25:29Z</time>
      </trkpt>
      <trkpt lat="48.95699" lon="5.8593">
        <ele>236.14099121094</ele>
        <time>2012-07-25T07:25:34Z</time>
      </trkpt>
      <trkpt lat="48.95676" lon="5.85955">
        <ele>237.10229492188</ele>
        <time>2012-07-25T07:25:37Z</time>
      </trkpt>
      <trkpt lat="48.95653" lon="5.86006">
        <ele>236.14099121094</ele>
        <time>2012-07-25T07:25:42Z</time>
      </trkpt>
      <trkpt lat="48.95629" lon="5.86092">
        <ele>234.69909667969</ele>
        <time>2012-07-25T07:25:50Z</time>
      </trkpt>
      <trkpt lat="48.95603" lon="5.86171">
        <ele>235.66027832031</ele>
        <time>2012-07-25T07:25:58Z</time>
      </trkpt>
      <trkpt lat="48.95571" lon="5.86256">
        <ele>234.69909667969</ele>
        <time>2012-07-25T07:26:07Z</time>
      </trkpt>
      <trkpt lat="48.95546" lon="5.86319">
        <ele>233.25708007812</ele>
        <time>2012-07-25T07:26:14Z</time>
      </trkpt>
      <trkpt lat="48.95538" lon="5.86337">
        <ele>231.33435058594</ele>
        <time>2012-07-25T07:26:16Z</time>
      </trkpt>
      <trkpt lat="48.95517" lon="5.86369">
        <ele>229.89233398438</ele>
        <time>2012-07-25T07:26:21Z</time>
      </trkpt>
      <trkpt lat="48.95499" lon="5.86383">
        <ele>229.41174316406</ele>
        <time>2012-07-25T07:26:26Z</time>
      </trkpt>
      <trkpt lat="48.95497" lon="5.86389">
        <ele>229.41174316406</ele>
        <time>2012-07-25T07:26:27Z</time>
      </trkpt>
      <trkpt lat="48.95493" lon="5.86402">
        <ele>228.93115234375</ele>
        <time>2012-07-25T07:26:29Z</time>
      </trkpt>
      <trkpt lat="48.95472" lon="5.86453">
        <ele>227.48913574219</ele>
        <time>2012-07-25T07:26:35Z</time>
      </trkpt>
      <trkpt lat="48.95455" lon="5.86506">
        <ele>225.56652832031</ele>
        <time>2012-07-25T07:26:40Z</time>
      </trkpt>
      <trkpt lat="48.95431" lon="5.86544">
        <ele>220.27917480469</ele>
        <time>2012-07-25T07:26:44Z</time>
      </trkpt>
      <trkpt lat="48.95425" lon="5.86552">
        <ele>220.27917480469</ele>
        <time>2012-07-25T07:26:45Z</time>
      </trkpt>
      <trkpt lat="48.95412" lon="5.86567">
        <ele>219.31799316406</ele>
        <time>2012-07-25T07:26:47Z</time>
      </trkpt>
      <trkpt lat="48.95396" lon="5.86575">
        <ele>218.83728027344</ele>
        <time>2012-07-25T07:26:49Z</time>
      </trkpt>
      <trkpt lat="48.95372" lon="5.86564">
        <ele>218.35656738281</ele>
        <time>2012-07-25T07:26:52Z</time>
      </trkpt>
      <trkpt lat="48.95365" lon="5.86543">
        <ele>218.35656738281</ele>
        <time>2012-07-25T07:26:54Z</time>
      </trkpt>
      <trkpt lat="48.95337" lon="5.86464">
        <ele>218.35656738281</ele>
        <time>2012-07-25T07:27:02Z</time>
      </trkpt>
      <trkpt lat="48.95317" lon="5.86401">
        <ele>217.39538574219</ele>
        <time>2012-07-25T07:27:08Z</time>
      </trkpt>
      <trkpt lat="48.95301" lon="5.86339">
        <ele>215.47265625</ele>
        <time>2012-07-25T07:27:13Z</time>
      </trkpt>
      <trkpt lat="48.95299" lon="5.86284">
        <ele>213.55004882812</ele>
        <time>2012-07-25T07:27:17Z</time>
      </trkpt>
      <trkpt lat="48.95309" lon="5.86232">
        <ele>211.62744140625</ele>
        <time>2012-07-25T07:27:21Z</time>
      </trkpt>
      <trkpt lat="48.9533" lon="5.86174">
        <ele>210.18542480469</ele>
        <time>2012-07-25T07:27:26Z</time>
      </trkpt>
      <trkpt lat="48.95359" lon="5.86098">
        <ele>212.10803222656</ele>
        <time>2012-07-25T07:27:33Z</time>
      </trkpt>
      <trkpt lat="48.9538" lon="5.86041">
        <ele>212.10803222656</ele>
        <time>2012-07-25T07:27:39Z</time>
      </trkpt>
      <trkpt lat="48.95405" lon="5.85965">
        <ele>211.62744140625</ele>
        <time>2012-07-25T07:27:47Z</time>
      </trkpt>
      <trkpt lat="48.95417" lon="5.85903">
        <ele>212.10803222656</ele>
        <time>2012-07-25T07:27:53Z</time>
      </trkpt>
      <trkpt lat="48.95421" lon="5.85851">
        <ele>213.0693359375</ele>
        <time>2012-07-25T07:27:58Z</time>
      </trkpt>
      <trkpt lat="48.95414" lon="5.85787">
        <ele>213.55004882812</ele>
        <time>2012-07-25T07:28:04Z</time>
      </trkpt>
      <trkpt lat="48.95398" lon="5.85724">
        <ele>214.03063964844</ele>
        <time>2012-07-25T07:28:10Z</time>
      </trkpt>
      <trkpt lat="48.95375" lon="5.85668">
        <ele>214.03063964844</ele>
        <time>2012-07-25T07:28:16Z</time>
      </trkpt>
      <trkpt lat="48.95345" lon="5.85619">
        <ele>214.51123046875</ele>
        <time>2012-07-25T07:28:22Z</time>
      </trkpt>
      <trkpt lat="48.95327" lon="5.85599">
        <ele>214.51123046875</ele>
        <time>2012-07-25T07:28:25Z</time>
      </trkpt>
      <trkpt lat="48.95273" lon="5.85565">
        <ele>215.47265625</ele>
        <time>2012-07-25T07:28:33Z</time>
      </trkpt>
      <trkpt lat="48.95211" lon="5.85539">
        <ele>215.95324707031</ele>
        <time>2012-07-25T07:28:42Z</time>
      </trkpt>
      <trkpt lat="48.95176" lon="5.85525">
        <ele>216.43395996094</ele>
        <time>2012-07-25T07:28:48Z</time>
      </trkpt>
      <trkpt lat="48.95149" lon="5.85514">
        <ele>216.43395996094</ele>
        <time>2012-07-25T07:28:54Z</time>
      </trkpt>
      <trkpt lat="48.95126" lon="5.85503">
        <ele>217.39538574219</ele>
        <time>2012-07-25T07:29:00Z</time>
      </trkpt>
      <trkpt lat="48.9509" lon="5.85479">
        <ele>219.31799316406</ele>
        <time>2012-07-25T07:29:09Z</time>
      </trkpt>
      <trkpt lat="48.95049" lon="5.85449">
        <ele>221.24060058594</ele>
        <time>2012-07-25T07:29:19Z</time>
      </trkpt>
      <trkpt lat="48.95017" lon="5.85423">
        <ele>222.20178222656</ele>
        <time>2012-07-25T07:29:27Z</time>
      </trkpt>
      <trkpt lat="48.9497" lon="5.85388">
        <ele>224.60522460938</ele>
        <time>2012-07-25T07:29:39Z</time>
      </trkpt>
      <trkpt lat="48.94925" lon="5.85354">
        <ele>226.52783203125</ele>
        <time>2012-07-25T07:29:51Z</time>
      </trkpt>
      <trkpt lat="48.94891" lon="5.85327">
        <ele>229.41174316406</ele>
        <time>2012-07-25T07:30:00Z</time>
      </trkpt>
      <trkpt lat="48.94852" lon="5.8529">
        <ele>232.77648925781</ele>
        <time>2012-07-25T07:30:11Z</time>
      </trkpt>
      <trkpt lat="48.94824" lon="5.85261">
        <ele>234.21838378906</ele>
        <time>2012-07-25T07:30:19Z</time>
      </trkpt>
      <trkpt lat="48.9478" lon="5.85213">
        <ele>235.66027832031</ele>
        <time>2012-07-25T07:30:31Z</time>
      </trkpt>
      <trkpt lat="48.94751" lon="5.85179">
        <ele>234.69909667969</ele>
        <time>2012-07-25T07:30:38Z</time>
      </trkpt>
      <trkpt lat="48.94717" lon="5.85133">
        <ele>233.73767089844</ele>
        <time>2012-07-25T07:30:45Z</time>
      </trkpt>
      <trkpt lat="48.94673" lon="5.85074">
        <ele>234.21838378906</ele>
        <time>2012-07-25T07:30:54Z</time>
      </trkpt>
      <trkpt lat="48.94648" lon="5.85047">
        <ele>236.14099121094</ele>
        <time>2012-07-25T07:31:00Z</time>
      </trkpt>
      <trkpt lat="48.94613" lon="5.85024">
        <ele>236.62170410156</ele>
        <time>2012-07-25T07:31:07Z</time>
      </trkpt>
      <trkpt lat="48.94566" lon="5.84994">
        <ele>237.58288574219</ele>
        <time>2012-07-25T07:31:16Z</time>
      </trkpt>
      <trkpt lat="48.94522" lon="5.84967">
        <ele>237.58288574219</ele>
        <time>2012-07-25T07:31:24Z</time>
      </trkpt>
      <trkpt lat="48.94474" lon="5.84945">
        <ele>236.62170410156</ele>
        <time>2012-07-25T07:31:32Z</time>
      </trkpt>
      <trkpt lat="48.94434" lon="5.8494">
        <ele>233.73767089844</ele>
        <time>2012-07-25T07:31:37Z</time>
      </trkpt>
      <trkpt lat="48.94425" lon="5.84939">
        <ele>233.73767089844</ele>
        <time>2012-07-25T07:31:38Z</time>
      </trkpt>
      <trkpt lat="48.94376" lon="5.8493">
        <ele>231.81494140625</ele>
        <time>2012-07-25T07:31:43Z</time>
      </trkpt>
      <trkpt lat="48.94355" lon="5.84921">
        <ele>230.373046875</ele>
        <time>2012-07-25T07:31:45Z</time>
      </trkpt>
      <trkpt lat="48.94323" lon="5.84902">
        <ele>227.00854492188</ele>
        <time>2012-07-25T07:31:48Z</time>
      </trkpt>
      <trkpt lat="48.9429" lon="5.84882">
        <ele>225.0859375</ele>
        <time>2012-07-25T07:31:51Z</time>
      </trkpt>
      <trkpt lat="48.94267" lon="5.84867">
        <ele>224.12451171875</ele>
        <time>2012-07-25T07:31:53Z</time>
      </trkpt>
      <trkpt lat="48.9423" lon="5.84816">
        <ele>220.75988769531</ele>
        <time>2012-07-25T07:31:57Z</time>
      </trkpt>
      <trkpt lat="48.94223" lon="5.84799">
        <ele>220.75988769531</ele>
        <time>2012-07-25T07:31:58Z</time>
      </trkpt>
      <trkpt lat="48.94216" lon="5.84742">
        <ele>216.91467285156</ele>
        <time>2012-07-25T07:32:01Z</time>
      </trkpt>
      <trkpt lat="48.94217" lon="5.84723">
        <ele>216.91467285156</ele>
        <time>2012-07-25T07:32:02Z</time>
      </trkpt>
      <trkpt lat="48.94233" lon="5.8467">
        <ele>214.99194335938</ele>
        <time>2012-07-25T07:32:05Z</time>
      </trkpt>
      <trkpt lat="48.94251" lon="5.84643">
        <ele>214.03063964844</ele>
        <time>2012-07-25T07:32:07Z</time>
      </trkpt>
      <trkpt lat="48.9431" lon="5.8456">
        <ele>213.55004882812</ele>
        <time>2012-07-25T07:32:14Z</time>
      </trkpt>
      <trkpt lat="48.94347" lon="5.84507">
        <ele>213.0693359375</ele>
        <time>2012-07-25T07:32:19Z</time>
      </trkpt>
      <trkpt lat="48.94386" lon="5.84465">
        <ele>213.0693359375</ele>
        <time>2012-07-25T07:32:24Z</time>
      </trkpt>
      <trkpt lat="48.944" lon="5.84448">
        <ele>214.51123046875</ele>
        <time>2012-07-25T07:32:26Z</time>
      </trkpt>
      <trkpt lat="48.94412" lon="5.84429">
        <ele>214.51123046875</ele>
        <time>2012-07-25T07:32:28Z</time>
      </trkpt>
      <trkpt lat="48.94456" lon="5.84344">
        <ele>214.51123046875</ele>
        <time>2012-07-25T07:32:36Z</time>
      </trkpt>
      <trkpt lat="48.94494" lon="5.84252">
        <ele>213.55004882812</ele>
        <time>2012-07-25T07:32:44Z</time>
      </trkpt>
      <trkpt lat="48.94508" lon="5.84191">
        <ele>213.55004882812</ele>
        <time>2012-07-25T07:32:49Z</time>
      </trkpt>
      <trkpt lat="48.94507" lon="5.84137">
        <ele>212.10803222656</ele>
        <time>2012-07-25T07:32:53Z</time>
      </trkpt>
      <trkpt lat="48.94506" lon="5.84057">
        <ele>212.58862304688</ele>
        <time>2012-07-25T07:32:59Z</time>
      </trkpt>
      <trkpt lat="48.94505" lon="5.84046">
        <ele>213.0693359375</ele>
        <time>2012-07-25T07:33:00Z</time>
      </trkpt>
      <trkpt lat="48.94488" lon="5.84003">
        <ele>213.0693359375</ele>
        <time>2012-07-25T07:33:04Z</time>
      </trkpt>
      <trkpt lat="48.94443" lon="5.83944">
        <ele>213.55004882812</ele>
        <time>2012-07-25T07:33:11Z</time>
      </trkpt>
      <trkpt lat="48.94403" lon="5.83928">
        <ele>213.0693359375</ele>
        <time>2012-07-25T07:33:16Z</time>
      </trkpt>
      <trkpt lat="48.94351" lon="5.83916">
        <ele>213.55004882812</ele>
        <time>2012-07-25T07:33:23Z</time>
      </trkpt>
      <trkpt lat="48.94337" lon="5.83911">
        <ele>214.51123046875</ele>
        <time>2012-07-25T07:33:25Z</time>
      </trkpt>
      <trkpt lat="48.94326" lon="5.83902">
        <ele>215.95324707031</ele>
        <time>2012-07-25T07:33:27Z</time>
      </trkpt>
      <trkpt lat="48.94292" lon="5.83871">
        <ele>217.39538574219</ele>
        <time>2012-07-25T07:33:33Z</time>
      </trkpt>
      <trkpt lat="48.94259" lon="5.83861">
        <ele>218.35656738281</ele>
        <time>2012-07-25T07:33:38Z</time>
      </trkpt>
      <trkpt lat="48.94206" lon="5.83866">
        <ele>219.31799316406</ele>
        <time>2012-07-25T07:33:46Z</time>
      </trkpt>
      <trkpt lat="48.94163" lon="5.83869">
        <ele>219.79858398438</ele>
        <time>2012-07-25T07:33:53Z</time>
      </trkpt>
      <trkpt lat="48.94145" lon="5.83873">
        <ele>220.27917480469</ele>
        <time>2012-07-25T07:33:56Z</time>
      </trkpt>
      <trkpt lat="48.94122" lon="5.83875">
        <ele>220.75988769531</ele>
        <time>2012-07-25T07:34:00Z</time>
      </trkpt>
      <trkpt lat="48.94078" lon="5.83887">
        <ele>219.79858398438</ele>
        <time>2012-07-25T07:34:07Z</time>
      </trkpt>
      <trkpt lat="48.94033" lon="5.83893">
        <ele>218.35656738281</ele>
        <time>2012-07-25T07:34:13Z</time>
      </trkpt>
      <trkpt lat="48.93993" lon="5.83882">
        <ele>215.95324707031</ele>
        <time>2012-07-25T07:34:18Z</time>
      </trkpt>
      <trkpt lat="48.93953" lon="5.83851">
        <ele>216.43395996094</ele>
        <time>2012-07-25T07:34:24Z</time>
      </trkpt>
      <trkpt lat="48.93932" lon="5.83808">
        <ele>216.91467285156</ele>
        <time>2012-07-25T07:34:29Z</time>
      </trkpt>
      <trkpt lat="48.93929" lon="5.83799">
        <ele>217.39538574219</ele>
        <time>2012-07-25T07:34:30Z</time>
      </trkpt>
      <trkpt lat="48.9392" lon="5.83733">
        <ele>219.79858398438</ele>
        <time>2012-07-25T07:34:38Z</time>
      </trkpt>
      <trkpt lat="48.93909" lon="5.83667">
        <ele>221.24060058594</ele>
        <time>2012-07-25T07:34:47Z</time>
      </trkpt>
      <trkpt lat="48.93901" lon="5.83626">
        <ele>222.68249511719</ele>
        <time>2012-07-25T07:34:53Z</time>
      </trkpt>
      <trkpt lat="48.93884" lon="5.83592">
        <ele>224.60522460938</ele>
        <time>2012-07-25T07:34:59Z</time>
      </trkpt>
      <trkpt lat="48.93881" lon="5.83588">
        <ele>224.60522460938</ele>
        <time>2012-07-25T07:35:00Z</time>
      </trkpt>
      <trkpt lat="48.93874" lon="5.8358">
        <ele>224.60522460938</ele>
        <time>2012-07-25T07:35:02Z</time>
      </trkpt>
      <trkpt lat="48.93853" lon="5.83568">
        <ele>225.0859375</ele>
        <time>2012-07-25T07:35:07Z</time>
      </trkpt>
      <trkpt lat="48.93822" lon="5.83565">
        <ele>226.52783203125</ele>
        <time>2012-07-25T07:35:14Z</time>
      </trkpt>
      <trkpt lat="48.93787" lon="5.83569">
        <ele>227.48913574219</ele>
        <time>2012-07-25T07:35:22Z</time>
      </trkpt>
      <trkpt lat="48.93754" lon="5.8357">
        <ele>229.89233398438</ele>
        <time>2012-07-25T07:35:30Z</time>
      </trkpt>
      <trkpt lat="48.93715" lon="5.83566">
        <ele>231.81494140625</ele>
        <time>2012-07-25T07:35:40Z</time>
      </trkpt>
      <trkpt lat="48.93685" lon="5.8356">
        <ele>233.73767089844</ele>
        <time>2012-07-25T07:35:48Z</time>
      </trkpt>
      <trkpt lat="48.93652" lon="5.83549">
        <ele>235.1796875</ele>
        <time>2012-07-25T07:35:57Z</time>
      </trkpt>
      <trkpt lat="48.93624" lon="5.8354">
        <ele>237.58288574219</ele>
        <time>2012-07-25T07:36:05Z</time>
      </trkpt>
      <trkpt lat="48.93599" lon="5.83529">
        <ele>238.54431152344</ele>
        <time>2012-07-25T07:36:12Z</time>
      </trkpt>
      <trkpt lat="48.93577" lon="5.83512">
        <ele>239.98620605469</ele>
        <time>2012-07-25T07:36:19Z</time>
      </trkpt>
      <trkpt lat="48.9356" lon="5.8349">
        <ele>241.42822265625</ele>
        <time>2012-07-25T07:36:25Z</time>
      </trkpt>
      <trkpt lat="48.93536" lon="5.83468">
        <ele>242.3896484375</ele>
        <time>2012-07-25T07:36:32Z</time>
      </trkpt>
      <trkpt lat="48.93507" lon="5.83444">
        <ele>244.79284667969</ele>
        <time>2012-07-25T07:36:40Z</time>
      </trkpt>
      <trkpt lat="48.93481" lon="5.83424">
        <ele>246.23486328125</ele>
        <time>2012-07-25T07:36:47Z</time>
      </trkpt>
      <trkpt lat="48.93454" lon="5.834">
        <ele>247.6767578125</ele>
        <time>2012-07-25T07:36:55Z</time>
      </trkpt>
      <trkpt lat="48.93423" lon="5.83385">
        <ele>248.15759277344</ele>
        <time>2012-07-25T07:37:03Z</time>
      </trkpt>
      <trkpt lat="48.93388" lon="5.83374">
        <ele>249.11877441406</ele>
        <time>2012-07-25T07:37:11Z</time>
      </trkpt>
      <trkpt lat="48.93343" lon="5.8336">
        <ele>249.59948730469</ele>
        <time>2012-07-25T07:37:20Z</time>
      </trkpt>
      <trkpt lat="48.93288" lon="5.83345">
        <ele>250.08020019531</ele>
        <time>2012-07-25T07:37:30Z</time>
      </trkpt>
      <trkpt lat="48.93227" lon="5.83327">
        <ele>250.08020019531</ele>
        <time>2012-07-25T07:37:41Z</time>
      </trkpt>
      <trkpt lat="48.93184" lon="5.83307">
        <ele>251.04138183594</ele>
        <time>2012-07-25T07:37:49Z</time>
      </trkpt>
      <trkpt lat="48.93141" lon="5.83284">
        <ele>250.56079101562</ele>
        <time>2012-07-25T07:37:57Z</time>
      </trkpt>
      <trkpt lat="48.93131" lon="5.83278">
        <ele>251.04138183594</ele>
        <time>2012-07-25T07:37:59Z</time>
      </trkpt>
      <trkpt lat="48.93097" lon="5.83254">
        <ele>250.08020019531</ele>
        <time>2012-07-25T07:38:07Z</time>
      </trkpt>
      <trkpt lat="48.93093" lon="5.83249">
        <ele>250.08020019531</ele>
        <time>2012-07-25T07:38:08Z</time>
      </trkpt>
      <trkpt lat="48.93065" lon="5.83207">
        <ele>249.59948730469</ele>
        <time>2012-07-25T07:38:16Z</time>
      </trkpt>
      <trkpt lat="48.93045" lon="5.83173">
        <ele>250.08020019531</ele>
        <time>2012-07-25T07:38:22Z</time>
      </trkpt>
      <trkpt lat="48.93007" lon="5.83109">
        <ele>248.15759277344</ele>
        <time>2012-07-25T07:38:32Z</time>
      </trkpt>
      <trkpt lat="48.92984" lon="5.83068">
        <ele>247.6767578125</ele>
        <time>2012-07-25T07:38:39Z</time>
      </trkpt>
      <trkpt lat="48.92955" lon="5.83013">
        <ele>247.6767578125</ele>
        <time>2012-07-25T07:38:48Z</time>
      </trkpt>
      <trkpt lat="48.92927" lon="5.82961">
        <ele>247.6767578125</ele>
        <time>2012-07-25T07:38:57Z</time>
      </trkpt>
      <trkpt lat="48.92912" lon="5.82929">
        <ele>247.6767578125</ele>
        <time>2012-07-25T07:39:03Z</time>
      </trkpt>
      <trkpt lat="48.92888" lon="5.82886">
        <ele>246.71545410156</ele>
        <time>2012-07-25T07:39:11Z</time>
      </trkpt>
      <trkpt lat="48.92859" lon="5.8284">
        <ele>245.75415039062</ele>
        <time>2012-07-25T07:39:19Z</time>
      </trkpt>
      <trkpt lat="48.9282" lon="5.8279">
        <ele>244.79284667969</ele>
        <time>2012-07-25T07:39:28Z</time>
      </trkpt>
      <trkpt lat="48.92777" lon="5.82735">
        <ele>244.79284667969</ele>
        <time>2012-07-25T07:39:38Z</time>
      </trkpt>
      <trkpt lat="48.92735" lon="5.82682">
        <ele>243.83154296875</ele>
        <time>2012-07-25T07:39:47Z</time>
      </trkpt>
      <trkpt lat="48.92692" lon="5.82626">
        <ele>243.83154296875</ele>
        <time>2012-07-25T07:39:56Z</time>
      </trkpt>
      <trkpt lat="48.92644" lon="5.82559">
        <ele>242.87023925781</ele>
        <time>2012-07-25T07:40:06Z</time>
      </trkpt>
      <trkpt lat="48.92628" lon="5.82526">
        <ele>241.90893554688</ele>
        <time>2012-07-25T07:40:10Z</time>
      </trkpt>
      <trkpt lat="48.92592" lon="5.8244">
        <ele>240.46704101562</ele>
        <time>2012-07-25T07:40:20Z</time>
      </trkpt>
      <trkpt lat="48.92564" lon="5.82373">
        <ele>239.50549316406</ele>
        <time>2012-07-25T07:40:27Z</time>
      </trkpt>
      <trkpt lat="48.92522" lon="5.82278">
        <ele>238.54431152344</ele>
        <time>2012-07-25T07:40:37Z</time>
      </trkpt>
      <trkpt lat="48.92498" lon="5.82208">
        <ele>238.54431152344</ele>
        <time>2012-07-25T07:40:44Z</time>
      </trkpt>
      <trkpt lat="48.92485" lon="5.82127">
        <ele>237.10229492188</ele>
        <time>2012-07-25T07:40:51Z</time>
      </trkpt>
      <trkpt lat="48.92484" lon="5.82064">
        <ele>234.69909667969</ele>
        <time>2012-07-25T07:40:56Z</time>
      </trkpt>
      <trkpt lat="48.92485" lon="5.81995">
        <ele>230.85375976562</ele>
        <time>2012-07-25T07:41:01Z</time>
      </trkpt>
      <trkpt lat="48.92486" lon="5.81949">
        <ele>227.9697265625</ele>
        <time>2012-07-25T07:41:04Z</time>
      </trkpt>
      <trkpt lat="48.92486" lon="5.81933">
        <ele>227.9697265625</ele>
        <time>2012-07-25T07:41:05Z</time>
      </trkpt>
      <trkpt lat="48.92486" lon="5.819">
        <ele>227.00854492188</ele>
        <time>2012-07-25T07:41:07Z</time>
      </trkpt>
      <trkpt lat="48.92472" lon="5.81835">
        <ele>225.0859375</ele>
        <time>2012-07-25T07:41:11Z</time>
      </trkpt>
      <trkpt lat="48.92459" lon="5.8181">
        <ele>224.60522460938</ele>
        <time>2012-07-25T07:41:13Z</time>
      </trkpt>
      <trkpt lat="48.92423" lon="5.81744">
        <ele>224.60522460938</ele>
        <time>2012-07-25T07:41:19Z</time>
      </trkpt>
      <trkpt lat="48.92395" lon="5.81663">
        <ele>225.0859375</ele>
        <time>2012-07-25T07:41:26Z</time>
      </trkpt>
      <trkpt lat="48.92375" lon="5.81581">
        <ele>225.0859375</ele>
        <time>2012-07-25T07:41:33Z</time>
      </trkpt>
      <trkpt lat="48.9236" lon="5.81506">
        <ele>225.56652832031</ele>
        <time>2012-07-25T07:41:40Z</time>
      </trkpt>
      <trkpt lat="48.92337" lon="5.81436">
        <ele>225.0859375</ele>
        <time>2012-07-25T07:41:47Z</time>
      </trkpt>
      <trkpt lat="48.92303" lon="5.81344">
        <ele>224.60522460938</ele>
        <time>2012-07-25T07:41:56Z</time>
      </trkpt>
      <trkpt lat="48.92268" lon="5.81264">
        <ele>223.16320800781</ele>
        <time>2012-07-25T07:42:04Z</time>
      </trkpt>
      <trkpt lat="48.92238" lon="5.81194">
        <ele>222.20178222656</ele>
        <time>2012-07-25T07:42:11Z</time>
      </trkpt>
      <trkpt lat="48.92205" lon="5.81098">
        <ele>220.75988769531</ele>
        <time>2012-07-25T07:42:20Z</time>
      </trkpt>
      <trkpt lat="48.92171" lon="5.81024">
        <ele>220.75988769531</ele>
        <time>2012-07-25T07:42:27Z</time>
      </trkpt>
      <trkpt lat="48.92141" lon="5.8097">
        <ele>220.27917480469</ele>
        <time>2012-07-25T07:42:33Z</time>
      </trkpt>
      <trkpt lat="48.92104" lon="5.80903">
        <ele>219.31799316406</ele>
        <time>2012-07-25T07:42:41Z</time>
      </trkpt>
      <trkpt lat="48.92094" lon="5.8088">
        <ele>218.35656738281</ele>
        <time>2012-07-25T07:42:45Z</time>
      </trkpt>
      <trkpt lat="48.92085" lon="5.80876">
        <ele>219.31799316406</ele>
        <time>2012-07-25T07:42:49Z</time>
      </trkpt>
      <trkpt lat="48.9207" lon="5.80878">
        <ele>218.83728027344</ele>
        <time>2012-07-25T07:42:56Z</time>
      </trkpt>
      <trkpt lat="48.92067" lon="5.80876">
        <ele>218.83728027344</ele>
        <time>2012-07-25T07:42:57Z</time>
      </trkpt>
      <trkpt lat="48.92063" lon="5.80882">
        <ele>219.31799316406</ele>
        <time>2012-07-25T07:43:01Z</time>
      </trkpt>
      <trkpt lat="48.92063" lon="5.80882">
        <ele>219.31799316406</ele>
        <time>2012-07-25T07:43:03Z</time>
      </trkpt>
      <trkpt lat="48.92062" lon="5.80882">
        <ele>218.83728027344</ele>
        <time>2012-07-25T07:43:31Z</time>
      </trkpt>
      <trkpt lat="48.92062" lon="5.80883">
        <ele>218.83728027344</ele>
        <time>2012-07-25T07:43:32Z</time>
      </trkpt>
      <trkpt lat="48.92054" lon="5.80892">
        <ele>219.31799316406</ele>
        <time>2012-07-25T07:43:35Z</time>
      </trkpt>
      <trkpt lat="48.92032" lon="5.80917">
        <ele>219.79858398438</ele>
        <time>2012-07-25T07:43:41Z</time>
      </trkpt>
      <trkpt lat="48.92001" lon="5.80956">
        <ele>218.83728027344</ele>
        <time>2012-07-25T07:43:48Z</time>
      </trkpt>
      <trkpt lat="48.91978" lon="5.80993">
        <ele>218.35656738281</ele>
        <time>2012-07-25T07:43:53Z</time>
      </trkpt>
      <trkpt lat="48.91954" lon="5.81042">
        <ele>218.35656738281</ele>
        <time>2012-07-25T07:43:59Z</time>
      </trkpt>
      <trkpt lat="48.91931" lon="5.81076">
        <ele>217.8759765625</ele>
        <time>2012-07-25T07:44:04Z</time>
      </trkpt>
      <trkpt lat="48.91909" lon="5.81077">
        <ele>218.83728027344</ele>
        <time>2012-07-25T07:44:08Z</time>
      </trkpt>
      <trkpt lat="48.91892" lon="5.81047">
        <ele>218.83728027344</ele>
        <time>2012-07-25T07:44:12Z</time>
      </trkpt>
      <trkpt lat="48.91868" lon="5.80997">
        <ele>219.79858398438</ele>
        <time>2012-07-25T07:44:19Z</time>
      </trkpt>
      <trkpt lat="48.91847" lon="5.80967">
        <ele>220.75988769531</ele>
        <time>2012-07-25T07:44:25Z</time>
      </trkpt>
      <trkpt lat="48.9184" lon="5.80957">
        <ele>221.72119140625</ele>
        <time>2012-07-25T07:44:27Z</time>
      </trkpt>
      <trkpt lat="48.91833" lon="5.80947">
        <ele>222.68249511719</ele>
        <time>2012-07-25T07:44:29Z</time>
      </trkpt>
      <trkpt lat="48.91814" lon="5.80921">
        <ele>223.16320800781</ele>
        <time>2012-07-25T07:44:35Z</time>
      </trkpt>
      <trkpt lat="48.91796" lon="5.80928">
        <ele>223.16320800781</ele>
        <time>2012-07-25T07:44:39Z</time>
      </trkpt>
      <trkpt lat="48.91783" lon="5.80942">
        <ele>225.0859375</ele>
        <time>2012-07-25T07:44:42Z</time>
      </trkpt>
      <trkpt lat="48.91773" lon="5.80951">
        <ele>224.60522460938</ele>
        <time>2012-07-25T07:44:44Z</time>
      </trkpt>
      <trkpt lat="48.91745" lon="5.80969">
        <ele>224.60522460938</ele>
        <time>2012-07-25T07:44:49Z</time>
      </trkpt>
      <trkpt lat="48.91714" lon="5.80969">
        <ele>224.12451171875</ele>
        <time>2012-07-25T07:44:54Z</time>
      </trkpt>
      <trkpt lat="48.91709" lon="5.80967">
        <ele>225.56652832031</ele>
        <time>2012-07-25T07:44:55Z</time>
      </trkpt>
      <trkpt lat="48.91668" lon="5.80948">
        <ele>226.52783203125</ele>
        <time>2012-07-25T07:45:02Z</time>
      </trkpt>
      <trkpt lat="48.91614" lon="5.80928">
        <ele>226.52783203125</ele>
        <time>2012-07-25T07:45:10Z</time>
      </trkpt>
      <trkpt lat="48.91564" lon="5.80922">
        <ele>227.00854492188</ele>
        <time>2012-07-25T07:45:17Z</time>
      </trkpt>
      <trkpt lat="48.91502" lon="5.80917">
        <ele>228.45043945312</ele>
        <time>2012-07-25T07:45:26Z</time>
      </trkpt>
      <trkpt lat="48.91463" lon="5.80926">
        <ele>228.45043945312</ele>
        <time>2012-07-25T07:45:32Z</time>
      </trkpt>
      <trkpt lat="48.91427" lon="5.80952">
        <ele>228.45043945312</ele>
        <time>2012-07-25T07:45:38Z</time>
      </trkpt>
      <trkpt lat="48.91376" lon="5.80989">
        <ele>228.45043945312</ele>
        <time>2012-07-25T07:45:46Z</time>
      </trkpt>
      <trkpt lat="48.9132" lon="5.8103">
        <ele>228.93115234375</ele>
        <time>2012-07-25T07:45:55Z</time>
      </trkpt>
      <trkpt lat="48.91291" lon="5.8105">
        <ele>230.373046875</ele>
        <time>2012-07-25T07:46:00Z</time>
      </trkpt>
      <trkpt lat="48.91262" lon="5.81054">
        <ele>231.33435058594</ele>
        <time>2012-07-25T07:46:05Z</time>
      </trkpt>
      <trkpt lat="48.91242" lon="5.81033">
        <ele>231.33435058594</ele>
        <time>2012-07-25T07:46:09Z</time>
      </trkpt>
      <trkpt lat="48.912" lon="5.80963">
        <ele>231.33435058594</ele>
        <time>2012-07-25T07:46:18Z</time>
      </trkpt>
      <trkpt lat="48.91175" lon="5.80921">
        <ele>229.89233398438</ele>
        <time>2012-07-25T07:46:23Z</time>
      </trkpt>
      <trkpt lat="48.91123" lon="5.80836">
        <ele>231.81494140625</ele>
        <time>2012-07-25T07:46:33Z</time>
      </trkpt>
      <trkpt lat="48.91069" lon="5.80747">
        <ele>231.33435058594</ele>
        <time>2012-07-25T07:46:44Z</time>
      </trkpt>
      <trkpt lat="48.91033" lon="5.80687">
        <ele>231.33435058594</ele>
        <time>2012-07-25T07:46:51Z</time>
      </trkpt>
      <trkpt lat="48.90989" lon="5.8062">
        <ele>229.89233398438</ele>
        <time>2012-07-25T07:46:59Z</time>
      </trkpt>
      <trkpt lat="48.90947" lon="5.80594">
        <ele>228.45043945312</ele>
        <time>2012-07-25T07:47:04Z</time>
      </trkpt>
      <trkpt lat="48.90938" lon="5.80593">
        <ele>227.9697265625</ele>
        <time>2012-07-25T07:47:05Z</time>
      </trkpt>
      <trkpt lat="48.90869" lon="5.80591">
        <ele>224.12451171875</ele>
        <time>2012-07-25T07:47:12Z</time>
      </trkpt>
      <trkpt lat="48.90859" lon="5.8059">
        <ele>224.12451171875</ele>
        <time>2012-07-25T07:47:13Z</time>
      </trkpt>
      <trkpt lat="48.90781" lon="5.80584">
        <ele>221.72119140625</ele>
        <time>2012-07-25T07:47:20Z</time>
      </trkpt>
      <trkpt lat="48.9072" lon="5.80579">
        <ele>223.16320800781</ele>
        <time>2012-07-25T07:47:26Z</time>
      </trkpt>
      <trkpt lat="48.90677" lon="5.80584">
        <ele>222.20178222656</ele>
        <time>2012-07-25T07:47:31Z</time>
      </trkpt>
      <trkpt lat="48.90622" lon="5.80593">
        <ele>223.16320800781</ele>
        <time>2012-07-25T07:47:38Z</time>
      </trkpt>
      <trkpt lat="48.90589" lon="5.80587">
        <ele>224.60522460938</ele>
        <time>2012-07-25T07:47:43Z</time>
      </trkpt>
      <trkpt lat="48.90572" lon="5.80581">
        <ele>226.04711914062</ele>
        <time>2012-07-25T07:47:46Z</time>
      </trkpt>
      <trkpt lat="48.90559" lon="5.80575">
        <ele>227.48913574219</ele>
        <time>2012-07-25T07:47:49Z</time>
      </trkpt>
      <trkpt lat="48.9054" lon="5.80564">
        <ele>229.41174316406</ele>
        <time>2012-07-25T07:47:54Z</time>
      </trkpt>
      <trkpt lat="48.90536" lon="5.80562">
        <ele>229.41174316406</ele>
        <time>2012-07-25T07:47:55Z</time>
      </trkpt>
      <trkpt lat="48.90513" lon="5.80545">
        <ele>231.33435058594</ele>
        <time>2012-07-25T07:48:02Z</time>
      </trkpt>
      <trkpt lat="48.90506" lon="5.80539">
        <ele>232.77648925781</ele>
        <time>2012-07-25T07:48:04Z</time>
      </trkpt>
      <trkpt lat="48.90494" lon="5.80529">
        <ele>234.69909667969</ele>
        <time>2012-07-25T07:48:08Z</time>
      </trkpt>
      <trkpt lat="48.90476" lon="5.80511">
        <ele>235.66027832031</ele>
        <time>2012-07-25T07:48:14Z</time>
      </trkpt>
      <trkpt lat="48.90455" lon="5.80488">
        <ele>237.58288574219</ele>
        <time>2012-07-25T07:48:21Z</time>
      </trkpt>
      <trkpt lat="48.9043" lon="5.80461">
        <ele>239.02490234375</ele>
        <time>2012-07-25T07:48:28Z</time>
      </trkpt>
      <trkpt lat="48.90419" lon="5.80449">
        <ele>239.02490234375</ele>
        <time>2012-07-25T07:48:31Z</time>
      </trkpt>
      <trkpt lat="48.90388" lon="5.80425">
        <ele>240.94763183594</ele>
        <time>2012-07-25T07:48:38Z</time>
      </trkpt>
      <trkpt lat="48.90358" lon="5.80397">
        <ele>241.42822265625</ele>
        <time>2012-07-25T07:48:46Z</time>
      </trkpt>
      <trkpt lat="48.90322" lon="5.80364">
        <ele>242.3896484375</ele>
        <time>2012-07-25T07:48:54Z</time>
      </trkpt>
      <trkpt lat="48.90284" lon="5.80329">
        <ele>242.87023925781</ele>
        <time>2012-07-25T07:49:02Z</time>
      </trkpt>
      <trkpt lat="48.90257" lon="5.80295">
        <ele>242.87023925781</ele>
        <time>2012-07-25T07:49:08Z</time>
      </trkpt>
      <trkpt lat="48.90236" lon="5.80269">
        <ele>239.98620605469</ele>
        <time>2012-07-25T07:49:12Z</time>
      </trkpt>
      <trkpt lat="48.90207" lon="5.8023">
        <ele>239.50549316406</ele>
        <time>2012-07-25T07:49:17Z</time>
      </trkpt>
      <trkpt lat="48.90152" lon="5.80159">
        <ele>238.06359863281</ele>
        <time>2012-07-25T07:49:25Z</time>
      </trkpt>
      <trkpt lat="48.90093" lon="5.80091">
        <ele>237.10229492188</ele>
        <time>2012-07-25T07:49:33Z</time>
      </trkpt>
      <trkpt lat="48.90025" lon="5.80012">
        <ele>236.14099121094</ele>
        <time>2012-07-25T07:49:43Z</time>
      </trkpt>
      <trkpt lat="48.89975" lon="5.79945">
        <ele>235.66027832031</ele>
        <time>2012-07-25T07:49:51Z</time>
      </trkpt>
      <trkpt lat="48.89926" lon="5.79877">
        <ele>235.1796875</ele>
        <time>2012-07-25T07:49:59Z</time>
      </trkpt>
      <trkpt lat="48.89867" lon="5.79796">
        <ele>237.10229492188</ele>
        <time>2012-07-25T07:50:09Z</time>
      </trkpt>
      <trkpt lat="48.89819" lon="5.79739">
        <ele>237.10229492188</ele>
        <time>2012-07-25T07:50:17Z</time>
      </trkpt>
      <trkpt lat="48.89776" lon="5.79686">
        <ele>236.62170410156</ele>
        <time>2012-07-25T07:50:24Z</time>
      </trkpt>
      <trkpt lat="48.89722" lon="5.79613">
        <ele>236.62170410156</ele>
        <time>2012-07-25T07:50:33Z</time>
      </trkpt>
      <trkpt lat="48.8969" lon="5.79559">
        <ele>237.10229492188</ele>
        <time>2012-07-25T07:50:39Z</time>
      </trkpt>
      <trkpt lat="48.89662" lon="5.79483">
        <ele>236.14099121094</ele>
        <time>2012-07-25T07:50:46Z</time>
      </trkpt>
      <trkpt lat="48.89635" lon="5.79388">
        <ele>232.29577636719</ele>
        <time>2012-07-25T07:50:54Z</time>
      </trkpt>
      <trkpt lat="48.89631" lon="5.79376">
        <ele>232.29577636719</ele>
        <time>2012-07-25T07:50:55Z</time>
      </trkpt>
      <trkpt lat="48.89596" lon="5.79285">
        <ele>231.81494140625</ele>
        <time>2012-07-25T07:51:03Z</time>
      </trkpt>
      <trkpt lat="48.89578" lon="5.79248">
        <ele>231.81494140625</ele>
        <time>2012-07-25T07:51:07Z</time>
      </trkpt>
      <trkpt lat="48.89574" lon="5.7924">
        <ele>231.33435058594</ele>
        <time>2012-07-25T07:51:08Z</time>
      </trkpt>
      <trkpt lat="48.8955" lon="5.79191">
        <ele>229.41174316406</ele>
        <time>2012-07-25T07:51:14Z</time>
      </trkpt>
      <trkpt lat="48.89519" lon="5.79138">
        <ele>228.45043945312</ele>
        <time>2012-07-25T07:51:21Z</time>
      </trkpt>
      <trkpt lat="48.8948" lon="5.7908">
        <ele>226.52783203125</ele>
        <time>2012-07-25T07:51:28Z</time>
      </trkpt>
      <trkpt lat="48.89433" lon="5.79025">
        <ele>226.04711914062</ele>
        <time>2012-07-25T07:51:35Z</time>
      </trkpt>
      <trkpt lat="48.89383" lon="5.78965">
        <ele>225.0859375</ele>
        <time>2012-07-25T07:51:43Z</time>
      </trkpt>
      <trkpt lat="48.89338" lon="5.7891">
        <ele>225.56652832031</ele>
        <time>2012-07-25T07:51:51Z</time>
      </trkpt>
      <trkpt lat="48.89294" lon="5.78863">
        <ele>227.48913574219</ele>
        <time>2012-07-25T07:51:59Z</time>
      </trkpt>
      <trkpt lat="48.89257" lon="5.78836">
        <ele>227.48913574219</ele>
        <time>2012-07-25T07:52:05Z</time>
      </trkpt>
      <trkpt lat="48.89201" lon="5.78792">
        <ele>227.9697265625</ele>
        <time>2012-07-25T07:52:14Z</time>
      </trkpt>
      <trkpt lat="48.89145" lon="5.78741">
        <ele>230.373046875</ele>
        <time>2012-07-25T07:52:23Z</time>
      </trkpt>
      <trkpt lat="48.89127" lon="5.78724">
        <ele>228.93115234375</ele>
        <time>2012-07-25T07:52:26Z</time>
      </trkpt>
      <trkpt lat="48.89066" lon="5.78666">
        <ele>228.45043945312</ele>
        <time>2012-07-25T07:52:36Z</time>
      </trkpt>
      <trkpt lat="48.89024" lon="5.78618">
        <ele>228.45043945312</ele>
        <time>2012-07-25T07:52:43Z</time>
      </trkpt>
      <trkpt lat="48.89018" lon="5.7861">
        <ele>228.45043945312</ele>
        <time>2012-07-25T07:52:44Z</time>
      </trkpt>
      <trkpt lat="48.88972" lon="5.78533">
        <ele>227.9697265625</ele>
        <time>2012-07-25T07:52:53Z</time>
      </trkpt>
      <trkpt lat="48.88926" lon="5.78455">
        <ele>228.45043945312</ele>
        <time>2012-07-25T07:53:02Z</time>
      </trkpt>
      <trkpt lat="48.88905" lon="5.7842">
        <ele>227.48913574219</ele>
        <time>2012-07-25T07:53:06Z</time>
      </trkpt>
      <trkpt lat="48.88853" lon="5.78334">
        <ele>227.48913574219</ele>
        <time>2012-07-25T07:53:16Z</time>
      </trkpt>
      <trkpt lat="48.88814" lon="5.78279">
        <ele>227.00854492188</ele>
        <time>2012-07-25T07:53:23Z</time>
      </trkpt>
      <trkpt lat="48.88807" lon="5.78273">
        <ele>226.52783203125</ele>
        <time>2012-07-25T07:53:24Z</time>
      </trkpt>
      <trkpt lat="48.88764" lon="5.78246">
        <ele>227.9697265625</ele>
        <time>2012-07-25T07:53:30Z</time>
      </trkpt>
      <trkpt lat="48.88743" lon="5.7823">
        <ele>227.48913574219</ele>
        <time>2012-07-25T07:53:33Z</time>
      </trkpt>
      <trkpt lat="48.88731" lon="5.78216">
        <ele>227.9697265625</ele>
        <time>2012-07-25T07:53:35Z</time>
      </trkpt>
      <trkpt lat="48.88717" lon="5.78187">
        <ele>227.48913574219</ele>
        <time>2012-07-25T07:53:38Z</time>
      </trkpt>
      <trkpt lat="48.88689" lon="5.78092">
        <ele>225.0859375</ele>
        <time>2012-07-25T07:53:47Z</time>
      </trkpt>
      <trkpt lat="48.88685" lon="5.78082">
        <ele>225.0859375</ele>
        <time>2012-07-25T07:53:48Z</time>
      </trkpt>
      <trkpt lat="48.88649" lon="5.7802">
        <ele>224.60522460938</ele>
        <time>2012-07-25T07:53:55Z</time>
      </trkpt>
      <trkpt lat="48.88596" lon="5.7794">
        <ele>226.04711914062</ele>
        <time>2012-07-25T07:54:05Z</time>
      </trkpt>
      <trkpt lat="48.88553" lon="5.77869">
        <ele>227.00854492188</ele>
        <time>2012-07-25T07:54:14Z</time>
      </trkpt>
      <trkpt lat="48.88523" lon="5.77805">
        <ele>225.56652832031</ele>
        <time>2012-07-25T07:54:21Z</time>
      </trkpt>
      <trkpt lat="48.88496" lon="5.77722">
        <ele>226.04711914062</ele>
        <time>2012-07-25T07:54:29Z</time>
      </trkpt>
      <trkpt lat="48.88469" lon="5.77624">
        <ele>225.56652832031</ele>
        <time>2012-07-25T07:54:38Z</time>
      </trkpt>
      <trkpt lat="48.88438" lon="5.77516">
        <ele>225.56652832031</ele>
        <time>2012-07-25T07:54:48Z</time>
      </trkpt>
      <trkpt lat="48.88417" lon="5.77444">
        <ele>227.00854492188</ele>
        <time>2012-07-25T07:54:55Z</time>
      </trkpt>
      <trkpt lat="48.88388" lon="5.77342">
        <ele>226.52783203125</ele>
        <time>2012-07-25T07:55:05Z</time>
      </trkpt>
      <trkpt lat="48.88361" lon="5.77251">
        <ele>227.48913574219</ele>
        <time>2012-07-25T07:55:14Z</time>
      </trkpt>
      <trkpt lat="48.88332" lon="5.77148">
        <ele>229.41174316406</ele>
        <time>2012-07-25T07:55:24Z</time>
      </trkpt>
      <trkpt lat="48.88305" lon="5.77057">
        <ele>227.9697265625</ele>
        <time>2012-07-25T07:55:33Z</time>
      </trkpt>
      <trkpt lat="48.88274" lon="5.76978">
        <ele>227.48913574219</ele>
        <time>2012-07-25T07:55:41Z</time>
      </trkpt>
      <trkpt lat="48.88237" lon="5.76905">
        <ele>227.48913574219</ele>
        <time>2012-07-25T07:55:49Z</time>
      </trkpt>
      <trkpt lat="48.88186" lon="5.7682">
        <ele>227.00854492188</ele>
        <time>2012-07-25T07:55:59Z</time>
      </trkpt>
      <trkpt lat="48.88147" lon="5.76766">
        <ele>227.00854492188</ele>
        <time>2012-07-25T07:56:06Z</time>
      </trkpt>
      <trkpt lat="48.88126" lon="5.76745">
        <ele>228.45043945312</ele>
        <time>2012-07-25T07:56:09Z</time>
      </trkpt>
      <trkpt lat="48.88054" lon="5.76671">
        <ele>229.89233398438</ele>
        <time>2012-07-25T07:56:20Z</time>
      </trkpt>
      <trkpt lat="48.88034" lon="5.76651">
        <ele>227.9697265625</ele>
        <time>2012-07-25T07:56:23Z</time>
      </trkpt>
      <trkpt lat="48.87949" lon="5.76563">
        <ele>228.93115234375</ele>
        <time>2012-07-25T07:56:36Z</time>
      </trkpt>
      <trkpt lat="48.87881" lon="5.76493">
        <ele>227.48913574219</ele>
        <time>2012-07-25T07:56:46Z</time>
      </trkpt>
      <trkpt lat="48.87831" lon="5.76438">
        <ele>227.00854492188</ele>
        <time>2012-07-25T07:56:54Z</time>
      </trkpt>
      <trkpt lat="48.87827" lon="5.7643">
        <ele>227.00854492188</ele>
        <time>2012-07-25T07:56:55Z</time>
      </trkpt>
      <trkpt lat="48.87823" lon="5.76399">
        <ele>226.52783203125</ele>
        <time>2012-07-25T07:56:59Z</time>
      </trkpt>
      <trkpt lat="48.87832" lon="5.76385">
        <ele>226.52783203125</ele>
        <time>2012-07-25T07:57:01Z</time>
      </trkpt>
      <trkpt lat="48.87875" lon="5.76323">
        <ele>226.04711914062</ele>
        <time>2012-07-25T07:57:09Z</time>
      </trkpt>
      <trkpt lat="48.87918" lon="5.76258">
        <ele>226.04711914062</ele>
        <time>2012-07-25T07:57:17Z</time>
      </trkpt>
      <trkpt lat="48.87954" lon="5.76208">
        <ele>227.9697265625</ele>
        <time>2012-07-25T07:57:24Z</time>
      </trkpt>
      <trkpt lat="48.87992" lon="5.76158">
        <ele>229.89233398438</ele>
        <time>2012-07-25T07:57:32Z</time>
      </trkpt>
      <trkpt lat="48.88031" lon="5.76108">
        <ele>229.89233398438</ele>
        <time>2012-07-25T07:57:40Z</time>
      </trkpt>
      <trkpt lat="48.88073" lon="5.76054">
        <ele>230.373046875</ele>
        <time>2012-07-25T07:57:48Z</time>
      </trkpt>
      <trkpt lat="48.88112" lon="5.76004">
        <ele>229.89233398438</ele>
        <time>2012-07-25T07:57:55Z</time>
      </trkpt>
      <trkpt lat="48.88161" lon="5.75938">
        <ele>229.41174316406</ele>
        <time>2012-07-25T07:58:04Z</time>
      </trkpt>
      <trkpt lat="48.88178" lon="5.7589">
        <ele>230.373046875</ele>
        <time>2012-07-25T07:58:09Z</time>
      </trkpt>
      <trkpt lat="48.88182" lon="5.75819">
        <ele>231.33435058594</ele>
        <time>2012-07-25T07:58:16Z</time>
      </trkpt>
      <trkpt lat="48.88179" lon="5.75736">
        <ele>231.81494140625</ele>
        <time>2012-07-25T07:58:24Z</time>
      </trkpt>
      <trkpt lat="48.88182" lon="5.75664">
        <ele>232.77648925781</ele>
        <time>2012-07-25T07:58:31Z</time>
      </trkpt>
      <trkpt lat="48.88198" lon="5.75587">
        <ele>233.25708007812</ele>
        <time>2012-07-25T07:58:39Z</time>
      </trkpt>
      <trkpt lat="48.88208" lon="5.75552">
        <ele>233.73767089844</ele>
        <time>2012-07-25T07:58:43Z</time>
      </trkpt>
      <trkpt lat="48.88232" lon="5.75518">
        <ele>233.73767089844</ele>
        <time>2012-07-25T07:58:48Z</time>
      </trkpt>
      <trkpt lat="48.88285" lon="5.7547">
        <ele>230.85375976562</ele>
        <time>2012-07-25T07:58:56Z</time>
      </trkpt>
      <trkpt lat="48.8836" lon="5.75402">
        <ele>229.41174316406</ele>
        <time>2012-07-25T07:59:06Z</time>
      </trkpt>
      <trkpt lat="48.88388" lon="5.75375">
        <ele>228.93115234375</ele>
        <time>2012-07-25T07:59:10Z</time>
      </trkpt>
      <trkpt lat="48.88407" lon="5.75336">
        <ele>228.45043945312</ele>
        <time>2012-07-25T07:59:14Z</time>
      </trkpt>
      <trkpt lat="48.88408" lon="5.753">
        <ele>228.45043945312</ele>
        <time>2012-07-25T07:59:17Z</time>
      </trkpt>
      <trkpt lat="48.88395" lon="5.75184">
        <ele>228.45043945312</ele>
        <time>2012-07-25T07:59:27Z</time>
      </trkpt>
      <trkpt lat="48.88386" lon="5.75089">
        <ele>228.93115234375</ele>
        <time>2012-07-25T07:59:35Z</time>
      </trkpt>
      <trkpt lat="48.88383" lon="5.75008">
        <ele>229.41174316406</ele>
        <time>2012-07-25T07:59:42Z</time>
      </trkpt>
      <trkpt lat="48.88382" lon="5.74923">
        <ele>228.93115234375</ele>
        <time>2012-07-25T07:59:49Z</time>
      </trkpt>
      <trkpt lat="48.88382" lon="5.74831">
        <ele>229.89233398438</ele>
        <time>2012-07-25T07:59:57Z</time>
      </trkpt>
      <trkpt lat="48.88382" lon="5.74714">
        <ele>229.89233398438</ele>
        <time>2012-07-25T08:00:07Z</time>
      </trkpt>
      <trkpt lat="48.88385" lon="5.7461">
        <ele>230.373046875</ele>
        <time>2012-07-25T08:00:16Z</time>
      </trkpt>
      <trkpt lat="48.88386" lon="5.74518">
        <ele>230.373046875</ele>
        <time>2012-07-25T08:00:24Z</time>
      </trkpt>
      <trkpt lat="48.88387" lon="5.74416">
        <ele>230.373046875</ele>
        <time>2012-07-25T08:00:33Z</time>
      </trkpt>
      <trkpt lat="48.88391" lon="5.7434">
        <ele>231.33435058594</ele>
        <time>2012-07-25T08:00:40Z</time>
      </trkpt>
      <trkpt lat="48.88403" lon="5.74239">
        <ele>232.29577636719</ele>
        <time>2012-07-25T08:00:50Z</time>
      </trkpt>
      <trkpt lat="48.88421" lon="5.74133">
        <ele>233.73767089844</ele>
        <time>2012-07-25T08:01:01Z</time>
      </trkpt>
      <trkpt lat="48.88438" lon="5.74049">
        <ele>235.66027832031</ele>
        <time>2012-07-25T08:01:10Z</time>
      </trkpt>
      <trkpt lat="48.88452" lon="5.73969">
        <ele>236.62170410156</ele>
        <time>2012-07-25T08:01:19Z</time>
      </trkpt>
      <trkpt lat="48.88466" lon="5.73897">
        <ele>238.54431152344</ele>
        <time>2012-07-25T08:01:28Z</time>
      </trkpt>
      <trkpt lat="48.88482" lon="5.73821">
        <ele>239.50549316406</ele>
        <time>2012-07-25T08:01:37Z</time>
      </trkpt>
      <trkpt lat="48.88498" lon="5.73741">
        <ele>241.42822265625</ele>
        <time>2012-07-25T08:01:46Z</time>
      </trkpt>
      <trkpt lat="48.88517" lon="5.73656">
        <ele>239.98620605469</ele>
        <time>2012-07-25T08:01:55Z</time>
      </trkpt>
      <trkpt lat="48.8853" lon="5.73592">
        <ele>239.50549316406</ele>
        <time>2012-07-25T08:02:02Z</time>
      </trkpt>
      <trkpt lat="48.88542" lon="5.73536">
        <ele>240.46704101562</ele>
        <time>2012-07-25T08:02:08Z</time>
      </trkpt>
      <trkpt lat="48.88557" lon="5.73461">
        <ele>239.50549316406</ele>
        <time>2012-07-25T08:02:16Z</time>
      </trkpt>
      <trkpt lat="48.88577" lon="5.73365">
        <ele>240.46704101562</ele>
        <time>2012-07-25T08:02:26Z</time>
      </trkpt>
      <trkpt lat="48.88593" lon="5.73284">
        <ele>241.90893554688</ele>
        <time>2012-07-25T08:02:34Z</time>
      </trkpt>
      <trkpt lat="48.88606" lon="5.7322">
        <ele>240.94763183594</ele>
        <time>2012-07-25T08:02:41Z</time>
      </trkpt>
      <trkpt lat="48.8862" lon="5.73149">
        <ele>239.50549316406</ele>
        <time>2012-07-25T08:02:48Z</time>
      </trkpt>
      <trkpt lat="48.88635" lon="5.73084">
        <ele>239.50549316406</ele>
        <time>2012-07-25T08:02:54Z</time>
      </trkpt>
      <trkpt lat="48.88656" lon="5.7298">
        <ele>239.02490234375</ele>
        <time>2012-07-25T08:03:03Z</time>
      </trkpt>
      <trkpt lat="48.88675" lon="5.72891">
        <ele>239.02490234375</ele>
        <time>2012-07-25T08:03:11Z</time>
      </trkpt>
      <trkpt lat="48.88692" lon="5.72804">
        <ele>239.50549316406</ele>
        <time>2012-07-25T08:03:19Z</time>
      </trkpt>
      <trkpt lat="48.88704" lon="5.72746">
        <ele>239.98620605469</ele>
        <time>2012-07-25T08:03:25Z</time>
      </trkpt>
      <trkpt lat="48.88716" lon="5.72687">
        <ele>240.46704101562</ele>
        <time>2012-07-25T08:03:31Z</time>
      </trkpt>
      <trkpt lat="48.88728" lon="5.72619">
        <ele>240.94763183594</ele>
        <time>2012-07-25T08:03:38Z</time>
      </trkpt>
      <trkpt lat="48.88741" lon="5.72556">
        <ele>241.90893554688</ele>
        <time>2012-07-25T08:03:45Z</time>
      </trkpt>
      <trkpt lat="48.8875" lon="5.72504">
        <ele>243.35083007812</ele>
        <time>2012-07-25T08:03:51Z</time>
      </trkpt>
      <trkpt lat="48.8876" lon="5.72447">
        <ele>246.23486328125</ele>
        <time>2012-07-25T08:03:58Z</time>
      </trkpt>
      <trkpt lat="48.88771" lon="5.72393">
        <ele>248.15759277344</ele>
        <time>2012-07-25T08:04:06Z</time>
      </trkpt>
      <trkpt lat="48.88784" lon="5.72334">
        <ele>249.59948730469</ele>
        <time>2012-07-25T08:04:15Z</time>
      </trkpt>
      <trkpt lat="48.88795" lon="5.72274">
        <ele>252.4833984375</ele>
        <time>2012-07-25T08:04:24Z</time>
      </trkpt>
      <trkpt lat="48.88801" lon="5.72229">
        <ele>253.92541503906</ele>
        <time>2012-07-25T08:04:31Z</time>
      </trkpt>
      <trkpt lat="48.8881" lon="5.72194">
        <ele>254.40600585938</ele>
        <time>2012-07-25T08:04:37Z</time>
      </trkpt>
      <trkpt lat="48.88822" lon="5.72132">
        <ele>257.2900390625</ele>
        <time>2012-07-25T08:04:47Z</time>
      </trkpt>
      <trkpt lat="48.88823" lon="5.72126">
        <ele>257.77075195312</ele>
        <time>2012-07-25T08:04:48Z</time>
      </trkpt>
      <trkpt lat="48.88839" lon="5.7209">
        <ele>258.73193359375</ele>
        <time>2012-07-25T08:04:55Z</time>
      </trkpt>
      <trkpt lat="48.88862" lon="5.72063">
        <ele>260.17395019531</ele>
        <time>2012-07-25T08:05:03Z</time>
      </trkpt>
      <trkpt lat="48.88883" lon="5.72052">
        <ele>261.13525390625</ele>
        <time>2012-07-25T08:05:09Z</time>
      </trkpt>
      <trkpt lat="48.8891" lon="5.7205">
        <ele>263.05786132812</ele>
        <time>2012-07-25T08:05:16Z</time>
      </trkpt>
      <trkpt lat="48.88942" lon="5.72051">
        <ele>264.98059082031</ele>
        <time>2012-07-25T08:05:25Z</time>
      </trkpt>
      <trkpt lat="48.88963" lon="5.72052">
        <ele>265.46130371094</ele>
        <time>2012-07-25T08:05:31Z</time>
      </trkpt>
      <trkpt lat="48.88989" lon="5.72053">
        <ele>265.94189453125</ele>
        <time>2012-07-25T08:05:38Z</time>
      </trkpt>
      <trkpt lat="48.8901" lon="5.72045">
        <ele>267.38391113281</ele>
        <time>2012-07-25T08:05:44Z</time>
      </trkpt>
      <trkpt lat="48.89023" lon="5.7203">
        <ele>267.86450195312</ele>
        <time>2012-07-25T08:05:49Z</time>
      </trkpt>
      <trkpt lat="48.89026" lon="5.72015">
        <ele>268.82580566406</ele>
        <time>2012-07-25T08:05:52Z</time>
      </trkpt>
      <trkpt lat="48.89018" lon="5.72003">
        <ele>271.22912597656</ele>
        <time>2012-07-25T08:05:56Z</time>
      </trkpt>
      <trkpt lat="48.88983" lon="5.71971">
        <ele>272.1904296875</ele>
        <time>2012-07-25T08:06:07Z</time>
      </trkpt>
      <trkpt lat="48.88959" lon="5.71951">
        <ele>271.70971679688</ele>
        <time>2012-07-25T08:06:14Z</time>
      </trkpt>
      <trkpt lat="48.88923" lon="5.71923">
        <ele>271.70971679688</ele>
        <time>2012-07-25T08:06:22Z</time>
      </trkpt>
      <trkpt lat="48.88904" lon="5.71906">
        <ele>273.63244628906</ele>
        <time>2012-07-25T08:06:27Z</time>
      </trkpt>
      <trkpt lat="48.88886" lon="5.71887">
        <ele>276.03564453125</ele>
        <time>2012-07-25T08:06:33Z</time>
      </trkpt>
      <trkpt lat="48.88871" lon="5.7186">
        <ele>276.51635742188</ele>
        <time>2012-07-25T08:06:40Z</time>
      </trkpt>
      <trkpt lat="48.88859" lon="5.71828">
        <ele>278.43896484375</ele>
        <time>2012-07-25T08:06:48Z</time>
      </trkpt>
      <trkpt lat="48.88848" lon="5.71798">
        <ele>280.36169433594</ele>
        <time>2012-07-25T08:06:55Z</time>
      </trkpt>
      <trkpt lat="48.88834" lon="5.71771">
        <ele>281.32299804688</ele>
        <time>2012-07-25T08:07:02Z</time>
      </trkpt>
      <trkpt lat="48.88822" lon="5.71751">
        <ele>282.76501464844</ele>
        <time>2012-07-25T08:07:08Z</time>
      </trkpt>
      <trkpt lat="48.88802" lon="5.71727">
        <ele>285.16821289062</ele>
        <time>2012-07-25T08:07:17Z</time>
      </trkpt>
      <trkpt lat="48.88784" lon="5.71708">
        <ele>286.12951660156</ele>
        <time>2012-07-25T08:07:24Z</time>
      </trkpt>
      <trkpt lat="48.88764" lon="5.71685">
        <ele>287.0908203125</ele>
        <time>2012-07-25T08:07:31Z</time>
      </trkpt>
      <trkpt lat="48.88755" lon="5.71672">
        <ele>287.0908203125</ele>
        <time>2012-07-25T08:07:34Z</time>
      </trkpt>
      <trkpt lat="48.88737" lon="5.71634">
        <ele>287.57141113281</ele>
        <time>2012-07-25T08:07:42Z</time>
      </trkpt>
      <trkpt lat="48.88724" lon="5.716">
        <ele>288.53295898438</ele>
        <time>2012-07-25T08:07:49Z</time>
      </trkpt>
      <trkpt lat="48.88712" lon="5.71559">
        <ele>291.41674804688</ele>
        <time>2012-07-25T08:07:58Z</time>
      </trkpt>
      <trkpt lat="48.8871" lon="5.71554">
        <ele>291.8974609375</ele>
        <time>2012-07-25T08:07:59Z</time>
      </trkpt>
      <trkpt lat="48.88701" lon="5.7152">
        <ele>293.33935546875</ele>
        <time>2012-07-25T08:08:07Z</time>
      </trkpt>
      <trkpt lat="48.8869" lon="5.7148">
        <ele>295.26196289062</ele>
        <time>2012-07-25T08:08:16Z</time>
      </trkpt>
      <trkpt lat="48.8868" lon="5.7145">
        <ele>297.18469238281</ele>
        <time>2012-07-25T08:08:23Z</time>
      </trkpt>
      <trkpt lat="48.88672" lon="5.71414">
        <ele>298.14611816406</ele>
        <time>2012-07-25T08:08:31Z</time>
      </trkpt>
      <trkpt lat="48.88667" lon="5.71374">
        <ele>298.62670898438</ele>
        <time>2012-07-25T08:08:40Z</time>
      </trkpt>
      <trkpt lat="48.88665" lon="5.71347">
        <ele>300.54931640625</ele>
        <time>2012-07-25T08:08:46Z</time>
      </trkpt>
      <trkpt lat="48.88661" lon="5.71318">
        <ele>301.51062011719</ele>
        <time>2012-07-25T08:08:52Z</time>
      </trkpt>
      <trkpt lat="48.88657" lon="5.7129">
        <ele>303.43322753906</ele>
        <time>2012-07-25T08:08:58Z</time>
      </trkpt>
      <trkpt lat="48.88655" lon="5.71281">
        <ele>304.39465332031</ele>
        <time>2012-07-25T08:09:00Z</time>
      </trkpt>
      <trkpt lat="48.88652" lon="5.7125">
        <ele>305.35595703125</ele>
        <time>2012-07-25T08:09:07Z</time>
      </trkpt>
      <trkpt lat="48.8865" lon="5.71216">
        <ele>306.31726074219</ele>
        <time>2012-07-25T08:09:15Z</time>
      </trkpt>
      <trkpt lat="48.88648" lon="5.71184">
        <ele>307.75927734375</ele>
        <time>2012-07-25T08:09:23Z</time>
      </trkpt>
      <trkpt lat="48.88646" lon="5.71148">
        <ele>309.201171875</ele>
        <time>2012-07-25T08:09:32Z</time>
      </trkpt>
      <trkpt lat="48.88645" lon="5.71118">
        <ele>311.12377929688</ele>
        <time>2012-07-25T08:09:39Z</time>
      </trkpt>
      <trkpt lat="48.88646" lon="5.71089">
        <ele>312.08520507812</ele>
        <time>2012-07-25T08:09:46Z</time>
      </trkpt>
      <trkpt lat="48.88643" lon="5.71044">
        <ele>313.52722167969</ele>
        <time>2012-07-25T08:09:56Z</time>
      </trkpt>
      <trkpt lat="48.88642" lon="5.71005">
        <ele>315.93041992188</ele>
        <time>2012-07-25T08:10:04Z</time>
      </trkpt>
      <trkpt lat="48.88641" lon="5.70995">
        <ele>316.89172363281</ele>
        <time>2012-07-25T08:10:06Z</time>
      </trkpt>
      <trkpt lat="48.88638" lon="5.70961">
        <ele>316.89172363281</ele>
        <time>2012-07-25T08:10:13Z</time>
      </trkpt>
      <trkpt lat="48.88639" lon="5.70944">
        <ele>317.85302734375</ele>
        <time>2012-07-25T08:10:17Z</time>
      </trkpt>
      <trkpt lat="48.88639" lon="5.70914">
        <ele>319.29504394531</ele>
        <time>2012-07-25T08:10:24Z</time>
      </trkpt>
      <trkpt lat="48.88638" lon="5.70883">
        <ele>321.2177734375</ele>
        <time>2012-07-25T08:10:31Z</time>
      </trkpt>
      <trkpt lat="48.88638" lon="5.70857">
        <ele>322.17895507812</ele>
        <time>2012-07-25T08:10:37Z</time>
      </trkpt>
      <trkpt lat="48.8864" lon="5.70831">
        <ele>322.65966796875</ele>
        <time>2012-07-25T08:10:43Z</time>
      </trkpt>
      <trkpt lat="48.88645" lon="5.70802">
        <ele>323.62097167969</ele>
        <time>2012-07-25T08:10:50Z</time>
      </trkpt>
      <trkpt lat="48.88654" lon="5.70775">
        <ele>325.06298828125</ele>
        <time>2012-07-25T08:10:57Z</time>
      </trkpt>
      <trkpt lat="48.88669" lon="5.7075">
        <ele>326.5048828125</ele>
        <time>2012-07-25T08:11:05Z</time>
      </trkpt>
      <trkpt lat="48.88682" lon="5.70738">
        <ele>327.46618652344</ele>
        <time>2012-07-25T08:11:11Z</time>
      </trkpt>
      <trkpt lat="48.88696" lon="5.70732">
        <ele>328.90832519531</ele>
        <time>2012-07-25T08:11:17Z</time>
      </trkpt>
      <trkpt lat="48.88706" lon="5.70731">
        <ele>329.86950683594</ele>
        <time>2012-07-25T08:11:21Z</time>
      </trkpt>
      <trkpt lat="48.88724" lon="5.70736">
        <ele>330.35021972656</ele>
        <time>2012-07-25T08:11:28Z</time>
      </trkpt>
      <trkpt lat="48.88741" lon="5.70745">
        <ele>331.79211425781</ele>
        <time>2012-07-25T08:11:34Z</time>
      </trkpt>
      <trkpt lat="48.88759" lon="5.70763">
        <ele>332.75354003906</ele>
        <time>2012-07-25T08:11:40Z</time>
      </trkpt>
      <trkpt lat="48.88776" lon="5.7079">
        <ele>333.71472167969</ele>
        <time>2012-07-25T08:11:47Z</time>
      </trkpt>
      <trkpt lat="48.88789" lon="5.7082">
        <ele>336.59887695312</ele>
        <time>2012-07-25T08:11:55Z</time>
      </trkpt>
      <trkpt lat="48.88806" lon="5.70853">
        <ele>338.521484375</ele>
        <time>2012-07-25T08:12:05Z</time>
      </trkpt>
      <trkpt lat="48.88818" lon="5.70877">
        <ele>339.48266601562</ele>
        <time>2012-07-25T08:12:12Z</time>
      </trkpt>
      <trkpt lat="48.88829" lon="5.709">
        <ele>340.44409179688</ele>
        <time>2012-07-25T08:12:19Z</time>
      </trkpt>
      <trkpt lat="48.88842" lon="5.70926">
        <ele>341.4052734375</ele>
        <time>2012-07-25T08:12:27Z</time>
      </trkpt>
      <trkpt lat="48.8885" lon="5.70948">
        <ele>342.36669921875</ele>
        <time>2012-07-25T08:12:33Z</time>
      </trkpt>
      <trkpt lat="48.88861" lon="5.70971">
        <ele>343.80859375</ele>
        <time>2012-07-25T08:12:40Z</time>
      </trkpt>
      <trkpt lat="48.88873" lon="5.70993">
        <ele>345.25061035156</ele>
        <time>2012-07-25T08:12:47Z</time>
      </trkpt>
      <trkpt lat="48.88893" lon="5.71029">
        <ele>346.69262695312</ele>
        <time>2012-07-25T08:12:57Z</time>
      </trkpt>
      <trkpt lat="48.88909" lon="5.71058">
        <ele>348.615234375</ele>
        <time>2012-07-25T08:13:06Z</time>
      </trkpt>
      <trkpt lat="48.88921" lon="5.7108">
        <ele>349.57653808594</ele>
        <time>2012-07-25T08:13:14Z</time>
      </trkpt>
      <trkpt lat="48.88934" lon="5.71104">
        <ele>351.49914550781</ele>
        <time>2012-07-25T08:13:22Z</time>
      </trkpt>
      <trkpt lat="48.88946" lon="5.71127">
        <ele>352.94116210938</ele>
        <time>2012-07-25T08:13:29Z</time>
      </trkpt>
      <trkpt lat="48.88965" lon="5.71159">
        <ele>354.86376953125</ele>
        <time>2012-07-25T08:13:39Z</time>
      </trkpt>
      <trkpt lat="48.88982" lon="5.71189">
        <ele>356.78637695312</ele>
        <time>2012-07-25T08:13:48Z</time>
      </trkpt>
      <trkpt lat="48.89002" lon="5.71223">
        <ele>357.74780273438</ele>
        <time>2012-07-25T08:13:58Z</time>
      </trkpt>
      <trkpt lat="48.89016" lon="5.71248">
        <ele>359.67041015625</ele>
        <time>2012-07-25T08:14:06Z</time>
      </trkpt>
      <trkpt lat="48.89032" lon="5.71275">
        <ele>361.11242675781</ele>
        <time>2012-07-25T08:14:15Z</time>
      </trkpt>
      <trkpt lat="48.8904" lon="5.71287">
        <ele>361.59313964844</ele>
        <time>2012-07-25T08:14:19Z</time>
      </trkpt>
      <trkpt lat="48.89056" lon="5.71316">
        <ele>363.51574707031</ele>
        <time>2012-07-25T08:14:28Z</time>
      </trkpt>
      <trkpt lat="48.89067" lon="5.71342">
        <ele>364.47692871094</ele>
        <time>2012-07-25T08:14:35Z</time>
      </trkpt>
      <trkpt lat="48.89071" lon="5.7137">
        <ele>365.9189453125</ele>
        <time>2012-07-25T08:14:41Z</time>
      </trkpt>
      <trkpt lat="48.8906" lon="5.71387">
        <ele>366.39953613281</ele>
        <time>2012-07-25T08:14:46Z</time>
      </trkpt>
      <trkpt lat="48.89047" lon="5.71388">
        <ele>367.84155273438</ele>
        <time>2012-07-25T08:14:50Z</time>
      </trkpt>
      <trkpt lat="48.89027" lon="5.71377">
        <ele>367.84155273438</ele>
        <time>2012-07-25T08:14:57Z</time>
      </trkpt>
      <trkpt lat="48.89016" lon="5.71366">
        <ele>368.80297851562</ele>
        <time>2012-07-25T08:15:03Z</time>
      </trkpt>
      <trkpt lat="48.89" lon="5.71356">
        <ele>368.322265625</ele>
        <time>2012-07-25T08:15:12Z</time>
      </trkpt>
      <trkpt lat="48.88995" lon="5.71354">
        <ele>367.84155273438</ele>
        <time>2012-07-25T08:15:17Z</time>
      </trkpt>
      <trkpt lat="48.88999" lon="5.71356">
        <ele>367.36096191406</ele>
        <time>2012-07-25T08:25:14Z</time>
      </trkpt>
      <trkpt lat="48.88999" lon="5.71356">
        <ele>367.36096191406</ele>
        <time>2012-07-25T08:25:15Z</time>
      </trkpt>
      <trkpt lat="48.88999" lon="5.71356">
        <ele>367.36096191406</ele>
        <time>2012-07-25T08:25:16Z</time>
      </trkpt>
      <trkpt lat="48.89002" lon="5.71357">
        <ele>367.84155273438</ele>
        <time>2012-07-25T08:25:34Z</time>
      </trkpt>
      <trkpt lat="48.89003" lon="5.71357">
        <ele>367.36096191406</ele>
        <time>2012-07-25T08:25:35Z</time>
      </trkpt>
      <trkpt lat="48.89013" lon="5.71371">
        <ele>366.88024902344</ele>
        <time>2012-07-25T08:25:43Z</time>
      </trkpt>
      <trkpt lat="48.89017" lon="5.71382">
        <ele>367.36096191406</ele>
        <time>2012-07-25T08:25:50Z</time>
      </trkpt>
      <trkpt lat="48.89026" lon="5.71392">
        <ele>366.88024902344</ele>
        <time>2012-07-25T08:25:58Z</time>
      </trkpt>
      <trkpt lat="48.8904" lon="5.714">
        <ele>366.39953613281</ele>
        <time>2012-07-25T08:26:05Z</time>
      </trkpt>
      <trkpt lat="48.89057" lon="5.71401">
        <ele>365.9189453125</ele>
        <time>2012-07-25T08:26:12Z</time>
      </trkpt>
      <trkpt lat="48.89072" lon="5.7139">
        <ele>365.9189453125</ele>
        <time>2012-07-25T08:26:19Z</time>
      </trkpt>
      <trkpt lat="48.89079" lon="5.71367">
        <ele>364.95764160156</ele>
        <time>2012-07-25T08:26:25Z</time>
      </trkpt>
      <trkpt lat="48.89075" lon="5.71341">
        <ele>364.95764160156</ele>
        <time>2012-07-25T08:26:30Z</time>
      </trkpt>
      <trkpt lat="48.89073" lon="5.71337">
        <ele>364.47692871094</ele>
        <time>2012-07-25T08:26:31Z</time>
      </trkpt>
      <trkpt lat="48.89047" lon="5.71291">
        <ele>362.55432128906</ele>
        <time>2012-07-25T08:26:39Z</time>
      </trkpt>
      <trkpt lat="48.89029" lon="5.71261">
        <ele>360.15112304688</ele>
        <time>2012-07-25T08:26:43Z</time>
      </trkpt>
      <trkpt lat="48.88992" lon="5.71202">
        <ele>357.74780273438</ele>
        <time>2012-07-25T08:26:50Z</time>
      </trkpt>
      <trkpt lat="48.88963" lon="5.71152">
        <ele>355.34448242188</ele>
        <time>2012-07-25T08:26:55Z</time>
      </trkpt>
      <trkpt lat="48.88951" lon="5.71131">
        <ele>353.90258789062</ele>
        <time>2012-07-25T08:26:57Z</time>
      </trkpt>
      <trkpt lat="48.88933" lon="5.711">
        <ele>352.46057128906</ele>
        <time>2012-07-25T08:27:00Z</time>
      </trkpt>
      <trkpt lat="48.8891" lon="5.71058">
        <ele>349.09582519531</ele>
        <time>2012-07-25T08:27:04Z</time>
      </trkpt>
      <trkpt lat="48.88903" lon="5.71048">
        <ele>349.09582519531</ele>
        <time>2012-07-25T08:27:05Z</time>
      </trkpt>
      <trkpt lat="48.88883" lon="5.71003">
        <ele>346.69262695312</ele>
        <time>2012-07-25T08:27:09Z</time>
      </trkpt>
      <trkpt lat="48.88865" lon="5.70968">
        <ele>345.25061035156</ele>
        <time>2012-07-25T08:27:12Z</time>
      </trkpt>
      <trkpt lat="48.88832" lon="5.70906">
        <ele>342.36669921875</ele>
        <time>2012-07-25T08:27:17Z</time>
      </trkpt>
      <trkpt lat="48.88826" lon="5.70893">
        <ele>341.4052734375</ele>
        <time>2012-07-25T08:27:18Z</time>
      </trkpt>
      <trkpt lat="48.88801" lon="5.7084">
        <ele>338.04077148438</ele>
        <time>2012-07-25T08:27:23Z</time>
      </trkpt>
      <trkpt lat="48.88795" lon="5.70828">
        <ele>338.04077148438</ele>
        <time>2012-07-25T08:27:24Z</time>
      </trkpt>
      <trkpt lat="48.88778" lon="5.70792">
        <ele>336.1181640625</ele>
        <time>2012-07-25T08:27:27Z</time>
      </trkpt>
      <trkpt lat="48.88763" lon="5.70761">
        <ele>334.19543457031</ele>
        <time>2012-07-25T08:27:30Z</time>
      </trkpt>
      <trkpt lat="48.88725" lon="5.70725">
        <ele>331.79211425781</ele>
        <time>2012-07-25T08:27:35Z</time>
      </trkpt>
      <trkpt lat="48.88695" lon="5.70727">
        <ele>329.38891601562</ele>
        <time>2012-07-25T08:27:38Z</time>
      </trkpt>
      <trkpt lat="48.88676" lon="5.7074">
        <ele>328.90832519531</ele>
        <time>2012-07-25T08:27:40Z</time>
      </trkpt>
      <trkpt lat="48.88652" lon="5.70769">
        <ele>326.5048828125</ele>
        <time>2012-07-25T08:27:43Z</time>
      </trkpt>
      <trkpt lat="48.88636" lon="5.70825">
        <ele>324.58227539062</ele>
        <time>2012-07-25T08:27:47Z</time>
      </trkpt>
      <trkpt lat="48.88635" lon="5.70857">
        <ele>324.1015625</ele>
        <time>2012-07-25T08:27:49Z</time>
      </trkpt>
      <trkpt lat="48.88638" lon="5.70935">
        <ele>319.29504394531</ele>
        <time>2012-07-25T08:27:54Z</time>
      </trkpt>
      <trkpt lat="48.88639" lon="5.70951">
        <ele>319.29504394531</ele>
        <time>2012-07-25T08:27:55Z</time>
      </trkpt>
      <trkpt lat="48.88641" lon="5.71011">
        <ele>316.89172363281</ele>
        <time>2012-07-25T08:27:59Z</time>
      </trkpt>
      <trkpt lat="48.88643" lon="5.71074">
        <ele>313.52722167969</ele>
        <time>2012-07-25T08:28:03Z</time>
      </trkpt>
      <trkpt lat="48.88644" lon="5.71107">
        <ele>312.56579589844</ele>
        <time>2012-07-25T08:28:05Z</time>
      </trkpt>
      <trkpt lat="48.88646" lon="5.71153">
        <ele>310.64306640625</ele>
        <time>2012-07-25T08:28:08Z</time>
      </trkpt>
      <trkpt lat="48.88651" lon="5.712">
        <ele>307.27856445312</ele>
        <time>2012-07-25T08:28:11Z</time>
      </trkpt>
      <trkpt lat="48.88652" lon="5.71216">
        <ele>306.7978515625</ele>
        <time>2012-07-25T08:28:12Z</time>
      </trkpt>
      <trkpt lat="48.8866" lon="5.71312">
        <ele>304.39465332031</ele>
        <time>2012-07-25T08:28:18Z</time>
      </trkpt>
      <trkpt lat="48.88664" lon="5.71373">
        <ele>301.02990722656</ele>
        <time>2012-07-25T08:28:22Z</time>
      </trkpt>
      <trkpt lat="48.88671" lon="5.71431">
        <ele>299.10729980469</ele>
        <time>2012-07-25T08:28:26Z</time>
      </trkpt>
      <trkpt lat="48.887" lon="5.7153">
        <ele>294.78137207031</ele>
        <time>2012-07-25T08:28:33Z</time>
      </trkpt>
      <trkpt lat="48.88709" lon="5.71558">
        <ele>293.82006835938</ele>
        <time>2012-07-25T08:28:35Z</time>
      </trkpt>
      <trkpt lat="48.88722" lon="5.71599">
        <ele>289.494140625</ele>
        <time>2012-07-25T08:28:38Z</time>
      </trkpt>
      <trkpt lat="48.88726" lon="5.71612">
        <ele>289.97485351562</ele>
        <time>2012-07-25T08:28:39Z</time>
      </trkpt>
      <trkpt lat="48.88752" lon="5.71671">
        <ele>287.57141113281</ele>
        <time>2012-07-25T08:28:44Z</time>
      </trkpt>
      <trkpt lat="48.88784" lon="5.71715">
        <ele>286.12951660156</ele>
        <time>2012-07-25T08:28:49Z</time>
      </trkpt>
      <trkpt lat="48.88822" lon="5.71757">
        <ele>284.68762207031</ele>
        <time>2012-07-25T08:28:54Z</time>
      </trkpt>
      <trkpt lat="48.88849" lon="5.71808">
        <ele>282.28430175781</ele>
        <time>2012-07-25T08:28:58Z</time>
      </trkpt>
      <trkpt lat="48.88871" lon="5.71864">
        <ele>279.880859375</ele>
        <time>2012-07-25T08:29:02Z</time>
      </trkpt>
      <trkpt lat="48.88902" lon="5.71908">
        <ele>276.51635742188</ele>
        <time>2012-07-25T08:29:06Z</time>
      </trkpt>
      <trkpt lat="48.88911" lon="5.71916">
        <ele>276.03564453125</ele>
        <time>2012-07-25T08:29:07Z</time>
      </trkpt>
      <trkpt lat="48.88978" lon="5.71969">
        <ele>274.59375</ele>
        <time>2012-07-25T08:29:15Z</time>
      </trkpt>
      <trkpt lat="48.89003" lon="5.71988">
        <ele>271.70971679688</ele>
        <time>2012-07-25T08:29:19Z</time>
      </trkpt>
      <trkpt lat="48.8902" lon="5.72001">
        <ele>270.74841308594</ele>
        <time>2012-07-25T08:29:23Z</time>
      </trkpt>
      <trkpt lat="48.89027" lon="5.72009">
        <ele>270.74841308594</ele>
        <time>2012-07-25T08:29:27Z</time>
      </trkpt>
      <trkpt lat="48.8903" lon="5.72014">
        <ele>270.26770019531</ele>
        <time>2012-07-25T08:29:32Z</time>
      </trkpt>
      <trkpt lat="48.89028" lon="5.72014">
        <ele>269.787109375</ele>
        <time>2012-07-25T08:29:50Z</time>
      </trkpt>
      <trkpt lat="48.89037" lon="5.7202">
        <ele>269.787109375</ele>
        <time>2012-07-25T08:29:54Z</time>
      </trkpt>
      <trkpt lat="48.89042" lon="5.72013">
        <ele>270.26770019531</ele>
        <time>2012-07-25T08:29:57Z</time>
      </trkpt>
      <trkpt lat="48.89061" lon="5.71992">
        <ele>273.15185546875</ele>
        <time>2012-07-25T08:30:05Z</time>
      </trkpt>
      <trkpt lat="48.89071" lon="5.71985">
        <ele>273.15185546875</ele>
        <time>2012-07-25T08:30:10Z</time>
      </trkpt>
      <trkpt lat="48.8908" lon="5.71979">
        <ele>273.15185546875</ele>
        <time>2012-07-25T08:30:16Z</time>
      </trkpt>
      <trkpt lat="48.89093" lon="5.7197">
        <ele>272.1904296875</ele>
        <time>2012-07-25T08:30:20Z</time>
      </trkpt>
      <trkpt lat="48.89119" lon="5.71942">
        <ele>271.70971679688</ele>
        <time>2012-07-25T08:30:25Z</time>
      </trkpt>
      <trkpt lat="48.89129" lon="5.71925">
        <ele>271.22912597656</ele>
        <time>2012-07-25T08:30:27Z</time>
      </trkpt>
      <trkpt lat="48.89148" lon="5.71903">
        <ele>269.787109375</ele>
        <time>2012-07-25T08:30:30Z</time>
      </trkpt>
      <trkpt lat="48.89188" lon="5.71872">
        <ele>268.34509277344</ele>
        <time>2012-07-25T08:30:36Z</time>
      </trkpt>
      <trkpt lat="48.89226" lon="5.71837">
        <ele>268.82580566406</ele>
        <time>2012-07-25T08:30:43Z</time>
      </trkpt>
      <trkpt lat="48.89252" lon="5.71791">
        <ele>268.34509277344</ele>
        <time>2012-07-25T08:30:49Z</time>
      </trkpt>
      <trkpt lat="48.89283" lon="5.71724">
        <ele>268.34509277344</ele>
        <time>2012-07-25T08:30:57Z</time>
      </trkpt>
      <trkpt lat="48.89319" lon="5.71673">
        <ele>266.42248535156</ele>
        <time>2012-07-25T08:31:04Z</time>
      </trkpt>
      <trkpt lat="48.89353" lon="5.71642">
        <ele>264.01928710938</ele>
        <time>2012-07-25T08:31:09Z</time>
      </trkpt>
      <trkpt lat="48.89402" lon="5.71607">
        <ele>261.13525390625</ele>
        <time>2012-07-25T08:31:15Z</time>
      </trkpt>
      <trkpt lat="48.89447" lon="5.71566">
        <ele>259.21264648438</ele>
        <time>2012-07-25T08:31:21Z</time>
      </trkpt>
      <trkpt lat="48.89474" lon="5.71529">
        <ele>256.80932617188</ele>
        <time>2012-07-25T08:31:25Z</time>
      </trkpt>
      <trkpt lat="48.89502" lon="5.71471">
        <ele>254.88659667969</ele>
        <time>2012-07-25T08:31:30Z</time>
      </trkpt>
      <trkpt lat="48.89523" lon="5.71402">
        <ele>252.4833984375</ele>
        <time>2012-07-25T08:31:35Z</time>
      </trkpt>
      <trkpt lat="48.89526" lon="5.71387">
        <ele>252.4833984375</ele>
        <time>2012-07-25T08:31:36Z</time>
      </trkpt>
      <trkpt lat="48.89534" lon="5.71312">
        <ele>250.08020019531</ele>
        <time>2012-07-25T08:31:41Z</time>
      </trkpt>
      <trkpt lat="48.89535" lon="5.71297">
        <ele>250.08020019531</ele>
        <time>2012-07-25T08:31:42Z</time>
      </trkpt>
      <trkpt lat="48.89541" lon="5.71156">
        <ele>249.11877441406</ele>
        <time>2012-07-25T08:31:51Z</time>
      </trkpt>
      <trkpt lat="48.89543" lon="5.71125">
        <ele>247.6767578125</ele>
        <time>2012-07-25T08:31:53Z</time>
      </trkpt>
      <trkpt lat="48.89555" lon="5.71037">
        <ele>244.79284667969</ele>
        <time>2012-07-25T08:31:59Z</time>
      </trkpt>
      <trkpt lat="48.89565" lon="5.70994">
        <ele>243.35083007812</ele>
        <time>2012-07-25T08:32:02Z</time>
      </trkpt>
      <trkpt lat="48.89592" lon="5.70899">
        <ele>244.79284667969</ele>
        <time>2012-07-25T08:32:09Z</time>
      </trkpt>
      <trkpt lat="48.89616" lon="5.70818">
        <ele>242.87023925781</ele>
        <time>2012-07-25T08:32:16Z</time>
      </trkpt>
      <trkpt lat="48.89643" lon="5.70722">
        <ele>241.42822265625</ele>
        <time>2012-07-25T08:32:25Z</time>
      </trkpt>
      <trkpt lat="48.89671" lon="5.70608">
        <ele>241.90893554688</ele>
        <time>2012-07-25T08:32:36Z</time>
      </trkpt>
      <trkpt lat="48.89679" lon="5.70578">
        <ele>240.46704101562</ele>
        <time>2012-07-25T08:32:39Z</time>
      </trkpt>
      <trkpt lat="48.89693" lon="5.70526">
        <ele>240.46704101562</ele>
        <time>2012-07-25T08:32:44Z</time>
      </trkpt>
      <trkpt lat="48.89721" lon="5.70421">
        <ele>238.54431152344</ele>
        <time>2012-07-25T08:32:53Z</time>
      </trkpt>
      <trkpt lat="48.89755" lon="5.70295">
        <ele>235.1796875</ele>
        <time>2012-07-25T08:33:03Z</time>
      </trkpt>
      <trkpt lat="48.89797" lon="5.70147">
        <ele>234.69909667969</ele>
        <time>2012-07-25T08:33:14Z</time>
      </trkpt>
      <trkpt lat="48.89816" lon="5.70074">
        <ele>234.69909667969</ele>
        <time>2012-07-25T08:33:20Z</time>
      </trkpt>
      <trkpt lat="48.8983" lon="5.7002">
        <ele>235.66027832031</ele>
        <time>2012-07-25T08:33:25Z</time>
      </trkpt>
      <trkpt lat="48.89845" lon="5.69971">
        <ele>236.14099121094</ele>
        <time>2012-07-25T08:33:30Z</time>
      </trkpt>
      <trkpt lat="48.89865" lon="5.69913">
        <ele>236.14099121094</ele>
        <time>2012-07-25T08:33:36Z</time>
      </trkpt>
      <trkpt lat="48.89883" lon="5.69867">
        <ele>235.1796875</ele>
        <time>2012-07-25T08:33:41Z</time>
      </trkpt>
      <trkpt lat="48.89892" lon="5.69802">
        <ele>235.66027832031</ele>
        <time>2012-07-25T08:33:47Z</time>
      </trkpt>
      <trkpt lat="48.89907" lon="5.69725">
        <ele>234.69909667969</ele>
        <time>2012-07-25T08:33:54Z</time>
      </trkpt>
      <trkpt lat="48.89924" lon="5.69675">
        <ele>234.69909667969</ele>
        <time>2012-07-25T08:33:59Z</time>
      </trkpt>
      <trkpt lat="48.89931" lon="5.69655">
        <ele>235.1796875</ele>
        <time>2012-07-25T08:34:01Z</time>
      </trkpt>
      <trkpt lat="48.89947" lon="5.69572">
        <ele>236.62170410156</ele>
        <time>2012-07-25T08:34:09Z</time>
      </trkpt>
      <trkpt lat="48.89956" lon="5.69502">
        <ele>236.62170410156</ele>
        <time>2012-07-25T08:34:16Z</time>
      </trkpt>
      <trkpt lat="48.8996" lon="5.69411">
        <ele>237.10229492188</ele>
        <time>2012-07-25T08:34:25Z</time>
      </trkpt>
      <trkpt lat="48.89959" lon="5.69352">
        <ele>238.54431152344</ele>
        <time>2012-07-25T08:34:31Z</time>
      </trkpt>
      <trkpt lat="48.89952" lon="5.69274">
        <ele>238.54431152344</ele>
        <time>2012-07-25T08:34:39Z</time>
      </trkpt>
      <trkpt lat="48.89941" lon="5.69198">
        <ele>239.02490234375</ele>
        <time>2012-07-25T08:34:47Z</time>
      </trkpt>
      <trkpt lat="48.89922" lon="5.69114">
        <ele>239.50549316406</ele>
        <time>2012-07-25T08:34:56Z</time>
      </trkpt>
      <trkpt lat="48.89902" lon="5.69049">
        <ele>240.46704101562</ele>
        <time>2012-07-25T08:35:03Z</time>
      </trkpt>
      <trkpt lat="48.8988" lon="5.68977">
        <ele>240.94763183594</ele>
        <time>2012-07-25T08:35:11Z</time>
      </trkpt>
      <trkpt lat="48.89856" lon="5.68896">
        <ele>241.42822265625</ele>
        <time>2012-07-25T08:35:20Z</time>
      </trkpt>
      <trkpt lat="48.89832" lon="5.68815">
        <ele>241.42822265625</ele>
        <time>2012-07-25T08:35:29Z</time>
      </trkpt>
      <trkpt lat="48.89812" lon="5.68745">
        <ele>242.3896484375</ele>
        <time>2012-07-25T08:35:37Z</time>
      </trkpt>
      <trkpt lat="48.89789" lon="5.68664">
        <ele>241.90893554688</ele>
        <time>2012-07-25T08:35:46Z</time>
      </trkpt>
      <trkpt lat="48.89774" lon="5.6861">
        <ele>243.35083007812</ele>
        <time>2012-07-25T08:35:52Z</time>
      </trkpt>
      <trkpt lat="48.89748" lon="5.68512">
        <ele>244.79284667969</ele>
        <time>2012-07-25T08:36:02Z</time>
      </trkpt>
      <trkpt lat="48.89733" lon="5.6843">
        <ele>245.2734375</ele>
        <time>2012-07-25T08:36:10Z</time>
      </trkpt>
      <trkpt lat="48.89726" lon="5.68347">
        <ele>245.2734375</ele>
        <time>2012-07-25T08:36:18Z</time>
      </trkpt>
      <trkpt lat="48.89727" lon="5.68265">
        <ele>246.71545410156</ele>
        <time>2012-07-25T08:36:26Z</time>
      </trkpt>
      <trkpt lat="48.89732" lon="5.68184">
        <ele>247.19604492188</ele>
        <time>2012-07-25T08:36:34Z</time>
      </trkpt>
      <trkpt lat="48.89739" lon="5.6806">
        <ele>248.15759277344</ele>
        <time>2012-07-25T08:36:46Z</time>
      </trkpt>
      <trkpt lat="48.89744" lon="5.67976">
        <ele>247.6767578125</ele>
        <time>2012-07-25T08:36:54Z</time>
      </trkpt>
      <trkpt lat="48.8975" lon="5.67871">
        <ele>248.15759277344</ele>
        <time>2012-07-25T08:37:04Z</time>
      </trkpt>
      <trkpt lat="48.89757" lon="5.67776">
        <ele>246.71545410156</ele>
        <time>2012-07-25T08:37:13Z</time>
      </trkpt>
      <trkpt lat="48.89762" lon="5.67679">
        <ele>247.19604492188</ele>
        <time>2012-07-25T08:37:22Z</time>
      </trkpt>
      <trkpt lat="48.89758" lon="5.6759">
        <ele>247.6767578125</ele>
        <time>2012-07-25T08:37:30Z</time>
      </trkpt>
      <trkpt lat="48.89752" lon="5.67505">
        <ele>248.15759277344</ele>
        <time>2012-07-25T08:37:38Z</time>
      </trkpt>
      <trkpt lat="48.89747" lon="5.67436">
        <ele>249.59948730469</ele>
        <time>2012-07-25T08:37:45Z</time>
      </trkpt>
      <trkpt lat="48.89746" lon="5.67427">
        <ele>249.59948730469</ele>
        <time>2012-07-25T08:37:46Z</time>
      </trkpt>
      <trkpt lat="48.8974" lon="5.67352">
        <ele>249.59948730469</ele>
        <time>2012-07-25T08:37:54Z</time>
      </trkpt>
      <trkpt lat="48.89736" lon="5.6728">
        <ele>250.08020019531</ele>
        <time>2012-07-25T08:38:02Z</time>
      </trkpt>
      <trkpt lat="48.8973" lon="5.67198">
        <ele>250.08020019531</ele>
        <time>2012-07-25T08:38:11Z</time>
      </trkpt>
      <trkpt lat="48.89726" lon="5.67129">
        <ele>250.08020019531</ele>
        <time>2012-07-25T08:38:19Z</time>
      </trkpt>
      <trkpt lat="48.8972" lon="5.67042">
        <ele>251.04138183594</ele>
        <time>2012-07-25T08:38:29Z</time>
      </trkpt>
      <trkpt lat="48.89716" lon="5.66964">
        <ele>252.4833984375</ele>
        <time>2012-07-25T08:38:38Z</time>
      </trkpt>
      <trkpt lat="48.89711" lon="5.66896">
        <ele>252.96398925781</ele>
        <time>2012-07-25T08:38:46Z</time>
      </trkpt>
      <trkpt lat="48.89707" lon="5.66834">
        <ele>253.92541503906</ele>
        <time>2012-07-25T08:38:53Z</time>
      </trkpt>
      <trkpt lat="48.89703" lon="5.66776">
        <ele>255.36730957031</ele>
        <time>2012-07-25T08:39:00Z</time>
      </trkpt>
      <trkpt lat="48.89698" lon="5.66703">
        <ele>256.32873535156</ele>
        <time>2012-07-25T08:39:09Z</time>
      </trkpt>
      <trkpt lat="48.89692" lon="5.6662">
        <ele>256.32873535156</ele>
        <time>2012-07-25T08:39:19Z</time>
      </trkpt>
      <trkpt lat="48.8969" lon="5.66557">
        <ele>257.2900390625</ele>
        <time>2012-07-25T08:39:27Z</time>
      </trkpt>
      <trkpt lat="48.89686" lon="5.66497">
        <ele>260.17395019531</ele>
        <time>2012-07-25T08:39:35Z</time>
      </trkpt>
      <trkpt lat="48.89682" lon="5.66437">
        <ele>261.13525390625</ele>
        <time>2012-07-25T08:39:43Z</time>
      </trkpt>
      <trkpt lat="48.89679" lon="5.66372">
        <ele>262.09655761719</ele>
        <time>2012-07-25T08:39:52Z</time>
      </trkpt>
      <trkpt lat="48.89678" lon="5.66323">
        <ele>263.05786132812</ele>
        <time>2012-07-25T08:39:59Z</time>
      </trkpt>
      <trkpt lat="48.89676" lon="5.66285">
        <ele>264.01928710938</ele>
        <time>2012-07-25T08:40:05Z</time>
      </trkpt>
      <trkpt lat="48.89674" lon="5.66259">
        <ele>264.01928710938</ele>
        <time>2012-07-25T08:40:09Z</time>
      </trkpt>
      <trkpt lat="48.89671" lon="5.66204">
        <ele>265.46130371094</ele>
        <time>2012-07-25T08:40:17Z</time>
      </trkpt>
      <trkpt lat="48.89663" lon="5.66138">
        <ele>266.42248535156</ele>
        <time>2012-07-25T08:40:26Z</time>
      </trkpt>
      <trkpt lat="48.8966" lon="5.66097">
        <ele>267.38391113281</ele>
        <time>2012-07-25T08:40:32Z</time>
      </trkpt>
      <trkpt lat="48.89655" lon="5.66049">
        <ele>269.787109375</ele>
        <time>2012-07-25T08:40:39Z</time>
      </trkpt>
      <trkpt lat="48.89649" lon="5.65998">
        <ele>270.74841308594</ele>
        <time>2012-07-25T08:40:47Z</time>
      </trkpt>
      <trkpt lat="48.89646" lon="5.65963">
        <ele>271.22912597656</ele>
        <time>2012-07-25T08:40:53Z</time>
      </trkpt>
      <trkpt lat="48.89653" lon="5.65943">
        <ele>271.70971679688</ele>
        <time>2012-07-25T08:40:57Z</time>
      </trkpt>
      <trkpt lat="48.89674" lon="5.65939">
        <ele>272.1904296875</ele>
        <time>2012-07-25T08:41:02Z</time>
      </trkpt>
      <trkpt lat="48.89702" lon="5.65943">
        <ele>271.22912597656</ele>
        <time>2012-07-25T08:41:07Z</time>
      </trkpt>
      <trkpt lat="48.89716" lon="5.65948">
        <ele>270.74841308594</ele>
        <time>2012-07-25T08:41:09Z</time>
      </trkpt>
      <trkpt lat="48.89757" lon="5.65979">
        <ele>270.74841308594</ele>
        <time>2012-07-25T08:41:15Z</time>
      </trkpt>
      <trkpt lat="48.89804" lon="5.66019">
        <ele>269.30651855469</ele>
        <time>2012-07-25T08:41:22Z</time>
      </trkpt>
      <trkpt lat="48.89844" lon="5.66053">
        <ele>269.30651855469</ele>
        <time>2012-07-25T08:41:28Z</time>
      </trkpt>
      <trkpt lat="48.89887" lon="5.66087">
        <ele>269.30651855469</ele>
        <time>2012-07-25T08:41:34Z</time>
      </trkpt>
      <trkpt lat="48.89934" lon="5.66126">
        <ele>269.787109375</ele>
        <time>2012-07-25T08:41:41Z</time>
      </trkpt>
      <trkpt lat="48.89994" lon="5.66175">
        <ele>269.787109375</ele>
        <time>2012-07-25T08:41:50Z</time>
      </trkpt>
      <trkpt lat="48.90046" lon="5.66218">
        <ele>270.26770019531</ele>
        <time>2012-07-25T08:41:58Z</time>
      </trkpt>
      <trkpt lat="48.90092" lon="5.66247">
        <ele>270.26770019531</ele>
        <time>2012-07-25T08:42:05Z</time>
      </trkpt>
      <trkpt lat="48.90132" lon="5.66267">
        <ele>270.74841308594</ele>
        <time>2012-07-25T08:42:11Z</time>
      </trkpt>
      <trkpt lat="48.90177" lon="5.66289">
        <ele>271.70971679688</ele>
        <time>2012-07-25T08:42:18Z</time>
      </trkpt>
      <trkpt lat="48.9022" lon="5.6631">
        <ele>271.22912597656</ele>
        <time>2012-07-25T08:42:25Z</time>
      </trkpt>
      <trkpt lat="48.90273" lon="5.66334">
        <ele>271.70971679688</ele>
        <time>2012-07-25T08:42:33Z</time>
      </trkpt>
      <trkpt lat="48.90322" lon="5.66358">
        <ele>272.67114257812</ele>
        <time>2012-07-25T08:42:41Z</time>
      </trkpt>
      <trkpt lat="48.90367" lon="5.66369">
        <ele>273.15185546875</ele>
        <time>2012-07-25T08:42:48Z</time>
      </trkpt>
      <trkpt lat="48.90399" lon="5.66363">
        <ele>272.1904296875</ele>
        <time>2012-07-25T08:42:53Z</time>
      </trkpt>
      <trkpt lat="48.90458" lon="5.66345">
        <ele>273.15185546875</ele>
        <time>2012-07-25T08:43:02Z</time>
      </trkpt>
      <trkpt lat="48.90528" lon="5.66323">
        <ele>273.63244628906</ele>
        <time>2012-07-25T08:43:12Z</time>
      </trkpt>
      <trkpt lat="48.90576" lon="5.66308">
        <ele>273.15185546875</ele>
        <time>2012-07-25T08:43:19Z</time>
      </trkpt>
      <trkpt lat="48.90628" lon="5.663">
        <ele>274.59375</ele>
        <time>2012-07-25T08:43:27Z</time>
      </trkpt>
      <trkpt lat="48.90658" lon="5.66319">
        <ele>275.07446289062</ele>
        <time>2012-07-25T08:43:32Z</time>
      </trkpt>
      <trkpt lat="48.90693" lon="5.6636">
        <ele>275.07446289062</ele>
        <time>2012-07-25T08:43:39Z</time>
      </trkpt>
      <trkpt lat="48.90743" lon="5.66414">
        <ele>275.55505371094</ele>
        <time>2012-07-25T08:43:48Z</time>
      </trkpt>
      <trkpt lat="48.90775" lon="5.66457">
        <ele>276.03564453125</ele>
        <time>2012-07-25T08:43:54Z</time>
      </trkpt>
      <trkpt lat="48.90806" lon="5.66506">
        <ele>275.07446289062</ele>
        <time>2012-07-25T08:44:00Z</time>
      </trkpt>
      <trkpt lat="48.90854" lon="5.66578">
        <ele>275.55505371094</ele>
        <time>2012-07-25T08:44:09Z</time>
      </trkpt>
      <trkpt lat="48.90892" lon="5.66622">
        <ele>274.11303710938</ele>
        <time>2012-07-25T08:44:15Z</time>
      </trkpt>
      <trkpt lat="48.9096" lon="5.66681">
        <ele>272.67114257812</ele>
        <time>2012-07-25T08:44:24Z</time>
      </trkpt>
      <trkpt lat="48.91027" lon="5.66738">
        <ele>272.67114257812</ele>
        <time>2012-07-25T08:44:32Z</time>
      </trkpt>
      <trkpt lat="48.91061" lon="5.66766">
        <ele>269.787109375</ele>
        <time>2012-07-25T08:44:36Z</time>
      </trkpt>
      <trkpt lat="48.91114" lon="5.66814">
        <ele>270.26770019531</ele>
        <time>2012-07-25T08:44:43Z</time>
      </trkpt>
      <trkpt lat="48.91182" lon="5.66871">
        <ele>271.22912597656</ele>
        <time>2012-07-25T08:44:52Z</time>
      </trkpt>
      <trkpt lat="48.91232" lon="5.66914">
        <ele>272.1904296875</ele>
        <time>2012-07-25T08:44:59Z</time>
      </trkpt>
      <trkpt lat="48.91295" lon="5.66968">
        <ele>272.67114257812</ele>
        <time>2012-07-25T08:45:08Z</time>
      </trkpt>
      <trkpt lat="48.91349" lon="5.67014">
        <ele>272.67114257812</ele>
        <time>2012-07-25T08:45:16Z</time>
      </trkpt>
      <trkpt lat="48.91395" lon="5.6705">
        <ele>273.15185546875</ele>
        <time>2012-07-25T08:45:23Z</time>
      </trkpt>
      <trkpt lat="48.91438" lon="5.67071">
        <ele>274.59375</ele>
        <time>2012-07-25T08:45:29Z</time>
      </trkpt>
      <trkpt lat="48.91477" lon="5.67104">
        <ele>275.07446289062</ele>
        <time>2012-07-25T08:45:35Z</time>
      </trkpt>
      <trkpt lat="48.91527" lon="5.67158">
        <ele>273.63244628906</ele>
        <time>2012-07-25T08:45:43Z</time>
      </trkpt>
      <trkpt lat="48.91562" lon="5.67203">
        <ele>271.22912597656</ele>
        <time>2012-07-25T08:45:48Z</time>
      </trkpt>
      <trkpt lat="48.91596" lon="5.67261">
        <ele>269.30651855469</ele>
        <time>2012-07-25T08:45:53Z</time>
      </trkpt>
      <trkpt lat="48.91625" lon="5.67341">
        <ele>269.30651855469</ele>
        <time>2012-07-25T08:45:59Z</time>
      </trkpt>
      <trkpt lat="48.91655" lon="5.67447">
        <ele>267.86450195312</ele>
        <time>2012-07-25T08:46:07Z</time>
      </trkpt>
      <trkpt lat="48.91688" lon="5.67558">
        <ele>266.90319824219</ele>
        <time>2012-07-25T08:46:16Z</time>
      </trkpt>
      <trkpt lat="48.91709" lon="5.67632">
        <ele>265.94189453125</ele>
        <time>2012-07-25T08:46:22Z</time>
      </trkpt>
      <trkpt lat="48.9174" lon="5.67732">
        <ele>268.34509277344</ele>
        <time>2012-07-25T08:46:30Z</time>
      </trkpt>
      <trkpt lat="48.91769" lon="5.67803">
        <ele>267.86450195312</ele>
        <time>2012-07-25T08:46:36Z</time>
      </trkpt>
      <trkpt lat="48.91801" lon="5.67852">
        <ele>266.90319824219</ele>
        <time>2012-07-25T08:46:41Z</time>
      </trkpt>
      <trkpt lat="48.91808" lon="5.6786">
        <ele>266.90319824219</ele>
        <time>2012-07-25T08:46:42Z</time>
      </trkpt>
      <trkpt lat="48.91821" lon="5.67876">
        <ele>267.86450195312</ele>
        <time>2012-07-25T08:46:44Z</time>
      </trkpt>
      <trkpt lat="48.91835" lon="5.67892">
        <ele>266.90319824219</ele>
        <time>2012-07-25T08:46:46Z</time>
      </trkpt>
      <trkpt lat="48.91841" lon="5.679">
        <ele>266.42248535156</ele>
        <time>2012-07-25T08:46:47Z</time>
      </trkpt>
      <trkpt lat="48.91881" lon="5.67945">
        <ele>266.42248535156</ele>
        <time>2012-07-25T08:46:53Z</time>
      </trkpt>
      <trkpt lat="48.91922" lon="5.6799">
        <ele>266.42248535156</ele>
        <time>2012-07-25T08:47:00Z</time>
      </trkpt>
      <trkpt lat="48.91973" lon="5.68049">
        <ele>266.42248535156</ele>
        <time>2012-07-25T08:47:09Z</time>
      </trkpt>
      <trkpt lat="48.92042" lon="5.68127">
        <ele>264.98059082031</ele>
        <time>2012-07-25T08:47:20Z</time>
      </trkpt>
      <trkpt lat="48.92048" lon="5.68134">
        <ele>264.49987792969</ele>
        <time>2012-07-25T08:47:21Z</time>
      </trkpt>
      <trkpt lat="48.92095" lon="5.68188">
        <ele>263.05786132812</ele>
        <time>2012-07-25T08:47:29Z</time>
      </trkpt>
      <trkpt lat="48.92139" lon="5.68241">
        <ele>261.61596679688</ele>
        <time>2012-07-25T08:47:37Z</time>
      </trkpt>
      <trkpt lat="48.92191" lon="5.68306">
        <ele>261.13525390625</ele>
        <time>2012-07-25T08:47:46Z</time>
      </trkpt>
      <trkpt lat="48.9223" lon="5.6836">
        <ele>260.17395019531</ele>
        <time>2012-07-25T08:47:54Z</time>
      </trkpt>
      <trkpt lat="48.92282" lon="5.68429">
        <ele>258.25134277344</ele>
        <time>2012-07-25T08:48:03Z</time>
      </trkpt>
      <trkpt lat="48.92334" lon="5.68498">
        <ele>255.84802246094</ele>
        <time>2012-07-25T08:48:12Z</time>
      </trkpt>
      <trkpt lat="48.92379" lon="5.68559">
        <ele>253.92541503906</ele>
        <time>2012-07-25T08:48:20Z</time>
      </trkpt>
      <trkpt lat="48.92418" lon="5.68611">
        <ele>252.96398925781</ele>
        <time>2012-07-25T08:48:27Z</time>
      </trkpt>
      <trkpt lat="48.92465" lon="5.68674">
        <ele>255.36730957031</ele>
        <time>2012-07-25T08:48:36Z</time>
      </trkpt>
      <trkpt lat="48.92512" lon="5.68735">
        <ele>253.92541503906</ele>
        <time>2012-07-25T08:48:45Z</time>
      </trkpt>
      <trkpt lat="48.92563" lon="5.68801">
        <ele>253.44470214844</ele>
        <time>2012-07-25T08:48:54Z</time>
      </trkpt>
      <trkpt lat="48.9262" lon="5.68875">
        <ele>250.56079101562</ele>
        <time>2012-07-25T08:49:04Z</time>
      </trkpt>
      <trkpt lat="48.92678" lon="5.68953">
        <ele>249.11877441406</ele>
        <time>2012-07-25T08:49:15Z</time>
      </trkpt>
      <trkpt lat="48.92722" lon="5.69006">
        <ele>249.11877441406</ele>
        <time>2012-07-25T08:49:23Z</time>
      </trkpt>
      <trkpt lat="48.92767" lon="5.69045">
        <ele>247.6767578125</ele>
        <time>2012-07-25T08:49:30Z</time>
      </trkpt>
      <trkpt lat="48.92803" lon="5.69066">
        <ele>246.23486328125</ele>
        <time>2012-07-25T08:49:35Z</time>
      </trkpt>
      <trkpt lat="48.92845" lon="5.6908">
        <ele>245.2734375</ele>
        <time>2012-07-25T08:49:41Z</time>
      </trkpt>
      <trkpt lat="48.92898" lon="5.69087">
        <ele>245.75415039062</ele>
        <time>2012-07-25T08:49:49Z</time>
      </trkpt>
      <trkpt lat="48.92948" lon="5.69095">
        <ele>245.75415039062</ele>
        <time>2012-07-25T08:49:56Z</time>
      </trkpt>
      <trkpt lat="48.93027" lon="5.69107">
        <ele>247.19604492188</ele>
        <time>2012-07-25T08:50:07Z</time>
      </trkpt>
      <trkpt lat="48.93076" lon="5.69113">
        <ele>247.19604492188</ele>
        <time>2012-07-25T08:50:14Z</time>
      </trkpt>
      <trkpt lat="48.93095" lon="5.69117">
        <ele>246.71545410156</ele>
        <time>2012-07-25T08:50:17Z</time>
      </trkpt>
      <trkpt lat="48.93124" lon="5.69139">
        <ele>247.6767578125</ele>
        <time>2012-07-25T08:50:22Z</time>
      </trkpt>
      <trkpt lat="48.93139" lon="5.69172">
        <ele>247.6767578125</ele>
        <time>2012-07-25T08:50:26Z</time>
      </trkpt>
      <trkpt lat="48.93145" lon="5.69216">
        <ele>246.71545410156</ele>
        <time>2012-07-25T08:50:30Z</time>
      </trkpt>
      <trkpt lat="48.93142" lon="5.69326">
        <ele>244.79284667969</ele>
        <time>2012-07-25T08:50:39Z</time>
      </trkpt>
      <trkpt lat="48.9314" lon="5.69432">
        <ele>242.87023925781</ele>
        <time>2012-07-25T08:50:48Z</time>
      </trkpt>
      <trkpt lat="48.93148" lon="5.69494">
        <ele>241.90893554688</ele>
        <time>2012-07-25T08:50:54Z</time>
      </trkpt>
      <trkpt lat="48.93159" lon="5.69553">
        <ele>241.90893554688</ele>
        <time>2012-07-25T08:51:00Z</time>
      </trkpt>
      <trkpt lat="48.93167" lon="5.69621">
        <ele>239.98620605469</ele>
        <time>2012-07-25T08:51:07Z</time>
      </trkpt>
      <trkpt lat="48.93163" lon="5.69681">
        <ele>239.50549316406</ele>
        <time>2012-07-25T08:51:13Z</time>
      </trkpt>
      <trkpt lat="48.93163" lon="5.69715">
        <ele>240.46704101562</ele>
        <time>2012-07-25T08:51:16Z</time>
      </trkpt>
      <trkpt lat="48.93171" lon="5.69749">
        <ele>239.02490234375</ele>
        <time>2012-07-25T08:51:19Z</time>
      </trkpt>
      <trkpt lat="48.93189" lon="5.69802">
        <ele>238.06359863281</ele>
        <time>2012-07-25T08:51:24Z</time>
      </trkpt>
      <trkpt lat="48.93211" lon="5.6983">
        <ele>238.06359863281</ele>
        <time>2012-07-25T08:51:28Z</time>
      </trkpt>
      <trkpt lat="48.93229" lon="5.69845">
        <ele>238.54431152344</ele>
        <time>2012-07-25T08:51:31Z</time>
      </trkpt>
      <trkpt lat="48.93253" lon="5.69873">
        <ele>238.54431152344</ele>
        <time>2012-07-25T08:51:35Z</time>
      </trkpt>
      <trkpt lat="48.93269" lon="5.699">
        <ele>238.06359863281</ele>
        <time>2012-07-25T08:51:38Z</time>
      </trkpt>
      <trkpt lat="48.93303" lon="5.69935">
        <ele>236.14099121094</ele>
        <time>2012-07-25T08:51:43Z</time>
      </trkpt>
      <trkpt lat="48.9338" lon="5.69993">
        <ele>235.66027832031</ele>
        <time>2012-07-25T08:51:54Z</time>
      </trkpt>
      <trkpt lat="48.93419" lon="5.70015">
        <ele>234.69909667969</ele>
        <time>2012-07-25T08:51:59Z</time>
      </trkpt>
      <trkpt lat="48.93454" lon="5.70016">
        <ele>235.1796875</ele>
        <time>2012-07-25T08:52:03Z</time>
      </trkpt>
      <trkpt lat="48.93486" lon="5.7001">
        <ele>234.21838378906</ele>
        <time>2012-07-25T08:52:07Z</time>
      </trkpt>
      <trkpt lat="48.93551" lon="5.7">
        <ele>233.25708007812</ele>
        <time>2012-07-25T08:52:15Z</time>
      </trkpt>
      <trkpt lat="48.93612" lon="5.69991">
        <ele>233.73767089844</ele>
        <time>2012-07-25T08:52:22Z</time>
      </trkpt>
      <trkpt lat="48.937" lon="5.69977">
        <ele>233.25708007812</ele>
        <time>2012-07-25T08:52:33Z</time>
      </trkpt>
      <trkpt lat="48.93797" lon="5.69961">
        <ele>234.21838378906</ele>
        <time>2012-07-25T08:52:45Z</time>
      </trkpt>
      <trkpt lat="48.93864" lon="5.6995">
        <ele>234.21838378906</ele>
        <time>2012-07-25T08:52:54Z</time>
      </trkpt>
      <trkpt lat="48.93926" lon="5.6994">
        <ele>234.69909667969</ele>
        <time>2012-07-25T08:53:02Z</time>
      </trkpt>
      <trkpt lat="48.93999" lon="5.6993">
        <ele>236.14099121094</ele>
        <time>2012-07-25T08:53:11Z</time>
      </trkpt>
      <trkpt lat="48.94055" lon="5.69928">
        <ele>236.14099121094</ele>
        <time>2012-07-25T08:53:18Z</time>
      </trkpt>
      <trkpt lat="48.94127" lon="5.69931">
        <ele>237.58288574219</ele>
        <time>2012-07-25T08:53:27Z</time>
      </trkpt>
      <trkpt lat="48.94207" lon="5.69934">
        <ele>238.54431152344</ele>
        <time>2012-07-25T08:53:37Z</time>
      </trkpt>
      <trkpt lat="48.94261" lon="5.69935">
        <ele>237.58288574219</ele>
        <time>2012-07-25T08:53:44Z</time>
      </trkpt>
      <trkpt lat="48.94321" lon="5.69936">
        <ele>238.54431152344</ele>
        <time>2012-07-25T08:53:52Z</time>
      </trkpt>
      <trkpt lat="48.94386" lon="5.6994">
        <ele>240.46704101562</ele>
        <time>2012-07-25T08:54:01Z</time>
      </trkpt>
      <trkpt lat="48.94467" lon="5.69943">
        <ele>239.98620605469</ele>
        <time>2012-07-25T08:54:12Z</time>
      </trkpt>
      <trkpt lat="48.94533" lon="5.69945">
        <ele>238.54431152344</ele>
        <time>2012-07-25T08:54:20Z</time>
      </trkpt>
      <trkpt lat="48.94604" lon="5.69953">
        <ele>237.10229492188</ele>
        <time>2012-07-25T08:54:28Z</time>
      </trkpt>
      <trkpt lat="48.94663" lon="5.69964">
        <ele>238.54431152344</ele>
        <time>2012-07-25T08:54:35Z</time>
      </trkpt>
      <trkpt lat="48.94733" lon="5.69977">
        <ele>240.94763183594</ele>
        <time>2012-07-25T08:54:44Z</time>
      </trkpt>
      <trkpt lat="48.94804" lon="5.69988">
        <ele>242.3896484375</ele>
        <time>2012-07-25T08:54:53Z</time>
      </trkpt>
      <trkpt lat="48.94862" lon="5.69991">
        <ele>242.87023925781</ele>
        <time>2012-07-25T08:55:00Z</time>
      </trkpt>
      <trkpt lat="48.94925" lon="5.69995">
        <ele>242.87023925781</ele>
        <time>2012-07-25T08:55:08Z</time>
      </trkpt>
      <trkpt lat="48.94993" lon="5.70001">
        <ele>241.90893554688</ele>
        <time>2012-07-25T08:55:16Z</time>
      </trkpt>
      <trkpt lat="48.9506" lon="5.70005">
        <ele>239.98620605469</ele>
        <time>2012-07-25T08:55:23Z</time>
      </trkpt>
      <trkpt lat="48.9513" lon="5.7001">
        <ele>239.02490234375</ele>
        <time>2012-07-25T08:55:30Z</time>
      </trkpt>
      <trkpt lat="48.952" lon="5.70014">
        <ele>238.54431152344</ele>
        <time>2012-07-25T08:55:37Z</time>
      </trkpt>
      <trkpt lat="48.95258" lon="5.70018">
        <ele>238.06359863281</ele>
        <time>2012-07-25T08:55:43Z</time>
      </trkpt>
      <trkpt lat="48.95323" lon="5.70022">
        <ele>236.62170410156</ele>
        <time>2012-07-25T08:55:50Z</time>
      </trkpt>
      <trkpt lat="48.95399" lon="5.70027">
        <ele>238.54431152344</ele>
        <time>2012-07-25T08:55:58Z</time>
      </trkpt>
      <trkpt lat="48.9548" lon="5.70031">
        <ele>238.06359863281</ele>
        <time>2012-07-25T08:56:06Z</time>
      </trkpt>
      <trkpt lat="48.95557" lon="5.70039">
        <ele>237.58288574219</ele>
        <time>2012-07-25T08:56:14Z</time>
      </trkpt>
      <trkpt lat="48.95609" lon="5.70043">
        <ele>238.54431152344</ele>
        <time>2012-07-25T08:56:20Z</time>
      </trkpt>
      <trkpt lat="48.95668" lon="5.70047">
        <ele>238.54431152344</ele>
        <time>2012-07-25T08:56:27Z</time>
      </trkpt>
      <trkpt lat="48.95746" lon="5.70053">
        <ele>239.02490234375</ele>
        <time>2012-07-25T08:56:37Z</time>
      </trkpt>
      <trkpt lat="48.95808" lon="5.70056">
        <ele>238.06359863281</ele>
        <time>2012-07-25T08:56:45Z</time>
      </trkpt>
      <trkpt lat="48.95876" lon="5.7006">
        <ele>237.10229492188</ele>
        <time>2012-07-25T08:56:53Z</time>
      </trkpt>
      <trkpt lat="48.95972" lon="5.70066">
        <ele>236.14099121094</ele>
        <time>2012-07-25T08:57:04Z</time>
      </trkpt>
      <trkpt lat="48.96049" lon="5.70071">
        <ele>236.14099121094</ele>
        <time>2012-07-25T08:57:13Z</time>
      </trkpt>
      <trkpt lat="48.96124" lon="5.70077">
        <ele>235.66027832031</ele>
        <time>2012-07-25T08:57:22Z</time>
      </trkpt>
      <trkpt lat="48.96185" lon="5.70081">
        <ele>236.14099121094</ele>
        <time>2012-07-25T08:57:30Z</time>
      </trkpt>
      <trkpt lat="48.96246" lon="5.70087">
        <ele>236.62170410156</ele>
        <time>2012-07-25T08:57:38Z</time>
      </trkpt>
      <trkpt lat="48.96299" lon="5.7009">
        <ele>237.58288574219</ele>
        <time>2012-07-25T08:57:45Z</time>
      </trkpt>
      <trkpt lat="48.96346" lon="5.70094">
        <ele>238.06359863281</ele>
        <time>2012-07-25T08:57:51Z</time>
      </trkpt>
      <trkpt lat="48.96408" lon="5.70098">
        <ele>239.50549316406</ele>
        <time>2012-07-25T08:57:59Z</time>
      </trkpt>
      <trkpt lat="48.96466" lon="5.70101">
        <ele>239.50549316406</ele>
        <time>2012-07-25T08:58:07Z</time>
      </trkpt>
      <trkpt lat="48.96522" lon="5.70105">
        <ele>240.46704101562</ele>
        <time>2012-07-25T08:58:15Z</time>
      </trkpt>
      <trkpt lat="48.96582" lon="5.7011">
        <ele>241.90893554688</ele>
        <time>2012-07-25T08:58:24Z</time>
      </trkpt>
      <trkpt lat="48.96624" lon="5.70113">
        <ele>241.90893554688</ele>
        <time>2012-07-25T08:58:31Z</time>
      </trkpt>
      <trkpt lat="48.96679" lon="5.70117">
        <ele>241.90893554688</ele>
        <time>2012-07-25T08:58:40Z</time>
      </trkpt>
      <trkpt lat="48.96743" lon="5.70121">
        <ele>243.83154296875</ele>
        <time>2012-07-25T08:58:50Z</time>
      </trkpt>
      <trkpt lat="48.96798" lon="5.70125">
        <ele>243.35083007812</ele>
        <time>2012-07-25T08:58:58Z</time>
      </trkpt>
      <trkpt lat="48.96852" lon="5.70128">
        <ele>242.87023925781</ele>
        <time>2012-07-25T08:59:06Z</time>
      </trkpt>
      <trkpt lat="48.96914" lon="5.70132">
        <ele>243.83154296875</ele>
        <time>2012-07-25T08:59:15Z</time>
      </trkpt>
      <trkpt lat="48.96986" lon="5.70137">
        <ele>245.2734375</ele>
        <time>2012-07-25T08:59:26Z</time>
      </trkpt>
      <trkpt lat="48.97046" lon="5.70141">
        <ele>245.2734375</ele>
        <time>2012-07-25T08:59:35Z</time>
      </trkpt>
      <trkpt lat="48.97105" lon="5.70145">
        <ele>246.23486328125</ele>
        <time>2012-07-25T08:59:44Z</time>
      </trkpt>
      <trkpt lat="48.97159" lon="5.70149">
        <ele>246.71545410156</ele>
        <time>2012-07-25T08:59:53Z</time>
      </trkpt>
      <trkpt lat="48.97217" lon="5.70153">
        <ele>247.6767578125</ele>
        <time>2012-07-25T09:00:03Z</time>
      </trkpt>
      <trkpt lat="48.97281" lon="5.70157">
        <ele>250.56079101562</ele>
        <time>2012-07-25T09:00:14Z</time>
      </trkpt>
      <trkpt lat="48.97286" lon="5.70157">
        <ele>251.04138183594</ele>
        <time>2012-07-25T09:00:15Z</time>
      </trkpt>
      <trkpt lat="48.97341" lon="5.7016">
        <ele>252.4833984375</ele>
        <time>2012-07-25T09:00:25Z</time>
      </trkpt>
      <trkpt lat="48.97395" lon="5.70164">
        <ele>255.36730957031</ele>
        <time>2012-07-25T09:00:35Z</time>
      </trkpt>
      <trkpt lat="48.97453" lon="5.70168">
        <ele>256.32873535156</ele>
        <time>2012-07-25T09:00:45Z</time>
      </trkpt>
      <trkpt lat="48.97498" lon="5.70171">
        <ele>256.80932617188</ele>
        <time>2012-07-25T09:00:53Z</time>
      </trkpt>
      <trkpt lat="48.97542" lon="5.70176">
        <ele>256.80932617188</ele>
        <time>2012-07-25T09:01:01Z</time>
      </trkpt>
      <trkpt lat="48.97547" lon="5.70177">
        <ele>256.80932617188</ele>
        <time>2012-07-25T09:01:02Z</time>
      </trkpt>
      <trkpt lat="48.97563" lon="5.70184">
        <ele>257.77075195312</ele>
        <time>2012-07-25T09:01:05Z</time>
      </trkpt>
      <trkpt lat="48.97583" lon="5.70189">
        <ele>257.2900390625</ele>
        <time>2012-07-25T09:01:09Z</time>
      </trkpt>
      <trkpt lat="48.97626" lon="5.70182">
        <ele>257.2900390625</ele>
        <time>2012-07-25T09:01:16Z</time>
      </trkpt>
      <trkpt lat="48.97696" lon="5.70186">
        <ele>256.80932617188</ele>
        <time>2012-07-25T09:01:26Z</time>
      </trkpt>
      <trkpt lat="48.97768" lon="5.70191">
        <ele>256.80932617188</ele>
        <time>2012-07-25T09:01:36Z</time>
      </trkpt>
      <trkpt lat="48.97842" lon="5.70197">
        <ele>256.32873535156</ele>
        <time>2012-07-25T09:01:46Z</time>
      </trkpt>
      <trkpt lat="48.97903" lon="5.70201">
        <ele>256.32873535156</ele>
        <time>2012-07-25T09:01:54Z</time>
      </trkpt>
      <trkpt lat="48.97952" lon="5.70206">
        <ele>256.32873535156</ele>
        <time>2012-07-25T09:02:01Z</time>
      </trkpt>
      <trkpt lat="48.98008" lon="5.7022">
        <ele>256.80932617188</ele>
        <time>2012-07-25T09:02:09Z</time>
      </trkpt>
      <trkpt lat="48.98039" lon="5.70226">
        <ele>257.2900390625</ele>
        <time>2012-07-25T09:02:14Z</time>
      </trkpt>
      <trkpt lat="48.98073" lon="5.70234">
        <ele>257.77075195312</ele>
        <time>2012-07-25T09:02:20Z</time>
      </trkpt>
      <trkpt lat="48.98095" lon="5.70248">
        <ele>258.25134277344</ele>
        <time>2012-07-25T09:02:26Z</time>
      </trkpt>
      <trkpt lat="48.98098" lon="5.70264">
        <ele>257.77075195312</ele>
        <time>2012-07-25T09:02:31Z</time>
      </trkpt>
      <trkpt lat="48.98098" lon="5.70266">
        <ele>257.77075195312</ele>
        <time>2012-07-25T09:02:33Z</time>
      </trkpt>
      <trkpt lat="48.98098" lon="5.7027">
        <ele>258.25134277344</ele>
        <time>2012-07-25T09:03:05Z</time>
      </trkpt>
      <trkpt lat="48.98098" lon="5.70271">
        <ele>258.73193359375</ele>
        <time>2012-07-25T09:03:06Z</time>
      </trkpt>
      <trkpt lat="48.98098" lon="5.70272">
        <ele>258.73193359375</ele>
        <time>2012-07-25T09:03:31Z</time>
      </trkpt>
      <trkpt lat="48.98098" lon="5.70273">
        <ele>258.73193359375</ele>
        <time>2012-07-25T09:03:32Z</time>
      </trkpt>
      <trkpt lat="48.98098" lon="5.70273">
        <ele>259.21264648438</ele>
        <time>2012-07-25T09:03:38Z</time>
      </trkpt>
      <trkpt lat="48.98096" lon="5.70273">
        <ele>260.17395019531</ele>
        <time>2012-07-25T09:03:40Z</time>
      </trkpt>
      <trkpt lat="48.98094" lon="5.70272">
        <ele>259.693359375</ele>
        <time>2012-07-25T09:03:45Z</time>
      </trkpt>
      <trkpt lat="48.98093" lon="5.70272">
        <ele>259.693359375</ele>
        <time>2012-07-25T09:03:56Z</time>
      </trkpt>
      <trkpt lat="48.98093" lon="5.70272">
        <ele>259.693359375</ele>
        <time>2012-07-25T09:03:57Z</time>
      </trkpt>
      <trkpt lat="48.98092" lon="5.70266">
        <ele>260.65454101562</ele>
        <time>2012-07-25T09:04:19Z</time>
      </trkpt>
      <trkpt lat="48.98092" lon="5.70263">
        <ele>260.17395019531</ele>
        <time>2012-07-25T09:04:24Z</time>
      </trkpt>
      <trkpt lat="48.98093" lon="5.70265">
        <ele>259.693359375</ele>
        <time>2012-07-25T09:04:42Z</time>
      </trkpt>
      <trkpt lat="48.98095" lon="5.70267">
        <ele>259.21264648438</ele>
        <time>2012-07-25T09:04:46Z</time>
      </trkpt>
      <trkpt lat="48.98095" lon="5.70268">
        <ele>259.21264648438</ele>
        <time>2012-07-25T09:04:49Z</time>
      </trkpt>
      <trkpt lat="48.981" lon="5.70273">
        <ele>259.21264648438</ele>
        <time>2012-07-25T09:04:57Z</time>
      </trkpt>
      <trkpt lat="48.981" lon="5.70275">
        <ele>258.73193359375</ele>
        <time>2012-07-25T09:04:59Z</time>
      </trkpt>
      <trkpt lat="48.98107" lon="5.70276">
        <ele>258.73193359375</ele>
        <time>2012-07-25T09:05:23Z</time>
      </trkpt>
      <trkpt lat="48.9811" lon="5.70275">
        <ele>258.73193359375</ele>
        <time>2012-07-25T09:05:25Z</time>
      </trkpt>
      <trkpt lat="48.9811" lon="5.70274">
        <ele>260.65454101562</ele>
        <time>2012-07-25T09:05:35Z</time>
      </trkpt>
      <trkpt lat="48.98109" lon="5.70274">
        <ele>260.17395019531</ele>
        <time>2012-07-25T09:05:36Z</time>
      </trkpt>
      <trkpt lat="48.98107" lon="5.70273">
        <ele>260.17395019531</ele>
        <time>2012-07-25T09:05:46Z</time>
      </trkpt>
      <trkpt lat="48.98107" lon="5.70273">
        <ele>260.17395019531</ele>
        <time>2012-07-25T09:05:48Z</time>
      </trkpt>
      <trkpt lat="48.98104" lon="5.70274">
        <ele>259.693359375</ele>
        <time>2012-07-25T09:05:53Z</time>
      </trkpt>
      <trkpt lat="48.98103" lon="5.70275">
        <ele>260.17395019531</ele>
        <time>2012-07-25T09:05:54Z</time>
      </trkpt>
      <trkpt lat="48.98107" lon="5.70271">
        <ele>259.693359375</ele>
        <time>2012-07-25T09:06:34Z</time>
      </trkpt>
      <trkpt lat="48.98107" lon="5.70271">
        <ele>260.17395019531</ele>
        <time>2012-07-25T09:06:35Z</time>
      </trkpt>
      <trkpt lat="48.98109" lon="5.70271">
        <ele>259.693359375</ele>
        <time>2012-07-25T09:06:45Z</time>
      </trkpt>
      <trkpt lat="48.98109" lon="5.70271">
        <ele>260.17395019531</ele>
        <time>2012-07-25T09:06:46Z</time>
      </trkpt>
      <trkpt lat="48.98111" lon="5.70272">
        <ele>259.693359375</ele>
        <time>2012-07-25T09:06:51Z</time>
      </trkpt>
      <trkpt lat="48.98111" lon="5.70272">
        <ele>259.21264648438</ele>
        <time>2012-07-25T09:06:52Z</time>
      </trkpt>
      <trkpt lat="48.98111" lon="5.70271">
        <ele>259.21264648438</ele>
        <time>2012-07-25T09:06:55Z</time>
      </trkpt>
      <trkpt lat="48.98111" lon="5.70277">
        <ele>260.65454101562</ele>
        <time>2012-07-25T09:07:09Z</time>
      </trkpt>
      <trkpt lat="48.9811" lon="5.70279">
        <ele>260.65454101562</ele>
        <time>2012-07-25T09:07:12Z</time>
      </trkpt>
      <trkpt lat="48.9811" lon="5.70279">
        <ele>260.65454101562</ele>
        <time>2012-07-25T09:07:15Z</time>
      </trkpt>
      <trkpt lat="48.98111" lon="5.70279">
        <ele>260.17395019531</ele>
        <time>2012-07-25T09:07:16Z</time>
      </trkpt>
      <trkpt lat="48.98111" lon="5.70279">
        <ele>260.17395019531</ele>
        <time>2012-07-25T09:07:17Z</time>
      </trkpt>
      <trkpt lat="48.98105" lon="5.70282">
        <ele>260.17395019531</ele>
        <time>2012-07-25T09:07:34Z</time>
      </trkpt>
      <trkpt lat="48.98104" lon="5.70299">
        <ele>260.17395019531</ele>
        <time>2012-07-25T09:07:40Z</time>
      </trkpt>
      <trkpt lat="48.981" lon="5.70328">
        <ele>260.65454101562</ele>
        <time>2012-07-25T09:07:48Z</time>
      </trkpt>
      <trkpt lat="48.98097" lon="5.70355">
        <ele>259.21264648438</ele>
        <time>2012-07-25T09:07:54Z</time>
      </trkpt>
      <trkpt lat="48.98094" lon="5.70396">
        <ele>260.17395019531</ele>
        <time>2012-07-25T09:08:02Z</time>
      </trkpt>
      <trkpt lat="48.98089" lon="5.70457">
        <ele>258.73193359375</ele>
        <time>2012-07-25T09:08:13Z</time>
      </trkpt>
      <trkpt lat="48.98085" lon="5.70511">
        <ele>258.73193359375</ele>
        <time>2012-07-25T09:08:22Z</time>
      </trkpt>
      <trkpt lat="48.98084" lon="5.70569">
        <ele>258.25134277344</ele>
        <time>2012-07-25T09:08:30Z</time>
      </trkpt>
      <trkpt lat="48.98082" lon="5.70632">
        <ele>258.25134277344</ele>
        <time>2012-07-25T09:08:38Z</time>
      </trkpt>
      <trkpt lat="48.98079" lon="5.70712">
        <ele>257.2900390625</ele>
        <time>2012-07-25T09:08:47Z</time>
      </trkpt>
      <trkpt lat="48.98074" lon="5.70785">
        <ele>257.77075195312</ele>
        <time>2012-07-25T09:08:56Z</time>
      </trkpt>
      <trkpt lat="48.98067" lon="5.70849">
        <ele>258.25134277344</ele>
        <time>2012-07-25T09:09:04Z</time>
      </trkpt>
      <trkpt lat="48.98054" lon="5.70929">
        <ele>257.77075195312</ele>
        <time>2012-07-25T09:09:14Z</time>
      </trkpt>
      <trkpt lat="48.98038" lon="5.70985">
        <ele>257.77075195312</ele>
        <time>2012-07-25T09:09:21Z</time>
      </trkpt>
      <trkpt lat="48.98018" lon="5.71055">
        <ele>257.2900390625</ele>
        <time>2012-07-25T09:09:29Z</time>
      </trkpt>
      <trkpt lat="48.97992" lon="5.7114">
        <ele>256.80932617188</ele>
        <time>2012-07-25T09:09:38Z</time>
      </trkpt>
      <trkpt lat="48.97965" lon="5.71229">
        <ele>255.36730957031</ele>
        <time>2012-07-25T09:09:47Z</time>
      </trkpt>
      <trkpt lat="48.97934" lon="5.7134">
        <ele>253.92541503906</ele>
        <time>2012-07-25T09:09:58Z</time>
      </trkpt>
      <trkpt lat="48.97905" lon="5.71439">
        <ele>253.44470214844</ele>
        <time>2012-07-25T09:10:07Z</time>
      </trkpt>
      <trkpt lat="48.97883" lon="5.71514">
        <ele>252.96398925781</ele>
        <time>2012-07-25T09:10:14Z</time>
      </trkpt>
      <trkpt lat="48.97876" lon="5.71531">
        <ele>252.96398925781</ele>
        <time>2012-07-25T09:10:16Z</time>
      </trkpt>
      <trkpt lat="48.97855" lon="5.71554">
        <ele>252.00280761719</ele>
        <time>2012-07-25T09:10:20Z</time>
      </trkpt>
      <trkpt lat="48.97845" lon="5.71578">
        <ele>252.00280761719</ele>
        <time>2012-07-25T09:10:23Z</time>
      </trkpt>
      <trkpt lat="48.9785" lon="5.71593">
        <ele>251.52209472656</ele>
        <time>2012-07-25T09:10:25Z</time>
      </trkpt>
      <trkpt lat="48.97857" lon="5.71606">
        <ele>250.56079101562</ele>
        <time>2012-07-25T09:10:27Z</time>
      </trkpt>
      <trkpt lat="48.97864" lon="5.71632">
        <ele>250.08020019531</ele>
        <time>2012-07-25T09:10:31Z</time>
      </trkpt>
      <trkpt lat="48.97866" lon="5.71666">
        <ele>249.11877441406</ele>
        <time>2012-07-25T09:10:38Z</time>
      </trkpt>
      <trkpt lat="48.97866" lon="5.71713">
        <ele>249.59948730469</ele>
        <time>2012-07-25T09:10:46Z</time>
      </trkpt>
      <trkpt lat="48.97866" lon="5.71767">
        <ele>249.59948730469</ele>
        <time>2012-07-25T09:10:53Z</time>
      </trkpt>
      <trkpt lat="48.97866" lon="5.71825">
        <ele>248.15759277344</ele>
        <time>2012-07-25T09:11:00Z</time>
      </trkpt>
      <trkpt lat="48.97865" lon="5.71888">
        <ele>248.63818359375</ele>
        <time>2012-07-25T09:11:07Z</time>
      </trkpt>
      <trkpt lat="48.97865" lon="5.71995">
        <ele>248.15759277344</ele>
        <time>2012-07-25T09:11:17Z</time>
      </trkpt>
      <trkpt lat="48.97865" lon="5.72108">
        <ele>246.71545410156</ele>
        <time>2012-07-25T09:11:27Z</time>
      </trkpt>
      <trkpt lat="48.97864" lon="5.7225">
        <ele>247.19604492188</ele>
        <time>2012-07-25T09:11:39Z</time>
      </trkpt>
      <trkpt lat="48.97864" lon="5.72273">
        <ele>246.23486328125</ele>
        <time>2012-07-25T09:11:41Z</time>
      </trkpt>
      <trkpt lat="48.97864" lon="5.72384">
        <ele>245.2734375</ele>
        <time>2012-07-25T09:11:51Z</time>
      </trkpt>
      <trkpt lat="48.97863" lon="5.72503">
        <ele>245.75415039062</ele>
        <time>2012-07-25T09:12:02Z</time>
      </trkpt>
      <trkpt lat="48.97862" lon="5.7264">
        <ele>244.31225585938</ele>
        <time>2012-07-25T09:12:14Z</time>
      </trkpt>
      <trkpt lat="48.97861" lon="5.7279">
        <ele>243.35083007812</ele>
        <time>2012-07-25T09:12:27Z</time>
      </trkpt>
      <trkpt lat="48.97861" lon="5.72825">
        <ele>244.31225585938</ele>
        <time>2012-07-25T09:12:30Z</time>
      </trkpt>
      <trkpt lat="48.9786" lon="5.72895">
        <ele>243.83154296875</ele>
        <time>2012-07-25T09:12:36Z</time>
      </trkpt>
      <trkpt lat="48.9786" lon="5.7302">
        <ele>243.35083007812</ele>
        <time>2012-07-25T09:12:47Z</time>
      </trkpt>
      <trkpt lat="48.97859" lon="5.73151">
        <ele>243.35083007812</ele>
        <time>2012-07-25T09:12:58Z</time>
      </trkpt>
      <trkpt lat="48.97858" lon="5.73285">
        <ele>242.87023925781</ele>
        <time>2012-07-25T09:13:09Z</time>
      </trkpt>
      <trkpt lat="48.97857" lon="5.73443">
        <ele>242.87023925781</ele>
        <time>2012-07-25T09:13:22Z</time>
      </trkpt>
      <trkpt lat="48.97856" lon="5.7355">
        <ele>241.42822265625</ele>
        <time>2012-07-25T09:13:31Z</time>
      </trkpt>
      <trkpt lat="48.97855" lon="5.73667">
        <ele>241.42822265625</ele>
        <time>2012-07-25T09:13:41Z</time>
      </trkpt>
      <trkpt lat="48.97854" lon="5.73796">
        <ele>241.42822265625</ele>
        <time>2012-07-25T09:13:52Z</time>
      </trkpt>
      <trkpt lat="48.97857" lon="5.73916">
        <ele>241.42822265625</ele>
        <time>2012-07-25T09:14:02Z</time>
      </trkpt>
      <trkpt lat="48.97871" lon="5.74001">
        <ele>239.50549316406</ele>
        <time>2012-07-25T09:14:09Z</time>
      </trkpt>
      <trkpt lat="48.97892" lon="5.74097">
        <ele>240.46704101562</ele>
        <time>2012-07-25T09:14:17Z</time>
      </trkpt>
      <trkpt lat="48.97903" lon="5.74146">
        <ele>237.10229492188</ele>
        <time>2012-07-25T09:14:21Z</time>
      </trkpt>
      <trkpt lat="48.97929" lon="5.74267">
        <ele>237.10229492188</ele>
        <time>2012-07-25T09:14:31Z</time>
      </trkpt>
      <trkpt lat="48.97951" lon="5.74364">
        <ele>238.06359863281</ele>
        <time>2012-07-25T09:14:39Z</time>
      </trkpt>
      <trkpt lat="48.9798" lon="5.745">
        <ele>235.1796875</ele>
        <time>2012-07-25T09:14:50Z</time>
      </trkpt>
      <trkpt lat="48.98005" lon="5.74618">
        <ele>233.73767089844</ele>
        <time>2012-07-25T09:15:00Z</time>
      </trkpt>
      <trkpt lat="48.9801" lon="5.74642">
        <ele>232.77648925781</ele>
        <time>2012-07-25T09:15:02Z</time>
      </trkpt>
      <trkpt lat="48.98038" lon="5.74774">
        <ele>232.29577636719</ele>
        <time>2012-07-25T09:15:13Z</time>
      </trkpt>
      <trkpt lat="48.98064" lon="5.74898">
        <ele>232.77648925781</ele>
        <time>2012-07-25T09:15:23Z</time>
      </trkpt>
      <trkpt lat="48.98093" lon="5.75029">
        <ele>230.85375976562</ele>
        <time>2012-07-25T09:15:34Z</time>
      </trkpt>
      <trkpt lat="48.98108" lon="5.75103">
        <ele>231.33435058594</ele>
        <time>2012-07-25T09:15:40Z</time>
      </trkpt>
      <trkpt lat="48.98116" lon="5.75139">
        <ele>228.93115234375</ele>
        <time>2012-07-25T09:15:43Z</time>
      </trkpt>
      <trkpt lat="48.98145" lon="5.75279">
        <ele>229.41174316406</ele>
        <time>2012-07-25T09:15:55Z</time>
      </trkpt>
      <trkpt lat="48.98169" lon="5.75381">
        <ele>229.89233398438</ele>
        <time>2012-07-25T09:16:04Z</time>
      </trkpt>
      <trkpt lat="48.98179" lon="5.75427">
        <ele>230.85375976562</ele>
        <time>2012-07-25T09:16:08Z</time>
      </trkpt>
      <trkpt lat="48.98202" lon="5.75532">
        <ele>230.85375976562</ele>
        <time>2012-07-25T09:16:17Z</time>
      </trkpt>
      <trkpt lat="48.9822" lon="5.75615">
        <ele>230.373046875</ele>
        <time>2012-07-25T09:16:24Z</time>
      </trkpt>
      <trkpt lat="48.98243" lon="5.75719">
        <ele>227.9697265625</ele>
        <time>2012-07-25T09:16:33Z</time>
      </trkpt>
      <trkpt lat="48.98263" lon="5.75813">
        <ele>228.45043945312</ele>
        <time>2012-07-25T09:16:41Z</time>
      </trkpt>
      <trkpt lat="48.98277" lon="5.75881">
        <ele>228.93115234375</ele>
        <time>2012-07-25T09:16:47Z</time>
      </trkpt>
      <trkpt lat="48.98294" lon="5.75959">
        <ele>229.89233398438</ele>
        <time>2012-07-25T09:16:54Z</time>
      </trkpt>
      <trkpt lat="48.98312" lon="5.76042">
        <ele>229.89233398438</ele>
        <time>2012-07-25T09:17:02Z</time>
      </trkpt>
      <trkpt lat="48.98331" lon="5.76131">
        <ele>230.85375976562</ele>
        <time>2012-07-25T09:17:11Z</time>
      </trkpt>
      <trkpt lat="48.98352" lon="5.76231">
        <ele>234.21838378906</ele>
        <time>2012-07-25T09:17:21Z</time>
      </trkpt>
      <trkpt lat="48.9837" lon="5.76318">
        <ele>234.69909667969</ele>
        <time>2012-07-25T09:17:30Z</time>
      </trkpt>
      <trkpt lat="48.98381" lon="5.76401">
        <ele>234.21838378906</ele>
        <time>2012-07-25T09:17:38Z</time>
      </trkpt>
      <trkpt lat="48.98388" lon="5.76503">
        <ele>233.25708007812</ele>
        <time>2012-07-25T09:17:47Z</time>
      </trkpt>
      <trkpt lat="48.98396" lon="5.76602">
        <ele>231.81494140625</ele>
        <time>2012-07-25T09:17:55Z</time>
      </trkpt>
      <trkpt lat="48.984" lon="5.76663">
        <ele>231.81494140625</ele>
        <time>2012-07-25T09:18:00Z</time>
      </trkpt>
      <trkpt lat="48.98404" lon="5.76739">
        <ele>230.85375976562</ele>
        <time>2012-07-25T09:18:06Z</time>
      </trkpt>
      <trkpt lat="48.98407" lon="5.76854">
        <ele>230.373046875</ele>
        <time>2012-07-25T09:18:15Z</time>
      </trkpt>
      <trkpt lat="48.9841" lon="5.76944">
        <ele>229.41174316406</ele>
        <time>2012-07-25T09:18:22Z</time>
      </trkpt>
      <trkpt lat="48.98412" lon="5.77058">
        <ele>226.04711914062</ele>
        <time>2012-07-25T09:18:30Z</time>
      </trkpt>
      <trkpt lat="48.98412" lon="5.77072">
        <ele>226.04711914062</ele>
        <time>2012-07-25T09:18:31Z</time>
      </trkpt>
      <trkpt lat="48.98419" lon="5.77192">
        <ele>224.12451171875</ele>
        <time>2012-07-25T09:18:39Z</time>
      </trkpt>
      <trkpt lat="48.98438" lon="5.77323">
        <ele>225.56652832031</ele>
        <time>2012-07-25T09:18:48Z</time>
      </trkpt>
      <trkpt lat="48.98448" lon="5.77378">
        <ele>224.12451171875</ele>
        <time>2012-07-25T09:18:52Z</time>
      </trkpt>
      <trkpt lat="48.98473" lon="5.7749">
        <ele>225.0859375</ele>
        <time>2012-07-25T09:19:01Z</time>
      </trkpt>
      <trkpt lat="48.98497" lon="5.77602">
        <ele>226.04711914062</ele>
        <time>2012-07-25T09:19:10Z</time>
      </trkpt>
      <trkpt lat="48.98518" lon="5.77753">
        <ele>226.52783203125</ele>
        <time>2012-07-25T09:19:22Z</time>
      </trkpt>
      <trkpt lat="48.98539" lon="5.77902">
        <ele>225.0859375</ele>
        <time>2012-07-25T09:19:34Z</time>
      </trkpt>
      <trkpt lat="48.98555" lon="5.78012">
        <ele>224.12451171875</ele>
        <time>2012-07-25T09:19:43Z</time>
      </trkpt>
      <trkpt lat="48.98558" lon="5.78036">
        <ele>227.48913574219</ele>
        <time>2012-07-25T09:19:45Z</time>
      </trkpt>
      <trkpt lat="48.9856" lon="5.78049">
        <ele>227.00854492188</ele>
        <time>2012-07-25T09:19:46Z</time>
      </trkpt>
      <trkpt lat="48.98571" lon="5.78157">
        <ele>227.48913574219</ele>
        <time>2012-07-25T09:19:55Z</time>
      </trkpt>
      <trkpt lat="48.98572" lon="5.78182">
        <ele>226.04711914062</ele>
        <time>2012-07-25T09:19:57Z</time>
      </trkpt>
      <trkpt lat="48.98574" lon="5.78313">
        <ele>226.52783203125</ele>
        <time>2012-07-25T09:20:08Z</time>
      </trkpt>
      <trkpt lat="48.98574" lon="5.78325">
        <ele>226.52783203125</ele>
        <time>2012-07-25T09:20:09Z</time>
      </trkpt>
      <trkpt lat="48.98569" lon="5.78396">
        <ele>226.52783203125</ele>
        <time>2012-07-25T09:20:15Z</time>
      </trkpt>
      <trkpt lat="48.98567" lon="5.78418">
        <ele>225.0859375</ele>
        <time>2012-07-25T09:20:17Z</time>
      </trkpt>
      <trkpt lat="48.9856" lon="5.78453">
        <ele>224.60522460938</ele>
        <time>2012-07-25T09:20:20Z</time>
      </trkpt>
      <trkpt lat="48.98561" lon="5.78485">
        <ele>223.64379882812</ele>
        <time>2012-07-25T09:20:23Z</time>
      </trkpt>
      <trkpt lat="48.98572" lon="5.78498">
        <ele>223.64379882812</ele>
        <time>2012-07-25T09:20:25Z</time>
      </trkpt>
      <trkpt lat="48.98599" lon="5.78541">
        <ele>225.0859375</ele>
        <time>2012-07-25T09:20:30Z</time>
      </trkpt>
      <trkpt lat="48.98633" lon="5.78652">
        <ele>222.20178222656</ele>
        <time>2012-07-25T09:20:39Z</time>
      </trkpt>
      <trkpt lat="48.98668" lon="5.78765">
        <ele>221.72119140625</ele>
        <time>2012-07-25T09:20:48Z</time>
      </trkpt>
      <trkpt lat="48.98707" lon="5.78893">
        <ele>221.24060058594</ele>
        <time>2012-07-25T09:20:58Z</time>
      </trkpt>
      <trkpt lat="48.9875" lon="5.79033">
        <ele>224.12451171875</ele>
        <time>2012-07-25T09:21:09Z</time>
      </trkpt>
      <trkpt lat="48.9878" lon="5.79136">
        <ele>222.20178222656</ele>
        <time>2012-07-25T09:21:17Z</time>
      </trkpt>
      <trkpt lat="48.98822" lon="5.79274">
        <ele>221.24060058594</ele>
        <time>2012-07-25T09:21:28Z</time>
      </trkpt>
      <trkpt lat="48.9886" lon="5.79399">
        <ele>220.75988769531</ele>
        <time>2012-07-25T09:21:38Z</time>
      </trkpt>
      <trkpt lat="48.98906" lon="5.79554">
        <ele>220.27917480469</ele>
        <time>2012-07-25T09:21:50Z</time>
      </trkpt>
      <trkpt lat="48.98925" lon="5.79616">
        <ele>218.83728027344</ele>
        <time>2012-07-25T09:21:55Z</time>
      </trkpt>
      <trkpt lat="48.98961" lon="5.79737">
        <ele>219.31799316406</ele>
        <time>2012-07-25T09:22:05Z</time>
      </trkpt>
      <trkpt lat="48.98994" lon="5.79846">
        <ele>218.83728027344</ele>
        <time>2012-07-25T09:22:14Z</time>
      </trkpt>
      <trkpt lat="48.99028" lon="5.79961">
        <ele>218.83728027344</ele>
        <time>2012-07-25T09:22:24Z</time>
      </trkpt>
      <trkpt lat="48.99059" lon="5.80044">
        <ele>218.83728027344</ele>
        <time>2012-07-25T09:22:32Z</time>
      </trkpt>
      <trkpt lat="48.99097" lon="5.80104">
        <ele>218.35656738281</ele>
        <time>2012-07-25T09:22:39Z</time>
      </trkpt>
      <trkpt lat="48.99115" lon="5.80129">
        <ele>219.79858398438</ele>
        <time>2012-07-25T09:22:42Z</time>
      </trkpt>
      <trkpt lat="48.99176" lon="5.80212">
        <ele>219.31799316406</ele>
        <time>2012-07-25T09:22:52Z</time>
      </trkpt>
      <trkpt lat="48.99236" lon="5.80294">
        <ele>218.83728027344</ele>
        <time>2012-07-25T09:23:02Z</time>
      </trkpt>
      <trkpt lat="48.99302" lon="5.80384">
        <ele>219.31799316406</ele>
        <time>2012-07-25T09:23:13Z</time>
      </trkpt>
      <trkpt lat="48.99357" lon="5.80462">
        <ele>219.31799316406</ele>
        <time>2012-07-25T09:23:22Z</time>
      </trkpt>
      <trkpt lat="48.9945" lon="5.80592">
        <ele>218.83728027344</ele>
        <time>2012-07-25T09:23:37Z</time>
      </trkpt>
      <trkpt lat="48.99531" lon="5.80705">
        <ele>218.35656738281</ele>
        <time>2012-07-25T09:23:50Z</time>
      </trkpt>
      <trkpt lat="48.99598" lon="5.80799">
        <ele>217.39538574219</ele>
        <time>2012-07-25T09:24:01Z</time>
      </trkpt>
      <trkpt lat="48.99652" lon="5.80874">
        <ele>217.8759765625</ele>
        <time>2012-07-25T09:24:10Z</time>
      </trkpt>
      <trkpt lat="48.99716" lon="5.80963">
        <ele>218.35656738281</ele>
        <time>2012-07-25T09:24:21Z</time>
      </trkpt>
      <trkpt lat="48.99781" lon="5.81052">
        <ele>219.31799316406</ele>
        <time>2012-07-25T09:24:32Z</time>
      </trkpt>
      <trkpt lat="48.99846" lon="5.81141">
        <ele>222.20178222656</ele>
        <time>2012-07-25T09:24:43Z</time>
      </trkpt>
      <trkpt lat="48.99908" lon="5.81228">
        <ele>222.20178222656</ele>
        <time>2012-07-25T09:24:54Z</time>
      </trkpt>
      <trkpt lat="48.99936" lon="5.81267">
        <ele>221.24060058594</ele>
        <time>2012-07-25T09:24:59Z</time>
      </trkpt>
      <trkpt lat="48.99984" lon="5.81337">
        <ele>222.68249511719</ele>
        <time>2012-07-25T09:25:08Z</time>
      </trkpt>
      <trkpt lat="49.0003" lon="5.81414">
        <ele>223.64379882812</ele>
        <time>2012-07-25T09:25:17Z</time>
      </trkpt>
      <trkpt lat="49.00063" lon="5.81492">
        <ele>222.68249511719</ele>
        <time>2012-07-25T09:25:25Z</time>
      </trkpt>
      <trkpt lat="49.00106" lon="5.81599">
        <ele>221.72119140625</ele>
        <time>2012-07-25T09:25:35Z</time>
      </trkpt>
      <trkpt lat="49.00151" lon="5.81709">
        <ele>220.27917480469</ele>
        <time>2012-07-25T09:25:45Z</time>
      </trkpt>
      <trkpt lat="49.00181" lon="5.81785">
        <ele>220.75988769531</ele>
        <time>2012-07-25T09:25:53Z</time>
      </trkpt>
      <trkpt lat="49.00198" lon="5.81828">
        <ele>222.68249511719</ele>
        <time>2012-07-25T09:25:58Z</time>
      </trkpt>
      <trkpt lat="49.00231" lon="5.8191">
        <ele>224.60522460938</ele>
        <time>2012-07-25T09:26:08Z</time>
      </trkpt>
      <trkpt lat="49.00267" lon="5.82">
        <ele>227.48913574219</ele>
        <time>2012-07-25T09:26:19Z</time>
      </trkpt>
      <trkpt lat="49.00301" lon="5.82083">
        <ele>228.45043945312</ele>
        <time>2012-07-25T09:26:29Z</time>
      </trkpt>
      <trkpt lat="49.00335" lon="5.82166">
        <ele>228.45043945312</ele>
        <time>2012-07-25T09:26:39Z</time>
      </trkpt>
      <trkpt lat="49.0037" lon="5.82253">
        <ele>229.41174316406</ele>
        <time>2012-07-25T09:26:49Z</time>
      </trkpt>
      <trkpt lat="49.00406" lon="5.82342">
        <ele>227.9697265625</ele>
        <time>2012-07-25T09:26:59Z</time>
      </trkpt>
      <trkpt lat="49.00425" lon="5.82389">
        <ele>227.48913574219</ele>
        <time>2012-07-25T09:27:04Z</time>
      </trkpt>
      <trkpt lat="49.00465" lon="5.8249">
        <ele>227.9697265625</ele>
        <time>2012-07-25T09:27:14Z</time>
      </trkpt>
      <trkpt lat="49.00507" lon="5.82593">
        <ele>229.41174316406</ele>
        <time>2012-07-25T09:27:24Z</time>
      </trkpt>
      <trkpt lat="49.00542" lon="5.8268">
        <ele>230.85375976562</ele>
        <time>2012-07-25T09:27:33Z</time>
      </trkpt>
      <trkpt lat="49.00573" lon="5.82756">
        <ele>232.29577636719</ele>
        <time>2012-07-25T09:27:41Z</time>
      </trkpt>
      <trkpt lat="49.00613" lon="5.82857">
        <ele>235.1796875</ele>
        <time>2012-07-25T09:27:52Z</time>
      </trkpt>
      <trkpt lat="49.0065" lon="5.82951">
        <ele>236.62170410156</ele>
        <time>2012-07-25T09:28:03Z</time>
      </trkpt>
      <trkpt lat="49.00677" lon="5.83031">
        <ele>238.06359863281</ele>
        <time>2012-07-25T09:28:12Z</time>
      </trkpt>
      <trkpt lat="49.00703" lon="5.83112">
        <ele>239.02490234375</ele>
        <time>2012-07-25T09:28:21Z</time>
      </trkpt>
      <trkpt lat="49.00726" lon="5.83186">
        <ele>238.54431152344</ele>
        <time>2012-07-25T09:28:29Z</time>
      </trkpt>
      <trkpt lat="49.00754" lon="5.83274">
        <ele>244.31225585938</ele>
        <time>2012-07-25T09:28:38Z</time>
      </trkpt>
      <trkpt lat="49.00757" lon="5.83284">
        <ele>237.58288574219</ele>
        <time>2012-07-25T09:28:39Z</time>
      </trkpt>
      <trkpt lat="49.00787" lon="5.83379">
        <ele>238.54431152344</ele>
        <time>2012-07-25T09:28:48Z</time>
      </trkpt>
      <trkpt lat="49.00816" lon="5.83462">
        <ele>239.50549316406</ele>
        <time>2012-07-25T09:28:56Z</time>
      </trkpt>
      <trkpt lat="49.00849" lon="5.83537">
        <ele>240.94763183594</ele>
        <time>2012-07-25T09:29:04Z</time>
      </trkpt>
      <trkpt lat="49.00873" lon="5.83579">
        <ele>242.3896484375</ele>
        <time>2012-07-25T09:29:09Z</time>
      </trkpt>
      <trkpt lat="49.00922" lon="5.83653">
        <ele>243.83154296875</ele>
        <time>2012-07-25T09:29:19Z</time>
      </trkpt>
      <trkpt lat="49.00952" lon="5.83695">
        <ele>245.75415039062</ele>
        <time>2012-07-25T09:29:25Z</time>
      </trkpt>
      <trkpt lat="49.01012" lon="5.8378">
        <ele>246.23486328125</ele>
        <time>2012-07-25T09:29:37Z</time>
      </trkpt>
      <trkpt lat="49.01063" lon="5.83852">
        <ele>246.23486328125</ele>
        <time>2012-07-25T09:29:47Z</time>
      </trkpt>
      <trkpt lat="49.0112" lon="5.83933">
        <ele>246.71545410156</ele>
        <time>2012-07-25T09:29:58Z</time>
      </trkpt>
      <trkpt lat="49.01167" lon="5.84">
        <ele>247.19604492188</ele>
        <time>2012-07-25T09:30:07Z</time>
      </trkpt>
      <trkpt lat="49.0121" lon="5.84059">
        <ele>246.23486328125</ele>
        <time>2012-07-25T09:30:15Z</time>
      </trkpt>
      <trkpt lat="49.01215" lon="5.84066">
        <ele>246.23486328125</ele>
        <time>2012-07-25T09:30:16Z</time>
      </trkpt>
      <trkpt lat="49.01263" lon="5.84136">
        <ele>247.6767578125</ele>
        <time>2012-07-25T09:30:25Z</time>
      </trkpt>
      <trkpt lat="49.01297" lon="5.84191">
        <ele>247.19604492188</ele>
        <time>2012-07-25T09:30:32Z</time>
      </trkpt>
      <trkpt lat="49.01342" lon="5.84264">
        <ele>248.15759277344</ele>
        <time>2012-07-25T09:30:41Z</time>
      </trkpt>
      <trkpt lat="49.01377" lon="5.84324">
        <ele>247.6767578125</ele>
        <time>2012-07-25T09:30:48Z</time>
      </trkpt>
      <trkpt lat="49.0142" lon="5.84406">
        <ele>248.15759277344</ele>
        <time>2012-07-25T09:30:57Z</time>
      </trkpt>
      <trkpt lat="49.01453" lon="5.84472">
        <ele>248.15759277344</ele>
        <time>2012-07-25T09:31:04Z</time>
      </trkpt>
      <trkpt lat="49.01501" lon="5.84564">
        <ele>248.63818359375</ele>
        <time>2012-07-25T09:31:14Z</time>
      </trkpt>
      <trkpt lat="49.01553" lon="5.84663">
        <ele>248.63818359375</ele>
        <time>2012-07-25T09:31:25Z</time>
      </trkpt>
      <trkpt lat="49.016" lon="5.84755">
        <ele>248.63818359375</ele>
        <time>2012-07-25T09:31:35Z</time>
      </trkpt>
      <trkpt lat="49.01643" lon="5.84836">
        <ele>249.11877441406</ele>
        <time>2012-07-25T09:31:44Z</time>
      </trkpt>
      <trkpt lat="49.01678" lon="5.84905">
        <ele>248.63818359375</ele>
        <time>2012-07-25T09:31:51Z</time>
      </trkpt>
      <trkpt lat="49.01689" lon="5.84925">
        <ele>249.11877441406</ele>
        <time>2012-07-25T09:31:53Z</time>
      </trkpt>
      <trkpt lat="49.01719" lon="5.84984">
        <ele>246.71545410156</ele>
        <time>2012-07-25T09:31:59Z</time>
      </trkpt>
      <trkpt lat="49.01764" lon="5.85072">
        <ele>244.79284667969</ele>
        <time>2012-07-25T09:32:08Z</time>
      </trkpt>
      <trkpt lat="49.01816" lon="5.85172">
        <ele>243.35083007812</ele>
        <time>2012-07-25T09:32:18Z</time>
      </trkpt>
      <trkpt lat="49.01857" lon="5.85252">
        <ele>242.87023925781</ele>
        <time>2012-07-25T09:32:26Z</time>
      </trkpt>
      <trkpt lat="49.01883" lon="5.853">
        <ele>244.31225585938</ele>
        <time>2012-07-25T09:32:31Z</time>
      </trkpt>
      <trkpt lat="49.01921" lon="5.85376">
        <ele>243.35083007812</ele>
        <time>2012-07-25T09:32:39Z</time>
      </trkpt>
      <trkpt lat="49.01962" lon="5.85449">
        <ele>242.87023925781</ele>
        <time>2012-07-25T09:32:47Z</time>
      </trkpt>
      <trkpt lat="49.02003" lon="5.85507">
        <ele>242.87023925781</ele>
        <time>2012-07-25T09:32:54Z</time>
      </trkpt>
      <trkpt lat="49.0201" lon="5.85515">
        <ele>242.87023925781</ele>
        <time>2012-07-25T09:32:55Z</time>
      </trkpt>
      <trkpt lat="49.02065" lon="5.85572">
        <ele>243.35083007812</ele>
        <time>2012-07-25T09:33:03Z</time>
      </trkpt>
      <trkpt lat="49.02127" lon="5.85617">
        <ele>241.90893554688</ele>
        <time>2012-07-25T09:33:11Z</time>
      </trkpt>
      <trkpt lat="49.02185" lon="5.85644">
        <ele>239.98620605469</ele>
        <time>2012-07-25T09:33:18Z</time>
      </trkpt>
      <trkpt lat="49.02248" lon="5.8566">
        <ele>239.98620605469</ele>
        <time>2012-07-25T09:33:25Z</time>
      </trkpt>
      <trkpt lat="49.02329" lon="5.8567">
        <ele>239.98620605469</ele>
        <time>2012-07-25T09:33:34Z</time>
      </trkpt>
      <trkpt lat="49.02372" lon="5.85676">
        <ele>238.54431152344</ele>
        <time>2012-07-25T09:33:39Z</time>
      </trkpt>
      <trkpt lat="49.02468" lon="5.8569">
        <ele>236.62170410156</ele>
        <time>2012-07-25T09:33:50Z</time>
      </trkpt>
      <trkpt lat="49.02528" lon="5.8571">
        <ele>237.10229492188</ele>
        <time>2012-07-25T09:33:57Z</time>
      </trkpt>
      <trkpt lat="49.02545" lon="5.85718">
        <ele>236.14099121094</ele>
        <time>2012-07-25T09:33:59Z</time>
      </trkpt>
      <trkpt lat="49.026" lon="5.85752">
        <ele>235.66027832031</ele>
        <time>2012-07-25T09:34:06Z</time>
      </trkpt>
      <trkpt lat="49.02628" lon="5.85775">
        <ele>234.21838378906</ele>
        <time>2012-07-25T09:34:10Z</time>
      </trkpt>
      <trkpt lat="49.02673" lon="5.85821">
        <ele>235.66027832031</ele>
        <time>2012-07-25T09:34:17Z</time>
      </trkpt>
      <trkpt lat="49.02696" lon="5.8585">
        <ele>234.69909667969</ele>
        <time>2012-07-25T09:34:21Z</time>
      </trkpt>
      <trkpt lat="49.02739" lon="5.85917">
        <ele>236.62170410156</ele>
        <time>2012-07-25T09:34:29Z</time>
      </trkpt>
      <trkpt lat="49.02767" lon="5.85973">
        <ele>235.1796875</ele>
        <time>2012-07-25T09:34:35Z</time>
      </trkpt>
      <trkpt lat="49.02795" lon="5.86042">
        <ele>236.62170410156</ele>
        <time>2012-07-25T09:34:42Z</time>
      </trkpt>
      <trkpt lat="49.02805" lon="5.86072">
        <ele>235.66027832031</ele>
        <time>2012-07-25T09:34:45Z</time>
      </trkpt>
      <trkpt lat="49.02808" lon="5.86082">
        <ele>235.66027832031</ele>
        <time>2012-07-25T09:34:46Z</time>
      </trkpt>
      <trkpt lat="49.02824" lon="5.86142">
        <ele>235.66027832031</ele>
        <time>2012-07-25T09:34:52Z</time>
      </trkpt>
      <trkpt lat="49.02837" lon="5.86216">
        <ele>236.14099121094</ele>
        <time>2012-07-25T09:34:59Z</time>
      </trkpt>
      <trkpt lat="49.02846" lon="5.86314">
        <ele>237.10229492188</ele>
        <time>2012-07-25T09:35:08Z</time>
      </trkpt>
      <trkpt lat="49.02847" lon="5.86412">
        <ele>236.62170410156</ele>
        <time>2012-07-25T09:35:17Z</time>
      </trkpt>
      <trkpt lat="49.02842" lon="5.86488">
        <ele>238.54431152344</ele>
        <time>2012-07-25T09:35:24Z</time>
      </trkpt>
      <trkpt lat="49.02837" lon="5.8656">
        <ele>240.94763183594</ele>
        <time>2012-07-25T09:35:31Z</time>
      </trkpt>
      <trkpt lat="49.02832" lon="5.8663">
        <ele>241.90893554688</ele>
        <time>2012-07-25T09:35:38Z</time>
      </trkpt>
      <trkpt lat="49.02826" lon="5.86725">
        <ele>245.2734375</ele>
        <time>2012-07-25T09:35:48Z</time>
      </trkpt>
      <trkpt lat="49.02821" lon="5.86816">
        <ele>245.2734375</ele>
        <time>2012-07-25T09:35:58Z</time>
      </trkpt>
      <trkpt lat="49.02818" lon="5.8687">
        <ele>244.79284667969</ele>
        <time>2012-07-25T09:36:04Z</time>
      </trkpt>
      <trkpt lat="49.02822" lon="5.86959">
        <ele>245.2734375</ele>
        <time>2012-07-25T09:36:13Z</time>
      </trkpt>
      <trkpt lat="49.02832" lon="5.87041">
        <ele>245.75415039062</ele>
        <time>2012-07-25T09:36:21Z</time>
      </trkpt>
      <trkpt lat="49.02848" lon="5.8712">
        <ele>246.71545410156</ele>
        <time>2012-07-25T09:36:29Z</time>
      </trkpt>
      <trkpt lat="49.02857" lon="5.87149">
        <ele>248.15759277344</ele>
        <time>2012-07-25T09:36:32Z</time>
      </trkpt>
      <trkpt lat="49.02882" lon="5.87224">
        <ele>248.63818359375</ele>
        <time>2012-07-25T09:36:40Z</time>
      </trkpt>
      <trkpt lat="49.02909" lon="5.87285">
        <ele>250.08020019531</ele>
        <time>2012-07-25T09:36:47Z</time>
      </trkpt>
      <trkpt lat="49.0295" lon="5.87363">
        <ele>249.11877441406</ele>
        <time>2012-07-25T09:36:56Z</time>
      </trkpt>
      <trkpt lat="49.02987" lon="5.87435">
        <ele>248.63818359375</ele>
        <time>2012-07-25T09:37:04Z</time>
      </trkpt>
      <trkpt lat="49.0303" lon="5.87517">
        <ele>248.15759277344</ele>
        <time>2012-07-25T09:37:13Z</time>
      </trkpt>
      <trkpt lat="49.03065" lon="5.87587">
        <ele>249.59948730469</ele>
        <time>2012-07-25T09:37:21Z</time>
      </trkpt>
      <trkpt lat="49.03082" lon="5.8762">
        <ele>250.08020019531</ele>
        <time>2012-07-25T09:37:25Z</time>
      </trkpt>
      <trkpt lat="49.0312" lon="5.87693">
        <ele>251.04138183594</ele>
        <time>2012-07-25T09:37:34Z</time>
      </trkpt>
      <trkpt lat="49.03158" lon="5.87766">
        <ele>251.04138183594</ele>
        <time>2012-07-25T09:37:43Z</time>
      </trkpt>
      <trkpt lat="49.03203" lon="5.87854">
        <ele>251.52209472656</ele>
        <time>2012-07-25T09:37:54Z</time>
      </trkpt>
      <trkpt lat="49.03249" lon="5.87943">
        <ele>252.96398925781</ele>
        <time>2012-07-25T09:38:05Z</time>
      </trkpt>
      <trkpt lat="49.03292" lon="5.88027">
        <ele>253.44470214844</ele>
        <time>2012-07-25T09:38:15Z</time>
      </trkpt>
      <trkpt lat="49.03326" lon="5.88094">
        <ele>254.40600585938</ele>
        <time>2012-07-25T09:38:23Z</time>
      </trkpt>
      <trkpt lat="49.03369" lon="5.88175">
        <ele>255.84802246094</ele>
        <time>2012-07-25T09:38:33Z</time>
      </trkpt>
      <trkpt lat="49.03405" lon="5.88243">
        <ele>256.32873535156</ele>
        <time>2012-07-25T09:38:42Z</time>
      </trkpt>
      <trkpt lat="49.03441" lon="5.88313">
        <ele>258.25134277344</ele>
        <time>2012-07-25T09:38:51Z</time>
      </trkpt>
      <trkpt lat="49.03483" lon="5.88396">
        <ele>259.21264648438</ele>
        <time>2012-07-25T09:39:02Z</time>
      </trkpt>
      <trkpt lat="49.03511" lon="5.8845">
        <ele>260.65454101562</ele>
        <time>2012-07-25T09:39:09Z</time>
      </trkpt>
      <trkpt lat="49.03542" lon="5.88512">
        <ele>261.13525390625</ele>
        <time>2012-07-25T09:39:17Z</time>
      </trkpt>
      <trkpt lat="49.03582" lon="5.88588">
        <ele>262.09655761719</ele>
        <time>2012-07-25T09:39:27Z</time>
      </trkpt>
      <trkpt lat="49.03621" lon="5.88663">
        <ele>262.09655761719</ele>
        <time>2012-07-25T09:39:37Z</time>
      </trkpt>
      <trkpt lat="49.03665" lon="5.88747">
        <ele>262.5771484375</ele>
        <time>2012-07-25T09:39:48Z</time>
      </trkpt>
      <trkpt lat="49.03693" lon="5.88803">
        <ele>262.5771484375</ele>
        <time>2012-07-25T09:39:55Z</time>
      </trkpt>
      <trkpt lat="49.03736" lon="5.88895">
        <ele>261.13525390625</ele>
        <time>2012-07-25T09:40:05Z</time>
      </trkpt>
      <trkpt lat="49.03769" lon="5.88978">
        <ele>258.73193359375</ele>
        <time>2012-07-25T09:40:13Z</time>
      </trkpt>
      <trkpt lat="49.03787" lon="5.89031">
        <ele>258.25134277344</ele>
        <time>2012-07-25T09:40:18Z</time>
      </trkpt>
      <trkpt lat="49.0382" lon="5.89129">
        <ele>258.73193359375</ele>
        <time>2012-07-25T09:40:27Z</time>
      </trkpt>
      <trkpt lat="49.03827" lon="5.89151">
        <ele>258.25134277344</ele>
        <time>2012-07-25T09:40:29Z</time>
      </trkpt>
      <trkpt lat="49.03856" lon="5.89237">
        <ele>258.25134277344</ele>
        <time>2012-07-25T09:40:37Z</time>
      </trkpt>
      <trkpt lat="49.03886" lon="5.8933">
        <ele>256.80932617188</ele>
        <time>2012-07-25T09:40:46Z</time>
      </trkpt>
      <trkpt lat="49.03918" lon="5.89428">
        <ele>255.36730957031</ele>
        <time>2012-07-25T09:40:55Z</time>
      </trkpt>
      <trkpt lat="49.03937" lon="5.89486">
        <ele>253.44470214844</ele>
        <time>2012-07-25T09:41:00Z</time>
      </trkpt>
      <trkpt lat="49.03957" lon="5.89547">
        <ele>252.4833984375</ele>
        <time>2012-07-25T09:41:05Z</time>
      </trkpt>
      <trkpt lat="49.03994" lon="5.89658">
        <ele>252.96398925781</ele>
        <time>2012-07-25T09:41:14Z</time>
      </trkpt>
      <trkpt lat="49.04031" lon="5.89773">
        <ele>249.59948730469</ele>
        <time>2012-07-25T09:41:24Z</time>
      </trkpt>
      <trkpt lat="49.04054" lon="5.89843">
        <ele>248.15759277344</ele>
        <time>2012-07-25T09:41:30Z</time>
      </trkpt>
      <trkpt lat="49.04092" lon="5.8996">
        <ele>246.23486328125</ele>
        <time>2012-07-25T09:41:40Z</time>
      </trkpt>
      <trkpt lat="49.04117" lon="5.90034">
        <ele>243.83154296875</ele>
        <time>2012-07-25T09:41:47Z</time>
      </trkpt>
      <trkpt lat="49.04127" lon="5.90058">
        <ele>244.31225585938</ele>
        <time>2012-07-25T09:41:50Z</time>
      </trkpt>
      <trkpt lat="49.04139" lon="5.9011">
        <ele>245.2734375</ele>
        <time>2012-07-25T09:41:56Z</time>
      </trkpt>
      <trkpt lat="49.04142" lon="5.90118">
        <ele>245.2734375</ele>
        <time>2012-07-25T09:41:57Z</time>
      </trkpt>
      <trkpt lat="49.04166" lon="5.9018">
        <ele>246.23486328125</ele>
        <time>2012-07-25T09:42:04Z</time>
      </trkpt>
      <trkpt lat="49.0418" lon="5.90225">
        <ele>248.15759277344</ele>
        <time>2012-07-25T09:42:10Z</time>
      </trkpt>
      <trkpt lat="49.04197" lon="5.90277">
        <ele>249.59948730469</ele>
        <time>2012-07-25T09:42:18Z</time>
      </trkpt>
      <trkpt lat="49.04209" lon="5.90312">
        <ele>251.52209472656</ele>
        <time>2012-07-25T09:42:24Z</time>
      </trkpt>
      <trkpt lat="49.04224" lon="5.90356">
        <ele>254.88659667969</ele>
        <time>2012-07-25T09:42:32Z</time>
      </trkpt>
      <trkpt lat="49.04225" lon="5.90362">
        <ele>254.88659667969</ele>
        <time>2012-07-25T09:42:33Z</time>
      </trkpt>
      <trkpt lat="49.04239" lon="5.90403">
        <ele>255.84802246094</ele>
        <time>2012-07-25T09:42:41Z</time>
      </trkpt>
      <trkpt lat="49.04248" lon="5.90432">
        <ele>256.32873535156</ele>
        <time>2012-07-25T09:42:47Z</time>
      </trkpt>
      <trkpt lat="49.04251" lon="5.90441">
        <ele>257.2900390625</ele>
        <time>2012-07-25T09:42:49Z</time>
      </trkpt>
      <trkpt lat="49.04265" lon="5.90482">
        <ele>258.73193359375</ele>
        <time>2012-07-25T09:42:58Z</time>
      </trkpt>
      <trkpt lat="49.04278" lon="5.90522">
        <ele>260.65454101562</ele>
        <time>2012-07-25T09:43:07Z</time>
      </trkpt>
      <trkpt lat="49.04287" lon="5.90552">
        <ele>261.13525390625</ele>
        <time>2012-07-25T09:43:14Z</time>
      </trkpt>
      <trkpt lat="49.04297" lon="5.90581">
        <ele>262.09655761719</ele>
        <time>2012-07-25T09:43:21Z</time>
      </trkpt>
      <trkpt lat="49.04308" lon="5.90615">
        <ele>264.49987792969</ele>
        <time>2012-07-25T09:43:29Z</time>
      </trkpt>
      <trkpt lat="49.04322" lon="5.90658">
        <ele>266.42248535156</ele>
        <time>2012-07-25T09:43:39Z</time>
      </trkpt>
      <trkpt lat="49.04334" lon="5.90696">
        <ele>267.38391113281</ele>
        <time>2012-07-25T09:43:47Z</time>
      </trkpt>
      <trkpt lat="49.04344" lon="5.90728">
        <ele>267.86450195312</ele>
        <time>2012-07-25T09:43:53Z</time>
      </trkpt>
      <trkpt lat="49.04363" lon="5.90781">
        <ele>269.787109375</ele>
        <time>2012-07-25T09:44:03Z</time>
      </trkpt>
      <trkpt lat="49.0438" lon="5.90836">
        <ele>270.74841308594</ele>
        <time>2012-07-25T09:44:13Z</time>
      </trkpt>
      <trkpt lat="49.04394" lon="5.90879">
        <ele>271.22912597656</ele>
        <time>2012-07-25T09:44:21Z</time>
      </trkpt>
      <trkpt lat="49.04413" lon="5.90937">
        <ele>271.70971679688</ele>
        <time>2012-07-25T09:44:31Z</time>
      </trkpt>
      <trkpt lat="49.04433" lon="5.91001">
        <ele>273.63244628906</ele>
        <time>2012-07-25T09:44:41Z</time>
      </trkpt>
      <trkpt lat="49.04453" lon="5.91059">
        <ele>273.63244628906</ele>
        <time>2012-07-25T09:44:50Z</time>
      </trkpt>
      <trkpt lat="49.04473" lon="5.9112">
        <ele>274.59375</ele>
        <time>2012-07-25T09:44:59Z</time>
      </trkpt>
      <trkpt lat="49.04496" lon="5.91178">
        <ele>272.67114257812</ele>
        <time>2012-07-25T09:45:07Z</time>
      </trkpt>
      <trkpt lat="49.04525" lon="5.9124">
        <ele>273.15185546875</ele>
        <time>2012-07-25T09:45:16Z</time>
      </trkpt>
      <trkpt lat="49.04557" lon="5.91301">
        <ele>272.1904296875</ele>
        <time>2012-07-25T09:45:24Z</time>
      </trkpt>
      <trkpt lat="49.04591" lon="5.9136">
        <ele>271.22912597656</ele>
        <time>2012-07-25T09:45:31Z</time>
      </trkpt>
      <trkpt lat="49.04596" lon="5.91368">
        <ele>270.74841308594</ele>
        <time>2012-07-25T09:45:32Z</time>
      </trkpt>
      <trkpt lat="49.04638" lon="5.91444">
        <ele>270.74841308594</ele>
        <time>2012-07-25T09:45:40Z</time>
      </trkpt>
      <trkpt lat="49.04659" lon="5.91501">
        <ele>270.26770019531</ele>
        <time>2012-07-25T09:45:45Z</time>
      </trkpt>
      <trkpt lat="49.04675" lon="5.91567">
        <ele>271.22912597656</ele>
        <time>2012-07-25T09:45:51Z</time>
      </trkpt>
      <trkpt lat="49.04694" lon="5.91653">
        <ele>270.26770019531</ele>
        <time>2012-07-25T09:46:00Z</time>
      </trkpt>
      <trkpt lat="49.04709" lon="5.91716">
        <ele>271.70971679688</ele>
        <time>2012-07-25T09:46:08Z</time>
      </trkpt>
      <trkpt lat="49.04723" lon="5.91779">
        <ele>274.11303710938</ele>
        <time>2012-07-25T09:46:17Z</time>
      </trkpt>
      <trkpt lat="49.04735" lon="5.91829">
        <ele>276.03564453125</ele>
        <time>2012-07-25T09:46:25Z</time>
      </trkpt>
      <trkpt lat="49.04746" lon="5.91874">
        <ele>277.47766113281</ele>
        <time>2012-07-25T09:46:33Z</time>
      </trkpt>
      <trkpt lat="49.04756" lon="5.91919">
        <ele>279.40026855469</ele>
        <time>2012-07-25T09:46:41Z</time>
      </trkpt>
      <trkpt lat="49.04768" lon="5.91969">
        <ele>281.32299804688</ele>
        <time>2012-07-25T09:46:50Z</time>
      </trkpt>
      <trkpt lat="49.04777" lon="5.92008">
        <ele>281.80358886719</ele>
        <time>2012-07-25T09:46:57Z</time>
      </trkpt>
      <trkpt lat="49.04791" lon="5.92065">
        <ele>283.24560546875</ele>
        <time>2012-07-25T09:47:07Z</time>
      </trkpt>
      <trkpt lat="49.04803" lon="5.92116">
        <ele>284.20690917969</ele>
        <time>2012-07-25T09:47:16Z</time>
      </trkpt>
      <trkpt lat="49.04814" lon="5.92164">
        <ele>287.57141113281</ele>
        <time>2012-07-25T09:47:24Z</time>
      </trkpt>
      <trkpt lat="49.0483" lon="5.92233">
        <ele>288.05224609375</ele>
        <time>2012-07-25T09:47:35Z</time>
      </trkpt>
      <trkpt lat="49.04848" lon="5.92309">
        <ele>289.01354980469</ele>
        <time>2012-07-25T09:47:47Z</time>
      </trkpt>
      <trkpt lat="49.04863" lon="5.92372">
        <ele>289.494140625</ele>
        <time>2012-07-25T09:47:57Z</time>
      </trkpt>
      <trkpt lat="49.04877" lon="5.92431">
        <ele>290.93615722656</ele>
        <time>2012-07-25T09:48:06Z</time>
      </trkpt>
      <trkpt lat="49.04891" lon="5.9249">
        <ele>291.8974609375</ele>
        <time>2012-07-25T09:48:15Z</time>
      </trkpt>
      <trkpt lat="49.04905" lon="5.92552">
        <ele>293.33935546875</ele>
        <time>2012-07-25T09:48:24Z</time>
      </trkpt>
      <trkpt lat="49.04921" lon="5.92622">
        <ele>294.30078125</ele>
        <time>2012-07-25T09:48:34Z</time>
      </trkpt>
      <trkpt lat="49.0494" lon="5.92699">
        <ele>295.74267578125</ele>
        <time>2012-07-25T09:48:45Z</time>
      </trkpt>
      <trkpt lat="49.04962" lon="5.92794">
        <ele>296.22351074219</ele>
        <time>2012-07-25T09:48:58Z</time>
      </trkpt>
      <trkpt lat="49.04978" lon="5.92862">
        <ele>297.66540527344</ele>
        <time>2012-07-25T09:49:07Z</time>
      </trkpt>
      <trkpt lat="49.04998" lon="5.92947">
        <ele>298.14611816406</ele>
        <time>2012-07-25T09:49:18Z</time>
      </trkpt>
      <trkpt lat="49.05019" lon="5.93034">
        <ele>299.10729980469</ele>
        <time>2012-07-25T09:49:29Z</time>
      </trkpt>
      <trkpt lat="49.05039" lon="5.9312">
        <ele>299.58801269531</ele>
        <time>2012-07-25T09:49:40Z</time>
      </trkpt>
      <trkpt lat="49.05051" lon="5.93174">
        <ele>300.54931640625</ele>
        <time>2012-07-25T09:49:47Z</time>
      </trkpt>
      <trkpt lat="49.05055" lon="5.93195">
        <ele>301.02990722656</ele>
        <time>2012-07-25T09:49:50Z</time>
      </trkpt>
      <trkpt lat="49.05057" lon="5.93252">
        <ele>301.99133300781</ele>
        <time>2012-07-25T09:49:58Z</time>
      </trkpt>
      <trkpt lat="49.05054" lon="5.93288">
        <ele>301.99133300781</ele>
        <time>2012-07-25T09:50:04Z</time>
      </trkpt>
      <trkpt lat="49.05062" lon="5.93316">
        <ele>302.47192382812</ele>
        <time>2012-07-25T09:50:09Z</time>
      </trkpt>
      <trkpt lat="49.05067" lon="5.93328">
        <ele>302.47192382812</ele>
        <time>2012-07-25T09:50:11Z</time>
      </trkpt>
      <trkpt lat="49.05076" lon="5.93375">
        <ele>302.95251464844</ele>
        <time>2012-07-25T09:50:17Z</time>
      </trkpt>
      <trkpt lat="49.05083" lon="5.93444">
        <ele>304.39465332031</ele>
        <time>2012-07-25T09:50:25Z</time>
      </trkpt>
      <trkpt lat="49.05094" lon="5.93529">
        <ele>305.83666992188</ele>
        <time>2012-07-25T09:50:35Z</time>
      </trkpt>
      <trkpt lat="49.05103" lon="5.93605">
        <ele>306.31726074219</ele>
        <time>2012-07-25T09:50:44Z</time>
      </trkpt>
      <trkpt lat="49.05116" lon="5.93716">
        <ele>308.23986816406</ele>
        <time>2012-07-25T09:50:57Z</time>
      </trkpt>
      <trkpt lat="49.05126" lon="5.93809">
        <ele>308.23986816406</ele>
        <time>2012-07-25T09:51:08Z</time>
      </trkpt>
      <trkpt lat="49.05131" lon="5.93887">
        <ele>308.72045898438</ele>
        <time>2012-07-25T09:51:17Z</time>
      </trkpt>
      <trkpt lat="49.05133" lon="5.93921">
        <ele>307.27856445312</ele>
        <time>2012-07-25T09:51:21Z</time>
      </trkpt>
      <trkpt lat="49.05135" lon="5.9399">
        <ele>307.27856445312</ele>
        <time>2012-07-25T09:51:29Z</time>
      </trkpt>
      <trkpt lat="49.05137" lon="5.94055">
        <ele>308.23986816406</ele>
        <time>2012-07-25T09:51:37Z</time>
      </trkpt>
      <trkpt lat="49.05139" lon="5.94119">
        <ele>307.27856445312</ele>
        <time>2012-07-25T09:51:45Z</time>
      </trkpt>
      <trkpt lat="49.05141" lon="5.94178">
        <ele>305.35595703125</ele>
        <time>2012-07-25T09:51:52Z</time>
      </trkpt>
      <trkpt lat="49.05141" lon="5.94246">
        <ele>304.39465332031</ele>
        <time>2012-07-25T09:51:59Z</time>
      </trkpt>
      <trkpt lat="49.05144" lon="5.94334">
        <ele>304.87524414062</ele>
        <time>2012-07-25T09:52:07Z</time>
      </trkpt>
      <trkpt lat="49.05146" lon="5.94425">
        <ele>303.43322753906</ele>
        <time>2012-07-25T09:52:15Z</time>
      </trkpt>
      <trkpt lat="49.05148" lon="5.94506">
        <ele>301.99133300781</ele>
        <time>2012-07-25T09:52:22Z</time>
      </trkpt>
      <trkpt lat="49.05151" lon="5.94601">
        <ele>301.02990722656</ele>
        <time>2012-07-25T09:52:30Z</time>
      </trkpt>
      <trkpt lat="49.05153" lon="5.94705">
        <ele>297.66540527344</ele>
        <time>2012-07-25T09:52:39Z</time>
      </trkpt>
      <trkpt lat="49.05154" lon="5.94717">
        <ele>297.66540527344</ele>
        <time>2012-07-25T09:52:40Z</time>
      </trkpt>
      <trkpt lat="49.05161" lon="5.94802">
        <ele>298.14611816406</ele>
        <time>2012-07-25T09:52:47Z</time>
      </trkpt>
      <trkpt lat="49.05172" lon="5.94906">
        <ele>297.66540527344</ele>
        <time>2012-07-25T09:52:56Z</time>
      </trkpt>
      <trkpt lat="49.05182" lon="5.94999">
        <ele>296.7041015625</ele>
        <time>2012-07-25T09:53:04Z</time>
      </trkpt>
      <trkpt lat="49.05192" lon="5.95087">
        <ele>296.7041015625</ele>
        <time>2012-07-25T09:53:12Z</time>
      </trkpt>
      <trkpt lat="49.05199" lon="5.95157">
        <ele>297.18469238281</ele>
        <time>2012-07-25T09:53:19Z</time>
      </trkpt>
      <trkpt lat="49.05207" lon="5.95232">
        <ele>295.74267578125</ele>
        <time>2012-07-25T09:53:27Z</time>
      </trkpt>
      <trkpt lat="49.05213" lon="5.95278">
        <ele>294.30078125</ele>
        <time>2012-07-25T09:53:32Z</time>
      </trkpt>
      <trkpt lat="49.05225" lon="5.95359">
        <ele>293.33935546875</ele>
        <time>2012-07-25T09:53:40Z</time>
      </trkpt>
      <trkpt lat="49.05238" lon="5.95454">
        <ele>291.8974609375</ele>
        <time>2012-07-25T09:53:49Z</time>
      </trkpt>
      <trkpt lat="49.05243" lon="5.95495">
        <ele>290.45556640625</ele>
        <time>2012-07-25T09:53:53Z</time>
      </trkpt>
      <trkpt lat="49.05258" lon="5.9559">
        <ele>288.53295898438</ele>
        <time>2012-07-25T09:54:02Z</time>
      </trkpt>
      <trkpt lat="49.05273" lon="5.95693">
        <ele>289.01354980469</ele>
        <time>2012-07-25T09:54:12Z</time>
      </trkpt>
      <trkpt lat="49.05284" lon="5.95775">
        <ele>286.61022949219</ele>
        <time>2012-07-25T09:54:20Z</time>
      </trkpt>
      <trkpt lat="49.05294" lon="5.95853">
        <ele>285.16821289062</ele>
        <time>2012-07-25T09:54:27Z</time>
      </trkpt>
      <trkpt lat="49.05309" lon="5.95958">
        <ele>282.76501464844</ele>
        <time>2012-07-25T09:54:36Z</time>
      </trkpt>
      <trkpt lat="49.05323" lon="5.96061">
        <ele>281.32299804688</ele>
        <time>2012-07-25T09:54:44Z</time>
      </trkpt>
      <trkpt lat="49.05337" lon="5.96166">
        <ele>277.47766113281</ele>
        <time>2012-07-25T09:54:51Z</time>
      </trkpt>
      <trkpt lat="49.05354" lon="5.96284">
        <ele>273.63244628906</ele>
        <time>2012-07-25T09:54:58Z</time>
      </trkpt>
      <trkpt lat="49.05356" lon="5.96301">
        <ele>273.63244628906</ele>
        <time>2012-07-25T09:54:59Z</time>
      </trkpt>
      <trkpt lat="49.05376" lon="5.96442">
        <ele>270.74841308594</ele>
        <time>2012-07-25T09:55:07Z</time>
      </trkpt>
      <trkpt lat="49.05392" lon="5.96565">
        <ele>267.38391113281</ele>
        <time>2012-07-25T09:55:14Z</time>
      </trkpt>
      <trkpt lat="49.05396" lon="5.966">
        <ele>266.42248535156</ele>
        <time>2012-07-25T09:55:16Z</time>
      </trkpt>
      <trkpt lat="49.05405" lon="5.96668">
        <ele>264.49987792969</ele>
        <time>2012-07-25T09:55:20Z</time>
      </trkpt>
      <trkpt lat="49.0541" lon="5.96703">
        <ele>263.53857421875</ele>
        <time>2012-07-25T09:55:22Z</time>
      </trkpt>
      <trkpt lat="49.05424" lon="5.96815">
        <ele>261.61596679688</ele>
        <time>2012-07-25T09:55:29Z</time>
      </trkpt>
      <trkpt lat="49.05441" lon="5.96932">
        <ele>262.09655761719</ele>
        <time>2012-07-25T09:55:37Z</time>
      </trkpt>
      <trkpt lat="49.05456" lon="5.9705">
        <ele>262.09655761719</ele>
        <time>2012-07-25T09:55:46Z</time>
      </trkpt>
      <trkpt lat="49.05468" lon="5.97142">
        <ele>263.53857421875</ele>
        <time>2012-07-25T09:55:54Z</time>
      </trkpt>
      <trkpt lat="49.05477" lon="5.97206">
        <ele>263.05786132812</ele>
        <time>2012-07-25T09:56:00Z</time>
      </trkpt>
      <trkpt lat="49.05487" lon="5.97279">
        <ele>264.01928710938</ele>
        <time>2012-07-25T09:56:07Z</time>
      </trkpt>
      <trkpt lat="49.05497" lon="5.97357">
        <ele>265.94189453125</ele>
        <time>2012-07-25T09:56:15Z</time>
      </trkpt>
      <trkpt lat="49.055" lon="5.97376">
        <ele>266.90319824219</ele>
        <time>2012-07-25T09:56:17Z</time>
      </trkpt>
      <trkpt lat="49.05511" lon="5.97459">
        <ele>267.86450195312</ele>
        <time>2012-07-25T09:56:26Z</time>
      </trkpt>
      <trkpt lat="49.0552" lon="5.97551">
        <ele>267.86450195312</ele>
        <time>2012-07-25T09:56:36Z</time>
      </trkpt>
      <trkpt lat="49.05526" lon="5.97635">
        <ele>267.86450195312</ele>
        <time>2012-07-25T09:56:45Z</time>
      </trkpt>
      <trkpt lat="49.05533" lon="5.97726">
        <ele>266.90319824219</ele>
        <time>2012-07-25T09:56:54Z</time>
      </trkpt>
      <trkpt lat="49.05542" lon="5.97862">
        <ele>265.94189453125</ele>
        <time>2012-07-25T09:57:06Z</time>
      </trkpt>
      <trkpt lat="49.0555" lon="5.97977">
        <ele>265.94189453125</ele>
        <time>2012-07-25T09:57:16Z</time>
      </trkpt>
      <trkpt lat="49.05559" lon="5.98108">
        <ele>265.46130371094</ele>
        <time>2012-07-25T09:57:27Z</time>
      </trkpt>
      <trkpt lat="49.05563" lon="5.98154">
        <ele>263.53857421875</ele>
        <time>2012-07-25T09:57:31Z</time>
      </trkpt>
      <trkpt lat="49.05571" lon="5.98276">
        <ele>265.46130371094</ele>
        <time>2012-07-25T09:57:42Z</time>
      </trkpt>
      <trkpt lat="49.05578" lon="5.98373">
        <ele>263.53857421875</ele>
        <time>2012-07-25T09:57:51Z</time>
      </trkpt>
      <trkpt lat="49.05584" lon="5.98464">
        <ele>262.09655761719</ele>
        <time>2012-07-25T09:57:59Z</time>
      </trkpt>
      <trkpt lat="49.05594" lon="5.98575">
        <ele>260.65454101562</ele>
        <time>2012-07-25T09:58:08Z</time>
      </trkpt>
      <trkpt lat="49.05601" lon="5.98639">
        <ele>258.73193359375</ele>
        <time>2012-07-25T09:58:13Z</time>
      </trkpt>
      <trkpt lat="49.05614" lon="5.98728">
        <ele>257.2900390625</ele>
        <time>2012-07-25T09:58:20Z</time>
      </trkpt>
      <trkpt lat="49.05625" lon="5.98789">
        <ele>255.84802246094</ele>
        <time>2012-07-25T09:58:25Z</time>
      </trkpt>
      <trkpt lat="49.05632" lon="5.98842">
        <ele>254.40600585938</ele>
        <time>2012-07-25T09:58:29Z</time>
      </trkpt>
      <trkpt lat="49.05641" lon="5.98922">
        <ele>252.96398925781</ele>
        <time>2012-07-25T09:58:35Z</time>
      </trkpt>
      <trkpt lat="49.05636" lon="5.9899">
        <ele>249.59948730469</ele>
        <time>2012-07-25T09:58:40Z</time>
      </trkpt>
      <trkpt lat="49.05632" lon="5.99041">
        <ele>247.6767578125</ele>
        <time>2012-07-25T09:58:44Z</time>
      </trkpt>
      <trkpt lat="49.05627" lon="5.99106">
        <ele>246.71545410156</ele>
        <time>2012-07-25T09:58:49Z</time>
      </trkpt>
      <trkpt lat="49.05624" lon="5.99133">
        <ele>246.23486328125</ele>
        <time>2012-07-25T09:58:51Z</time>
      </trkpt>
      <trkpt lat="49.05622" lon="5.99161">
        <ele>245.2734375</ele>
        <time>2012-07-25T09:58:53Z</time>
      </trkpt>
      <trkpt lat="49.0562" lon="5.99189">
        <ele>244.31225585938</ele>
        <time>2012-07-25T09:58:55Z</time>
      </trkpt>
      <trkpt lat="49.05617" lon="5.99217">
        <ele>242.87023925781</ele>
        <time>2012-07-25T09:58:57Z</time>
      </trkpt>
      <trkpt lat="49.05608" lon="5.99262">
        <ele>241.42822265625</ele>
        <time>2012-07-25T09:59:00Z</time>
      </trkpt>
      <trkpt lat="49.05597" lon="5.99305">
        <ele>239.98620605469</ele>
        <time>2012-07-25T09:59:03Z</time>
      </trkpt>
      <trkpt lat="49.05571" lon="5.99353">
        <ele>237.10229492188</ele>
        <time>2012-07-25T09:59:07Z</time>
      </trkpt>
      <trkpt lat="49.05545" lon="5.99388">
        <ele>235.1796875</ele>
        <time>2012-07-25T09:59:10Z</time>
      </trkpt>
      <trkpt lat="49.05491" lon="5.99467">
        <ele>232.29577636719</ele>
        <time>2012-07-25T09:59:16Z</time>
      </trkpt>
      <trkpt lat="49.05466" lon="5.99503">
        <ele>228.45043945312</ele>
        <time>2012-07-25T09:59:19Z</time>
      </trkpt>
      <trkpt lat="49.05439" lon="5.99553">
        <ele>225.56652832031</ele>
        <time>2012-07-25T09:59:23Z</time>
      </trkpt>
      <trkpt lat="49.05421" lon="5.99589">
        <ele>224.60522460938</ele>
        <time>2012-07-25T09:59:26Z</time>
      </trkpt>
      <trkpt lat="49.05409" lon="5.9964">
        <ele>219.79858398438</ele>
        <time>2012-07-25T09:59:30Z</time>
      </trkpt>
      <trkpt lat="49.05408" lon="5.99655">
        <ele>220.27917480469</ele>
        <time>2012-07-25T09:59:31Z</time>
      </trkpt>
      <trkpt lat="49.05411" lon="5.99672">
        <ele>218.83728027344</ele>
        <time>2012-07-25T09:59:32Z</time>
      </trkpt>
      <trkpt lat="49.05412" lon="5.99704">
        <ele>217.8759765625</ele>
        <time>2012-07-25T09:59:34Z</time>
      </trkpt>
      <trkpt lat="49.05412" lon="5.99749">
        <ele>214.03063964844</ele>
        <time>2012-07-25T09:59:37Z</time>
      </trkpt>
      <trkpt lat="49.0541" lon="5.99779">
        <ele>213.55004882812</ele>
        <time>2012-07-25T09:59:39Z</time>
      </trkpt>
      <trkpt lat="49.05408" lon="5.9983">
        <ele>211.62744140625</ele>
        <time>2012-07-25T09:59:43Z</time>
      </trkpt>
      <trkpt lat="49.05406" lon="5.99865">
        <ele>208.74340820312</ele>
        <time>2012-07-25T09:59:46Z</time>
      </trkpt>
      <trkpt lat="49.05389" lon="5.999">
        <ele>208.26281738281</ele>
        <time>2012-07-25T09:59:50Z</time>
      </trkpt>
      <trkpt lat="49.05368" lon="5.99944">
        <ele>208.74340820312</ele>
        <time>2012-07-25T09:59:54Z</time>
      </trkpt>
      <trkpt lat="49.0535" lon="5.99999">
        <ele>209.22412109375</ele>
        <time>2012-07-25T09:59:59Z</time>
      </trkpt>
      <trkpt lat="49.05333" lon="6.00052">
        <ele>210.18542480469</ele>
        <time>2012-07-25T10:00:04Z</time>
      </trkpt>
      <trkpt lat="49.05322" lon="6.00077">
        <ele>209.70483398438</ele>
        <time>2012-07-25T10:00:07Z</time>
      </trkpt>
      <trkpt lat="49.05304" lon="6.0012">
        <ele>208.74340820312</ele>
        <time>2012-07-25T10:00:13Z</time>
      </trkpt>
      <trkpt lat="49.05293" lon="6.00138">
        <ele>210.18542480469</ele>
        <time>2012-07-25T10:00:16Z</time>
      </trkpt>
      <trkpt lat="49.05275" lon="6.0017">
        <ele>210.666015625</ele>
        <time>2012-07-25T10:00:21Z</time>
      </trkpt>
      <trkpt lat="49.0526" lon="6.00205">
        <ele>208.26281738281</ele>
        <time>2012-07-25T10:00:25Z</time>
      </trkpt>
      <trkpt lat="49.05244" lon="6.00279">
        <ele>207.30139160156</ele>
        <time>2012-07-25T10:00:32Z</time>
      </trkpt>
      <trkpt lat="49.05238" lon="6.00321">
        <ele>206.82067871094</ele>
        <time>2012-07-25T10:00:36Z</time>
      </trkpt>
      <trkpt lat="49.05238" lon="6.00388">
        <ele>205.37878417969</ele>
        <time>2012-07-25T10:00:42Z</time>
      </trkpt>
      <trkpt lat="49.05237" lon="6.00428">
        <ele>205.85949707031</ele>
        <time>2012-07-25T10:00:45Z</time>
      </trkpt>
      <trkpt lat="49.05229" lon="6.00479">
        <ele>205.37878417969</ele>
        <time>2012-07-25T10:00:49Z</time>
      </trkpt>
      <trkpt lat="49.05212" lon="6.00506">
        <ele>205.85949707031</ele>
        <time>2012-07-25T10:00:52Z</time>
      </trkpt>
      <trkpt lat="49.05205" lon="6.00511">
        <ele>205.85949707031</ele>
        <time>2012-07-25T10:00:53Z</time>
      </trkpt>
      <trkpt lat="49.0518" lon="6.00551">
        <ele>205.37878417969</ele>
        <time>2012-07-25T10:00:58Z</time>
      </trkpt>
      <trkpt lat="49.0517" lon="6.00608">
        <ele>204.41748046875</ele>
        <time>2012-07-25T10:01:03Z</time>
      </trkpt>
      <trkpt lat="49.05158" lon="6.00662">
        <ele>204.89807128906</ele>
        <time>2012-07-25T10:01:08Z</time>
      </trkpt>
      <trkpt lat="49.05146" lon="6.00724">
        <ele>206.34008789062</ele>
        <time>2012-07-25T10:01:14Z</time>
      </trkpt>
      <trkpt lat="49.05134" lon="6.00803">
        <ele>206.82067871094</ele>
        <time>2012-07-25T10:01:22Z</time>
      </trkpt>
      <trkpt lat="49.05127" lon="6.00882">
        <ele>206.82067871094</ele>
        <time>2012-07-25T10:01:30Z</time>
      </trkpt>
      <trkpt lat="49.05124" lon="6.00939">
        <ele>205.37878417969</ele>
        <time>2012-07-25T10:01:35Z</time>
      </trkpt>
      <trkpt lat="49.05122" lon="6.00999">
        <ele>202.97546386719</ele>
        <time>2012-07-25T10:01:40Z</time>
      </trkpt>
      <trkpt lat="49.0512" lon="6.01108">
        <ele>202.97546386719</ele>
        <time>2012-07-25T10:01:49Z</time>
      </trkpt>
      <trkpt lat="49.05112" lon="6.01206">
        <ele>202.97546386719</ele>
        <time>2012-07-25T10:01:57Z</time>
      </trkpt>
      <trkpt lat="49.05102" lon="6.01323">
        <ele>203.45617675781</ele>
        <time>2012-07-25T10:02:07Z</time>
      </trkpt>
      <trkpt lat="49.05087" lon="6.01414">
        <ele>202.49487304688</ele>
        <time>2012-07-25T10:02:15Z</time>
      </trkpt>
      <trkpt lat="49.05084" lon="6.01426">
        <ele>202.01428222656</ele>
        <time>2012-07-25T10:02:16Z</time>
      </trkpt>
      <trkpt lat="49.05063" lon="6.01517">
        <ele>201.05285644531</ele>
        <time>2012-07-25T10:02:24Z</time>
      </trkpt>
      <trkpt lat="49.05048" lon="6.01576">
        <ele>201.05285644531</ele>
        <time>2012-07-25T10:02:29Z</time>
      </trkpt>
      <trkpt lat="49.05044" lon="6.01587">
        <ele>201.05285644531</ele>
        <time>2012-07-25T10:02:30Z</time>
      </trkpt>
      <trkpt lat="49.05014" lon="6.01654">
        <ele>200.09167480469</ele>
        <time>2012-07-25T10:02:36Z</time>
      </trkpt>
      <trkpt lat="49.04979" lon="6.01715">
        <ele>198.64953613281</ele>
        <time>2012-07-25T10:02:42Z</time>
      </trkpt>
      <trkpt lat="49.04924" lon="6.01781">
        <ele>198.1689453125</ele>
        <time>2012-07-25T10:02:50Z</time>
      </trkpt>
      <trkpt lat="49.04869" lon="6.01845">
        <ele>197.68823242188</ele>
        <time>2012-07-25T10:02:58Z</time>
      </trkpt>
      <trkpt lat="49.04828" lon="6.01891">
        <ele>195.765625</ele>
        <time>2012-07-25T10:03:04Z</time>
      </trkpt>
      <trkpt lat="49.04768" lon="6.0196">
        <ele>195.765625</ele>
        <time>2012-07-25T10:03:13Z</time>
      </trkpt>
      <trkpt lat="49.04717" lon="6.02024">
        <ele>196.24633789062</ele>
        <time>2012-07-25T10:03:21Z</time>
      </trkpt>
      <trkpt lat="49.04677" lon="6.02086">
        <ele>196.24633789062</ele>
        <time>2012-07-25T10:03:28Z</time>
      </trkpt>
      <trkpt lat="49.04639" lon="6.02145">
        <ele>197.68823242188</ele>
        <time>2012-07-25T10:03:35Z</time>
      </trkpt>
      <trkpt lat="49.04604" lon="6.02203">
        <ele>198.1689453125</ele>
        <time>2012-07-25T10:03:42Z</time>
      </trkpt>
      <trkpt lat="49.04573" lon="6.02252">
        <ele>197.20751953125</ele>
        <time>2012-07-25T10:03:48Z</time>
      </trkpt>
      <trkpt lat="49.04536" lon="6.02311">
        <ele>196.72692871094</ele>
        <time>2012-07-25T10:03:55Z</time>
      </trkpt>
      <trkpt lat="49.04496" lon="6.02373">
        <ele>196.24633789062</ele>
        <time>2012-07-25T10:04:02Z</time>
      </trkpt>
      <trkpt lat="49.0444" lon="6.0245">
        <ele>195.28491210938</ele>
        <time>2012-07-25T10:04:11Z</time>
      </trkpt>
      <trkpt lat="49.04392" lon="6.025">
        <ele>195.28491210938</ele>
        <time>2012-07-25T10:04:18Z</time>
      </trkpt>
      <trkpt lat="49.04335" lon="6.02553">
        <ele>194.80432128906</ele>
        <time>2012-07-25T10:04:26Z</time>
      </trkpt>
      <trkpt lat="49.0427" lon="6.02611">
        <ele>194.32373046875</ele>
        <time>2012-07-25T10:04:35Z</time>
      </trkpt>
      <trkpt lat="49.04201" lon="6.02677">
        <ele>194.80432128906</ele>
        <time>2012-07-25T10:04:45Z</time>
      </trkpt>
      <trkpt lat="49.04154" lon="6.02721">
        <ele>195.28491210938</ele>
        <time>2012-07-25T10:04:52Z</time>
      </trkpt>
      <trkpt lat="49.04081" lon="6.02786">
        <ele>196.24633789062</ele>
        <time>2012-07-25T10:05:03Z</time>
      </trkpt>
      <trkpt lat="49.04023" lon="6.02839">
        <ele>197.20751953125</ele>
        <time>2012-07-25T10:05:12Z</time>
      </trkpt>
      <trkpt lat="49.03966" lon="6.02879">
        <ele>198.1689453125</ele>
        <time>2012-07-25T10:05:20Z</time>
      </trkpt>
      <trkpt lat="49.03925" lon="6.02898">
        <ele>199.61083984375</ele>
        <time>2012-07-25T10:05:26Z</time>
      </trkpt>
      <trkpt lat="49.03859" lon="6.02922">
        <ele>201.53356933594</ele>
        <time>2012-07-25T10:05:36Z</time>
      </trkpt>
      <trkpt lat="49.0378" lon="6.02953">
        <ele>201.05285644531</ele>
        <time>2012-07-25T10:05:48Z</time>
      </trkpt>
      <trkpt lat="49.03694" lon="6.02985">
        <ele>200.572265625</ele>
        <time>2012-07-25T10:06:00Z</time>
      </trkpt>
      <trkpt lat="49.03634" lon="6.03">
        <ele>200.09167480469</ele>
        <time>2012-07-25T10:06:08Z</time>
      </trkpt>
      <trkpt lat="49.03582" lon="6.03007">
        <ele>200.572265625</ele>
        <time>2012-07-25T10:06:15Z</time>
      </trkpt>
      <trkpt lat="49.0352" lon="6.03016">
        <ele>200.572265625</ele>
        <time>2012-07-25T10:06:24Z</time>
      </trkpt>
      <trkpt lat="49.03434" lon="6.03029">
        <ele>202.97546386719</ele>
        <time>2012-07-25T10:06:37Z</time>
      </trkpt>
      <trkpt lat="49.03387" lon="6.03046">
        <ele>202.49487304688</ele>
        <time>2012-07-25T10:06:44Z</time>
      </trkpt>
      <trkpt lat="49.03329" lon="6.03075">
        <ele>202.01428222656</ele>
        <time>2012-07-25T10:06:52Z</time>
      </trkpt>
      <trkpt lat="49.03267" lon="6.03107">
        <ele>201.53356933594</ele>
        <time>2012-07-25T10:07:00Z</time>
      </trkpt>
      <trkpt lat="49.03195" lon="6.03145">
        <ele>200.572265625</ele>
        <time>2012-07-25T10:07:09Z</time>
      </trkpt>
      <trkpt lat="49.03124" lon="6.03181">
        <ele>199.61083984375</ele>
        <time>2012-07-25T10:07:18Z</time>
      </trkpt>
      <trkpt lat="49.03073" lon="6.03207">
        <ele>199.61083984375</ele>
        <time>2012-07-25T10:07:25Z</time>
      </trkpt>
      <trkpt lat="49.03008" lon="6.0324">
        <ele>201.05285644531</ele>
        <time>2012-07-25T10:07:35Z</time>
      </trkpt>
      <trkpt lat="49.0296" lon="6.03255">
        <ele>200.09167480469</ele>
        <time>2012-07-25T10:07:42Z</time>
      </trkpt>
      <trkpt lat="49.02899" lon="6.03271">
        <ele>199.13012695312</ele>
        <time>2012-07-25T10:07:50Z</time>
      </trkpt>
      <trkpt lat="49.02833" lon="6.03289">
        <ele>198.64953613281</ele>
        <time>2012-07-25T10:07:58Z</time>
      </trkpt>
      <trkpt lat="49.02787" lon="6.03308">
        <ele>199.13012695312</ele>
        <time>2012-07-25T10:08:04Z</time>
      </trkpt>
      <trkpt lat="49.02765" lon="6.03321">
        <ele>197.20751953125</ele>
        <time>2012-07-25T10:08:07Z</time>
      </trkpt>
      <trkpt lat="49.02721" lon="6.03357">
        <ele>197.68823242188</ele>
        <time>2012-07-25T10:08:14Z</time>
      </trkpt>
      <trkpt lat="49.02676" lon="6.03402">
        <ele>199.13012695312</ele>
        <time>2012-07-25T10:08:22Z</time>
      </trkpt>
      <trkpt lat="49.02633" lon="6.03459">
        <ele>197.68823242188</ele>
        <time>2012-07-25T10:08:31Z</time>
      </trkpt>
      <trkpt lat="49.02593" lon="6.03528">
        <ele>196.24633789062</ele>
        <time>2012-07-25T10:08:40Z</time>
      </trkpt>
      <trkpt lat="49.02567" lon="6.0359">
        <ele>197.20751953125</ele>
        <time>2012-07-25T10:08:47Z</time>
      </trkpt>
      <trkpt lat="49.02542" lon="6.03665">
        <ele>194.32373046875</ele>
        <time>2012-07-25T10:08:55Z</time>
      </trkpt>
      <trkpt lat="49.02523" lon="6.03721">
        <ele>193.84301757812</ele>
        <time>2012-07-25T10:09:01Z</time>
      </trkpt>
      <trkpt lat="49.02492" lon="6.03816">
        <ele>190.47839355469</ele>
        <time>2012-07-25T10:09:11Z</time>
      </trkpt>
      <trkpt lat="49.02488" lon="6.03826">
        <ele>190.47839355469</ele>
        <time>2012-07-25T10:09:12Z</time>
      </trkpt>
      <trkpt lat="49.02465" lon="6.03896">
        <ele>189.99768066406</ele>
        <time>2012-07-25T10:09:19Z</time>
      </trkpt>
      <trkpt lat="49.02435" lon="6.03989">
        <ele>189.03637695312</ele>
        <time>2012-07-25T10:09:28Z</time>
      </trkpt>
      <trkpt lat="49.02415" lon="6.04061">
        <ele>189.51696777344</ele>
        <time>2012-07-25T10:09:35Z</time>
      </trkpt>
      <trkpt lat="49.02404" lon="6.04143">
        <ele>189.51696777344</ele>
        <time>2012-07-25T10:09:43Z</time>
      </trkpt>
      <trkpt lat="49.02402" lon="6.04214">
        <ele>190.47839355469</ele>
        <time>2012-07-25T10:09:50Z</time>
      </trkpt>
      <trkpt lat="49.02408" lon="6.04281">
        <ele>190.47839355469</ele>
        <time>2012-07-25T10:09:57Z</time>
      </trkpt>
      <trkpt lat="49.02417" lon="6.04353">
        <ele>191.92028808594</ele>
        <time>2012-07-25T10:10:05Z</time>
      </trkpt>
      <trkpt lat="49.0242" lon="6.04414">
        <ele>189.03637695312</ele>
        <time>2012-07-25T10:10:12Z</time>
      </trkpt>
      <trkpt lat="49.02416" lon="6.0447">
        <ele>187.59436035156</ele>
        <time>2012-07-25T10:10:18Z</time>
      </trkpt>
      <trkpt lat="49.02412" lon="6.04528">
        <ele>186.15246582031</ele>
        <time>2012-07-25T10:10:24Z</time>
      </trkpt>
      <trkpt lat="49.02407" lon="6.04595">
        <ele>183.7490234375</ele>
        <time>2012-07-25T10:10:30Z</time>
      </trkpt>
      <trkpt lat="49.02398" lon="6.04693">
        <ele>180.865234375</ele>
        <time>2012-07-25T10:10:38Z</time>
      </trkpt>
      <trkpt lat="49.0239" lon="6.04794">
        <ele>179.90380859375</ele>
        <time>2012-07-25T10:10:46Z</time>
      </trkpt>
      <trkpt lat="49.02383" lon="6.04884">
        <ele>179.90380859375</ele>
        <time>2012-07-25T10:10:53Z</time>
      </trkpt>
      <trkpt lat="49.0238" lon="6.0493">
        <ele>176.53930664062</ele>
        <time>2012-07-25T10:10:57Z</time>
      </trkpt>
      <trkpt lat="49.02374" lon="6.05012">
        <ele>176.53930664062</ele>
        <time>2012-07-25T10:11:05Z</time>
      </trkpt>
      <trkpt lat="49.02373" lon="6.05028">
        <ele>176.05859375</ele>
        <time>2012-07-25T10:11:07Z</time>
      </trkpt>
      <trkpt lat="49.02386" lon="6.05046">
        <ele>175.57788085938</ele>
        <time>2012-07-25T10:11:11Z</time>
      </trkpt>
      <trkpt lat="49.02391" lon="6.05047">
        <ele>176.05859375</ele>
        <time>2012-07-25T10:11:12Z</time>
      </trkpt>
      <trkpt lat="49.02435" lon="6.05055">
        <ele>176.05859375</ele>
        <time>2012-07-25T10:11:19Z</time>
      </trkpt>
      <trkpt lat="49.02492" lon="6.05073">
        <ele>175.57788085938</ele>
        <time>2012-07-25T10:11:27Z</time>
      </trkpt>
      <trkpt lat="49.02544" lon="6.0508">
        <ele>175.57788085938</ele>
        <time>2012-07-25T10:11:34Z</time>
      </trkpt>
      <trkpt lat="49.02596" lon="6.05088">
        <ele>177.02001953125</ele>
        <time>2012-07-25T10:11:41Z</time>
      </trkpt>
      <trkpt lat="49.02644" lon="6.05094">
        <ele>176.05859375</ele>
        <time>2012-07-25T10:11:47Z</time>
      </trkpt>
      <trkpt lat="49.02674" lon="6.051">
        <ele>177.50061035156</ele>
        <time>2012-07-25T10:11:51Z</time>
      </trkpt>
      <trkpt lat="49.0272" lon="6.05107">
        <ele>178.4619140625</ele>
        <time>2012-07-25T10:11:57Z</time>
      </trkpt>
      <trkpt lat="49.0276" lon="6.05117">
        <ele>175.09729003906</ele>
        <time>2012-07-25T10:12:02Z</time>
      </trkpt>
      <trkpt lat="49.02806" lon="6.05128">
        <ele>177.50061035156</ele>
        <time>2012-07-25T10:12:08Z</time>
      </trkpt>
      <trkpt lat="49.02875" lon="6.05143">
        <ele>175.09729003906</ele>
        <time>2012-07-25T10:12:17Z</time>
      </trkpt>
      <trkpt lat="49.02924" lon="6.0514">
        <ele>175.09729003906</ele>
        <time>2012-07-25T10:12:23Z</time>
      </trkpt>
      <trkpt lat="49.02988" lon="6.05129">
        <ele>175.57788085938</ele>
        <time>2012-07-25T10:12:31Z</time>
      </trkpt>
      <trkpt lat="49.03062" lon="6.05115">
        <ele>175.09729003906</ele>
        <time>2012-07-25T10:12:40Z</time>
      </trkpt>
      <trkpt lat="49.03119" lon="6.05116">
        <ele>175.57788085938</ele>
        <time>2012-07-25T10:12:47Z</time>
      </trkpt>
      <trkpt lat="49.0318" lon="6.05118">
        <ele>175.57788085938</ele>
        <time>2012-07-25T10:12:54Z</time>
      </trkpt>
      <trkpt lat="49.03255" lon="6.05133">
        <ele>175.57788085938</ele>
        <time>2012-07-25T10:13:03Z</time>
      </trkpt>
      <trkpt lat="49.0331" lon="6.05152">
        <ele>175.57788085938</ele>
        <time>2012-07-25T10:13:10Z</time>
      </trkpt>
      <trkpt lat="49.03381" lon="6.0518">
        <ele>176.53930664062</ele>
        <time>2012-07-25T10:13:19Z</time>
      </trkpt>
      <trkpt lat="49.03444" lon="6.05204">
        <ele>175.57788085938</ele>
        <time>2012-07-25T10:13:27Z</time>
      </trkpt>
      <trkpt lat="49.03516" lon="6.05232">
        <ele>176.05859375</ele>
        <time>2012-07-25T10:13:36Z</time>
      </trkpt>
      <trkpt lat="49.03574" lon="6.05252">
        <ele>176.05859375</ele>
        <time>2012-07-25T10:13:43Z</time>
      </trkpt>
      <trkpt lat="49.03627" lon="6.05275">
        <ele>176.53930664062</ele>
        <time>2012-07-25T10:13:50Z</time>
      </trkpt>
      <trkpt lat="49.03687" lon="6.05308">
        <ele>177.02001953125</ele>
        <time>2012-07-25T10:13:58Z</time>
      </trkpt>
      <trkpt lat="49.03747" lon="6.0535">
        <ele>177.02001953125</ele>
        <time>2012-07-25T10:14:06Z</time>
      </trkpt>
      <trkpt lat="49.03788" lon="6.05376">
        <ele>177.98120117188</ele>
        <time>2012-07-25T10:14:11Z</time>
      </trkpt>
      <trkpt lat="49.03836" lon="6.05407">
        <ele>177.02001953125</ele>
        <time>2012-07-25T10:14:17Z</time>
      </trkpt>
      <trkpt lat="49.03877" lon="6.05432">
        <ele>178.94262695312</ele>
        <time>2012-07-25T10:14:22Z</time>
      </trkpt>
      <trkpt lat="49.03902" lon="6.05446">
        <ele>177.02001953125</ele>
        <time>2012-07-25T10:14:25Z</time>
      </trkpt>
      <trkpt lat="49.03974" lon="6.05493">
        <ele>177.50061035156</ele>
        <time>2012-07-25T10:14:34Z</time>
      </trkpt>
      <trkpt lat="49.04038" lon="6.05533">
        <ele>177.50061035156</ele>
        <time>2012-07-25T10:14:42Z</time>
      </trkpt>
      <trkpt lat="49.04094" lon="6.05567">
        <ele>177.02001953125</ele>
        <time>2012-07-25T10:14:49Z</time>
      </trkpt>
      <trkpt lat="49.04158" lon="6.0561">
        <ele>177.50061035156</ele>
        <time>2012-07-25T10:14:57Z</time>
      </trkpt>
      <trkpt lat="49.04211" lon="6.05647">
        <ele>176.05859375</ele>
        <time>2012-07-25T10:15:04Z</time>
      </trkpt>
      <trkpt lat="49.04283" lon="6.05692">
        <ele>175.57788085938</ele>
        <time>2012-07-25T10:15:13Z</time>
      </trkpt>
      <trkpt lat="49.04338" lon="6.05725">
        <ele>174.61657714844</ele>
        <time>2012-07-25T10:15:20Z</time>
      </trkpt>
      <trkpt lat="49.04404" lon="6.05762">
        <ele>173.6552734375</ele>
        <time>2012-07-25T10:15:28Z</time>
      </trkpt>
      <trkpt lat="49.04438" lon="6.05781">
        <ele>175.57788085938</ele>
        <time>2012-07-25T10:15:32Z</time>
      </trkpt>
      <trkpt lat="49.04506" lon="6.05813">
        <ele>174.13586425781</ele>
        <time>2012-07-25T10:15:40Z</time>
      </trkpt>
      <trkpt lat="49.04564" lon="6.05832">
        <ele>175.09729003906</ele>
        <time>2012-07-25T10:15:47Z</time>
      </trkpt>
      <trkpt lat="49.04572" lon="6.05835">
        <ele>175.57788085938</ele>
        <time>2012-07-25T10:15:48Z</time>
      </trkpt>
      <trkpt lat="49.04597" lon="6.05844">
        <ele>174.13586425781</ele>
        <time>2012-07-25T10:15:51Z</time>
      </trkpt>
      <trkpt lat="49.04663" lon="6.05868">
        <ele>173.6552734375</ele>
        <time>2012-07-25T10:15:59Z</time>
      </trkpt>
      <trkpt lat="49.04729" lon="6.0589">
        <ele>174.61657714844</ele>
        <time>2012-07-25T10:16:07Z</time>
      </trkpt>
      <trkpt lat="49.04796" lon="6.05906">
        <ele>175.09729003906</ele>
        <time>2012-07-25T10:16:15Z</time>
      </trkpt>
      <trkpt lat="49.04871" lon="6.05928">
        <ele>175.09729003906</ele>
        <time>2012-07-25T10:16:24Z</time>
      </trkpt>
      <trkpt lat="49.04939" lon="6.05948">
        <ele>176.53930664062</ele>
        <time>2012-07-25T10:16:32Z</time>
      </trkpt>
      <trkpt lat="49.04955" lon="6.05952">
        <ele>173.17468261719</ele>
        <time>2012-07-25T10:16:34Z</time>
      </trkpt>
      <trkpt lat="49.04963" lon="6.05954">
        <ele>173.17468261719</ele>
        <time>2012-07-25T10:16:35Z</time>
      </trkpt>
      <trkpt lat="49.05018" lon="6.05971">
        <ele>173.6552734375</ele>
        <time>2012-07-25T10:16:42Z</time>
      </trkpt>
      <trkpt lat="49.05086" lon="6.05989">
        <ele>173.17468261719</ele>
        <time>2012-07-25T10:16:50Z</time>
      </trkpt>
      <trkpt lat="49.05154" lon="6.06009">
        <ele>174.13586425781</ele>
        <time>2012-07-25T10:16:58Z</time>
      </trkpt>
      <trkpt lat="49.05223" lon="6.06037">
        <ele>175.09729003906</ele>
        <time>2012-07-25T10:17:06Z</time>
      </trkpt>
      <trkpt lat="49.05259" lon="6.06044">
        <ele>174.61657714844</ele>
        <time>2012-07-25T10:17:10Z</time>
      </trkpt>
      <trkpt lat="49.05312" lon="6.06054">
        <ele>175.09729003906</ele>
        <time>2012-07-25T10:17:16Z</time>
      </trkpt>
      <trkpt lat="49.0537" lon="6.06075">
        <ele>175.09729003906</ele>
        <time>2012-07-25T10:17:23Z</time>
      </trkpt>
      <trkpt lat="49.05437" lon="6.06108">
        <ele>176.05859375</ele>
        <time>2012-07-25T10:17:31Z</time>
      </trkpt>
      <trkpt lat="49.05462" lon="6.06121">
        <ele>174.61657714844</ele>
        <time>2012-07-25T10:17:34Z</time>
      </trkpt>
      <trkpt lat="49.05519" lon="6.0615">
        <ele>173.17468261719</ele>
        <time>2012-07-25T10:17:41Z</time>
      </trkpt>
      <trkpt lat="49.0557" lon="6.06167">
        <ele>173.17468261719</ele>
        <time>2012-07-25T10:17:47Z</time>
      </trkpt>
      <trkpt lat="49.05595" lon="6.06176">
        <ele>174.61657714844</ele>
        <time>2012-07-25T10:17:50Z</time>
      </trkpt>
      <trkpt lat="49.05653" lon="6.06192">
        <ele>174.13586425781</ele>
        <time>2012-07-25T10:17:57Z</time>
      </trkpt>
      <trkpt lat="49.05711" lon="6.06206">
        <ele>174.61657714844</ele>
        <time>2012-07-25T10:18:04Z</time>
      </trkpt>
      <trkpt lat="49.05728" lon="6.0621">
        <ele>173.6552734375</ele>
        <time>2012-07-25T10:18:06Z</time>
      </trkpt>
      <trkpt lat="49.05761" lon="6.06231">
        <ele>174.61657714844</ele>
        <time>2012-07-25T10:18:10Z</time>
      </trkpt>
      <trkpt lat="49.05807" lon="6.06263">
        <ele>175.57788085938</ele>
        <time>2012-07-25T10:18:16Z</time>
      </trkpt>
      <trkpt lat="49.05841" lon="6.06297">
        <ele>174.13586425781</ele>
        <time>2012-07-25T10:18:21Z</time>
      </trkpt>
      <trkpt lat="49.05848" lon="6.06304">
        <ele>174.13586425781</ele>
        <time>2012-07-25T10:18:22Z</time>
      </trkpt>
      <trkpt lat="49.05861" lon="6.06318">
        <ele>175.57788085938</ele>
        <time>2012-07-25T10:18:24Z</time>
      </trkpt>
      <trkpt lat="49.05899" lon="6.06358">
        <ele>174.13586425781</ele>
        <time>2012-07-25T10:18:30Z</time>
      </trkpt>
      <trkpt lat="49.05943" lon="6.06395">
        <ele>174.13586425781</ele>
        <time>2012-07-25T10:18:36Z</time>
      </trkpt>
      <trkpt lat="49.05981" lon="6.06428">
        <ele>174.61657714844</ele>
        <time>2012-07-25T10:18:41Z</time>
      </trkpt>
      <trkpt lat="49.06044" lon="6.06484">
        <ele>174.61657714844</ele>
        <time>2012-07-25T10:18:49Z</time>
      </trkpt>
      <trkpt lat="49.06076" lon="6.06522">
        <ele>172.69396972656</ele>
        <time>2012-07-25T10:18:54Z</time>
      </trkpt>
      <trkpt lat="49.06099" lon="6.06544">
        <ele>174.61657714844</ele>
        <time>2012-07-25T10:18:57Z</time>
      </trkpt>
      <trkpt lat="49.06153" lon="6.06596">
        <ele>172.69396972656</ele>
        <time>2012-07-25T10:19:04Z</time>
      </trkpt>
      <trkpt lat="49.06184" lon="6.06623">
        <ele>174.13586425781</ele>
        <time>2012-07-25T10:19:08Z</time>
      </trkpt>
      <trkpt lat="49.06207" lon="6.06644">
        <ele>172.69396972656</ele>
        <time>2012-07-25T10:19:11Z</time>
      </trkpt>
      <trkpt lat="49.06261" lon="6.06692">
        <ele>175.09729003906</ele>
        <time>2012-07-25T10:19:18Z</time>
      </trkpt>
      <trkpt lat="49.06339" lon="6.06756">
        <ele>172.69396972656</ele>
        <time>2012-07-25T10:19:28Z</time>
      </trkpt>
      <trkpt lat="49.06347" lon="6.06762">
        <ele>172.69396972656</ele>
        <time>2012-07-25T10:19:29Z</time>
      </trkpt>
      <trkpt lat="49.06409" lon="6.06812">
        <ele>173.17468261719</ele>
        <time>2012-07-25T10:19:37Z</time>
      </trkpt>
      <trkpt lat="49.06469" lon="6.06862">
        <ele>172.69396972656</ele>
        <time>2012-07-25T10:19:45Z</time>
      </trkpt>
      <trkpt lat="49.0653" lon="6.06912">
        <ele>173.17468261719</ele>
        <time>2012-07-25T10:19:53Z</time>
      </trkpt>
      <trkpt lat="49.0658" lon="6.06952">
        <ele>172.21325683594</ele>
        <time>2012-07-25T10:20:00Z</time>
      </trkpt>
      <trkpt lat="49.06644" lon="6.07007">
        <ele>173.17468261719</ele>
        <time>2012-07-25T10:20:09Z</time>
      </trkpt>
      <trkpt lat="49.06694" lon="6.0705">
        <ele>172.21325683594</ele>
        <time>2012-07-25T10:20:16Z</time>
      </trkpt>
      <trkpt lat="49.06754" lon="6.07097">
        <ele>172.69396972656</ele>
        <time>2012-07-25T10:20:24Z</time>
      </trkpt>
      <trkpt lat="49.06807" lon="6.07138">
        <ele>172.21325683594</ele>
        <time>2012-07-25T10:20:31Z</time>
      </trkpt>
      <trkpt lat="49.06884" lon="6.07194">
        <ele>172.21325683594</ele>
        <time>2012-07-25T10:20:41Z</time>
      </trkpt>
      <trkpt lat="49.06953" lon="6.07245">
        <ele>171.73266601562</ele>
        <time>2012-07-25T10:20:50Z</time>
      </trkpt>
      <trkpt lat="49.07009" lon="6.07285">
        <ele>171.73266601562</ele>
        <time>2012-07-25T10:20:57Z</time>
      </trkpt>
      <trkpt lat="49.07073" lon="6.07325">
        <ele>173.17468261719</ele>
        <time>2012-07-25T10:21:05Z</time>
      </trkpt>
      <trkpt lat="49.07122" lon="6.07351">
        <ele>172.69396972656</ele>
        <time>2012-07-25T10:21:11Z</time>
      </trkpt>
      <trkpt lat="49.07153" lon="6.07368">
        <ele>172.69396972656</ele>
        <time>2012-07-25T10:21:15Z</time>
      </trkpt>
      <trkpt lat="49.07162" lon="6.07372">
        <ele>172.69396972656</ele>
        <time>2012-07-25T10:21:16Z</time>
      </trkpt>
      <trkpt lat="49.07201" lon="6.07392">
        <ele>173.17468261719</ele>
        <time>2012-07-25T10:21:21Z</time>
      </trkpt>
      <trkpt lat="49.07261" lon="6.074">
        <ele>172.69396972656</ele>
        <time>2012-07-25T10:21:28Z</time>
      </trkpt>
      <trkpt lat="49.07294" lon="6.07403">
        <ele>174.13586425781</ele>
        <time>2012-07-25T10:21:32Z</time>
      </trkpt>
      <trkpt lat="49.07372" lon="6.07413">
        <ele>174.61657714844</ele>
        <time>2012-07-25T10:21:42Z</time>
      </trkpt>
      <trkpt lat="49.07417" lon="6.07426">
        <ele>174.61657714844</ele>
        <time>2012-07-25T10:21:48Z</time>
      </trkpt>
      <trkpt lat="49.07454" lon="6.07455">
        <ele>175.09729003906</ele>
        <time>2012-07-25T10:21:54Z</time>
      </trkpt>
      <trkpt lat="49.07487" lon="6.07491">
        <ele>175.57788085938</ele>
        <time>2012-07-25T10:22:00Z</time>
      </trkpt>
      <trkpt lat="49.07501" lon="6.07509">
        <ele>176.05859375</ele>
        <time>2012-07-25T10:22:03Z</time>
      </trkpt>
      <trkpt lat="49.07511" lon="6.07537">
        <ele>174.61657714844</ele>
        <time>2012-07-25T10:22:07Z</time>
      </trkpt>
      <trkpt lat="49.07511" lon="6.07544">
        <ele>175.09729003906</ele>
        <time>2012-07-25T10:22:08Z</time>
      </trkpt>
      <trkpt lat="49.07521" lon="6.0758">
        <ele>175.09729003906</ele>
        <time>2012-07-25T10:22:13Z</time>
      </trkpt>
      <trkpt lat="49.07543" lon="6.07598">
        <ele>175.57788085938</ele>
        <time>2012-07-25T10:22:17Z</time>
      </trkpt>
      <trkpt lat="49.07548" lon="6.07604">
        <ele>176.05859375</ele>
        <time>2012-07-25T10:22:18Z</time>
      </trkpt>
      <trkpt lat="49.07578" lon="6.07656">
        <ele>174.13586425781</ele>
        <time>2012-07-25T10:22:25Z</time>
      </trkpt>
      <trkpt lat="49.07624" lon="6.07748">
        <ele>174.13586425781</ele>
        <time>2012-07-25T10:22:36Z</time>
      </trkpt>
      <trkpt lat="49.07653" lon="6.07809">
        <ele>173.17468261719</ele>
        <time>2012-07-25T10:22:43Z</time>
      </trkpt>
      <trkpt lat="49.07677" lon="6.07878">
        <ele>173.6552734375</ele>
        <time>2012-07-25T10:22:50Z</time>
      </trkpt>
      <trkpt lat="49.07701" lon="6.0795">
        <ele>172.69396972656</ele>
        <time>2012-07-25T10:22:57Z</time>
      </trkpt>
      <trkpt lat="49.07727" lon="6.08021">
        <ele>172.69396972656</ele>
        <time>2012-07-25T10:23:04Z</time>
      </trkpt>
      <trkpt lat="49.07756" lon="6.08075">
        <ele>172.69396972656</ele>
        <time>2012-07-25T10:23:10Z</time>
      </trkpt>
      <trkpt lat="49.07782" lon="6.08113">
        <ele>172.69396972656</ele>
        <time>2012-07-25T10:23:15Z</time>
      </trkpt>
      <trkpt lat="49.07814" lon="6.0816">
        <ele>171.73266601562</ele>
        <time>2012-07-25T10:23:21Z</time>
      </trkpt>
      <trkpt lat="49.07846" lon="6.08207">
        <ele>172.69396972656</ele>
        <time>2012-07-25T10:23:27Z</time>
      </trkpt>
      <trkpt lat="49.0788" lon="6.08252">
        <ele>172.69396972656</ele>
        <time>2012-07-25T10:23:33Z</time>
      </trkpt>
      <trkpt lat="49.07912" lon="6.08285">
        <ele>173.17468261719</ele>
        <time>2012-07-25T10:23:38Z</time>
      </trkpt>
      <trkpt lat="49.07947" lon="6.08321">
        <ele>173.6552734375</ele>
        <time>2012-07-25T10:23:44Z</time>
      </trkpt>
      <trkpt lat="49.07989" lon="6.08366">
        <ele>173.6552734375</ele>
        <time>2012-07-25T10:23:51Z</time>
      </trkpt>
      <trkpt lat="49.08044" lon="6.08419">
        <ele>173.17468261719</ele>
        <time>2012-07-25T10:24:00Z</time>
      </trkpt>
      <trkpt lat="49.08107" lon="6.08479">
        <ele>174.61657714844</ele>
        <time>2012-07-25T10:24:10Z</time>
      </trkpt>
      <trkpt lat="49.08145" lon="6.08515">
        <ele>173.17468261719</ele>
        <time>2012-07-25T10:24:16Z</time>
      </trkpt>
      <trkpt lat="49.08157" lon="6.08527">
        <ele>173.6552734375</ele>
        <time>2012-07-25T10:24:18Z</time>
      </trkpt>
      <trkpt lat="49.08202" lon="6.08567">
        <ele>173.17468261719</ele>
        <time>2012-07-25T10:24:25Z</time>
      </trkpt>
      <trkpt lat="49.08238" lon="6.08605">
        <ele>173.17468261719</ele>
        <time>2012-07-25T10:24:31Z</time>
      </trkpt>
      <trkpt lat="49.08296" lon="6.08661">
        <ele>173.17468261719</ele>
        <time>2012-07-25T10:24:40Z</time>
      </trkpt>
      <trkpt lat="49.0834" lon="6.08703">
        <ele>171.73266601562</ele>
        <time>2012-07-25T10:24:47Z</time>
      </trkpt>
      <trkpt lat="49.08393" lon="6.08751">
        <ele>172.21325683594</ele>
        <time>2012-07-25T10:24:55Z</time>
      </trkpt>
      <trkpt lat="49.08445" lon="6.08804">
        <ele>172.21325683594</ele>
        <time>2012-07-25T10:25:03Z</time>
      </trkpt>
      <trkpt lat="49.08498" lon="6.08851">
        <ele>173.17468261719</ele>
        <time>2012-07-25T10:25:11Z</time>
      </trkpt>
      <trkpt lat="49.08536" lon="6.08886">
        <ele>174.13586425781</ele>
        <time>2012-07-25T10:25:17Z</time>
      </trkpt>
      <trkpt lat="49.08542" lon="6.08892">
        <ele>174.13586425781</ele>
        <time>2012-07-25T10:25:18Z</time>
      </trkpt>
      <trkpt lat="49.08567" lon="6.08917">
        <ele>172.21325683594</ele>
        <time>2012-07-25T10:25:22Z</time>
      </trkpt>
      <trkpt lat="49.0858" lon="6.08929">
        <ele>173.17468261719</ele>
        <time>2012-07-25T10:25:24Z</time>
      </trkpt>
      <trkpt lat="49.0864" lon="6.08984">
        <ele>172.21325683594</ele>
        <time>2012-07-25T10:25:33Z</time>
      </trkpt>
      <trkpt lat="49.08692" lon="6.09034">
        <ele>171.73266601562</ele>
        <time>2012-07-25T10:25:41Z</time>
      </trkpt>
      <trkpt lat="49.08755" lon="6.09086">
        <ele>172.21325683594</ele>
        <time>2012-07-25T10:25:50Z</time>
      </trkpt>
      <trkpt lat="49.08803" lon="6.09125">
        <ele>171.73266601562</ele>
        <time>2012-07-25T10:25:57Z</time>
      </trkpt>
      <trkpt lat="49.08868" lon="6.09176">
        <ele>172.21325683594</ele>
        <time>2012-07-25T10:26:06Z</time>
      </trkpt>
      <trkpt lat="49.08924" lon="6.09221">
        <ele>172.21325683594</ele>
        <time>2012-07-25T10:26:14Z</time>
      </trkpt>
      <trkpt lat="49.08973" lon="6.0926">
        <ele>172.69396972656</ele>
        <time>2012-07-25T10:26:21Z</time>
      </trkpt>
      <trkpt lat="49.09038" lon="6.0931">
        <ele>172.21325683594</ele>
        <time>2012-07-25T10:26:30Z</time>
      </trkpt>
      <trkpt lat="49.09098" lon="6.09359">
        <ele>171.73266601562</ele>
        <time>2012-07-25T10:26:39Z</time>
      </trkpt>
      <trkpt lat="49.09149" lon="6.09398">
        <ele>171.73266601562</ele>
        <time>2012-07-25T10:26:46Z</time>
      </trkpt>
      <trkpt lat="49.09214" lon="6.09441">
        <ele>172.69396972656</ele>
        <time>2012-07-25T10:26:55Z</time>
      </trkpt>
      <trkpt lat="49.09265" lon="6.09471">
        <ele>172.21325683594</ele>
        <time>2012-07-25T10:27:02Z</time>
      </trkpt>
      <trkpt lat="49.09307" lon="6.09497">
        <ele>172.21325683594</ele>
        <time>2012-07-25T10:27:08Z</time>
      </trkpt>
      <trkpt lat="49.09363" lon="6.0954">
        <ele>170.77136230469</ele>
        <time>2012-07-25T10:27:16Z</time>
      </trkpt>
      <trkpt lat="49.09416" lon="6.09596">
        <ele>172.21325683594</ele>
        <time>2012-07-25T10:27:24Z</time>
      </trkpt>
      <trkpt lat="49.09463" lon="6.0966">
        <ele>172.21325683594</ele>
        <time>2012-07-25T10:27:32Z</time>
      </trkpt>
      <trkpt lat="49.09511" lon="6.09739">
        <ele>171.25207519531</ele>
        <time>2012-07-25T10:27:41Z</time>
      </trkpt>
      <trkpt lat="49.09532" lon="6.09774">
        <ele>174.13586425781</ele>
        <time>2012-07-25T10:27:45Z</time>
      </trkpt>
      <trkpt lat="49.09573" lon="6.09842">
        <ele>170.77136230469</ele>
        <time>2012-07-25T10:27:53Z</time>
      </trkpt>
      <trkpt lat="49.09609" lon="6.09902">
        <ele>171.25207519531</ele>
        <time>2012-07-25T10:28:00Z</time>
      </trkpt>
      <trkpt lat="49.09656" lon="6.09981">
        <ele>171.25207519531</ele>
        <time>2012-07-25T10:28:09Z</time>
      </trkpt>
      <trkpt lat="49.09696" lon="6.10061">
        <ele>171.25207519531</ele>
        <time>2012-07-25T10:28:17Z</time>
      </trkpt>
      <trkpt lat="49.09704" lon="6.10082">
        <ele>172.21325683594</ele>
        <time>2012-07-25T10:28:19Z</time>
      </trkpt>
      <trkpt lat="49.09723" lon="6.10137">
        <ele>172.21325683594</ele>
        <time>2012-07-25T10:28:24Z</time>
      </trkpt>
      <trkpt lat="49.09753" lon="6.10238">
        <ele>170.77136230469</ele>
        <time>2012-07-25T10:28:33Z</time>
      </trkpt>
      <trkpt lat="49.09788" lon="6.10353">
        <ele>172.21325683594</ele>
        <time>2012-07-25T10:28:43Z</time>
      </trkpt>
      <trkpt lat="49.09822" lon="6.10448">
        <ele>171.25207519531</ele>
        <time>2012-07-25T10:28:52Z</time>
      </trkpt>
      <trkpt lat="49.09854" lon="6.10514">
        <ele>171.73266601562</ele>
        <time>2012-07-25T10:28:59Z</time>
      </trkpt>
      <trkpt lat="49.09891" lon="6.10574">
        <ele>171.73266601562</ele>
        <time>2012-07-25T10:29:06Z</time>
      </trkpt>
      <trkpt lat="49.09938" lon="6.10634">
        <ele>173.17468261719</ele>
        <time>2012-07-25T10:29:14Z</time>
      </trkpt>
      <trkpt lat="49.09988" lon="6.10685">
        <ele>172.69396972656</ele>
        <time>2012-07-25T10:29:22Z</time>
      </trkpt>
      <trkpt lat="49.10052" lon="6.10747">
        <ele>171.73266601562</ele>
        <time>2012-07-25T10:29:32Z</time>
      </trkpt>
      <trkpt lat="49.10097" lon="6.10802">
        <ele>171.25207519531</ele>
        <time>2012-07-25T10:29:40Z</time>
      </trkpt>
      <trkpt lat="49.10119" lon="6.10842">
        <ele>170.77136230469</ele>
        <time>2012-07-25T10:29:45Z</time>
      </trkpt>
      <trkpt lat="49.10156" lon="6.10919">
        <ele>171.25207519531</ele>
        <time>2012-07-25T10:29:54Z</time>
      </trkpt>
      <trkpt lat="49.10188" lon="6.10968">
        <ele>171.25207519531</ele>
        <time>2012-07-25T10:30:01Z</time>
      </trkpt>
      <trkpt lat="49.10222" lon="6.11001">
        <ele>171.73266601562</ele>
        <time>2012-07-25T10:30:08Z</time>
      </trkpt>
      <trkpt lat="49.1025" lon="6.11027">
        <ele>171.25207519531</ele>
        <time>2012-07-25T10:30:15Z</time>
      </trkpt>
      <trkpt lat="49.10262" lon="6.11037">
        <ele>171.73266601562</ele>
        <time>2012-07-25T10:30:20Z</time>
      </trkpt>
      <trkpt lat="49.10263" lon="6.11037">
        <ele>171.25207519531</ele>
        <time>2012-07-25T10:30:22Z</time>
      </trkpt>
      <trkpt lat="49.10264" lon="6.11034">
        <ele>171.25207519531</ele>
        <time>2012-07-25T10:31:06Z</time>
      </trkpt>
      <trkpt lat="49.10265" lon="6.11035">
        <ele>171.25207519531</ele>
        <time>2012-07-25T10:31:07Z</time>
      </trkpt>
      <trkpt lat="49.10276" lon="6.11043">
        <ele>171.73266601562</ele>
        <time>2012-07-25T10:31:11Z</time>
      </trkpt>
      <trkpt lat="49.10297" lon="6.11053">
        <ele>171.25207519531</ele>
        <time>2012-07-25T10:31:17Z</time>
      </trkpt>
      <trkpt lat="49.10328" lon="6.11071">
        <ele>171.25207519531</ele>
        <time>2012-07-25T10:31:24Z</time>
      </trkpt>
      <trkpt lat="49.10365" lon="6.11087">
        <ele>170.77136230469</ele>
        <time>2012-07-25T10:31:31Z</time>
      </trkpt>
      <trkpt lat="49.10404" lon="6.11092">
        <ele>169.81005859375</ele>
        <time>2012-07-25T10:31:37Z</time>
      </trkpt>
      <trkpt lat="49.10446" lon="6.11089">
        <ele>168.84875488281</ele>
        <time>2012-07-25T10:31:43Z</time>
      </trkpt>
      <trkpt lat="49.10506" lon="6.11079">
        <ele>168.36804199219</ele>
        <time>2012-07-25T10:31:52Z</time>
      </trkpt>
      <trkpt lat="49.10561" lon="6.1107">
        <ele>168.36804199219</ele>
        <time>2012-07-25T10:32:01Z</time>
      </trkpt>
      <trkpt lat="49.10614" lon="6.11061">
        <ele>169.32946777344</ele>
        <time>2012-07-25T10:32:10Z</time>
      </trkpt>
      <trkpt lat="49.10634" lon="6.11072">
        <ele>170.29064941406</ele>
        <time>2012-07-25T10:32:14Z</time>
      </trkpt>
      <trkpt lat="49.10643" lon="6.11097">
        <ele>170.29064941406</ele>
        <time>2012-07-25T10:32:17Z</time>
      </trkpt>
      <trkpt lat="49.10655" lon="6.11169">
        <ele>170.77136230469</ele>
        <time>2012-07-25T10:32:25Z</time>
      </trkpt>
      <trkpt lat="49.10661" lon="6.11198">
        <ele>170.29064941406</ele>
        <time>2012-07-25T10:32:30Z</time>
      </trkpt>
      <trkpt lat="49.10667" lon="6.11227">
        <ele>169.81005859375</ele>
        <time>2012-07-25T10:32:36Z</time>
      </trkpt>
      <trkpt lat="49.10672" lon="6.11253">
        <ele>169.32946777344</ele>
        <time>2012-07-25T10:32:43Z</time>
      </trkpt>
      <trkpt lat="49.10679" lon="6.1126">
        <ele>169.32946777344</ele>
        <time>2012-07-25T10:32:47Z</time>
      </trkpt>
      <trkpt lat="49.10683" lon="6.11279">
        <ele>169.32946777344</ele>
        <time>2012-07-25T10:32:53Z</time>
      </trkpt>
      <trkpt lat="49.10689" lon="6.11313">
        <ele>169.81005859375</ele>
        <time>2012-07-25T10:33:00Z</time>
      </trkpt>
      <trkpt lat="49.10696" lon="6.11347">
        <ele>169.32946777344</ele>
        <time>2012-07-25T10:33:07Z</time>
      </trkpt>
      <trkpt lat="49.10705" lon="6.11385">
        <ele>169.32946777344</ele>
        <time>2012-07-25T10:33:15Z</time>
      </trkpt>
      <trkpt lat="49.10707" lon="6.11399">
        <ele>168.84875488281</ele>
        <time>2012-07-25T10:33:20Z</time>
      </trkpt>
      <trkpt lat="49.10716" lon="6.11439">
        <ele>168.84875488281</ele>
        <time>2012-07-25T10:33:28Z</time>
      </trkpt>
      <trkpt lat="49.10718" lon="6.11466">
        <ele>168.84875488281</ele>
        <time>2012-07-25T10:33:34Z</time>
      </trkpt>
      <trkpt lat="49.10725" lon="6.11487">
        <ele>169.32946777344</ele>
        <time>2012-07-25T10:33:40Z</time>
      </trkpt>
      <trkpt lat="49.1073" lon="6.11496">
        <ele>168.84875488281</ele>
        <time>2012-07-25T10:33:46Z</time>
      </trkpt>
      <trkpt lat="49.1073" lon="6.115">
        <ele>169.32946777344</ele>
        <time>2012-07-25T10:33:51Z</time>
      </trkpt>
      <trkpt lat="49.10729" lon="6.11503">
        <ele>169.32946777344</ele>
        <time>2012-07-25T10:33:58Z</time>
      </trkpt>
      <trkpt lat="49.10733" lon="6.11521">
        <ele>169.81005859375</ele>
        <time>2012-07-25T10:34:02Z</time>
      </trkpt>
      <trkpt lat="49.10743" lon="6.11564">
        <ele>169.32946777344</ele>
        <time>2012-07-25T10:34:11Z</time>
      </trkpt>
      <trkpt lat="49.1075" lon="6.11607">
        <ele>168.84875488281</ele>
        <time>2012-07-25T10:34:20Z</time>
      </trkpt>
      <trkpt lat="49.10755" lon="6.11638">
        <ele>168.84875488281</ele>
        <time>2012-07-25T10:34:28Z</time>
      </trkpt>
      <trkpt lat="49.10759" lon="6.11658">
        <ele>169.32946777344</ele>
        <time>2012-07-25T10:34:34Z</time>
      </trkpt>
      <trkpt lat="49.10759" lon="6.11667">
        <ele>168.84875488281</ele>
        <time>2012-07-25T10:34:39Z</time>
      </trkpt>
      <trkpt lat="49.10759" lon="6.11667">
        <ele>168.84875488281</ele>
        <time>2012-07-25T10:34:40Z</time>
      </trkpt>
      <trkpt lat="49.10759" lon="6.11668">
        <ele>168.36804199219</ele>
        <time>2012-07-25T10:34:50Z</time>
      </trkpt>
      <trkpt lat="49.10756" lon="6.11684">
        <ele>168.84875488281</ele>
        <time>2012-07-25T10:34:54Z</time>
      </trkpt>
      <trkpt lat="49.10756" lon="6.1169">
        <ele>168.84875488281</ele>
        <time>2012-07-25T10:34:55Z</time>
      </trkpt>
      <trkpt lat="49.10768" lon="6.11743">
        <ele>169.32946777344</ele>
        <time>2012-07-25T10:35:03Z</time>
      </trkpt>
      <trkpt lat="49.10769" lon="6.11749">
        <ele>169.32946777344</ele>
        <time>2012-07-25T10:35:04Z</time>
      </trkpt>
      <trkpt lat="49.10767" lon="6.1176">
        <ele>168.84875488281</ele>
        <time>2012-07-25T10:35:07Z</time>
      </trkpt>
      <trkpt lat="49.10771" lon="6.11783">
        <ele>168.84875488281</ele>
        <time>2012-07-25T10:35:12Z</time>
      </trkpt>
      <trkpt lat="49.1078" lon="6.11833">
        <ele>169.32946777344</ele>
        <time>2012-07-25T10:35:20Z</time>
      </trkpt>
      <trkpt lat="49.10785" lon="6.1186">
        <ele>169.32946777344</ele>
        <time>2012-07-25T10:35:25Z</time>
      </trkpt>
      <trkpt lat="49.10796" lon="6.11911">
        <ele>168.84875488281</ele>
        <time>2012-07-25T10:35:34Z</time>
      </trkpt>
      <trkpt lat="49.10801" lon="6.11936">
        <ele>167.88732910156</ele>
        <time>2012-07-25T10:35:40Z</time>
      </trkpt>
      <trkpt lat="49.10804" lon="6.11939">
        <ele>167.88732910156</ele>
        <time>2012-07-25T10:35:44Z</time>
      </trkpt>
      <trkpt lat="49.10804" lon="6.1194">
        <ele>167.88732910156</ele>
        <time>2012-07-25T10:35:48Z</time>
      </trkpt>
      <trkpt lat="49.10809" lon="6.11951">
        <ele>168.36804199219</ele>
        <time>2012-07-25T10:35:51Z</time>
      </trkpt>
      <trkpt lat="49.1081" lon="6.11956">
        <ele>168.84875488281</ele>
        <time>2012-07-25T10:35:52Z</time>
      </trkpt>
      <trkpt lat="49.10819" lon="6.12">
        <ele>168.36804199219</ele>
        <time>2012-07-25T10:35:59Z</time>
      </trkpt>
      <trkpt lat="49.10832" lon="6.12066">
        <ele>168.36804199219</ele>
        <time>2012-07-25T10:36:07Z</time>
      </trkpt>
      <trkpt lat="49.10844" lon="6.12124">
        <ele>169.81005859375</ele>
        <time>2012-07-25T10:36:14Z</time>
      </trkpt>
      <trkpt lat="49.10855" lon="6.1218">
        <ele>169.32946777344</ele>
        <time>2012-07-25T10:36:21Z</time>
      </trkpt>
      <trkpt lat="49.10867" lon="6.12235">
        <ele>168.84875488281</ele>
        <time>2012-07-25T10:36:28Z</time>
      </trkpt>
      <trkpt lat="49.1088" lon="6.12291">
        <ele>169.32946777344</ele>
        <time>2012-07-25T10:36:35Z</time>
      </trkpt>
      <trkpt lat="49.10892" lon="6.1234">
        <ele>169.81005859375</ele>
        <time>2012-07-25T10:36:41Z</time>
      </trkpt>
      <trkpt lat="49.10904" lon="6.12398">
        <ele>168.36804199219</ele>
        <time>2012-07-25T10:36:48Z</time>
      </trkpt>
      <trkpt lat="49.10918" lon="6.12458">
        <ele>169.32946777344</ele>
        <time>2012-07-25T10:36:55Z</time>
      </trkpt>
      <trkpt lat="49.10932" lon="6.12521">
        <ele>169.81005859375</ele>
        <time>2012-07-25T10:37:02Z</time>
      </trkpt>
      <trkpt lat="49.10949" lon="6.12584">
        <ele>169.81005859375</ele>
        <time>2012-07-25T10:37:09Z</time>
      </trkpt>
      <trkpt lat="49.10973" lon="6.1266">
        <ele>168.84875488281</ele>
        <time>2012-07-25T10:37:18Z</time>
      </trkpt>
      <trkpt lat="49.10995" lon="6.12727">
        <ele>170.77136230469</ele>
        <time>2012-07-25T10:37:26Z</time>
      </trkpt>
      <trkpt lat="49.1102" lon="6.12801">
        <ele>171.25207519531</ele>
        <time>2012-07-25T10:37:35Z</time>
      </trkpt>
      <trkpt lat="49.11036" lon="6.12852">
        <ele>169.81005859375</ele>
        <time>2012-07-25T10:37:41Z</time>
      </trkpt>
      <trkpt lat="49.11056" lon="6.1291">
        <ele>168.84875488281</ele>
        <time>2012-07-25T10:37:48Z</time>
      </trkpt>
      <trkpt lat="49.1108" lon="6.1298">
        <ele>168.36804199219</ele>
        <time>2012-07-25T10:37:56Z</time>
      </trkpt>
      <trkpt lat="49.11109" lon="6.13059">
        <ele>168.84875488281</ele>
        <time>2012-07-25T10:38:05Z</time>
      </trkpt>
      <trkpt lat="49.11131" lon="6.13122">
        <ele>169.32946777344</ele>
        <time>2012-07-25T10:38:12Z</time>
      </trkpt>
      <trkpt lat="49.11149" lon="6.13174">
        <ele>167.88732910156</ele>
        <time>2012-07-25T10:38:18Z</time>
      </trkpt>
      <trkpt lat="49.11175" lon="6.13243">
        <ele>167.88732910156</ele>
        <time>2012-07-25T10:38:26Z</time>
      </trkpt>
      <trkpt lat="49.11195" lon="6.13302">
        <ele>167.40673828125</ele>
        <time>2012-07-25T10:38:33Z</time>
      </trkpt>
      <trkpt lat="49.11211" lon="6.13348">
        <ele>167.40673828125</ele>
        <time>2012-07-25T10:38:39Z</time>
      </trkpt>
      <trkpt lat="49.11223" lon="6.13375">
        <ele>167.40673828125</ele>
        <time>2012-07-25T10:38:44Z</time>
      </trkpt>
      <trkpt lat="49.11229" lon="6.13392">
        <ele>167.40673828125</ele>
        <time>2012-07-25T10:38:49Z</time>
      </trkpt>
      <trkpt lat="49.11229" lon="6.13392">
        <ele>167.40673828125</ele>
        <time>2012-07-25T10:38:51Z</time>
      </trkpt>
      <trkpt lat="49.11229" lon="6.13393">
        <ele>166.92602539062</ele>
        <time>2012-07-25T10:38:56Z</time>
      </trkpt>
      <trkpt lat="49.11233" lon="6.13405">
        <ele>167.40673828125</ele>
        <time>2012-07-25T10:38:59Z</time>
      </trkpt>
      <trkpt lat="49.11242" lon="6.13431">
        <ele>167.40673828125</ele>
        <time>2012-07-25T10:39:04Z</time>
      </trkpt>
      <trkpt lat="49.11258" lon="6.13476">
        <ele>167.40673828125</ele>
        <time>2012-07-25T10:39:11Z</time>
      </trkpt>
      <trkpt lat="49.11279" lon="6.13528">
        <ele>167.88732910156</ele>
        <time>2012-07-25T10:39:18Z</time>
      </trkpt>
      <trkpt lat="49.1129" lon="6.13566">
        <ele>168.84875488281</ele>
        <time>2012-07-25T10:39:23Z</time>
      </trkpt>
      <trkpt lat="49.11311" lon="6.13627">
        <ele>168.84875488281</ele>
        <time>2012-07-25T10:39:31Z</time>
      </trkpt>
      <trkpt lat="49.11332" lon="6.13678">
        <ele>168.36804199219</ele>
        <time>2012-07-25T10:39:38Z</time>
      </trkpt>
      <trkpt lat="49.11338" lon="6.13695">
        <ele>168.36804199219</ele>
        <time>2012-07-25T10:39:40Z</time>
      </trkpt>
      <trkpt lat="49.11358" lon="6.13746">
        <ele>167.88732910156</ele>
        <time>2012-07-25T10:39:47Z</time>
      </trkpt>
      <trkpt lat="49.1138" lon="6.13802">
        <ele>167.40673828125</ele>
        <time>2012-07-25T10:39:55Z</time>
      </trkpt>
      <trkpt lat="49.11385" lon="6.13816">
        <ele>166.92602539062</ele>
        <time>2012-07-25T10:39:57Z</time>
      </trkpt>
      <trkpt lat="49.11394" lon="6.13834">
        <ele>166.92602539062</ele>
        <time>2012-07-25T10:40:02Z</time>
      </trkpt>
      <trkpt lat="49.11394" lon="6.13849">
        <ele>166.92602539062</ele>
        <time>2012-07-25T10:40:07Z</time>
      </trkpt>
      <trkpt lat="49.11397" lon="6.13858">
        <ele>166.92602539062</ele>
        <time>2012-07-25T10:40:10Z</time>
      </trkpt>
      <trkpt lat="49.11403" lon="6.13856">
        <ele>166.92602539062</ele>
        <time>2012-07-25T10:40:14Z</time>
      </trkpt>
      <trkpt lat="49.11411" lon="6.13849">
        <ele>166.92602539062</ele>
        <time>2012-07-25T10:40:20Z</time>
      </trkpt>
      <trkpt lat="49.11411" lon="6.13849">
        <ele>167.40673828125</ele>
        <time>2012-07-25T10:40:21Z</time>
      </trkpt>
      <trkpt lat="49.1142" lon="6.13846">
        <ele>167.40673828125</ele>
        <time>2012-07-25T10:40:34Z</time>
      </trkpt>
      <trkpt lat="49.1142" lon="6.13844">
        <ele>166.92602539062</ele>
        <time>2012-07-25T10:40:36Z</time>
      </trkpt>
      <trkpt lat="49.1142" lon="6.13843">
        <ele>167.40673828125</ele>
        <time>2012-07-25T10:40:37Z</time>
      </trkpt>
      <trkpt lat="49.1142" lon="6.13842">
        <ele>167.40673828125</ele>
        <time>2012-07-25T10:40:40Z</time>
      </trkpt>
      <trkpt lat="49.1142" lon="6.13841">
        <ele>167.40673828125</ele>
        <time>2012-07-25T10:40:41Z</time>
      </trkpt>
      <trkpt lat="49.1142" lon="6.13842">
        <ele>167.40673828125</ele>
        <time>2012-07-25T10:40:44Z</time>
      </trkpt>
      <trkpt lat="49.11422" lon="6.13842">
        <ele>167.88732910156</ele>
        <time>2012-07-25T10:40:45Z</time>
      </trkpt>
      <trkpt lat="49.11422" lon="6.13843">
        <ele>166.92602539062</ele>
        <time>2012-07-25T10:40:46Z</time>
      </trkpt>
      <trkpt lat="49.11423" lon="6.13851">
        <ele>167.40673828125</ele>
        <time>2012-07-25T10:40:53Z</time>
      </trkpt>
      <trkpt lat="49.11422" lon="6.13855">
        <ele>167.40673828125</ele>
        <time>2012-07-25T10:40:55Z</time>
      </trkpt>
      <trkpt lat="49.11421" lon="6.13856">
        <ele>167.88732910156</ele>
        <time>2012-07-25T10:40:58Z</time>
      </trkpt>
      <trkpt lat="49.1142" lon="6.13858">
        <ele>167.40673828125</ele>
        <time>2012-07-25T10:40:59Z</time>
      </trkpt>
      <trkpt lat="49.11417" lon="6.13861">
        <ele>167.40673828125</ele>
        <time>2012-07-25T10:41:03Z</time>
      </trkpt>
      <trkpt lat="49.11415" lon="6.13862">
        <ele>167.40673828125</ele>
        <time>2012-07-25T10:41:04Z</time>
      </trkpt>
      <trkpt lat="49.11417" lon="6.13862">
        <ele>167.88732910156</ele>
        <time>2012-07-25T10:41:07Z</time>
      </trkpt>
      <trkpt lat="49.11419" lon="6.13859">
        <ele>167.40673828125</ele>
        <time>2012-07-25T10:41:22Z</time>
      </trkpt>
      <trkpt lat="49.11419" lon="6.13859">
        <ele>167.88732910156</ele>
        <time>2012-07-25T10:41:24Z</time>
      </trkpt>
      <trkpt lat="49.11418" lon="6.1386">
        <ele>168.84875488281</ele>
        <time>2012-07-25T10:41:57Z</time>
      </trkpt>
      <trkpt lat="49.11418" lon="6.1386">
        <ele>168.84875488281</ele>
        <time>2012-07-25T10:41:58Z</time>
      </trkpt>
      <trkpt lat="49.11427" lon="6.13856">
        <ele>170.29064941406</ele>
        <time>2012-07-25T10:43:28Z</time>
      </trkpt>
      <trkpt lat="49.11427" lon="6.13855">
        <ele>170.29064941406</ele>
        <time>2012-07-25T10:43:29Z</time>
      </trkpt>
      <trkpt lat="49.11428" lon="6.13854">
        <ele>170.29064941406</ele>
        <time>2012-07-25T10:43:30Z</time>
      </trkpt>
      <trkpt lat="49.1143" lon="6.13853">
        <ele>169.81005859375</ele>
        <time>2012-07-25T10:43:34Z</time>
      </trkpt>
      <trkpt lat="49.11432" lon="6.13851">
        <ele>169.81005859375</ele>
        <time>2012-07-25T10:43:36Z</time>
      </trkpt>
      <trkpt lat="49.11426" lon="6.13861">
        <ele>170.29064941406</ele>
        <time>2012-07-25T10:44:27Z</time>
      </trkpt>
      <trkpt lat="49.11427" lon="6.13859">
        <ele>170.29064941406</ele>
        <time>2012-07-25T10:44:28Z</time>
      </trkpt>
      <trkpt lat="49.11428" lon="6.13859">
        <ele>169.32946777344</ele>
        <time>2012-07-25T10:44:31Z</time>
      </trkpt>
      <trkpt lat="49.11432" lon="6.13854">
        <ele>169.81005859375</ele>
        <time>2012-07-25T10:44:34Z</time>
      </trkpt>
      <trkpt lat="49.1144" lon="6.13845">
        <ele>170.77136230469</ele>
        <time>2012-07-25T10:44:42Z</time>
      </trkpt>
      <trkpt lat="49.1144" lon="6.13844">
        <ele>171.25207519531</ele>
        <time>2012-07-25T10:44:47Z</time>
      </trkpt>
      <trkpt lat="49.11438" lon="6.13854">
        <ele>173.17468261719</ele>
        <time>2012-07-25T10:46:29Z</time>
      </trkpt>
      <trkpt lat="49.11438" lon="6.13856">
        <ele>173.17468261719</ele>
        <time>2012-07-25T10:46:30Z</time>
      </trkpt>
      <trkpt lat="49.11438" lon="6.13856">
        <ele>173.17468261719</ele>
        <time>2012-07-25T10:46:31Z</time>
      </trkpt>
      <trkpt lat="49.11438" lon="6.13848">
        <ele>174.61657714844</ele>
        <time>2012-07-25T10:49:13Z</time>
      </trkpt>
      <trkpt lat="49.11438" lon="6.13848">
        <ele>174.61657714844</ele>
        <time>2012-07-25T10:49:14Z</time>
      </trkpt>
      <trkpt lat="49.11438" lon="6.13848">
        <ele>174.13586425781</ele>
        <time>2012-07-25T10:49:15Z</time>
      </trkpt>
      <trkpt lat="49.11435" lon="6.13853">
        <ele>174.61657714844</ele>
        <time>2012-07-25T10:49:25Z</time>
      </trkpt>
      <trkpt lat="49.11435" lon="6.13853">
        <ele>175.09729003906</ele>
        <time>2012-07-25T10:49:26Z</time>
      </trkpt>
      <trkpt lat="49.11434" lon="6.13853">
        <ele>175.09729003906</ele>
        <time>2012-07-25T10:49:27Z</time>
      </trkpt>
      <trkpt lat="49.11435" lon="6.1385">
        <ele>174.61657714844</ele>
        <time>2012-07-25T10:49:30Z</time>
      </trkpt>
      <trkpt lat="49.11435" lon="6.13851">
        <ele>174.61657714844</ele>
        <time>2012-07-25T10:49:31Z</time>
      </trkpt>
      <trkpt lat="49.11434" lon="6.13852">
        <ele>175.09729003906</ele>
        <time>2012-07-25T10:49:34Z</time>
      </trkpt>
      <trkpt lat="49.11434" lon="6.13853">
        <ele>175.09729003906</ele>
        <time>2012-07-25T10:49:35Z</time>
      </trkpt>
      <trkpt lat="49.11428" lon="6.13847">
        <ele>175.09729003906</ele>
        <time>2012-07-25T10:50:32Z</time>
      </trkpt>
      <trkpt lat="49.11428" lon="6.13849">
        <ele>175.57788085938</ele>
        <time>2012-07-25T10:50:33Z</time>
      </trkpt>
      <trkpt lat="49.11429" lon="6.13851">
        <ele>176.53930664062</ele>
        <time>2012-07-25T10:50:54Z</time>
      </trkpt>
      <trkpt lat="49.11429" lon="6.13851">
        <ele>176.53930664062</ele>
        <time>2012-07-25T10:50:55Z</time>
      </trkpt>
      <trkpt lat="49.1143" lon="6.13851">
        <ele>175.57788085938</ele>
        <time>2012-07-25T10:50:56Z</time>
      </trkpt>
      <trkpt lat="49.11428" lon="6.13849">
        <ele>176.53930664062</ele>
        <time>2012-07-25T10:51:02Z</time>
      </trkpt>
      <trkpt lat="49.11428" lon="6.13851">
        <ele>176.05859375</ele>
        <time>2012-07-25T10:51:03Z</time>
      </trkpt>
      <trkpt lat="49.11426" lon="6.13853">
        <ele>176.05859375</ele>
        <time>2012-07-25T10:51:26Z</time>
      </trkpt>
      <trkpt lat="49.11426" lon="6.1385">
        <ele>176.05859375</ele>
        <time>2012-07-25T10:51:28Z</time>
      </trkpt>
      <trkpt lat="49.11424" lon="6.13849">
        <ele>176.05859375</ele>
        <time>2012-07-25T10:51:31Z</time>
      </trkpt>
      <trkpt lat="49.11424" lon="6.13849">
        <ele>176.05859375</ele>
        <time>2012-07-25T10:51:32Z</time>
      </trkpt>
      <trkpt lat="49.11424" lon="6.13849">
        <ele>176.05859375</ele>
        <time>2012-07-25T10:51:33Z</time>
      </trkpt>
      <trkpt lat="49.11424" lon="6.13849">
        <ele>175.57788085938</ele>
        <time>2012-07-25T10:51:36Z</time>
      </trkpt>
      <trkpt lat="49.11423" lon="6.13855">
        <ele>176.05859375</ele>
        <time>2012-07-25T10:51:37Z</time>
      </trkpt>
      <trkpt lat="49.11422" lon="6.13855">
        <ele>176.05859375</ele>
        <time>2012-07-25T10:51:38Z</time>
      </trkpt>
      <trkpt lat="49.11422" lon="6.13854">
        <ele>176.53930664062</ele>
        <time>2012-07-25T10:51:41Z</time>
      </trkpt>
      <trkpt lat="49.11423" lon="6.13847">
        <ele>176.05859375</ele>
        <time>2012-07-25T10:51:44Z</time>
      </trkpt>
      <trkpt lat="49.11423" lon="6.13848">
        <ele>176.05859375</ele>
        <time>2012-07-25T10:51:48Z</time>
      </trkpt>
      <trkpt lat="49.11423" lon="6.13849">
        <ele>175.57788085938</ele>
        <time>2012-07-25T10:51:49Z</time>
      </trkpt>
      <trkpt lat="49.11424" lon="6.13848">
        <ele>176.05859375</ele>
        <time>2012-07-25T10:51:52Z</time>
      </trkpt>
      <trkpt lat="49.11424" lon="6.13849">
        <ele>176.05859375</ele>
        <time>2012-07-25T10:51:53Z</time>
      </trkpt>
      <trkpt lat="49.11425" lon="6.1385">
        <ele>176.05859375</ele>
        <time>2012-07-25T10:51:55Z</time>
      </trkpt>
      <trkpt lat="49.11422" lon="6.13863">
        <ele>176.05859375</ele>
        <time>2012-07-25T10:52:12Z</time>
      </trkpt>
      <trkpt lat="49.11428" lon="6.13857">
        <ele>176.05859375</ele>
        <time>2012-07-25T10:52:18Z</time>
      </trkpt>
      <trkpt lat="49.11433" lon="6.13859">
        <ele>176.53930664062</ele>
        <time>2012-07-25T10:52:24Z</time>
      </trkpt>
      <trkpt lat="49.11431" lon="6.13857">
        <ele>178.94262695312</ele>
        <time>2012-07-25T10:53:11Z</time>
      </trkpt>
      <trkpt lat="49.11431" lon="6.13856">
        <ele>178.94262695312</ele>
        <time>2012-07-25T10:53:12Z</time>
      </trkpt>
      <trkpt lat="49.11432" lon="6.13854">
        <ele>178.94262695312</ele>
        <time>2012-07-25T10:53:13Z</time>
      </trkpt>
      <trkpt lat="49.11427" lon="6.13864">
        <ele>178.94262695312</ele>
        <time>2012-07-25T10:53:51Z</time>
      </trkpt>
      <trkpt lat="49.11427" lon="6.13868">
        <ele>178.94262695312</ele>
        <time>2012-07-25T10:53:54Z</time>
      </trkpt>
      <trkpt lat="49.11435" lon="6.13863">
        <ele>182.30712890625</ele>
        <time>2012-07-25T10:56:53Z</time>
      </trkpt>
      <trkpt lat="49.11435" lon="6.13861">
        <ele>182.30712890625</ele>
        <time>2012-07-25T10:56:54Z</time>
      </trkpt>
      <trkpt lat="49.11435" lon="6.1386">
        <ele>182.30712890625</ele>
        <time>2012-07-25T10:56:55Z</time>
      </trkpt>
      <trkpt lat="49.11433" lon="6.1386">
        <ele>181.82641601562</ele>
        <time>2012-07-25T10:57:30Z</time>
      </trkpt>
      <trkpt lat="49.11432" lon="6.13859">
        <ele>182.30712890625</ele>
        <time>2012-07-25T10:57:31Z</time>
      </trkpt>
      <trkpt lat="49.11431" lon="6.13859">
        <ele>181.82641601562</ele>
        <time>2012-07-25T10:57:35Z</time>
      </trkpt>
      <trkpt lat="49.1143" lon="6.13858">
        <ele>181.82641601562</ele>
        <time>2012-07-25T10:57:36Z</time>
      </trkpt>
      <trkpt lat="49.11423" lon="6.13856">
        <ele>182.78784179688</ele>
        <time>2012-07-25T11:00:53Z</time>
      </trkpt>
      <trkpt lat="49.11423" lon="6.13856">
        <ele>182.30712890625</ele>
        <time>2012-07-25T11:00:54Z</time>
      </trkpt>
      <trkpt lat="49.11423" lon="6.13856">
        <ele>182.30712890625</ele>
        <time>2012-07-25T11:00:55Z</time>
      </trkpt>
      <trkpt lat="49.11425" lon="6.13856">
        <ele>182.78784179688</ele>
        <time>2012-07-25T11:01:01Z</time>
      </trkpt>
      <trkpt lat="49.11425" lon="6.13856">
        <ele>182.30712890625</ele>
        <time>2012-07-25T11:01:02Z</time>
      </trkpt>
      <trkpt lat="49.11424" lon="6.13852">
        <ele>183.26843261719</ele>
        <time>2012-07-25T11:01:27Z</time>
      </trkpt>
      <trkpt lat="49.11416" lon="6.13861">
        <ele>182.78784179688</ele>
        <time>2012-07-25T11:01:32Z</time>
      </trkpt>
      <trkpt lat="49.11401" lon="6.13859">
        <ele>182.30712890625</ele>
        <time>2012-07-25T11:01:38Z</time>
      </trkpt>
      <trkpt lat="49.11396" lon="6.13856">
        <ele>183.26843261719</ele>
        <time>2012-07-25T11:02:15Z</time>
      </trkpt>
      <trkpt lat="49.11394" lon="6.13857">
        <ele>183.26843261719</ele>
        <time>2012-07-25T11:02:16Z</time>
      </trkpt>
      <trkpt lat="49.1139" lon="6.1386">
        <ele>183.26843261719</ele>
        <time>2012-07-25T11:02:17Z</time>
      </trkpt>
      <trkpt lat="49.11394" lon="6.1387">
        <ele>182.78784179688</ele>
        <time>2012-07-25T11:02:21Z</time>
      </trkpt>
      <trkpt lat="49.11398" lon="6.13884">
        <ele>183.26843261719</ele>
        <time>2012-07-25T11:02:28Z</time>
      </trkpt>
      <trkpt lat="49.11399" lon="6.13884">
        <ele>183.26843261719</ele>
        <time>2012-07-25T11:02:29Z</time>
      </trkpt>
      <trkpt lat="49.11401" lon="6.13886">
        <ele>183.26843261719</ele>
        <time>2012-07-25T11:02:34Z</time>
      </trkpt>
      <trkpt lat="49.11406" lon="6.13901">
        <ele>182.78784179688</ele>
        <time>2012-07-25T11:02:39Z</time>
      </trkpt>
      <trkpt lat="49.11415" lon="6.13925">
        <ele>182.78784179688</ele>
        <time>2012-07-25T11:02:46Z</time>
      </trkpt>
      <trkpt lat="49.11418" lon="6.13939">
        <ele>182.78784179688</ele>
        <time>2012-07-25T11:02:50Z</time>
      </trkpt>
      <trkpt lat="49.11418" lon="6.13946">
        <ele>182.30712890625</ele>
        <time>2012-07-25T11:02:52Z</time>
      </trkpt>
      <trkpt lat="49.11423" lon="6.13949">
        <ele>182.78784179688</ele>
        <time>2012-07-25T11:02:56Z</time>
      </trkpt>
      <trkpt lat="49.11423" lon="6.13949">
        <ele>182.30712890625</ele>
        <time>2012-07-25T11:02:57Z</time>
      </trkpt>
      <trkpt lat="49.11425" lon="6.13949">
        <ele>182.78784179688</ele>
        <time>2012-07-25T11:03:02Z</time>
      </trkpt>
      <trkpt lat="49.11425" lon="6.13949">
        <ele>182.30712890625</ele>
        <time>2012-07-25T11:03:03Z</time>
      </trkpt>
      <trkpt lat="49.11425" lon="6.1395">
        <ele>182.30712890625</ele>
        <time>2012-07-25T11:03:19Z</time>
      </trkpt>
      <trkpt lat="49.11431" lon="6.13958">
        <ele>182.78784179688</ele>
        <time>2012-07-25T11:03:22Z</time>
      </trkpt>
      <trkpt lat="49.11432" lon="6.13961">
        <ele>182.30712890625</ele>
        <time>2012-07-25T11:03:23Z</time>
      </trkpt>
      <trkpt lat="49.11453" lon="6.13993">
        <ele>182.78784179688</ele>
        <time>2012-07-25T11:03:31Z</time>
      </trkpt>
      <trkpt lat="49.11472" lon="6.1402">
        <ele>183.26843261719</ele>
        <time>2012-07-25T11:03:36Z</time>
      </trkpt>
      <trkpt lat="49.11513" lon="6.14051">
        <ele>182.78784179688</ele>
        <time>2012-07-25T11:03:44Z</time>
      </trkpt>
      <trkpt lat="49.11553" lon="6.14076">
        <ele>182.78784179688</ele>
        <time>2012-07-25T11:03:51Z</time>
      </trkpt>
      <trkpt lat="49.11605" lon="6.14109">
        <ele>182.30712890625</ele>
        <time>2012-07-25T11:04:00Z</time>
      </trkpt>
      <trkpt lat="49.11658" lon="6.14149">
        <ele>182.78784179688</ele>
        <time>2012-07-25T11:04:09Z</time>
      </trkpt>
      <trkpt lat="49.11707" lon="6.14197">
        <ele>182.30712890625</ele>
        <time>2012-07-25T11:04:18Z</time>
      </trkpt>
      <trkpt lat="49.11762" lon="6.14253">
        <ele>182.30712890625</ele>
        <time>2012-07-25T11:04:28Z</time>
      </trkpt>
      <trkpt lat="49.11794" lon="6.14288">
        <ele>183.7490234375</ele>
        <time>2012-07-25T11:04:35Z</time>
      </trkpt>
      <trkpt lat="49.11838" lon="6.14334">
        <ele>185.19116210938</ele>
        <time>2012-07-25T11:04:45Z</time>
      </trkpt>
      <trkpt lat="49.11847" lon="6.14343">
        <ele>186.15246582031</ele>
        <time>2012-07-25T11:04:47Z</time>
      </trkpt>
      <trkpt lat="49.11858" lon="6.14359">
        <ele>186.63317871094</ele>
        <time>2012-07-25T11:04:50Z</time>
      </trkpt>
      <trkpt lat="49.11866" lon="6.14388">
        <ele>187.59436035156</ele>
        <time>2012-07-25T11:04:54Z</time>
      </trkpt>
      <trkpt lat="49.11862" lon="6.14411">
        <ele>188.07507324219</ele>
        <time>2012-07-25T11:04:57Z</time>
      </trkpt>
      <trkpt lat="49.11828" lon="6.145">
        <ele>189.03637695312</ele>
        <time>2012-07-25T11:05:10Z</time>
      </trkpt>
      <trkpt lat="49.11803" lon="6.14566">
        <ele>188.55578613281</ele>
        <time>2012-07-25T11:05:19Z</time>
      </trkpt>
      <trkpt lat="49.1178" lon="6.14628">
        <ele>189.03637695312</ele>
        <time>2012-07-25T11:05:27Z</time>
      </trkpt>
      <trkpt lat="49.11753" lon="6.14698">
        <ele>189.99768066406</ele>
        <time>2012-07-25T11:05:36Z</time>
      </trkpt>
      <trkpt lat="49.11733" lon="6.14751">
        <ele>186.63317871094</ele>
        <time>2012-07-25T11:05:42Z</time>
      </trkpt>
      <trkpt lat="49.1173" lon="6.1476">
        <ele>187.11376953125</ele>
        <time>2012-07-25T11:05:43Z</time>
      </trkpt>
      <trkpt lat="49.11707" lon="6.14824">
        <ele>185.19116210938</ele>
        <time>2012-07-25T11:05:49Z</time>
      </trkpt>
      <trkpt lat="49.11666" lon="6.14926">
        <ele>184.22985839844</ele>
        <time>2012-07-25T11:05:58Z</time>
      </trkpt>
      <trkpt lat="49.11633" lon="6.14999">
        <ele>183.26843261719</ele>
        <time>2012-07-25T11:06:05Z</time>
      </trkpt>
      <trkpt lat="49.11598" lon="6.15078">
        <ele>182.78784179688</ele>
        <time>2012-07-25T11:06:13Z</time>
      </trkpt>
      <trkpt lat="49.11589" lon="6.15098">
        <ele>182.30712890625</ele>
        <time>2012-07-25T11:06:15Z</time>
      </trkpt>
      <trkpt lat="49.11577" lon="6.1514">
        <ele>182.30712890625</ele>
        <time>2012-07-25T11:06:19Z</time>
      </trkpt>
      <trkpt lat="49.11558" lon="6.15185">
        <ele>181.82641601562</ele>
        <time>2012-07-25T11:06:24Z</time>
      </trkpt>
      <trkpt lat="49.11541" lon="6.15222">
        <ele>181.34582519531</ele>
        <time>2012-07-25T11:06:29Z</time>
      </trkpt>
      <trkpt lat="49.11529" lon="6.1525">
        <ele>181.34582519531</ele>
        <time>2012-07-25T11:06:34Z</time>
      </trkpt>
      <trkpt lat="49.11521" lon="6.1526">
        <ele>179.42321777344</ele>
        <time>2012-07-25T11:06:39Z</time>
      </trkpt>
      <trkpt lat="49.11521" lon="6.15259">
        <ele>179.42321777344</ele>
        <time>2012-07-25T11:06:40Z</time>
      </trkpt>
      <trkpt lat="49.11518" lon="6.15259">
        <ele>179.90380859375</ele>
        <time>2012-07-25T11:06:43Z</time>
      </trkpt>
      <trkpt lat="49.11517" lon="6.1526">
        <ele>180.38452148438</ele>
        <time>2012-07-25T11:06:44Z</time>
      </trkpt>
      <trkpt lat="49.11506" lon="6.1528">
        <ele>180.865234375</ele>
        <time>2012-07-25T11:06:48Z</time>
      </trkpt>
      <trkpt lat="49.11492" lon="6.15313">
        <ele>181.82641601562</ele>
        <time>2012-07-25T11:06:53Z</time>
      </trkpt>
      <trkpt lat="49.11478" lon="6.15354">
        <ele>182.78784179688</ele>
        <time>2012-07-25T11:06:58Z</time>
      </trkpt>
      <trkpt lat="49.11461" lon="6.15407">
        <ele>181.82641601562</ele>
        <time>2012-07-25T11:07:04Z</time>
      </trkpt>
      <trkpt lat="49.11454" lon="6.15422">
        <ele>182.78784179688</ele>
        <time>2012-07-25T11:07:06Z</time>
      </trkpt>
      <trkpt lat="49.11432" lon="6.15458">
        <ele>182.30712890625</ele>
        <time>2012-07-25T11:07:11Z</time>
      </trkpt>
      <trkpt lat="49.114" lon="6.15515">
        <ele>182.30712890625</ele>
        <time>2012-07-25T11:07:18Z</time>
      </trkpt>
      <trkpt lat="49.11374" lon="6.15566">
        <ele>181.82641601562</ele>
        <time>2012-07-25T11:07:24Z</time>
      </trkpt>
      <trkpt lat="49.11343" lon="6.15625">
        <ele>181.82641601562</ele>
        <time>2012-07-25T11:07:31Z</time>
      </trkpt>
      <trkpt lat="49.11323" lon="6.15676">
        <ele>182.78784179688</ele>
        <time>2012-07-25T11:07:37Z</time>
      </trkpt>
      <trkpt lat="49.11295" lon="6.15735">
        <ele>182.78784179688</ele>
        <time>2012-07-25T11:07:44Z</time>
      </trkpt>
      <trkpt lat="49.11261" lon="6.15798">
        <ele>183.7490234375</ele>
        <time>2012-07-25T11:07:52Z</time>
      </trkpt>
      <trkpt lat="49.11224" lon="6.1587">
        <ele>183.26843261719</ele>
        <time>2012-07-25T11:08:01Z</time>
      </trkpt>
      <trkpt lat="49.11199" lon="6.15929">
        <ele>182.78784179688</ele>
        <time>2012-07-25T11:08:08Z</time>
      </trkpt>
      <trkpt lat="49.11195" lon="6.1595">
        <ele>182.78784179688</ele>
        <time>2012-07-25T11:08:10Z</time>
      </trkpt>
      <trkpt lat="49.11191" lon="6.1596">
        <ele>183.26843261719</ele>
        <time>2012-07-25T11:08:13Z</time>
      </trkpt>
      <trkpt lat="49.11187" lon="6.15968">
        <ele>183.7490234375</ele>
        <time>2012-07-25T11:08:14Z</time>
      </trkpt>
      <trkpt lat="49.11166" lon="6.16007">
        <ele>183.7490234375</ele>
        <time>2012-07-25T11:08:17Z</time>
      </trkpt>
      <trkpt lat="49.11136" lon="6.16082">
        <ele>184.22985839844</ele>
        <time>2012-07-25T11:08:27Z</time>
      </trkpt>
      <trkpt lat="49.11111" lon="6.16142">
        <ele>185.67175292969</ele>
        <time>2012-07-25T11:08:35Z</time>
      </trkpt>
      <trkpt lat="49.11093" lon="6.16191">
        <ele>186.63317871094</ele>
        <time>2012-07-25T11:08:42Z</time>
      </trkpt>
      <trkpt lat="49.11065" lon="6.16248">
        <ele>188.55578613281</ele>
        <time>2012-07-25T11:08:51Z</time>
      </trkpt>
      <trkpt lat="49.11044" lon="6.16292">
        <ele>189.99768066406</ele>
        <time>2012-07-25T11:08:58Z</time>
      </trkpt>
      <trkpt lat="49.11016" lon="6.16348">
        <ele>190.958984375</ele>
        <time>2012-07-25T11:09:07Z</time>
      </trkpt>
      <trkpt lat="49.11013" lon="6.16354">
        <ele>191.43957519531</ele>
        <time>2012-07-25T11:09:08Z</time>
      </trkpt>
      <trkpt lat="49.11001" lon="6.16366">
        <ele>191.43957519531</ele>
        <time>2012-07-25T11:09:11Z</time>
      </trkpt>
      <trkpt lat="49.10989" lon="6.16389">
        <ele>191.92028808594</ele>
        <time>2012-07-25T11:09:15Z</time>
      </trkpt>
      <trkpt lat="49.10987" lon="6.16393">
        <ele>191.92028808594</ele>
        <time>2012-07-25T11:09:16Z</time>
      </trkpt>
      <trkpt lat="49.10978" lon="6.1642">
        <ele>192.40112304688</ele>
        <time>2012-07-25T11:09:22Z</time>
      </trkpt>
      <trkpt lat="49.10963" lon="6.1645">
        <ele>193.3623046875</ele>
        <time>2012-07-25T11:09:28Z</time>
      </trkpt>
      <trkpt lat="49.10939" lon="6.16483">
        <ele>193.84301757812</ele>
        <time>2012-07-25T11:09:34Z</time>
      </trkpt>
      <trkpt lat="49.10918" lon="6.16525">
        <ele>195.28491210938</ele>
        <time>2012-07-25T11:09:41Z</time>
      </trkpt>
      <trkpt lat="49.10897" lon="6.16566">
        <ele>195.28491210938</ele>
        <time>2012-07-25T11:09:48Z</time>
      </trkpt>
      <trkpt lat="49.10892" lon="6.16579">
        <ele>195.28491210938</ele>
        <time>2012-07-25T11:09:50Z</time>
      </trkpt>
      <trkpt lat="49.1088" lon="6.16632">
        <ele>196.72692871094</ele>
        <time>2012-07-25T11:09:57Z</time>
      </trkpt>
      <trkpt lat="49.10877" lon="6.16637">
        <ele>196.24633789062</ele>
        <time>2012-07-25T11:09:58Z</time>
      </trkpt>
      <trkpt lat="49.10863" lon="6.16635">
        <ele>197.20751953125</ele>
        <time>2012-07-25T11:10:02Z</time>
      </trkpt>
      <trkpt lat="49.10841" lon="6.16616">
        <ele>197.68823242188</ele>
        <time>2012-07-25T11:10:07Z</time>
      </trkpt>
      <trkpt lat="49.10832" lon="6.16609">
        <ele>197.68823242188</ele>
        <time>2012-07-25T11:10:09Z</time>
      </trkpt>
      <trkpt lat="49.10817" lon="6.16601">
        <ele>197.68823242188</ele>
        <time>2012-07-25T11:10:13Z</time>
      </trkpt>
      <trkpt lat="49.10798" lon="6.16616">
        <ele>197.20751953125</ele>
        <time>2012-07-25T11:10:17Z</time>
      </trkpt>
      <trkpt lat="49.10795" lon="6.16624">
        <ele>197.68823242188</ele>
        <time>2012-07-25T11:10:18Z</time>
      </trkpt>
      <trkpt lat="49.10786" lon="6.16637">
        <ele>198.1689453125</ele>
        <time>2012-07-25T11:10:20Z</time>
      </trkpt>
      <trkpt lat="49.1076" lon="6.16655">
        <ele>198.1689453125</ele>
        <time>2012-07-25T11:10:25Z</time>
      </trkpt>
      <trkpt lat="49.10751" lon="6.16664">
        <ele>198.64953613281</ele>
        <time>2012-07-25T11:10:27Z</time>
      </trkpt>
      <trkpt lat="49.10736" lon="6.16695">
        <ele>198.64953613281</ele>
        <time>2012-07-25T11:10:32Z</time>
      </trkpt>
      <trkpt lat="49.1071" lon="6.16727">
        <ele>198.1689453125</ele>
        <time>2012-07-25T11:10:38Z</time>
      </trkpt>
      <trkpt lat="49.10688" lon="6.16743">
        <ele>197.68823242188</ele>
        <time>2012-07-25T11:10:43Z</time>
      </trkpt>
      <trkpt lat="49.10664" lon="6.1676">
        <ele>198.1689453125</ele>
        <time>2012-07-25T11:10:49Z</time>
      </trkpt>
      <trkpt lat="49.1065" lon="6.16771">
        <ele>197.68823242188</ele>
        <time>2012-07-25T11:10:55Z</time>
      </trkpt>
      <trkpt lat="49.10649" lon="6.16774">
        <ele>197.68823242188</ele>
        <time>2012-07-25T11:10:59Z</time>
      </trkpt>
      <trkpt lat="49.10652" lon="6.16772">
        <ele>197.20751953125</ele>
        <time>2012-07-25T11:11:05Z</time>
      </trkpt>
      <trkpt lat="49.10654" lon="6.16772">
        <ele>197.68823242188</ele>
        <time>2012-07-25T11:11:07Z</time>
      </trkpt>
      <trkpt lat="49.10654" lon="6.16769">
        <ele>197.20751953125</ele>
        <time>2012-07-25T11:11:35Z</time>
      </trkpt>
      <trkpt lat="49.10652" lon="6.1677">
        <ele>197.20751953125</ele>
        <time>2012-07-25T11:11:36Z</time>
      </trkpt>
      <trkpt lat="49.10635" lon="6.16771">
        <ele>197.68823242188</ele>
        <time>2012-07-25T11:11:40Z</time>
      </trkpt>
      <trkpt lat="49.10605" lon="6.16738">
        <ele>199.61083984375</ele>
        <time>2012-07-25T11:11:48Z</time>
      </trkpt>
      <trkpt lat="49.10577" lon="6.16706">
        <ele>199.61083984375</ele>
        <time>2012-07-25T11:11:54Z</time>
      </trkpt>
      <trkpt lat="49.10548" lon="6.16673">
        <ele>199.13012695312</ele>
        <time>2012-07-25T11:12:01Z</time>
      </trkpt>
      <trkpt lat="49.10526" lon="6.1665">
        <ele>199.13012695312</ele>
        <time>2012-07-25T11:12:07Z</time>
      </trkpt>
      <trkpt lat="49.10509" lon="6.16632">
        <ele>199.61083984375</ele>
        <time>2012-07-25T11:12:13Z</time>
      </trkpt>
      <trkpt lat="49.10506" lon="6.16629">
        <ele>199.61083984375</ele>
        <time>2012-07-25T11:12:17Z</time>
      </trkpt>
      <trkpt lat="49.10506" lon="6.16629">
        <ele>199.13012695312</ele>
        <time>2012-07-25T11:12:23Z</time>
      </trkpt>
      <trkpt lat="49.10506" lon="6.16629">
        <ele>199.61083984375</ele>
        <time>2012-07-25T11:12:24Z</time>
      </trkpt>
      <trkpt lat="49.10505" lon="6.16628">
        <ele>199.61083984375</ele>
        <time>2012-07-25T11:12:28Z</time>
      </trkpt>
      <trkpt lat="49.10503" lon="6.16625">
        <ele>199.61083984375</ele>
        <time>2012-07-25T11:12:29Z</time>
      </trkpt>
      <trkpt lat="49.1049" lon="6.16615">
        <ele>200.09167480469</ele>
        <time>2012-07-25T11:12:34Z</time>
      </trkpt>
      <trkpt lat="49.10473" lon="6.16606">
        <ele>199.61083984375</ele>
        <time>2012-07-25T11:12:39Z</time>
      </trkpt>
      <trkpt lat="49.10451" lon="6.1659">
        <ele>200.572265625</ele>
        <time>2012-07-25T11:12:44Z</time>
      </trkpt>
      <trkpt lat="49.10425" lon="6.1657">
        <ele>200.09167480469</ele>
        <time>2012-07-25T11:12:49Z</time>
      </trkpt>
      <trkpt lat="49.10382" lon="6.1654">
        <ele>200.09167480469</ele>
        <time>2012-07-25T11:12:55Z</time>
      </trkpt>
      <trkpt lat="49.10346" lon="6.1651">
        <ele>201.05285644531</ele>
        <time>2012-07-25T11:13:02Z</time>
      </trkpt>
      <trkpt lat="49.1031" lon="6.16479">
        <ele>200.09167480469</ele>
        <time>2012-07-25T11:13:09Z</time>
      </trkpt>
      <trkpt lat="49.10279" lon="6.16452">
        <ele>200.572265625</ele>
        <time>2012-07-25T11:13:16Z</time>
      </trkpt>
      <trkpt lat="49.10264" lon="6.16442">
        <ele>199.61083984375</ele>
        <time>2012-07-25T11:13:21Z</time>
      </trkpt>
      <trkpt lat="49.10262" lon="6.16443">
        <ele>200.09167480469</ele>
        <time>2012-07-25T11:13:24Z</time>
      </trkpt>
      <trkpt lat="49.10261" lon="6.16443">
        <ele>199.61083984375</ele>
        <time>2012-07-25T11:13:27Z</time>
      </trkpt>
      <trkpt lat="49.10258" lon="6.16441">
        <ele>199.13012695312</ele>
        <time>2012-07-25T11:13:28Z</time>
      </trkpt>
      <trkpt lat="49.10255" lon="6.16439">
        <ele>200.09167480469</ele>
        <time>2012-07-25T11:13:32Z</time>
      </trkpt>
      <trkpt lat="49.10254" lon="6.16438">
        <ele>199.61083984375</ele>
        <time>2012-07-25T11:13:33Z</time>
      </trkpt>
      <trkpt lat="49.10246" lon="6.16435">
        <ele>199.61083984375</ele>
        <time>2012-07-25T11:13:39Z</time>
      </trkpt>
      <trkpt lat="49.10246" lon="6.16434">
        <ele>199.61083984375</ele>
        <time>2012-07-25T11:13:40Z</time>
      </trkpt>
      <trkpt lat="49.10246" lon="6.16432">
        <ele>200.09167480469</ele>
        <time>2012-07-25T11:13:46Z</time>
      </trkpt>
      <trkpt lat="49.10242" lon="6.16427">
        <ele>200.09167480469</ele>
        <time>2012-07-25T11:13:47Z</time>
      </trkpt>
      <trkpt lat="49.1023" lon="6.16414">
        <ele>200.572265625</ele>
        <time>2012-07-25T11:13:52Z</time>
      </trkpt>
      <trkpt lat="49.10201" lon="6.16392">
        <ele>201.05285644531</ele>
        <time>2012-07-25T11:13:59Z</time>
      </trkpt>
      <trkpt lat="49.10189" lon="6.16382">
        <ele>201.53356933594</ele>
        <time>2012-07-25T11:14:03Z</time>
      </trkpt>
      <trkpt lat="49.10178" lon="6.1637">
        <ele>200.572265625</ele>
        <time>2012-07-25T11:14:07Z</time>
      </trkpt>
      <trkpt lat="49.10146" lon="6.16343">
        <ele>201.53356933594</ele>
        <time>2012-07-25T11:14:12Z</time>
      </trkpt>
      <trkpt lat="49.10106" lon="6.1631">
        <ele>201.53356933594</ele>
        <time>2012-07-25T11:14:19Z</time>
      </trkpt>
      <trkpt lat="49.10067" lon="6.16276">
        <ele>201.53356933594</ele>
        <time>2012-07-25T11:14:27Z</time>
      </trkpt>
      <trkpt lat="49.1005" lon="6.16263">
        <ele>200.572265625</ele>
        <time>2012-07-25T11:14:32Z</time>
      </trkpt>
      <trkpt lat="49.10029" lon="6.16244">
        <ele>201.05285644531</ele>
        <time>2012-07-25T11:14:37Z</time>
      </trkpt>
      <trkpt lat="49.10023" lon="6.16219">
        <ele>201.53356933594</ele>
        <time>2012-07-25T11:14:41Z</time>
      </trkpt>
      <trkpt lat="49.10023" lon="6.16212">
        <ele>201.53356933594</ele>
        <time>2012-07-25T11:14:42Z</time>
      </trkpt>
      <trkpt lat="49.10036" lon="6.1618">
        <ele>200.09167480469</ele>
        <time>2012-07-25T11:14:47Z</time>
      </trkpt>
      <trkpt lat="49.10048" lon="6.16147">
        <ele>200.572265625</ele>
        <time>2012-07-25T11:14:52Z</time>
      </trkpt>
      <trkpt lat="49.10055" lon="6.16121">
        <ele>200.09167480469</ele>
        <time>2012-07-25T11:14:56Z</time>
      </trkpt>
      <trkpt lat="49.10063" lon="6.16092">
        <ele>199.13012695312</ele>
        <time>2012-07-25T11:15:01Z</time>
      </trkpt>
      <trkpt lat="49.10076" lon="6.16055">
        <ele>197.68823242188</ele>
        <time>2012-07-25T11:15:07Z</time>
      </trkpt>
      <trkpt lat="49.10083" lon="6.16033">
        <ele>197.20751953125</ele>
        <time>2012-07-25T11:15:12Z</time>
      </trkpt>
      <trkpt lat="49.10068" lon="6.16018">
        <ele>197.68823242188</ele>
        <time>2012-07-25T11:15:17Z</time>
      </trkpt>
      <trkpt lat="49.10048" lon="6.16">
        <ele>198.64953613281</ele>
        <time>2012-07-25T11:15:22Z</time>
      </trkpt>
      <trkpt lat="49.10012" lon="6.15977">
        <ele>199.61083984375</ele>
        <time>2012-07-25T11:15:30Z</time>
      </trkpt>
      <trkpt lat="49.09973" lon="6.15948">
        <ele>199.61083984375</ele>
        <time>2012-07-25T11:15:38Z</time>
      </trkpt>
      <trkpt lat="49.09945" lon="6.15929">
        <ele>200.09167480469</ele>
        <time>2012-07-25T11:15:44Z</time>
      </trkpt>
      <trkpt lat="49.09919" lon="6.15912">
        <ele>201.05285644531</ele>
        <time>2012-07-25T11:15:50Z</time>
      </trkpt>
      <trkpt lat="49.09905" lon="6.159">
        <ele>201.53356933594</ele>
        <time>2012-07-25T11:15:55Z</time>
      </trkpt>
      <trkpt lat="49.09902" lon="6.15897">
        <ele>202.01428222656</ele>
        <time>2012-07-25T11:15:56Z</time>
      </trkpt>
      <trkpt lat="49.099" lon="6.1588">
        <ele>202.01428222656</ele>
        <time>2012-07-25T11:15:59Z</time>
      </trkpt>
      <trkpt lat="49.09906" lon="6.15848">
        <ele>201.05285644531</ele>
        <time>2012-07-25T11:16:04Z</time>
      </trkpt>
      <trkpt lat="49.09912" lon="6.15831">
        <ele>200.09167480469</ele>
        <time>2012-07-25T11:16:09Z</time>
      </trkpt>
      <trkpt lat="49.09919" lon="6.15807">
        <ele>200.09167480469</ele>
        <time>2012-07-25T11:16:16Z</time>
      </trkpt>
      <trkpt lat="49.09922" lon="6.15792">
        <ele>199.61083984375</ele>
        <time>2012-07-25T11:16:20Z</time>
      </trkpt>
      <trkpt lat="49.09927" lon="6.15795">
        <ele>200.09167480469</ele>
        <time>2012-07-25T11:16:25Z</time>
      </trkpt>
      <trkpt lat="49.09935" lon="6.15801">
        <ele>199.61083984375</ele>
        <time>2012-07-25T11:16:29Z</time>
      </trkpt>
      <trkpt lat="49.09938" lon="6.158">
        <ele>200.09167480469</ele>
        <time>2012-07-25T11:16:34Z</time>
      </trkpt>
      <trkpt lat="49.09938" lon="6.158">
        <ele>200.09167480469</ele>
        <time>2012-07-25T11:16:36Z</time>
      </trkpt>
      <trkpt lat="49.09943" lon="6.15808">
        <ele>201.05285644531</ele>
        <time>2012-07-25T11:16:44Z</time>
      </trkpt>
      <trkpt lat="49.09945" lon="6.15808">
        <ele>200.572265625</ele>
        <time>2012-07-25T11:16:47Z</time>
      </trkpt>
      <trkpt lat="49.09947" lon="6.15806">
        <ele>200.09167480469</ele>
        <time>2012-07-25T11:16:50Z</time>
      </trkpt>
      <trkpt lat="49.09953" lon="6.15811">
        <ele>199.61083984375</ele>
        <time>2012-07-25T11:16:54Z</time>
      </trkpt>
      <trkpt lat="49.09955" lon="6.15812">
        <ele>199.61083984375</ele>
        <time>2012-07-25T11:16:56Z</time>
      </trkpt>
      <trkpt lat="49.09955" lon="6.15814">
        <ele>200.09167480469</ele>
        <time>2012-07-25T11:16:58Z</time>
      </trkpt>
    </trkseg>
  </trk>
</gpx>